<?xml version='1.0' encoding='UTF-8'?><gpx version="1.1" creator="JPX - https://github.com/jenetics/jpx" xmlns="http://www.topografix.com/GPX/1/1"><trk><trkseg><trkpt lat="43.2261087" lon="10.5603961"><ele>7.800000000000001</ele><time>2026-04-19T14:10:48.168Z</time></trkpt><trkpt lat="43.2260929" lon="10.5603079"><ele>7.6000000000000005</ele><time>2026-04-19T14:10:49.169Z</time></trkpt><trkpt lat="43.2260788" lon="10.560217"><ele>7.3999999999999995</ele><time>2026-04-19T14:10:50.149Z</time></trkpt><trkpt lat="43.2260659" lon="10.5600772"><ele>7.199999999999999</ele><time>2026-04-19T14:10:52.141Z</time></trkpt><trkpt lat="43.2261004" lon="10.5599766"><ele>7.0</ele><time>2026-04-19T14:10:54.139Z</time></trkpt><trkpt lat="43.2262165" lon="10.5598765"><ele>7.0</ele><time>2026-04-19T14:10:56.169Z</time></trkpt><trkpt lat="43.2263143" lon="10.5598209"><ele>6.999999999999999</ele><time>2026-04-19T14:10:57.14Z</time></trkpt><trkpt lat="43.2264212" lon="10.559766"><ele>6.999999999999999</ele><time>2026-04-19T14:10:58.165Z</time></trkpt><trkpt lat="43.2265304" lon="10.5597076"><ele>7.0</ele><time>2026-04-19T14:10:59.165Z</time></trkpt><trkpt lat="43.226634" lon="10.5596531"><ele>7.0</ele><time>2026-04-19T14:11:00.133Z</time></trkpt><trkpt lat="43.2267288" lon="10.5596025"><ele>7.0</ele><time>2026-04-19T14:11:01.136Z</time></trkpt><trkpt lat="43.2268178" lon="10.5595493"><ele>7.0</ele><time>2026-04-19T14:11:02.139Z</time></trkpt><trkpt lat="43.2269148" lon="10.5594899"><ele>7.0</ele><time>2026-04-19T14:11:03.137Z</time></trkpt><trkpt lat="43.2270252" lon="10.5594214"><ele>7.0</ele><time>2026-04-19T14:11:04.132Z</time></trkpt><trkpt lat="43.227148" lon="10.5593482"><ele>7.25</ele><time>2026-04-19T14:11:05.135Z</time></trkpt><trkpt lat="43.2272779" lon="10.5592706"><ele>7.5</ele><time>2026-04-19T14:11:06.132Z</time></trkpt><trkpt lat="43.2274108" lon="10.5591913"><ele>7.75</ele><time>2026-04-19T14:11:07.14Z</time></trkpt><trkpt lat="43.2275455" lon="10.5591138"><ele>8.0</ele><time>2026-04-19T14:11:08.134Z</time></trkpt><trkpt lat="43.2276771" lon="10.5590354"><ele>7.75</ele><time>2026-04-19T14:11:09.132Z</time></trkpt><trkpt lat="43.227809" lon="10.5589573"><ele>7.5</ele><time>2026-04-19T14:11:10.131Z</time></trkpt><trkpt lat="43.2279394" lon="10.5588804"><ele>7.25</ele><time>2026-04-19T14:11:11.136Z</time></trkpt><trkpt lat="43.2280692" lon="10.558802"><ele>7.0</ele><time>2026-04-19T14:11:12.134Z</time></trkpt><trkpt lat="43.228201" lon="10.5587215"><ele>6.75</ele><time>2026-04-19T14:11:13.134Z</time></trkpt><trkpt lat="43.2283338" lon="10.5586398"><ele>6.5</ele><time>2026-04-19T14:11:14.137Z</time></trkpt><trkpt lat="43.2284681" lon="10.5585605"><ele>6.25</ele><time>2026-04-19T14:11:15.134Z</time></trkpt><trkpt lat="43.2286051" lon="10.5584816"><ele>6.0</ele><time>2026-04-19T14:11:16.15Z</time></trkpt><trkpt lat="43.2287424" lon="10.5584048"><ele>6.0</ele><time>2026-04-19T14:11:17.134Z</time></trkpt><trkpt lat="43.2288804" lon="10.558333"><ele>6.0</ele><time>2026-04-19T14:11:18.137Z</time></trkpt><trkpt lat="43.229019" lon="10.5582676"><ele>6.0</ele><time>2026-04-19T14:11:19.135Z</time></trkpt><trkpt lat="43.2291588" lon="10.5582034"><ele>6.0</ele><time>2026-04-19T14:11:20.138Z</time></trkpt><trkpt lat="43.2293026" lon="10.5581413"><ele>6.666666666666666</ele><time>2026-04-19T14:11:21.133Z</time></trkpt><trkpt lat="43.2294542" lon="10.5580827"><ele>7.333333333333333</ele><time>2026-04-19T14:11:22.169Z</time></trkpt><trkpt lat="43.2296125" lon="10.5580236"><ele>8.0</ele><time>2026-04-19T14:11:23.133Z</time></trkpt><trkpt lat="43.2297761" lon="10.5579617"><ele>7.666666666666666</ele><time>2026-04-19T14:11:24.162Z</time></trkpt><trkpt lat="43.2299409" lon="10.5578955"><ele>7.333333333333334</ele><time>2026-04-19T14:11:25.163Z</time></trkpt><trkpt lat="43.2301034" lon="10.5578288"><ele>7.0</ele><time>2026-04-19T14:11:26.133Z</time></trkpt><trkpt lat="43.2302642" lon="10.5577635"><ele>7.0</ele><time>2026-04-19T14:11:27.148Z</time></trkpt><trkpt lat="43.2304279" lon="10.5576974"><ele>7.0</ele><time>2026-04-19T14:11:28.14Z</time></trkpt><trkpt lat="43.2306" lon="10.5576229"><ele>7.0</ele><time>2026-04-19T14:11:29.166Z</time></trkpt><trkpt lat="43.2307822" lon="10.557542"><ele>7.333333333333334</ele><time>2026-04-19T14:11:30.131Z</time></trkpt><trkpt lat="43.2309721" lon="10.5574617"><ele>7.666666666666666</ele><time>2026-04-19T14:11:31.132Z</time></trkpt><trkpt lat="43.2311639" lon="10.5573859"><ele>8.0</ele><time>2026-04-19T14:11:32.139Z</time></trkpt><trkpt lat="43.2313533" lon="10.5573119"><ele>8.666666666666666</ele><time>2026-04-19T14:11:33.135Z</time></trkpt><trkpt lat="43.2315394" lon="10.5572372"><ele>9.333333333333334</ele><time>2026-04-19T14:11:34.134Z</time></trkpt><trkpt lat="43.2317207" lon="10.5571648"><ele>10.0</ele><time>2026-04-19T14:11:35.14Z</time></trkpt><trkpt lat="43.2318955" lon="10.5570941"><ele>9.666666666666668</ele><time>2026-04-19T14:11:36.14Z</time></trkpt><trkpt lat="43.2320657" lon="10.5570232"><ele>9.333333333333334</ele><time>2026-04-19T14:11:37.138Z</time></trkpt><trkpt lat="43.2322332" lon="10.5569556"><ele>9.0</ele><time>2026-04-19T14:11:38.136Z</time></trkpt><trkpt lat="43.2323984" lon="10.5568877"><ele>8.666666666666666</ele><time>2026-04-19T14:11:39.135Z</time></trkpt><trkpt lat="43.2325632" lon="10.5568187"><ele>8.333333333333332</ele><time>2026-04-19T14:11:40.148Z</time></trkpt><trkpt lat="43.2327242" lon="10.5567407"><ele>8.0</ele><time>2026-04-19T14:11:41.136Z</time></trkpt><trkpt lat="43.232875" lon="10.5566342"><ele>8.0</ele><time>2026-04-19T14:11:42.144Z</time></trkpt><trkpt lat="43.2330185" lon="10.5564995"><ele>8.0</ele><time>2026-04-19T14:11:43.164Z</time></trkpt><trkpt lat="43.2331532" lon="10.5563482"><ele>8.0</ele><time>2026-04-19T14:11:44.132Z</time></trkpt><trkpt lat="43.2332907" lon="10.5561823"><ele>8.666666666666666</ele><time>2026-04-19T14:11:45.13Z</time></trkpt><trkpt lat="43.2334323" lon="10.5560064"><ele>9.333333333333334</ele><time>2026-04-19T14:11:46.134Z</time></trkpt><trkpt lat="43.2335648" lon="10.5558223"><ele>10.0</ele><time>2026-04-19T14:11:47.135Z</time></trkpt><trkpt lat="43.2337007" lon="10.5556413"><ele>10.0</ele><time>2026-04-19T14:11:48.132Z</time></trkpt><trkpt lat="43.2338555" lon="10.5555008"><ele>10.0</ele><time>2026-04-19T14:11:49.13Z</time></trkpt><trkpt lat="43.2340236" lon="10.5554162"><ele>10.0</ele><time>2026-04-19T14:11:50.166Z</time></trkpt><trkpt lat="43.2342039" lon="10.5553966"><ele>9.333333333333334</ele><time>2026-04-19T14:11:51.146Z</time></trkpt><trkpt lat="43.2343908" lon="10.5553988"><ele>8.666666666666666</ele><time>2026-04-19T14:11:52.134Z</time></trkpt><trkpt lat="43.2345765" lon="10.5554187"><ele>8.0</ele><time>2026-04-19T14:11:53.133Z</time></trkpt><trkpt lat="43.2347573" lon="10.555443"><ele>7.333333333333333</ele><time>2026-04-19T14:11:54.139Z</time></trkpt><trkpt lat="43.2349307" lon="10.5554716"><ele>6.666666666666666</ele><time>2026-04-19T14:11:55.141Z</time></trkpt><trkpt lat="43.2351051" lon="10.5555012"><ele>6.0</ele><time>2026-04-19T14:11:56.129Z</time></trkpt><trkpt lat="43.2352842" lon="10.5555342"><ele>6.0</ele><time>2026-04-19T14:11:57.136Z</time></trkpt><trkpt lat="43.2354623" lon="10.5555515"><ele>6.0</ele><time>2026-04-19T14:11:58.138Z</time></trkpt><trkpt lat="43.2356397" lon="10.5555477"><ele>6.0</ele><time>2026-04-19T14:11:59.165Z</time></trkpt><trkpt lat="43.2358166" lon="10.5555124"><ele>6.333333333333334</ele><time>2026-04-19T14:12:00.169Z</time></trkpt><trkpt lat="43.2359904" lon="10.5554511"><ele>6.666666666666667</ele><time>2026-04-19T14:12:01.141Z</time></trkpt><trkpt lat="43.236163" lon="10.5553745"><ele>7.0</ele><time>2026-04-19T14:12:02.164Z</time></trkpt><trkpt lat="43.2363377" lon="10.5552989"><ele>7.0</ele><time>2026-04-19T14:12:03.162Z</time></trkpt><trkpt lat="43.23651" lon="10.5552223"><ele>7.0</ele><time>2026-04-19T14:12:04.159Z</time></trkpt><trkpt lat="43.2366839" lon="10.5551481"><ele>7.0</ele><time>2026-04-19T14:12:05.136Z</time></trkpt><trkpt lat="43.2368573" lon="10.5550764"><ele>7.0</ele><time>2026-04-19T14:12:06.132Z</time></trkpt><trkpt lat="43.2370297" lon="10.5550079"><ele>7.0</ele><time>2026-04-19T14:12:07.136Z</time></trkpt><trkpt lat="43.2372008" lon="10.5549389"><ele>7.0</ele><time>2026-04-19T14:12:08.137Z</time></trkpt><trkpt lat="43.237368" lon="10.5548633"><ele>7.333333333333334</ele><time>2026-04-19T14:12:09.166Z</time></trkpt><trkpt lat="43.2375296" lon="10.5547748"><ele>7.666666666666666</ele><time>2026-04-19T14:12:10.144Z</time></trkpt><trkpt lat="43.2376863" lon="10.5546705"><ele>8.0</ele><time>2026-04-19T14:12:11.162Z</time></trkpt><trkpt lat="43.2378391" lon="10.5545511"><ele>7.666666666666666</ele><time>2026-04-19T14:12:12.135Z</time></trkpt><trkpt lat="43.2379887" lon="10.5544209"><ele>7.333333333333334</ele><time>2026-04-19T14:12:13.135Z</time></trkpt><trkpt lat="43.238139" lon="10.5542858"><ele>7.0</ele><time>2026-04-19T14:12:14.135Z</time></trkpt><trkpt lat="43.2382905" lon="10.5541571"><ele>6.666666666666667</ele><time>2026-04-19T14:12:15.136Z</time></trkpt><trkpt lat="43.2384431" lon="10.5540357"><ele>6.333333333333334</ele><time>2026-04-19T14:12:16.164Z</time></trkpt><trkpt lat="43.2385971" lon="10.5539165"><ele>6.0</ele><time>2026-04-19T14:12:17.138Z</time></trkpt><trkpt lat="43.2387519" lon="10.5537975"><ele>5.666666666666667</ele><time>2026-04-19T14:12:18.135Z</time></trkpt><trkpt lat="43.2389051" lon="10.553674"><ele>5.333333333333334</ele><time>2026-04-19T14:12:19.131Z</time></trkpt><trkpt lat="43.2390578" lon="10.5535523"><ele>5.0</ele><time>2026-04-19T14:12:20.136Z</time></trkpt><trkpt lat="43.2392124" lon="10.5534376"><ele>4.666666666666667</ele><time>2026-04-19T14:12:21.132Z</time></trkpt><trkpt lat="43.239371" lon="10.5533346"><ele>4.333333333333333</ele><time>2026-04-19T14:12:22.138Z</time></trkpt><trkpt lat="43.2395342" lon="10.5532513"><ele>4.0</ele><time>2026-04-19T14:12:23.134Z</time></trkpt><trkpt lat="43.2397006" lon="10.5531901"><ele>4.333333333333333</ele><time>2026-04-19T14:12:24.138Z</time></trkpt><trkpt lat="43.2398708" lon="10.553141"><ele>4.666666666666667</ele><time>2026-04-19T14:12:25.165Z</time></trkpt><trkpt lat="43.2400433" lon="10.5530921"><ele>5.0</ele><time>2026-04-19T14:12:26.136Z</time></trkpt><trkpt lat="43.2402135" lon="10.5530384"><ele>5.0</ele><time>2026-04-19T14:12:27.163Z</time></trkpt><trkpt lat="43.2403805" lon="10.5529823"><ele>5.0</ele><time>2026-04-19T14:12:28.131Z</time></trkpt><trkpt lat="43.2405464" lon="10.5529237"><ele>5.0</ele><time>2026-04-19T14:12:29.133Z</time></trkpt><trkpt lat="43.2407117" lon="10.5528608"><ele>5.666666666666667</ele><time>2026-04-19T14:12:30.134Z</time></trkpt><trkpt lat="43.2408755" lon="10.5527967"><ele>6.333333333333334</ele><time>2026-04-19T14:12:31.145Z</time></trkpt><trkpt lat="43.2410401" lon="10.5527323"><ele>7.0</ele><time>2026-04-19T14:12:32.132Z</time></trkpt><trkpt lat="43.2412053" lon="10.5526683"><ele>7.0</ele><time>2026-04-19T14:12:33.141Z</time></trkpt><trkpt lat="43.2413716" lon="10.5526079"><ele>7.0</ele><time>2026-04-19T14:12:34.164Z</time></trkpt><trkpt lat="43.2415377" lon="10.5525508"><ele>7.0</ele><time>2026-04-19T14:12:35.134Z</time></trkpt><trkpt lat="43.241708" lon="10.552508"><ele>7.333333333333334</ele><time>2026-04-19T14:12:36.135Z</time></trkpt><trkpt lat="43.241883" lon="10.5524861"><ele>7.666666666666666</ele><time>2026-04-19T14:12:37.144Z</time></trkpt><trkpt lat="43.2420603" lon="10.5524858"><ele>8.0</ele><time>2026-04-19T14:12:38.132Z</time></trkpt><trkpt lat="43.2422406" lon="10.5525037"><ele>8.0</ele><time>2026-04-19T14:12:39.163Z</time></trkpt><trkpt lat="43.2424215" lon="10.5525341"><ele>8.0</ele><time>2026-04-19T14:12:40.136Z</time></trkpt><trkpt lat="43.242603" lon="10.5525801"><ele>8.0</ele><time>2026-04-19T14:12:41.132Z</time></trkpt><trkpt lat="43.2427851" lon="10.552632"><ele>8.0</ele><time>2026-04-19T14:12:42.164Z</time></trkpt><trkpt lat="43.2429619" lon="10.5526808"><ele>8.0</ele><time>2026-04-19T14:12:43.172Z</time></trkpt><trkpt lat="43.2431349" lon="10.5527206"><ele>8.0</ele><time>2026-04-19T14:12:44.144Z</time></trkpt><trkpt lat="43.2433028" lon="10.5527475"><ele>8.0</ele><time>2026-04-19T14:12:45.164Z</time></trkpt><trkpt lat="43.2434677" lon="10.5527519"><ele>8.0</ele><time>2026-04-19T14:12:46.132Z</time></trkpt><trkpt lat="43.2436331" lon="10.5527257"><ele>8.0</ele><time>2026-04-19T14:12:47.162Z</time></trkpt><trkpt lat="43.2438006" lon="10.5526774"><ele>7.666666666666666</ele><time>2026-04-19T14:12:48.135Z</time></trkpt><trkpt lat="43.2439685" lon="10.5526203"><ele>7.333333333333334</ele><time>2026-04-19T14:12:49.166Z</time></trkpt><trkpt lat="43.2441372" lon="10.5525608"><ele>7.0</ele><time>2026-04-19T14:12:50.134Z</time></trkpt><trkpt lat="43.2443072" lon="10.5525105"><ele>7.0</ele><time>2026-04-19T14:12:51.136Z</time></trkpt><trkpt lat="43.2444787" lon="10.552467"><ele>7.0</ele><time>2026-04-19T14:12:52.134Z</time></trkpt><trkpt lat="43.2446532" lon="10.5524266"><ele>7.0</ele><time>2026-04-19T14:12:53.137Z</time></trkpt><trkpt lat="43.2448311" lon="10.5523836"><ele>7.333333333333334</ele><time>2026-04-19T14:12:54.137Z</time></trkpt><trkpt lat="43.2450098" lon="10.5523341"><ele>7.666666666666666</ele><time>2026-04-19T14:12:55.162Z</time></trkpt><trkpt lat="43.2451899" lon="10.5522845"><ele>8.0</ele><time>2026-04-19T14:12:56.138Z</time></trkpt><trkpt lat="43.2453719" lon="10.5522248"><ele>8.0</ele><time>2026-04-19T14:12:57.166Z</time></trkpt><trkpt lat="43.2455513" lon="10.5521533"><ele>8.0</ele><time>2026-04-19T14:12:58.134Z</time></trkpt><trkpt lat="43.2457273" lon="10.5520763"><ele>8.0</ele><time>2026-04-19T14:12:59.135Z</time></trkpt><trkpt lat="43.2459027" lon="10.5519972"><ele>8.333333333333332</ele><time>2026-04-19T14:13:00.133Z</time></trkpt><trkpt lat="43.2460757" lon="10.5519085"><ele>8.666666666666666</ele><time>2026-04-19T14:13:01.137Z</time></trkpt><trkpt lat="43.246247" lon="10.5518186"><ele>9.0</ele><time>2026-04-19T14:13:02.134Z</time></trkpt><trkpt lat="43.246416" lon="10.5517295"><ele>9.0</ele><time>2026-04-19T14:13:03.134Z</time></trkpt><trkpt lat="43.2465809" lon="10.5516394"><ele>9.0</ele><time>2026-04-19T14:13:04.133Z</time></trkpt><trkpt lat="43.2467401" lon="10.5515514"><ele>9.0</ele><time>2026-04-19T14:13:05.164Z</time></trkpt><trkpt lat="43.2468956" lon="10.5514663"><ele>9.0</ele><time>2026-04-19T14:13:06.143Z</time></trkpt><trkpt lat="43.2470416" lon="10.5513912"><ele>9.0</ele><time>2026-04-19T14:13:07.138Z</time></trkpt><trkpt lat="43.2471826" lon="10.5513243"><ele>9.0</ele><time>2026-04-19T14:13:08.136Z</time></trkpt><trkpt lat="43.2473258" lon="10.551257"><ele>9.333333333333334</ele><time>2026-04-19T14:13:09.135Z</time></trkpt><trkpt lat="43.2474722" lon="10.55119"><ele>9.666666666666668</ele><time>2026-04-19T14:13:10.13Z</time></trkpt><trkpt lat="43.2476235" lon="10.5511257"><ele>10.0</ele><time>2026-04-19T14:13:11.133Z</time></trkpt><trkpt lat="43.247779" lon="10.5510619"><ele>10.0</ele><time>2026-04-19T14:13:12.133Z</time></trkpt><trkpt lat="43.2479326" lon="10.5510014"><ele>10.0</ele><time>2026-04-19T14:13:13.132Z</time></trkpt><trkpt lat="43.248082" lon="10.550948"><ele>10.0</ele><time>2026-04-19T14:13:14.139Z</time></trkpt><trkpt lat="43.2482285" lon="10.5508987"><ele>9.75</ele><time>2026-04-19T14:13:15.134Z</time></trkpt><trkpt lat="43.2483713" lon="10.5508537"><ele>9.5</ele><time>2026-04-19T14:13:16.133Z</time></trkpt><trkpt lat="43.248509" lon="10.5508116"><ele>9.25</ele><time>2026-04-19T14:13:17.133Z</time></trkpt><trkpt lat="43.2486442" lon="10.5507744"><ele>9.0</ele><time>2026-04-19T14:13:18.133Z</time></trkpt><trkpt lat="43.2487769" lon="10.5507494"><ele>9.0</ele><time>2026-04-19T14:13:19.132Z</time></trkpt><trkpt lat="43.2489107" lon="10.5507455"><ele>9.0</ele><time>2026-04-19T14:13:20.136Z</time></trkpt><trkpt lat="43.2490449" lon="10.5507502"><ele>9.0</ele><time>2026-04-19T14:13:21.132Z</time></trkpt><trkpt lat="43.2491753" lon="10.5507336"><ele>9.0</ele><time>2026-04-19T14:13:22.164Z</time></trkpt><trkpt lat="43.2493008" lon="10.5506924"><ele>9.0</ele><time>2026-04-19T14:13:23.131Z</time></trkpt><trkpt lat="43.2494204" lon="10.5506303"><ele>9.0</ele><time>2026-04-19T14:13:24.17Z</time></trkpt><trkpt lat="43.249536" lon="10.5505513"><ele>9.0</ele><time>2026-04-19T14:13:25.167Z</time></trkpt><trkpt lat="43.2496483" lon="10.5504813"><ele>9.0</ele><time>2026-04-19T14:13:26.134Z</time></trkpt><trkpt lat="43.2497671" lon="10.5504196"><ele>8.5</ele><time>2026-04-19T14:13:27.133Z</time></trkpt><trkpt lat="43.249893" lon="10.550366"><ele>8.0</ele><time>2026-04-19T14:13:28.136Z</time></trkpt><trkpt lat="43.250025" lon="10.5503155"><ele>7.5</ele><time>2026-04-19T14:13:29.136Z</time></trkpt><trkpt lat="43.2501615" lon="10.5502695"><ele>7.0</ele><time>2026-04-19T14:13:30.139Z</time></trkpt><trkpt lat="43.2502992" lon="10.550228"><ele>7.0</ele><time>2026-04-19T14:13:31.164Z</time></trkpt><trkpt lat="43.2504417" lon="10.5501847"><ele>7.0</ele><time>2026-04-19T14:13:32.169Z</time></trkpt><trkpt lat="43.2505893" lon="10.5501387"><ele>7.0</ele><time>2026-04-19T14:13:33.137Z</time></trkpt><trkpt lat="43.2507382" lon="10.5500913"><ele>7.333333333333334</ele><time>2026-04-19T14:13:34.136Z</time></trkpt><trkpt lat="43.2508889" lon="10.550039"><ele>7.666666666666666</ele><time>2026-04-19T14:13:35.166Z</time></trkpt><trkpt lat="43.2510413" lon="10.549978"><ele>8.0</ele><time>2026-04-19T14:13:36.136Z</time></trkpt><trkpt lat="43.2511955" lon="10.5499174"><ele>8.0</ele><time>2026-04-19T14:13:37.132Z</time></trkpt><trkpt lat="43.2513505" lon="10.5498575"><ele>8.0</ele><time>2026-04-19T14:13:38.166Z</time></trkpt><trkpt lat="43.2515054" lon="10.5497953"><ele>8.0</ele><time>2026-04-19T14:13:39.133Z</time></trkpt><trkpt lat="43.2516562" lon="10.5497277"><ele>7.333333333333333</ele><time>2026-04-19T14:13:40.137Z</time></trkpt><trkpt lat="43.2518031" lon="10.5496589"><ele>6.666666666666666</ele><time>2026-04-19T14:13:41.137Z</time></trkpt><trkpt lat="43.2519516" lon="10.5495956"><ele>6.0</ele><time>2026-04-19T14:13:42.144Z</time></trkpt><trkpt lat="43.2521018" lon="10.5495359"><ele>5.666666666666667</ele><time>2026-04-19T14:13:43.138Z</time></trkpt><trkpt lat="43.2522506" lon="10.5494809"><ele>5.333333333333334</ele><time>2026-04-19T14:13:44.134Z</time></trkpt><trkpt lat="43.252396" lon="10.5494273"><ele>5.0</ele><time>2026-04-19T14:13:45.134Z</time></trkpt><trkpt lat="43.2525401" lon="10.549372"><ele>5.0</ele><time>2026-04-19T14:13:46.135Z</time></trkpt><trkpt lat="43.2526862" lon="10.5493174"><ele>5.0</ele><time>2026-04-19T14:13:47.148Z</time></trkpt><trkpt lat="43.2528358" lon="10.5492623"><ele>5.0</ele><time>2026-04-19T14:13:48.157Z</time></trkpt><trkpt lat="43.2529877" lon="10.5492018"><ele>5.333333333333334</ele><time>2026-04-19T14:13:49.132Z</time></trkpt><trkpt lat="43.2531415" lon="10.5491384"><ele>5.666666666666667</ele><time>2026-04-19T14:13:50.134Z</time></trkpt><trkpt lat="43.2532954" lon="10.5490723"><ele>6.0</ele><time>2026-04-19T14:13:51.133Z</time></trkpt><trkpt lat="43.2534488" lon="10.5489986"><ele>6.0</ele><time>2026-04-19T14:13:52.141Z</time></trkpt><trkpt lat="43.2535975" lon="10.548921"><ele>6.0</ele><time>2026-04-19T14:13:53.144Z</time></trkpt><trkpt lat="43.253742" lon="10.5488439"><ele>6.0</ele><time>2026-04-19T14:13:54.163Z</time></trkpt><trkpt lat="43.2538847" lon="10.5487661"><ele>6.0</ele><time>2026-04-19T14:13:55.139Z</time></trkpt><trkpt lat="43.2540291" lon="10.5486883"><ele>6.0</ele><time>2026-04-19T14:13:56.132Z</time></trkpt><trkpt lat="43.2541768" lon="10.5486136"><ele>6.0</ele><time>2026-04-19T14:13:57.142Z</time></trkpt><trkpt lat="43.2543285" lon="10.5485419"><ele>6.0</ele><time>2026-04-19T14:13:58.165Z</time></trkpt><trkpt lat="43.254484" lon="10.5484763"><ele>6.0</ele><time>2026-04-19T14:13:59.129Z</time></trkpt><trkpt lat="43.2546412" lon="10.548418"><ele>6.0</ele><time>2026-04-19T14:14:00.134Z</time></trkpt><trkpt lat="43.2547993" lon="10.5483683"><ele>6.333333333333334</ele><time>2026-04-19T14:14:01.136Z</time></trkpt><trkpt lat="43.2549559" lon="10.5483244"><ele>6.666666666666667</ele><time>2026-04-19T14:14:02.134Z</time></trkpt><trkpt lat="43.2551123" lon="10.5482804"><ele>7.0</ele><time>2026-04-19T14:14:03.138Z</time></trkpt><trkpt lat="43.2552682" lon="10.5482309"><ele>7.0</ele><time>2026-04-19T14:14:04.134Z</time></trkpt><trkpt lat="43.2554209" lon="10.5481809"><ele>7.0</ele><time>2026-04-19T14:14:05.131Z</time></trkpt><trkpt lat="43.2555747" lon="10.5481244"><ele>7.0</ele><time>2026-04-19T14:14:06.161Z</time></trkpt><trkpt lat="43.2557272" lon="10.5480613"><ele>6.333333333333334</ele><time>2026-04-19T14:14:07.167Z</time></trkpt><trkpt lat="43.2558762" lon="10.5479943"><ele>5.666666666666667</ele><time>2026-04-19T14:14:08.139Z</time></trkpt><trkpt lat="43.2560259" lon="10.5479363"><ele>5.0</ele><time>2026-04-19T14:14:09.155Z</time></trkpt><trkpt lat="43.2561753" lon="10.5478921"><ele>5.0</ele><time>2026-04-19T14:14:10.134Z</time></trkpt><trkpt lat="43.2563263" lon="10.5478587"><ele>5.0</ele><time>2026-04-19T14:14:11.136Z</time></trkpt><trkpt lat="43.2564807" lon="10.5478367"><ele>5.0</ele><time>2026-04-19T14:14:12.139Z</time></trkpt><trkpt lat="43.2566379" lon="10.5478176"><ele>5.0</ele><time>2026-04-19T14:14:13.159Z</time></trkpt><trkpt lat="43.2567975" lon="10.5477998"><ele>5.0</ele><time>2026-04-19T14:14:14.134Z</time></trkpt><trkpt lat="43.2569591" lon="10.5477841"><ele>5.0</ele><time>2026-04-19T14:14:15.179Z</time></trkpt><trkpt lat="43.2571215" lon="10.5477684"><ele>5.333333333333334</ele><time>2026-04-19T14:14:16.142Z</time></trkpt><trkpt lat="43.2572864" lon="10.5477468"><ele>5.666666666666667</ele><time>2026-04-19T14:14:17.149Z</time></trkpt><trkpt lat="43.2574512" lon="10.5477133"><ele>6.0</ele><time>2026-04-19T14:14:18.153Z</time></trkpt><trkpt lat="43.257615" lon="10.5476652"><ele>6.0</ele><time>2026-04-19T14:14:19.138Z</time></trkpt><trkpt lat="43.2577764" lon="10.547603"><ele>6.0</ele><time>2026-04-19T14:14:20.144Z</time></trkpt><trkpt lat="43.2579379" lon="10.5475286"><ele>6.0</ele><time>2026-04-19T14:14:21.18Z</time></trkpt><trkpt lat="43.2580992" lon="10.5474423"><ele>6.0</ele><time>2026-04-19T14:14:22.143Z</time></trkpt><trkpt lat="43.2582631" lon="10.5473526"><ele>6.0</ele><time>2026-04-19T14:14:23.14Z</time></trkpt><trkpt lat="43.2584266" lon="10.5472658"><ele>6.0</ele><time>2026-04-19T14:14:24.147Z</time></trkpt><trkpt lat="43.2585918" lon="10.5471822"><ele>6.0</ele><time>2026-04-19T14:14:25.142Z</time></trkpt><trkpt lat="43.2587573" lon="10.5471023"><ele>6.0</ele><time>2026-04-19T14:14:26.147Z</time></trkpt><trkpt lat="43.2589193" lon="10.5470215"><ele>6.0</ele><time>2026-04-19T14:14:27.14Z</time></trkpt><trkpt lat="43.2590788" lon="10.5469389"><ele>6.0</ele><time>2026-04-19T14:14:28.143Z</time></trkpt><trkpt lat="43.2592373" lon="10.5468599"><ele>6.0</ele><time>2026-04-19T14:14:29.172Z</time></trkpt><trkpt lat="43.2593879" lon="10.5467861"><ele>6.0</ele><time>2026-04-19T14:14:30.18Z</time></trkpt><trkpt lat="43.2595308" lon="10.5467141"><ele>6.0</ele><time>2026-04-19T14:14:31.147Z</time></trkpt><trkpt lat="43.2596692" lon="10.5466441"><ele>6.0</ele><time>2026-04-19T14:14:32.148Z</time></trkpt><trkpt lat="43.2598049" lon="10.5465815"><ele>6.0</ele><time>2026-04-19T14:14:33.169Z</time></trkpt><trkpt lat="43.2599441" lon="10.546524"><ele>6.0</ele><time>2026-04-19T14:14:34.169Z</time></trkpt><trkpt lat="43.2600882" lon="10.5464731"><ele>6.333333333333334</ele><time>2026-04-19T14:14:35.139Z</time></trkpt><trkpt lat="43.2602363" lon="10.5464304"><ele>6.666666666666667</ele><time>2026-04-19T14:14:36.178Z</time></trkpt><trkpt lat="43.2603871" lon="10.5463923"><ele>7.0</ele><time>2026-04-19T14:14:37.154Z</time></trkpt><trkpt lat="43.260539" lon="10.5463567"><ele>7.0</ele><time>2026-04-19T14:14:38.136Z</time></trkpt><trkpt lat="43.2606879" lon="10.5463236"><ele>7.0</ele><time>2026-04-19T14:14:39.149Z</time></trkpt><trkpt lat="43.2608352" lon="10.546292"><ele>7.0</ele><time>2026-04-19T14:14:40.143Z</time></trkpt><trkpt lat="43.2609814" lon="10.5462661"><ele>7.0</ele><time>2026-04-19T14:14:41.172Z</time></trkpt><trkpt lat="43.261122" lon="10.5462501"><ele>7.0</ele><time>2026-04-19T14:14:42.151Z</time></trkpt><trkpt lat="43.2612586" lon="10.5462397"><ele>7.0</ele><time>2026-04-19T14:14:43.138Z</time></trkpt><trkpt lat="43.2613937" lon="10.5462331"><ele>7.0</ele><time>2026-04-19T14:14:44.146Z</time></trkpt><trkpt lat="43.2615314" lon="10.5462298"><ele>7.0</ele><time>2026-04-19T14:14:45.138Z</time></trkpt><trkpt lat="43.2616724" lon="10.5462243"><ele>6.75</ele><time>2026-04-19T14:14:46.18Z</time></trkpt><trkpt lat="43.2618149" lon="10.5462158"><ele>6.5</ele><time>2026-04-19T14:14:47.175Z</time></trkpt><trkpt lat="43.2619574" lon="10.5462069"><ele>6.25</ele><time>2026-04-19T14:14:48.151Z</time></trkpt><trkpt lat="43.2621001" lon="10.5461931"><ele>6.0</ele><time>2026-04-19T14:14:49.147Z</time></trkpt><trkpt lat="43.2622407" lon="10.5461709"><ele>6.0</ele><time>2026-04-19T14:14:50.152Z</time></trkpt><trkpt lat="43.2623777" lon="10.5461382"><ele>6.0</ele><time>2026-04-19T14:14:51.138Z</time></trkpt><trkpt lat="43.26251" lon="10.546097"><ele>6.0</ele><time>2026-04-19T14:14:52.149Z</time></trkpt><trkpt lat="43.2626343" lon="10.5460505"><ele>6.0</ele><time>2026-04-19T14:14:53.142Z</time></trkpt><trkpt lat="43.262754" lon="10.5460019"><ele>6.0</ele><time>2026-04-19T14:14:54.171Z</time></trkpt><trkpt lat="43.2628749" lon="10.545953"><ele>6.0</ele><time>2026-04-19T14:14:55.188Z</time></trkpt><trkpt lat="43.2630008" lon="10.5459008"><ele>6.0</ele><time>2026-04-19T14:14:56.138Z</time></trkpt><trkpt lat="43.2631323" lon="10.545848"><ele>6.0</ele><time>2026-04-19T14:14:57.129Z</time></trkpt><trkpt lat="43.2632671" lon="10.545792"><ele>6.333333333333334</ele><time>2026-04-19T14:14:58.133Z</time></trkpt><trkpt lat="43.2634078" lon="10.5457316"><ele>6.666666666666667</ele><time>2026-04-19T14:14:59.142Z</time></trkpt><trkpt lat="43.2635592" lon="10.5456643"><ele>7.0</ele><time>2026-04-19T14:15:00.179Z</time></trkpt><trkpt lat="43.2637161" lon="10.5455896"><ele>7.0</ele><time>2026-04-19T14:15:01.145Z</time></trkpt><trkpt lat="43.2638716" lon="10.5455175"><ele>7.0</ele><time>2026-04-19T14:15:02.172Z</time></trkpt><trkpt lat="43.2640223" lon="10.5454466"><ele>7.0</ele><time>2026-04-19T14:15:03.177Z</time></trkpt><trkpt lat="43.2641711" lon="10.5453804"><ele>6.333333333333334</ele><time>2026-04-19T14:15:04.145Z</time></trkpt><trkpt lat="43.2643168" lon="10.545312"><ele>5.666666666666667</ele><time>2026-04-19T14:15:05.171Z</time></trkpt><trkpt lat="43.2644616" lon="10.5452426"><ele>5.0</ele><time>2026-04-19T14:15:06.16Z</time></trkpt><trkpt lat="43.264607" lon="10.5451707"><ele>5.0</ele><time>2026-04-19T14:15:07.13Z</time></trkpt><trkpt lat="43.2647551" lon="10.5450977"><ele>5.0</ele><time>2026-04-19T14:15:08.166Z</time></trkpt><trkpt lat="43.2649057" lon="10.5450245"><ele>5.0</ele><time>2026-04-19T14:15:09.139Z</time></trkpt><trkpt lat="43.2650535" lon="10.5449457"><ele>5.25</ele><time>2026-04-19T14:15:10.145Z</time></trkpt><trkpt lat="43.2651942" lon="10.5448657"><ele>5.5</ele><time>2026-04-19T14:15:11.144Z</time></trkpt><trkpt lat="43.2653265" lon="10.5447937"><ele>5.75</ele><time>2026-04-19T14:15:12.14Z</time></trkpt><trkpt lat="43.2654464" lon="10.5447252"><ele>6.0</ele><time>2026-04-19T14:15:13.18Z</time></trkpt><trkpt lat="43.2655548" lon="10.5446586"><ele>6.0</ele><time>2026-04-19T14:15:14.181Z</time></trkpt><trkpt lat="43.2656535" lon="10.5445965"><ele>6.0</ele><time>2026-04-19T14:15:15.177Z</time></trkpt><trkpt lat="43.2657455" lon="10.5445374"><ele>6.0</ele><time>2026-04-19T14:15:16.151Z</time></trkpt><trkpt lat="43.2658328" lon="10.5444834"><ele>6.0</ele><time>2026-04-19T14:15:17.16Z</time></trkpt><trkpt lat="43.2659218" lon="10.5444296"><ele>6.0</ele><time>2026-04-19T14:15:18.145Z</time></trkpt><trkpt lat="43.2660189" lon="10.5443725"><ele>6.25</ele><time>2026-04-19T14:15:19.142Z</time></trkpt><trkpt lat="43.2661228" lon="10.544313"><ele>6.5</ele><time>2026-04-19T14:15:20.15Z</time></trkpt><trkpt lat="43.266232" lon="10.544254"><ele>6.75</ele><time>2026-04-19T14:15:21.177Z</time></trkpt><trkpt lat="43.2663464" lon="10.5442022"><ele>7.0</ele><time>2026-04-19T14:15:22.15Z</time></trkpt><trkpt lat="43.2664613" lon="10.5441601"><ele>7.199999999999999</ele><time>2026-04-19T14:15:23.17Z</time></trkpt><trkpt lat="43.2665704" lon="10.5441244"><ele>7.3999999999999995</ele><time>2026-04-19T14:15:24.143Z</time></trkpt><trkpt lat="43.2666688" lon="10.5440959"><ele>7.6000000000000005</ele><time>2026-04-19T14:15:25.181Z</time></trkpt><trkpt lat="43.2667575" lon="10.5440709"><ele>7.800000000000001</ele><time>2026-04-19T14:15:26.14Z</time></trkpt><trkpt lat="43.266839" lon="10.5440443"><ele>8.0</ele><time>2026-04-19T14:15:27.15Z</time></trkpt><trkpt lat="43.2669201" lon="10.544013"><ele>8.0</ele><time>2026-04-19T14:15:28.149Z</time></trkpt><trkpt lat="43.2670117" lon="10.5439711"><ele>8.0</ele><time>2026-04-19T14:15:29.153Z</time></trkpt><trkpt lat="43.2671213" lon="10.5439228"><ele>8.0</ele><time>2026-04-19T14:15:30.152Z</time></trkpt><trkpt lat="43.2672454" lon="10.5438697"><ele>8.0</ele><time>2026-04-19T14:15:31.141Z</time></trkpt><trkpt lat="43.2673783" lon="10.543817"><ele>8.25</ele><time>2026-04-19T14:15:32.182Z</time></trkpt><trkpt lat="43.2675165" lon="10.5437665"><ele>8.5</ele><time>2026-04-19T14:15:33.165Z</time></trkpt><trkpt lat="43.2676579" lon="10.5437161"><ele>8.75</ele><time>2026-04-19T14:15:34.155Z</time></trkpt><trkpt lat="43.2678011" lon="10.5436688"><ele>9.0</ele><time>2026-04-19T14:15:35.137Z</time></trkpt><trkpt lat="43.2679425" lon="10.5436238"><ele>9.25</ele><time>2026-04-19T14:15:36.168Z</time></trkpt><trkpt lat="43.2680782" lon="10.5435806"><ele>9.5</ele><time>2026-04-19T14:15:37.141Z</time></trkpt><trkpt lat="43.2682078" lon="10.5435371"><ele>9.75</ele><time>2026-04-19T14:15:38.146Z</time></trkpt><trkpt lat="43.2683319" lon="10.5434921"><ele>10.0</ele><time>2026-04-19T14:15:39.147Z</time></trkpt><trkpt lat="43.2684517" lon="10.5434477"><ele>10.0</ele><time>2026-04-19T14:15:40.137Z</time></trkpt><trkpt lat="43.2685736" lon="10.5434606"><ele>10.0</ele><time>2026-04-19T14:15:41.177Z</time></trkpt><trkpt lat="43.2686834" lon="10.5434193"><ele>10.0</ele><time>2026-04-19T14:15:42.146Z</time></trkpt><trkpt lat="43.2687888" lon="10.5433793"><ele>10.0</ele><time>2026-04-19T14:15:43.141Z</time></trkpt><trkpt lat="43.26889" lon="10.5433395"><ele>9.8</ele><time>2026-04-19T14:15:44.18Z</time></trkpt><trkpt lat="43.2689811" lon="10.543305"><ele>9.6</ele><time>2026-04-19T14:15:45.136Z</time></trkpt><trkpt lat="43.2690743" lon="10.5432709"><ele>9.4</ele><time>2026-04-19T14:15:46.149Z</time></trkpt><trkpt lat="43.2691701" lon="10.5432228"><ele>9.2</ele><time>2026-04-19T14:15:47.182Z</time></trkpt><trkpt lat="43.2692705" lon="10.5431846"><ele>9.0</ele><time>2026-04-19T14:15:48.167Z</time></trkpt><trkpt lat="43.2693802" lon="10.5431488"><ele>9.0</ele><time>2026-04-19T14:15:49.142Z</time></trkpt><trkpt lat="43.2695023" lon="10.5431108"><ele>9.0</ele><time>2026-04-19T14:15:50.158Z</time></trkpt><trkpt lat="43.2696275" lon="10.5430763"><ele>9.0</ele><time>2026-04-19T14:15:51.144Z</time></trkpt><trkpt lat="43.2697552" lon="10.5430417"><ele>9.0</ele><time>2026-04-19T14:15:52.14Z</time></trkpt><trkpt lat="43.2698803" lon="10.5430118"><ele>9.0</ele><time>2026-04-19T14:15:53.142Z</time></trkpt><trkpt lat="43.2700041" lon="10.5429777"><ele>9.0</ele><time>2026-04-19T14:15:54.156Z</time></trkpt><trkpt lat="43.2701298" lon="10.5429425"><ele>9.0</ele><time>2026-04-19T14:15:55.136Z</time></trkpt><trkpt lat="43.2702585" lon="10.5429048"><ele>9.0</ele><time>2026-04-19T14:15:56.174Z</time></trkpt><trkpt lat="43.2703783" lon="10.5428713"><ele>8.8</ele><time>2026-04-19T14:15:57.152Z</time></trkpt><trkpt lat="43.2704963" lon="10.5428394"><ele>8.600000000000001</ele><time>2026-04-19T14:15:58.142Z</time></trkpt><trkpt lat="43.27061" lon="10.5428061"><ele>8.4</ele><time>2026-04-19T14:15:59.169Z</time></trkpt><trkpt lat="43.270712" lon="10.5427793"><ele>8.200000000000001</ele><time>2026-04-19T14:16:00.135Z</time></trkpt><trkpt lat="43.2708135" lon="10.5427503"><ele>8.0</ele><time>2026-04-19T14:16:01.147Z</time></trkpt><trkpt lat="43.2709135" lon="10.5427183"><ele>7.800000000000001</ele><time>2026-04-19T14:16:02.154Z</time></trkpt><trkpt lat="43.2710166" lon="10.5426864"><ele>7.6000000000000005</ele><time>2026-04-19T14:16:03.139Z</time></trkpt><trkpt lat="43.2711172" lon="10.5426441"><ele>7.3999999999999995</ele><time>2026-04-19T14:16:04.145Z</time></trkpt><trkpt lat="43.2712252" lon="10.5426131"><ele>7.199999999999999</ele><time>2026-04-19T14:16:05.18Z</time></trkpt><trkpt lat="43.2713302" lon="10.5425841"><ele>7.0</ele><time>2026-04-19T14:16:06.155Z</time></trkpt><trkpt lat="43.2714386" lon="10.5425525"><ele>7.199999999999999</ele><time>2026-04-19T14:16:07.148Z</time></trkpt><trkpt lat="43.271546" lon="10.5425207"><ele>7.3999999999999995</ele><time>2026-04-19T14:16:08.174Z</time></trkpt><trkpt lat="43.2716471" lon="10.5424878"><ele>7.6000000000000005</ele><time>2026-04-19T14:16:09.144Z</time></trkpt><trkpt lat="43.2717491" lon="10.542456"><ele>7.800000000000001</ele><time>2026-04-19T14:16:10.143Z</time></trkpt><trkpt lat="43.2718506" lon="10.5424246"><ele>8.0</ele><time>2026-04-19T14:16:11.144Z</time></trkpt><trkpt lat="43.2719515" lon="10.5423922"><ele>8.0</ele><time>2026-04-19T14:16:12.152Z</time></trkpt><trkpt lat="43.2720554" lon="10.5423592"><ele>8.0</ele><time>2026-04-19T14:16:13.146Z</time></trkpt><trkpt lat="43.2721644" lon="10.5423247"><ele>8.0</ele><time>2026-04-19T14:16:14.18Z</time></trkpt><trkpt lat="43.272265" lon="10.5422904"><ele>8.0</ele><time>2026-04-19T14:16:15.134Z</time></trkpt><trkpt lat="43.2723623" lon="10.5422588"><ele>8.0</ele><time>2026-04-19T14:16:16.151Z</time></trkpt><trkpt lat="43.2724519" lon="10.54223"><ele>7.999999999999999</ele><time>2026-04-19T14:16:17.137Z</time></trkpt><trkpt lat="43.2725351" lon="10.5422027"><ele>8.0</ele><time>2026-04-19T14:16:18.156Z</time></trkpt><trkpt lat="43.2726124" lon="10.542178"><ele>8.0</ele><time>2026-04-19T14:16:19.141Z</time></trkpt><trkpt lat="43.272688" lon="10.5421538"><ele>8.0</ele><time>2026-04-19T14:16:20.169Z</time></trkpt><trkpt lat="43.2727527" lon="10.5421314"><ele>7.999999999999999</ele><time>2026-04-19T14:16:21.142Z</time></trkpt><trkpt lat="43.2728485" lon="10.5420972"><ele>8.0</ele><time>2026-04-19T14:16:23.147Z</time></trkpt><trkpt lat="43.2729707" lon="10.5420575"><ele>8.0</ele><time>2026-04-19T14:16:25.168Z</time></trkpt><trkpt lat="43.2730525" lon="10.5420338"><ele>8.0</ele><time>2026-04-19T14:16:26.153Z</time></trkpt><trkpt lat="43.2731442" lon="10.5420068"><ele>8.0</ele><time>2026-04-19T14:16:27.147Z</time></trkpt><trkpt lat="43.2732406" lon="10.5419767"><ele>8.0</ele><time>2026-04-19T14:16:28.136Z</time></trkpt><trkpt lat="43.2733452" lon="10.5419452"><ele>8.0</ele><time>2026-04-19T14:16:29.168Z</time></trkpt><trkpt lat="43.2734564" lon="10.5419083"><ele>8.0</ele><time>2026-04-19T14:16:30.173Z</time></trkpt><trkpt lat="43.2735735" lon="10.5418685"><ele>8.0</ele><time>2026-04-19T14:16:31.135Z</time></trkpt><trkpt lat="43.2736949" lon="10.5418251"><ele>8.0</ele><time>2026-04-19T14:16:32.14Z</time></trkpt><trkpt lat="43.2738198" lon="10.5417827"><ele>8.0</ele><time>2026-04-19T14:16:33.151Z</time></trkpt><trkpt lat="43.2739431" lon="10.5417418"><ele>8.0</ele><time>2026-04-19T14:16:34.156Z</time></trkpt><trkpt lat="43.2740674" lon="10.5417016"><ele>8.0</ele><time>2026-04-19T14:16:35.14Z</time></trkpt><trkpt lat="43.2741911" lon="10.5416604"><ele>8.0</ele><time>2026-04-19T14:16:36.179Z</time></trkpt><trkpt lat="43.274308" lon="10.54162"><ele>8.0</ele><time>2026-04-19T14:16:37.147Z</time></trkpt><trkpt lat="43.2744251" lon="10.5415803"><ele>8.0</ele><time>2026-04-19T14:16:38.145Z</time></trkpt><trkpt lat="43.2745399" lon="10.5415417"><ele>8.0</ele><time>2026-04-19T14:16:39.158Z</time></trkpt><trkpt lat="43.2746519" lon="10.5415035"><ele>8.0</ele><time>2026-04-19T14:16:40.135Z</time></trkpt><trkpt lat="43.2747624" lon="10.5414633"><ele>8.0</ele><time>2026-04-19T14:16:41.148Z</time></trkpt><trkpt lat="43.2748718" lon="10.5414271"><ele>8.25</ele><time>2026-04-19T14:16:42.14Z</time></trkpt><trkpt lat="43.2749793" lon="10.5413922"><ele>8.5</ele><time>2026-04-19T14:16:43.147Z</time></trkpt><trkpt lat="43.2750901" lon="10.5413536"><ele>8.75</ele><time>2026-04-19T14:16:44.18Z</time></trkpt><trkpt lat="43.2752019" lon="10.5413176"><ele>9.0</ele><time>2026-04-19T14:16:45.157Z</time></trkpt><trkpt lat="43.2753254" lon="10.5412773"><ele>9.0</ele><time>2026-04-19T14:16:46.134Z</time></trkpt><trkpt lat="43.2754576" lon="10.541233"><ele>9.0</ele><time>2026-04-19T14:16:47.146Z</time></trkpt><trkpt lat="43.2755954" lon="10.5411885"><ele>9.0</ele><time>2026-04-19T14:16:48.138Z</time></trkpt><trkpt lat="43.2757398" lon="10.5411409"><ele>9.0</ele><time>2026-04-19T14:16:49.139Z</time></trkpt><trkpt lat="43.2758875" lon="10.5410931"><ele>8.25</ele><time>2026-04-19T14:16:50.173Z</time></trkpt><trkpt lat="43.2760277" lon="10.5410481"><ele>7.5</ele><time>2026-04-19T14:16:51.149Z</time></trkpt><trkpt lat="43.2761676" lon="10.5410022"><ele>6.75</ele><time>2026-04-19T14:16:52.168Z</time></trkpt><trkpt lat="43.276293" lon="10.5409591"><ele>6.0</ele><time>2026-04-19T14:16:53.133Z</time></trkpt><trkpt lat="43.2764087" lon="10.5409195"><ele>5.8</ele><time>2026-04-19T14:16:54.156Z</time></trkpt><trkpt lat="43.2765145" lon="10.5408859"><ele>5.6</ele><time>2026-04-19T14:16:55.151Z</time></trkpt><trkpt lat="43.2766145" lon="10.5408653"><ele>5.4</ele><time>2026-04-19T14:16:56.145Z</time></trkpt><trkpt lat="43.2767205" lon="10.5408683"><ele>5.2</ele><time>2026-04-19T14:16:57.143Z</time></trkpt><trkpt lat="43.2767828" lon="10.5409021"><ele>5.0</ele><time>2026-04-19T14:16:58.135Z</time></trkpt><trkpt lat="43.2768447" lon="10.5409507"><ele>5.0</ele><time>2026-04-19T14:16:59.183Z</time></trkpt><trkpt lat="43.2769048" lon="10.5410161"><ele>5.0</ele><time>2026-04-19T14:17:00.135Z</time></trkpt><trkpt lat="43.2769614" lon="10.5411147"><ele>5.0</ele><time>2026-04-19T14:17:01.18Z</time></trkpt><trkpt lat="43.2770549" lon="10.541358"><ele>5.0</ele><time>2026-04-19T14:17:02.138Z</time></trkpt><trkpt lat="43.2771208" lon="10.5415898"><ele>5.0</ele><time>2026-04-19T14:17:03.142Z</time></trkpt><trkpt lat="43.2772002" lon="10.5417557"><ele>5.0</ele><time>2026-04-19T14:17:05.148Z</time></trkpt><trkpt lat="43.2772544" lon="10.5418072"><ele>5.0</ele><time>2026-04-19T14:17:06.146Z</time></trkpt><trkpt lat="43.2773443" lon="10.5418528"><ele>5.0</ele><time>2026-04-19T14:17:08.136Z</time></trkpt><trkpt lat="43.2775319" lon="10.5419317"><ele>5.0</ele><time>2026-04-19T14:17:09.15Z</time></trkpt><trkpt lat="43.2778656" lon="10.5419057"><ele>5.0</ele><time>2026-04-19T14:17:10.134Z</time></trkpt><trkpt lat="43.278056" lon="10.5418716"><ele>5.666666666666667</ele><time>2026-04-19T14:17:11.154Z</time></trkpt><trkpt lat="43.2782474" lon="10.5418375"><ele>6.333333333333334</ele><time>2026-04-19T14:17:12.138Z</time></trkpt><trkpt lat="43.2784346" lon="10.5417877"><ele>7.0</ele><time>2026-04-19T14:17:13.134Z</time></trkpt><trkpt lat="43.278625" lon="10.5416984"><ele>7.0</ele><time>2026-04-19T14:17:14.143Z</time></trkpt><trkpt lat="43.278686" lon="10.5416528"><ele>7.0</ele><time>2026-04-19T14:17:15.137Z</time></trkpt><trkpt lat="43.2787703" lon="10.5415663"><ele>7.0</ele><time>2026-04-19T14:17:16.157Z</time></trkpt><trkpt lat="43.278834" lon="10.5414616"><ele>7.0</ele><time>2026-04-19T14:17:17.137Z</time></trkpt><trkpt lat="43.27889" lon="10.5412239"><ele>8.0</ele><time>2026-04-19T14:17:18.147Z</time></trkpt><trkpt lat="43.2789808" lon="10.540971"><ele>9.0</ele><time>2026-04-19T14:17:19.166Z</time></trkpt><trkpt lat="43.279031" lon="10.54091"><ele>10.0</ele><time>2026-04-19T14:17:20.167Z</time></trkpt><trkpt lat="43.2791374" lon="10.540837"><ele>11.0</ele><time>2026-04-19T14:17:22.136Z</time></trkpt><trkpt lat="43.2792122" lon="10.5407994"><ele>11.0</ele><time>2026-04-19T14:17:23.155Z</time></trkpt><trkpt lat="43.2793207" lon="10.540773"><ele>11.0</ele><time>2026-04-19T14:17:24.132Z</time></trkpt><trkpt lat="43.2796288" lon="10.5408454"><ele>11.0</ele><time>2026-04-19T14:17:25.158Z</time></trkpt><trkpt lat="43.2797922" lon="10.5408655"><ele>10.0</ele><time>2026-04-19T14:17:26.168Z</time></trkpt><trkpt lat="43.2799746" lon="10.5408818"><ele>9.0</ele><time>2026-04-19T14:17:27.141Z</time></trkpt><trkpt lat="43.280172" lon="10.5409279"><ele>8.0</ele><time>2026-04-19T14:17:28.143Z</time></trkpt><trkpt lat="43.2803885" lon="10.5409912"><ele>8.333333333333332</ele><time>2026-04-19T14:17:29.14Z</time></trkpt><trkpt lat="43.2806051" lon="10.5410608"><ele>8.666666666666666</ele><time>2026-04-19T14:17:30.151Z</time></trkpt><trkpt lat="43.2808236" lon="10.5411273"><ele>9.0</ele><time>2026-04-19T14:17:31.149Z</time></trkpt><trkpt lat="43.2810336" lon="10.5411929"><ele>9.0</ele><time>2026-04-19T14:17:32.137Z</time></trkpt><trkpt lat="43.2812554" lon="10.5412611"><ele>9.0</ele><time>2026-04-19T14:17:33.177Z</time></trkpt><trkpt lat="43.281468" lon="10.541328"><ele>9.0</ele><time>2026-04-19T14:17:34.136Z</time></trkpt><trkpt lat="43.2816946" lon="10.5413996"><ele>9.0</ele><time>2026-04-19T14:17:35.146Z</time></trkpt><trkpt lat="43.28192" lon="10.5414728"><ele>9.0</ele><time>2026-04-19T14:17:36.18Z</time></trkpt><trkpt lat="43.282132" lon="10.5415452"><ele>9.666666666666666</ele><time>2026-04-19T14:17:37.144Z</time></trkpt><trkpt lat="43.2823439" lon="10.541622"><ele>10.333333333333332</ele><time>2026-04-19T14:17:38.138Z</time></trkpt><trkpt lat="43.282552" lon="10.5416972"><ele>11.0</ele><time>2026-04-19T14:17:39.152Z</time></trkpt><trkpt lat="43.2827583" lon="10.5417732"><ele>11.0</ele><time>2026-04-19T14:17:40.14Z</time></trkpt><trkpt lat="43.2829639" lon="10.5418463"><ele>11.0</ele><time>2026-04-19T14:17:41.145Z</time></trkpt><trkpt lat="43.2831695" lon="10.5419198"><ele>11.0</ele><time>2026-04-19T14:17:42.176Z</time></trkpt><trkpt lat="43.2833708" lon="10.5419961"><ele>11.666666666666666</ele><time>2026-04-19T14:17:43.168Z</time></trkpt><trkpt lat="43.2835757" lon="10.5420761"><ele>12.333333333333332</ele><time>2026-04-19T14:17:44.167Z</time></trkpt><trkpt lat="43.2837805" lon="10.5421544"><ele>13.0</ele><time>2026-04-19T14:17:45.159Z</time></trkpt><trkpt lat="43.2839884" lon="10.5422318"><ele>13.0</ele><time>2026-04-19T14:17:46.137Z</time></trkpt><trkpt lat="43.2841994" lon="10.5423125"><ele>13.0</ele><time>2026-04-19T14:17:47.14Z</time></trkpt><trkpt lat="43.2844104" lon="10.5423913"><ele>13.0</ele><time>2026-04-19T14:17:48.153Z</time></trkpt><trkpt lat="43.2846243" lon="10.542469"><ele>12.333333333333332</ele><time>2026-04-19T14:17:49.17Z</time></trkpt><trkpt lat="43.2848337" lon="10.5425403"><ele>11.666666666666666</ele><time>2026-04-19T14:17:50.143Z</time></trkpt><trkpt lat="43.2850504" lon="10.5426102"><ele>11.0</ele><time>2026-04-19T14:17:51.151Z</time></trkpt><trkpt lat="43.2852638" lon="10.5426774"><ele>11.0</ele><time>2026-04-19T14:17:52.151Z</time></trkpt><trkpt lat="43.2854764" lon="10.5427417"><ele>11.0</ele><time>2026-04-19T14:17:53.135Z</time></trkpt><trkpt lat="43.2856934" lon="10.5428018"><ele>11.0</ele><time>2026-04-19T14:17:54.143Z</time></trkpt><trkpt lat="43.2859047" lon="10.5428569"><ele>11.0</ele><time>2026-04-19T14:17:55.153Z</time></trkpt><trkpt lat="43.286118" lon="10.5429132"><ele>11.0</ele><time>2026-04-19T14:17:56.145Z</time></trkpt><trkpt lat="43.2863363" lon="10.5429662"><ele>11.0</ele><time>2026-04-19T14:17:57.142Z</time></trkpt><trkpt lat="43.2865476" lon="10.5430118"><ele>11.333333333333332</ele><time>2026-04-19T14:17:58.139Z</time></trkpt><trkpt lat="43.2867649" lon="10.543059"><ele>11.666666666666666</ele><time>2026-04-19T14:17:59.147Z</time></trkpt><trkpt lat="43.2869816" lon="10.5431026"><ele>12.0</ele><time>2026-04-19T14:18:00.133Z</time></trkpt><trkpt lat="43.2871931" lon="10.5431429"><ele>12.0</ele><time>2026-04-19T14:18:01.149Z</time></trkpt><trkpt lat="43.28741" lon="10.5431814"><ele>12.0</ele><time>2026-04-19T14:18:02.135Z</time></trkpt><trkpt lat="43.287622" lon="10.543221"><ele>12.0</ele><time>2026-04-19T14:18:03.133Z</time></trkpt><trkpt lat="43.2878376" lon="10.5432819"><ele>12.0</ele><time>2026-04-19T14:18:04.142Z</time></trkpt><trkpt lat="43.288051" lon="10.5433206"><ele>12.0</ele><time>2026-04-19T14:18:05.138Z</time></trkpt><trkpt lat="43.288257" lon="10.5433638"><ele>12.0</ele><time>2026-04-19T14:18:06.151Z</time></trkpt><trkpt lat="43.2884721" lon="10.5433998"><ele>12.0</ele><time>2026-04-19T14:18:07.136Z</time></trkpt><trkpt lat="43.2886818" lon="10.5434377"><ele>12.0</ele><time>2026-04-19T14:18:08.141Z</time></trkpt><trkpt lat="43.2888902" lon="10.5434813"><ele>12.0</ele><time>2026-04-19T14:18:09.135Z</time></trkpt><trkpt lat="43.2891057" lon="10.5435243"><ele>12.0</ele><time>2026-04-19T14:18:10.147Z</time></trkpt><trkpt lat="43.2893162" lon="10.543567"><ele>12.0</ele><time>2026-04-19T14:18:11.145Z</time></trkpt><trkpt lat="43.2895292" lon="10.5436065"><ele>12.0</ele><time>2026-04-19T14:18:12.135Z</time></trkpt><trkpt lat="43.289743" lon="10.5436413"><ele>12.666666666666668</ele><time>2026-04-19T14:18:13.147Z</time></trkpt><trkpt lat="43.2899516" lon="10.543677"><ele>13.333333333333334</ele><time>2026-04-19T14:18:14.143Z</time></trkpt><trkpt lat="43.2901582" lon="10.5437152"><ele>14.0</ele><time>2026-04-19T14:18:15.162Z</time></trkpt><trkpt lat="43.2903634" lon="10.543752"><ele>14.0</ele><time>2026-04-19T14:18:16.136Z</time></trkpt><trkpt lat="43.2905743" lon="10.5437831"><ele>14.0</ele><time>2026-04-19T14:18:17.136Z</time></trkpt><trkpt lat="43.2907869" lon="10.5438094"><ele>14.0</ele><time>2026-04-19T14:18:18.153Z</time></trkpt><trkpt lat="43.2910099" lon="10.5438408"><ele>15.333333333333334</ele><time>2026-04-19T14:18:19.147Z</time></trkpt><trkpt lat="43.2912339" lon="10.5438787"><ele>16.666666666666668</ele><time>2026-04-19T14:18:20.146Z</time></trkpt><trkpt lat="43.2914465" lon="10.5439223"><ele>18.0</ele><time>2026-04-19T14:18:21.16Z</time></trkpt><trkpt lat="43.2916736" lon="10.5439727"><ele>18.0</ele><time>2026-04-19T14:18:22.152Z</time></trkpt><trkpt lat="43.2919" lon="10.544025"><ele>18.0</ele><time>2026-04-19T14:18:23.143Z</time></trkpt><trkpt lat="43.2921194" lon="10.5440722"><ele>18.5</ele><time>2026-04-19T14:18:24.17Z</time></trkpt><trkpt lat="43.2923464" lon="10.5441336"><ele>19.0</ele><time>2026-04-19T14:18:25.138Z</time></trkpt><trkpt lat="43.2925813" lon="10.5442041"><ele>19.0</ele><time>2026-04-19T14:18:26.169Z</time></trkpt><trkpt lat="43.292809" lon="10.5442793"><ele>19.0</ele><time>2026-04-19T14:18:27.144Z</time></trkpt><trkpt lat="43.2930436" lon="10.5443566"><ele>18.0</ele><time>2026-04-19T14:18:28.145Z</time></trkpt><trkpt lat="43.2932825" lon="10.5444395"><ele>17.0</ele><time>2026-04-19T14:18:29.142Z</time></trkpt><trkpt lat="43.2935023" lon="10.5445264"><ele>17.5</ele><time>2026-04-19T14:18:30.14Z</time></trkpt><trkpt lat="43.2937357" lon="10.5446292"><ele>18.0</ele><time>2026-04-19T14:18:31.147Z</time></trkpt><trkpt lat="43.2939636" lon="10.5447339"><ele>18.0</ele><time>2026-04-19T14:18:32.173Z</time></trkpt><trkpt lat="43.2941814" lon="10.5448353"><ele>18.0</ele><time>2026-04-19T14:18:33.137Z</time></trkpt><trkpt lat="43.2944031" lon="10.5449477"><ele>18.0</ele><time>2026-04-19T14:18:34.172Z</time></trkpt><trkpt lat="43.2946152" lon="10.5450462"><ele>18.0</ele><time>2026-04-19T14:18:35.143Z</time></trkpt><trkpt lat="43.2948444" lon="10.5451507"><ele>19.5</ele><time>2026-04-19T14:18:36.18Z</time></trkpt><trkpt lat="43.2950648" lon="10.5452537"><ele>21.0</ele><time>2026-04-19T14:18:37.167Z</time></trkpt><trkpt lat="43.29528" lon="10.5453564"><ele>21.5</ele><time>2026-04-19T14:18:38.142Z</time></trkpt><trkpt lat="43.295499" lon="10.545458"><ele>22.0</ele><time>2026-04-19T14:18:39.143Z</time></trkpt><trkpt lat="43.295715" lon="10.5455571"><ele>23.0</ele><time>2026-04-19T14:18:40.133Z</time></trkpt><trkpt lat="43.295935" lon="10.5456593"><ele>24.0</ele><time>2026-04-19T14:18:41.143Z</time></trkpt><trkpt lat="43.2961548" lon="10.5457605"><ele>24.0</ele><time>2026-04-19T14:18:42.156Z</time></trkpt><trkpt lat="43.2963757" lon="10.5458621"><ele>24.0</ele><time>2026-04-19T14:18:43.135Z</time></trkpt><trkpt lat="43.2965983" lon="10.5459649"><ele>25.0</ele><time>2026-04-19T14:18:44.167Z</time></trkpt><trkpt lat="43.296815" lon="10.5460672"><ele>26.0</ele><time>2026-04-19T14:18:45.141Z</time></trkpt><trkpt lat="43.2970382" lon="10.546173"><ele>26.0</ele><time>2026-04-19T14:18:46.135Z</time></trkpt><trkpt lat="43.2972663" lon="10.5462813"><ele>26.0</ele><time>2026-04-19T14:18:47.141Z</time></trkpt><trkpt lat="43.2974931" lon="10.5463882"><ele>26.0</ele><time>2026-04-19T14:18:48.137Z</time></trkpt><trkpt lat="43.2977207" lon="10.5464938"><ele>26.0</ele><time>2026-04-19T14:18:49.139Z</time></trkpt><trkpt lat="43.297948" lon="10.5466029"><ele>25.0</ele><time>2026-04-19T14:18:50.137Z</time></trkpt><trkpt lat="43.2981749" lon="10.5467141"><ele>24.0</ele><time>2026-04-19T14:18:51.142Z</time></trkpt><trkpt lat="43.2984026" lon="10.5468222"><ele>24.0</ele><time>2026-04-19T14:18:52.147Z</time></trkpt><trkpt lat="43.2986333" lon="10.5469299"><ele>24.0</ele><time>2026-04-19T14:18:53.181Z</time></trkpt><trkpt lat="43.2988573" lon="10.5470286"><ele>26.0</ele><time>2026-04-19T14:18:54.131Z</time></trkpt><trkpt lat="43.299086" lon="10.5471159"><ele>28.0</ele><time>2026-04-19T14:18:55.142Z</time></trkpt><trkpt lat="43.299315" lon="10.5471928"><ele>28.0</ele><time>2026-04-19T14:18:56.146Z</time></trkpt><trkpt lat="43.2995447" lon="10.5472564"><ele>28.0</ele><time>2026-04-19T14:18:57.178Z</time></trkpt><trkpt lat="43.2997689" lon="10.5473069"><ele>28.0</ele><time>2026-04-19T14:18:58.145Z</time></trkpt><trkpt lat="43.2999995" lon="10.5473473"><ele>28.0</ele><time>2026-04-19T14:18:59.152Z</time></trkpt><trkpt lat="43.3002412" lon="10.5473812"><ele>28.0</ele><time>2026-04-19T14:19:00.171Z</time></trkpt><trkpt lat="43.3004776" lon="10.5474069"><ele>28.0</ele><time>2026-04-19T14:19:01.152Z</time></trkpt><trkpt lat="43.3007231" lon="10.5474187"><ele>27.0</ele><time>2026-04-19T14:19:02.146Z</time></trkpt><trkpt lat="43.3009663" lon="10.5474152"><ele>26.0</ele><time>2026-04-19T14:19:03.149Z</time></trkpt><trkpt lat="43.3012071" lon="10.5473943"><ele>27.5</ele><time>2026-04-19T14:19:04.147Z</time></trkpt><trkpt lat="43.3014486" lon="10.5473582"><ele>29.0</ele><time>2026-04-19T14:19:05.143Z</time></trkpt><trkpt lat="43.3016878" lon="10.5473122"><ele>29.0</ele><time>2026-04-19T14:19:06.137Z</time></trkpt><trkpt lat="43.3019197" lon="10.5472592"><ele>29.0</ele><time>2026-04-19T14:19:07.146Z</time></trkpt><trkpt lat="43.3021546" lon="10.547196"><ele>29.0</ele><time>2026-04-19T14:19:08.136Z</time></trkpt><trkpt lat="43.3023901" lon="10.5471211"><ele>29.0</ele><time>2026-04-19T14:19:09.169Z</time></trkpt><trkpt lat="43.3026141" lon="10.5470417"><ele>29.5</ele><time>2026-04-19T14:19:10.14Z</time></trkpt><trkpt lat="43.3028452" lon="10.5469505"><ele>30.0</ele><time>2026-04-19T14:19:11.17Z</time></trkpt><trkpt lat="43.303065" lon="10.5468532"><ele>29.5</ele><time>2026-04-19T14:19:12.133Z</time></trkpt><trkpt lat="43.3032915" lon="10.5467393"><ele>29.0</ele><time>2026-04-19T14:19:13.161Z</time></trkpt><trkpt lat="43.3035081" lon="10.546614"><ele>29.0</ele><time>2026-04-19T14:19:14.193Z</time></trkpt><trkpt lat="43.3037163" lon="10.5464816"><ele>29.0</ele><time>2026-04-19T14:19:15.136Z</time></trkpt><trkpt lat="43.3039267" lon="10.5463376"><ele>27.5</ele><time>2026-04-19T14:19:16.137Z</time></trkpt><trkpt lat="43.3041354" lon="10.5461832"><ele>26.0</ele><time>2026-04-19T14:19:17.167Z</time></trkpt><trkpt lat="43.3043314" lon="10.5460219"><ele>26.0</ele><time>2026-04-19T14:19:18.141Z</time></trkpt><trkpt lat="43.3045239" lon="10.545847"><ele>26.0</ele><time>2026-04-19T14:19:19.14Z</time></trkpt><trkpt lat="43.304715" lon="10.5456611"><ele>26.5</ele><time>2026-04-19T14:19:20.143Z</time></trkpt><trkpt lat="43.3049044" lon="10.5454693"><ele>27.0</ele><time>2026-04-19T14:19:21.141Z</time></trkpt><trkpt lat="43.3050916" lon="10.5452688"><ele>27.0</ele><time>2026-04-19T14:19:22.176Z</time></trkpt><trkpt lat="43.3052689" lon="10.5450696"><ele>27.0</ele><time>2026-04-19T14:19:23.135Z</time></trkpt><trkpt lat="43.305452" lon="10.5448572"><ele>28.5</ele><time>2026-04-19T14:19:24.17Z</time></trkpt><trkpt lat="43.3056305" lon="10.544651"><ele>30.0</ele><time>2026-04-19T14:19:25.14Z</time></trkpt><trkpt lat="43.3058113" lon="10.5444454"><ele>30.0</ele><time>2026-04-19T14:19:26.143Z</time></trkpt><trkpt lat="43.3059949" lon="10.5442391"><ele>30.0</ele><time>2026-04-19T14:19:27.146Z</time></trkpt><trkpt lat="43.3061771" lon="10.5440325"><ele>30.0</ele><time>2026-04-19T14:19:28.138Z</time></trkpt><trkpt lat="43.3063608" lon="10.5438227"><ele>30.0</ele><time>2026-04-19T14:19:29.168Z</time></trkpt><trkpt lat="43.3065396" lon="10.5436188"><ele>29.5</ele><time>2026-04-19T14:19:30.158Z</time></trkpt><trkpt lat="43.3067214" lon="10.5434115"><ele>29.0</ele><time>2026-04-19T14:19:31.134Z</time></trkpt><trkpt lat="43.3069018" lon="10.5432004"><ele>29.0</ele><time>2026-04-19T14:19:32.137Z</time></trkpt><trkpt lat="43.3070805" lon="10.5429899"><ele>29.0</ele><time>2026-04-19T14:19:33.136Z</time></trkpt><trkpt lat="43.3072597" lon="10.5427839"><ele>29.5</ele><time>2026-04-19T14:19:34.145Z</time></trkpt><trkpt lat="43.3074345" lon="10.5425746"><ele>30.0</ele><time>2026-04-19T14:19:35.136Z</time></trkpt><trkpt lat="43.3076123" lon="10.5423741"><ele>30.0</ele><time>2026-04-19T14:19:36.144Z</time></trkpt><trkpt lat="43.3077874" lon="10.5421735"><ele>30.0</ele><time>2026-04-19T14:19:37.135Z</time></trkpt><trkpt lat="43.307967" lon="10.5419668"><ele>28.5</ele><time>2026-04-19T14:19:38.174Z</time></trkpt><trkpt lat="43.3081359" lon="10.5417719"><ele>27.0</ele><time>2026-04-19T14:19:39.137Z</time></trkpt><trkpt lat="43.3083128" lon="10.5415679"><ele>27.0</ele><time>2026-04-19T14:19:40.142Z</time></trkpt><trkpt lat="43.3084876" lon="10.5413628"><ele>27.0</ele><time>2026-04-19T14:19:41.143Z</time></trkpt><trkpt lat="43.3086659" lon="10.5411576"><ele>27.0</ele><time>2026-04-19T14:19:42.169Z</time></trkpt><trkpt lat="43.3088427" lon="10.540957"><ele>27.0</ele><time>2026-04-19T14:19:43.182Z</time></trkpt><trkpt lat="43.3090158" lon="10.5407609"><ele>27.0</ele><time>2026-04-19T14:19:44.133Z</time></trkpt><trkpt lat="43.3091953" lon="10.5405576"><ele>27.0</ele><time>2026-04-19T14:19:45.14Z</time></trkpt><trkpt lat="43.30937" lon="10.5403603"><ele>26.5</ele><time>2026-04-19T14:19:46.147Z</time></trkpt><trkpt lat="43.3095449" lon="10.5401626"><ele>26.0</ele><time>2026-04-19T14:19:47.154Z</time></trkpt><trkpt lat="43.309726" lon="10.5399773"><ele>25.5</ele><time>2026-04-19T14:19:48.139Z</time></trkpt><trkpt lat="43.3099043" lon="10.5397833"><ele>25.0</ele><time>2026-04-19T14:19:49.132Z</time></trkpt><trkpt lat="43.3100819" lon="10.5395809"><ele>23.5</ele><time>2026-04-19T14:19:50.173Z</time></trkpt><trkpt lat="43.3102558" lon="10.5393792"><ele>22.0</ele><time>2026-04-19T14:19:51.164Z</time></trkpt><trkpt lat="43.3104315" lon="10.5391822"><ele>22.0</ele><time>2026-04-19T14:19:52.152Z</time></trkpt><trkpt lat="43.3106088" lon="10.5389835"><ele>22.0</ele><time>2026-04-19T14:19:53.141Z</time></trkpt><trkpt lat="43.3107864" lon="10.5387822"><ele>22.5</ele><time>2026-04-19T14:19:54.135Z</time></trkpt><trkpt lat="43.310964" lon="10.5385789"><ele>23.0</ele><time>2026-04-19T14:19:55.177Z</time></trkpt><trkpt lat="43.3111371" lon="10.5383837"><ele>23.0</ele><time>2026-04-19T14:19:56.148Z</time></trkpt><trkpt lat="43.3113145" lon="10.5381864"><ele>23.0</ele><time>2026-04-19T14:19:57.14Z</time></trkpt><trkpt lat="43.3114922" lon="10.5379942"><ele>25.0</ele><time>2026-04-19T14:19:58.139Z</time></trkpt><trkpt lat="43.3116775" lon="10.5378045"><ele>27.0</ele><time>2026-04-19T14:19:59.17Z</time></trkpt><trkpt lat="43.3118633" lon="10.5376317"><ele>27.0</ele><time>2026-04-19T14:20:00.131Z</time></trkpt><trkpt lat="43.3120562" lon="10.5374575"><ele>27.0</ele><time>2026-04-19T14:20:01.178Z</time></trkpt><trkpt lat="43.3122475" lon="10.5372926"><ele>28.0</ele><time>2026-04-19T14:20:02.166Z</time></trkpt><trkpt lat="43.3124396" lon="10.5371357"><ele>29.0</ele><time>2026-04-19T14:20:03.145Z</time></trkpt><trkpt lat="43.3126436" lon="10.5369769"><ele>30.0</ele><time>2026-04-19T14:20:04.144Z</time></trkpt><trkpt lat="43.3128464" lon="10.5368314"><ele>31.0</ele><time>2026-04-19T14:20:05.142Z</time></trkpt><trkpt lat="43.313053" lon="10.536688"><ele>30.333333333333336</ele><time>2026-04-19T14:20:06.18Z</time></trkpt><trkpt lat="43.313248" lon="10.5365614"><ele>29.666666666666664</ele><time>2026-04-19T14:20:07.165Z</time></trkpt><trkpt lat="43.3134371" lon="10.5364481"><ele>29.0</ele><time>2026-04-19T14:20:08.171Z</time></trkpt><trkpt lat="43.3136144" lon="10.5363446"><ele>29.0</ele><time>2026-04-19T14:20:09.14Z</time></trkpt><trkpt lat="43.3137907" lon="10.5362464"><ele>29.0</ele><time>2026-04-19T14:20:10.176Z</time></trkpt><trkpt lat="43.313956" lon="10.5361553"><ele>29.0</ele><time>2026-04-19T14:20:11.15Z</time></trkpt><trkpt lat="43.3141286" lon="10.536062"><ele>29.0</ele><time>2026-04-19T14:20:12.169Z</time></trkpt><trkpt lat="43.3142927" lon="10.5359737"><ele>29.0</ele><time>2026-04-19T14:20:13.148Z</time></trkpt><trkpt lat="43.3144639" lon="10.5358801"><ele>29.0</ele><time>2026-04-19T14:20:14.134Z</time></trkpt><trkpt lat="43.3146324" lon="10.5357859"><ele>29.0</ele><time>2026-04-19T14:20:15.141Z</time></trkpt><trkpt lat="43.3148028" lon="10.5356945"><ele>29.0</ele><time>2026-04-19T14:20:16.154Z</time></trkpt><trkpt lat="43.3149726" lon="10.5355987"><ele>29.0</ele><time>2026-04-19T14:20:17.139Z</time></trkpt><trkpt lat="43.3151453" lon="10.5355069"><ele>29.0</ele><time>2026-04-19T14:20:18.145Z</time></trkpt><trkpt lat="43.3153183" lon="10.5354106"><ele>29.0</ele><time>2026-04-19T14:20:19.141Z</time></trkpt><trkpt lat="43.3154965" lon="10.5353152"><ele>29.0</ele><time>2026-04-19T14:20:20.168Z</time></trkpt><trkpt lat="43.3156679" lon="10.5352218"><ele>27.666666666666664</ele><time>2026-04-19T14:20:21.16Z</time></trkpt><trkpt lat="43.3158476" lon="10.5351236"><ele>26.333333333333336</ele><time>2026-04-19T14:20:22.164Z</time></trkpt><trkpt lat="43.3160234" lon="10.5350281"><ele>25.0</ele><time>2026-04-19T14:20:23.128Z</time></trkpt><trkpt lat="43.3162073" lon="10.5349363"><ele>25.0</ele><time>2026-04-19T14:20:24.144Z</time></trkpt><trkpt lat="43.3163877" lon="10.5348394"><ele>25.0</ele><time>2026-04-19T14:20:25.152Z</time></trkpt><trkpt lat="43.3165679" lon="10.5347445"><ele>25.0</ele><time>2026-04-19T14:20:26.144Z</time></trkpt><trkpt lat="43.3167471" lon="10.5346491"><ele>22.0</ele><time>2026-04-19T14:20:27.142Z</time></trkpt><trkpt lat="43.3169203" lon="10.5345545"><ele>19.0</ele><time>2026-04-19T14:20:28.151Z</time></trkpt><trkpt lat="43.3170884" lon="10.5344637"><ele>16.0</ele><time>2026-04-19T14:20:29.128Z</time></trkpt><trkpt lat="43.3172599" lon="10.5343775"><ele>15.666666666666666</ele><time>2026-04-19T14:20:30.126Z</time></trkpt><trkpt lat="43.3174318" lon="10.5342946"><ele>15.333333333333332</ele><time>2026-04-19T14:20:31.131Z</time></trkpt><trkpt lat="43.3175945" lon="10.534215"><ele>15.0</ele><time>2026-04-19T14:20:32.127Z</time></trkpt><trkpt lat="43.317746" lon="10.5341352"><ele>15.0</ele><time>2026-04-19T14:20:33.171Z</time></trkpt><trkpt lat="43.3178903" lon="10.5340536"><ele>15.0</ele><time>2026-04-19T14:20:34.149Z</time></trkpt><trkpt lat="43.3180283" lon="10.5339751"><ele>15.0</ele><time>2026-04-19T14:20:35.136Z</time></trkpt><trkpt lat="43.3181604" lon="10.5339061"><ele>15.0</ele><time>2026-04-19T14:20:36.168Z</time></trkpt><trkpt lat="43.3182848" lon="10.5338495"><ele>14.6</ele><time>2026-04-19T14:20:37.15Z</time></trkpt><trkpt lat="43.3183969" lon="10.5338209"><ele>14.2</ele><time>2026-04-19T14:20:38.137Z</time></trkpt><trkpt lat="43.3184755" lon="10.5338321"><ele>13.8</ele><time>2026-04-19T14:20:39.137Z</time></trkpt><trkpt lat="43.3185523" lon="10.533857"><ele>13.4</ele><time>2026-04-19T14:20:40.163Z</time></trkpt><trkpt lat="43.3186426" lon="10.533903"><ele>13.0</ele><time>2026-04-19T14:20:41.172Z</time></trkpt><trkpt lat="43.3187587" lon="10.5341124"><ele>13.0</ele><time>2026-04-19T14:20:43.14Z</time></trkpt><trkpt lat="43.3188434" lon="10.5342625"><ele>13.0</ele><time>2026-04-19T14:20:44.161Z</time></trkpt><trkpt lat="43.3189606" lon="10.5344368"><ele>13.0</ele><time>2026-04-19T14:20:45.135Z</time></trkpt><trkpt lat="43.3189968" lon="10.5345593"><ele>13.0</ele><time>2026-04-19T14:20:46.141Z</time></trkpt><trkpt lat="43.3190188" lon="10.5346652"><ele>12.499999999999998</ele><time>2026-04-19T14:20:47.136Z</time></trkpt><trkpt lat="43.3190509" lon="10.534766"><ele>12.0</ele><time>2026-04-19T14:20:48.133Z</time></trkpt><trkpt lat="43.3190897" lon="10.534867"><ele>11.5</ele><time>2026-04-19T14:20:49.14Z</time></trkpt><trkpt lat="43.3191202" lon="10.5349518"><ele>11.0</ele><time>2026-04-19T14:20:50.135Z</time></trkpt><trkpt lat="43.3191563" lon="10.5350596"><ele>10.5</ele><time>2026-04-19T14:20:52.138Z</time></trkpt><trkpt lat="43.3192098" lon="10.5351442"><ele>10.0</ele><time>2026-04-19T14:21:07.133Z</time></trkpt><trkpt lat="43.3193438" lon="10.5351734"><ele>10.0</ele><time>2026-04-19T14:21:11.166Z</time></trkpt><trkpt lat="43.3194321" lon="10.5351432"><ele>10.0</ele><time>2026-04-19T14:21:12.134Z</time></trkpt><trkpt lat="43.3195483" lon="10.5350826"><ele>10.0</ele><time>2026-04-19T14:21:13.133Z</time></trkpt><trkpt lat="43.3196795" lon="10.5350134"><ele>10.0</ele><time>2026-04-19T14:21:14.133Z</time></trkpt><trkpt lat="43.3198154" lon="10.5349371"><ele>9.5</ele><time>2026-04-19T14:21:15.165Z</time></trkpt><trkpt lat="43.3199472" lon="10.5348597"><ele>9.0</ele><time>2026-04-19T14:21:16.159Z</time></trkpt><trkpt lat="43.3200802" lon="10.5347855"><ele>8.5</ele><time>2026-04-19T14:21:17.143Z</time></trkpt><trkpt lat="43.3202151" lon="10.5347234"><ele>8.0</ele><time>2026-04-19T14:21:18.13Z</time></trkpt><trkpt lat="43.3203556" lon="10.5346846"><ele>8.0</ele><time>2026-04-19T14:21:19.133Z</time></trkpt><trkpt lat="43.320502" lon="10.5346807"><ele>8.0</ele><time>2026-04-19T14:21:20.16Z</time></trkpt><trkpt lat="43.3206526" lon="10.5347289"><ele>8.0</ele><time>2026-04-19T14:21:21.13Z</time></trkpt><trkpt lat="43.3208024" lon="10.5348259"><ele>8.666666666666666</ele><time>2026-04-19T14:21:22.141Z</time></trkpt><trkpt lat="43.3209487" lon="10.534955"><ele>9.333333333333334</ele><time>2026-04-19T14:21:23.133Z</time></trkpt><trkpt lat="43.3210913" lon="10.5350958"><ele>10.0</ele><time>2026-04-19T14:21:24.135Z</time></trkpt><trkpt lat="43.3212362" lon="10.5352436"><ele>10.0</ele><time>2026-04-19T14:21:25.133Z</time></trkpt><trkpt lat="43.3213857" lon="10.5353899"><ele>10.0</ele><time>2026-04-19T14:21:26.163Z</time></trkpt><trkpt lat="43.3215401" lon="10.5355341"><ele>10.0</ele><time>2026-04-19T14:21:27.16Z</time></trkpt><trkpt lat="43.3216939" lon="10.5356788"><ele>10.0</ele><time>2026-04-19T14:21:28.14Z</time></trkpt><trkpt lat="43.3218452" lon="10.5358237"><ele>10.0</ele><time>2026-04-19T14:21:29.134Z</time></trkpt><trkpt lat="43.3219996" lon="10.5359697"><ele>10.0</ele><time>2026-04-19T14:21:30.135Z</time></trkpt><trkpt lat="43.3221524" lon="10.5361227"><ele>9.666666666666668</ele><time>2026-04-19T14:21:31.136Z</time></trkpt><trkpt lat="43.3222918" lon="10.5362938"><ele>9.333333333333334</ele><time>2026-04-19T14:21:32.164Z</time></trkpt><trkpt lat="43.3224125" lon="10.5364958"><ele>9.0</ele><time>2026-04-19T14:21:33.132Z</time></trkpt><trkpt lat="43.3225072" lon="10.5367239"><ele>9.0</ele><time>2026-04-19T14:21:34.161Z</time></trkpt><trkpt lat="43.3225792" lon="10.5369692"><ele>9.0</ele><time>2026-04-19T14:21:35.135Z</time></trkpt><trkpt lat="43.3226498" lon="10.5372096"><ele>9.0</ele><time>2026-04-19T14:21:36.131Z</time></trkpt><trkpt lat="43.3227202" lon="10.5374476"><ele>9.0</ele><time>2026-04-19T14:21:37.14Z</time></trkpt><trkpt lat="43.3227924" lon="10.5376801"><ele>9.0</ele><time>2026-04-19T14:21:38.134Z</time></trkpt><trkpt lat="43.3228668" lon="10.5379109"><ele>9.0</ele><time>2026-04-19T14:21:39.133Z</time></trkpt><trkpt lat="43.3229418" lon="10.5381436"><ele>9.0</ele><time>2026-04-19T14:21:40.132Z</time></trkpt><trkpt lat="43.3230169" lon="10.5383781"><ele>9.0</ele><time>2026-04-19T14:21:41.14Z</time></trkpt><trkpt lat="43.3230932" lon="10.538617"><ele>9.0</ele><time>2026-04-19T14:21:42.134Z</time></trkpt><trkpt lat="43.3231711" lon="10.5388595"><ele>8.666666666666666</ele><time>2026-04-19T14:21:43.134Z</time></trkpt><trkpt lat="43.3232486" lon="10.5391016"><ele>8.333333333333332</ele><time>2026-04-19T14:21:44.132Z</time></trkpt><trkpt lat="43.3233246" lon="10.5393431"><ele>8.0</ele><time>2026-04-19T14:21:45.13Z</time></trkpt><trkpt lat="43.3233987" lon="10.5395807"><ele>8.0</ele><time>2026-04-19T14:21:46.142Z</time></trkpt><trkpt lat="43.3234707" lon="10.5398145"><ele>8.0</ele><time>2026-04-19T14:21:47.143Z</time></trkpt><trkpt lat="43.3235414" lon="10.540045"><ele>8.0</ele><time>2026-04-19T14:21:48.132Z</time></trkpt><trkpt lat="43.3236116" lon="10.5402736"><ele>8.333333333333332</ele><time>2026-04-19T14:21:49.164Z</time></trkpt><trkpt lat="43.3236829" lon="10.5405011"><ele>8.666666666666666</ele><time>2026-04-19T14:21:50.134Z</time></trkpt><trkpt lat="43.3237552" lon="10.5407301"><ele>9.0</ele><time>2026-04-19T14:21:51.132Z</time></trkpt><trkpt lat="43.3238307" lon="10.5409608"><ele>8.666666666666666</ele><time>2026-04-19T14:21:52.163Z</time></trkpt><trkpt lat="43.3239087" lon="10.5411937"><ele>8.333333333333332</ele><time>2026-04-19T14:21:53.133Z</time></trkpt><trkpt lat="43.323988" lon="10.5414316"><ele>8.0</ele><time>2026-04-19T14:21:54.164Z</time></trkpt><trkpt lat="43.324067" lon="10.5416768"><ele>8.0</ele><time>2026-04-19T14:21:55.129Z</time></trkpt><trkpt lat="43.3241475" lon="10.5419293"><ele>8.0</ele><time>2026-04-19T14:21:56.138Z</time></trkpt><trkpt lat="43.3242294" lon="10.5421882"><ele>8.0</ele><time>2026-04-19T14:21:57.136Z</time></trkpt><trkpt lat="43.3243138" lon="10.5424516"><ele>8.333333333333332</ele><time>2026-04-19T14:21:58.161Z</time></trkpt><trkpt lat="43.3243986" lon="10.5427207"><ele>8.666666666666666</ele><time>2026-04-19T14:21:59.134Z</time></trkpt><trkpt lat="43.324483" lon="10.5429909"><ele>9.0</ele><time>2026-04-19T14:22:00.136Z</time></trkpt><trkpt lat="43.3245682" lon="10.5432592"><ele>9.0</ele><time>2026-04-19T14:22:01.163Z</time></trkpt><trkpt lat="43.3246521" lon="10.5435243"><ele>9.0</ele><time>2026-04-19T14:22:02.135Z</time></trkpt><trkpt lat="43.3247356" lon="10.5437857"><ele>9.0</ele><time>2026-04-19T14:22:03.132Z</time></trkpt><trkpt lat="43.3248208" lon="10.5440452"><ele>9.0</ele><time>2026-04-19T14:22:04.133Z</time></trkpt><trkpt lat="43.3249042" lon="10.5443043"><ele>9.0</ele><time>2026-04-19T14:22:05.134Z</time></trkpt><trkpt lat="43.324987" lon="10.5445648"><ele>9.0</ele><time>2026-04-19T14:22:06.134Z</time></trkpt><trkpt lat="43.3250703" lon="10.544827"><ele>9.666666666666666</ele><time>2026-04-19T14:22:07.13Z</time></trkpt><trkpt lat="43.3251539" lon="10.5450899"><ele>10.333333333333332</ele><time>2026-04-19T14:22:08.131Z</time></trkpt><trkpt lat="43.325237" lon="10.5453496"><ele>11.0</ele><time>2026-04-19T14:22:09.133Z</time></trkpt><trkpt lat="43.3253225" lon="10.5456118"><ele>11.333333333333332</ele><time>2026-04-19T14:22:10.139Z</time></trkpt><trkpt lat="43.3254099" lon="10.5458797"><ele>11.666666666666666</ele><time>2026-04-19T14:22:11.161Z</time></trkpt><trkpt lat="43.3254961" lon="10.5461462"><ele>12.0</ele><time>2026-04-19T14:22:12.163Z</time></trkpt><trkpt lat="43.3255813" lon="10.5464128"><ele>11.0</ele><time>2026-04-19T14:22:13.135Z</time></trkpt><trkpt lat="43.3256653" lon="10.5466794"><ele>10.0</ele><time>2026-04-19T14:22:14.132Z</time></trkpt><trkpt lat="43.325749" lon="10.5469463"><ele>9.0</ele><time>2026-04-19T14:22:15.134Z</time></trkpt><trkpt lat="43.3258316" lon="10.5472129"><ele>9.0</ele><time>2026-04-19T14:22:16.15Z</time></trkpt><trkpt lat="43.3259139" lon="10.5474794"><ele>9.0</ele><time>2026-04-19T14:22:17.143Z</time></trkpt><trkpt lat="43.3260037" lon="10.5477518"><ele>9.0</ele><time>2026-04-19T14:22:18.132Z</time></trkpt><trkpt lat="43.3260898" lon="10.5480199"><ele>9.0</ele><time>2026-04-19T14:22:19.128Z</time></trkpt><trkpt lat="43.3261678" lon="10.5482794"><ele>9.0</ele><time>2026-04-19T14:22:20.135Z</time></trkpt><trkpt lat="43.32625" lon="10.5485392"><ele>9.0</ele><time>2026-04-19T14:22:21.132Z</time></trkpt><trkpt lat="43.3263303" lon="10.5487998"><ele>9.333333333333334</ele><time>2026-04-19T14:22:22.159Z</time></trkpt><trkpt lat="43.3264102" lon="10.5490607"><ele>9.666666666666668</ele><time>2026-04-19T14:22:23.135Z</time></trkpt><trkpt lat="43.3264914" lon="10.5493196"><ele>10.0</ele><time>2026-04-19T14:22:24.132Z</time></trkpt><trkpt lat="43.326573" lon="10.5495762"><ele>10.0</ele><time>2026-04-19T14:22:25.135Z</time></trkpt><trkpt lat="43.3266538" lon="10.5498315"><ele>10.0</ele><time>2026-04-19T14:22:26.163Z</time></trkpt><trkpt lat="43.3267348" lon="10.5500844"><ele>10.0</ele><time>2026-04-19T14:22:27.128Z</time></trkpt><trkpt lat="43.3268138" lon="10.5503394"><ele>10.666666666666668</ele><time>2026-04-19T14:22:28.163Z</time></trkpt><trkpt lat="43.3268948" lon="10.5505932"><ele>11.333333333333334</ele><time>2026-04-19T14:22:29.141Z</time></trkpt><trkpt lat="43.3269756" lon="10.5508467"><ele>12.0</ele><time>2026-04-19T14:22:30.136Z</time></trkpt><trkpt lat="43.3270585" lon="10.5510985"><ele>11.666666666666666</ele><time>2026-04-19T14:22:31.133Z</time></trkpt><trkpt lat="43.3271443" lon="10.5513483"><ele>11.333333333333332</ele><time>2026-04-19T14:22:32.159Z</time></trkpt><trkpt lat="43.3272353" lon="10.5515955"><ele>11.0</ele><time>2026-04-19T14:22:33.128Z</time></trkpt><trkpt lat="43.327336" lon="10.5518392"><ele>11.0</ele><time>2026-04-19T14:22:34.136Z</time></trkpt><trkpt lat="43.327446" lon="10.5520735"><ele>11.0</ele><time>2026-04-19T14:22:35.136Z</time></trkpt><trkpt lat="43.3275651" lon="10.5522988"><ele>11.0</ele><time>2026-04-19T14:22:36.162Z</time></trkpt><trkpt lat="43.3276892" lon="10.5525198"><ele>11.0</ele><time>2026-04-19T14:22:37.131Z</time></trkpt><trkpt lat="43.3278166" lon="10.55274"><ele>11.0</ele><time>2026-04-19T14:22:38.13Z</time></trkpt><trkpt lat="43.3279442" lon="10.552961"><ele>11.0</ele><time>2026-04-19T14:22:39.134Z</time></trkpt><trkpt lat="43.3280707" lon="10.5531811"><ele>10.666666666666666</ele><time>2026-04-19T14:22:40.132Z</time></trkpt><trkpt lat="43.3281943" lon="10.5534043"><ele>10.333333333333334</ele><time>2026-04-19T14:22:41.134Z</time></trkpt><trkpt lat="43.3283173" lon="10.5536296"><ele>10.0</ele><time>2026-04-19T14:22:42.133Z</time></trkpt><trkpt lat="43.32844" lon="10.5538564"><ele>10.0</ele><time>2026-04-19T14:22:43.145Z</time></trkpt><trkpt lat="43.3285615" lon="10.5540822"><ele>10.0</ele><time>2026-04-19T14:22:44.16Z</time></trkpt><trkpt lat="43.3286843" lon="10.5543036"><ele>10.0</ele><time>2026-04-19T14:22:45.144Z</time></trkpt><trkpt lat="43.3288089" lon="10.5545224"><ele>10.333333333333334</ele><time>2026-04-19T14:22:46.163Z</time></trkpt><trkpt lat="43.3289361" lon="10.5547378"><ele>10.666666666666666</ele><time>2026-04-19T14:22:47.145Z</time></trkpt><trkpt lat="43.329066" lon="10.5549499"><ele>11.0</ele><time>2026-04-19T14:22:48.14Z</time></trkpt><trkpt lat="43.3291967" lon="10.5551599"><ele>11.0</ele><time>2026-04-19T14:22:49.138Z</time></trkpt><trkpt lat="43.3293289" lon="10.5553682"><ele>11.0</ele><time>2026-04-19T14:22:50.132Z</time></trkpt><trkpt lat="43.3294622" lon="10.5555784"><ele>11.0</ele><time>2026-04-19T14:22:51.136Z</time></trkpt><trkpt lat="43.3295968" lon="10.5557882"><ele>11.333333333333332</ele><time>2026-04-19T14:22:52.137Z</time></trkpt><trkpt lat="43.3297315" lon="10.5559992"><ele>11.666666666666666</ele><time>2026-04-19T14:22:53.133Z</time></trkpt><trkpt lat="43.3298688" lon="10.5562111"><ele>12.0</ele><time>2026-04-19T14:22:54.139Z</time></trkpt><trkpt lat="43.3300065" lon="10.5564223"><ele>12.0</ele><time>2026-04-19T14:22:55.139Z</time></trkpt><trkpt lat="43.3301433" lon="10.5566317"><ele>12.0</ele><time>2026-04-19T14:22:56.132Z</time></trkpt><trkpt lat="43.3302799" lon="10.5568416"><ele>12.0</ele><time>2026-04-19T14:22:57.129Z</time></trkpt><trkpt lat="43.3304156" lon="10.5570522"><ele>12.0</ele><time>2026-04-19T14:22:58.131Z</time></trkpt><trkpt lat="43.3305506" lon="10.5572619"><ele>12.0</ele><time>2026-04-19T14:22:59.132Z</time></trkpt><trkpt lat="43.3306868" lon="10.5574753"><ele>12.0</ele><time>2026-04-19T14:23:00.131Z</time></trkpt><trkpt lat="43.3308241" lon="10.5576907"><ele>12.0</ele><time>2026-04-19T14:23:01.135Z</time></trkpt><trkpt lat="43.3309621" lon="10.557908"><ele>12.0</ele><time>2026-04-19T14:23:02.133Z</time></trkpt><trkpt lat="43.3310987" lon="10.5581274"><ele>12.0</ele><time>2026-04-19T14:23:03.132Z</time></trkpt><trkpt lat="43.3312349" lon="10.5583479"><ele>12.0</ele><time>2026-04-19T14:23:04.164Z</time></trkpt><trkpt lat="43.3313698" lon="10.5585689"><ele>12.0</ele><time>2026-04-19T14:23:05.131Z</time></trkpt><trkpt lat="43.3315046" lon="10.5587899"><ele>12.0</ele><time>2026-04-19T14:23:06.128Z</time></trkpt><trkpt lat="43.3316435" lon="10.5590051"><ele>12.0</ele><time>2026-04-19T14:23:07.129Z</time></trkpt><trkpt lat="43.3317826" lon="10.5592213"><ele>12.0</ele><time>2026-04-19T14:23:08.143Z</time></trkpt><trkpt lat="43.3319181" lon="10.5594437"><ele>12.0</ele><time>2026-04-19T14:23:09.129Z</time></trkpt><trkpt lat="43.3320544" lon="10.5596635"><ele>12.333333333333332</ele><time>2026-04-19T14:23:10.162Z</time></trkpt><trkpt lat="43.3321866" lon="10.5598828"><ele>12.666666666666666</ele><time>2026-04-19T14:23:11.13Z</time></trkpt><trkpt lat="43.3323175" lon="10.5601013"><ele>13.0</ele><time>2026-04-19T14:23:12.128Z</time></trkpt><trkpt lat="43.3324474" lon="10.5603177"><ele>13.666666666666666</ele><time>2026-04-19T14:23:13.135Z</time></trkpt><trkpt lat="43.332576" lon="10.5605317"><ele>14.333333333333332</ele><time>2026-04-19T14:23:14.142Z</time></trkpt><trkpt lat="43.3327038" lon="10.5607432"><ele>15.0</ele><time>2026-04-19T14:23:15.131Z</time></trkpt><trkpt lat="43.3328313" lon="10.5609527"><ele>15.0</ele><time>2026-04-19T14:23:16.134Z</time></trkpt><trkpt lat="43.332954" lon="10.5611555"><ele>15.0</ele><time>2026-04-19T14:23:17.169Z</time></trkpt><trkpt lat="43.3330714" lon="10.5613474"><ele>15.0</ele><time>2026-04-19T14:23:18.162Z</time></trkpt><trkpt lat="43.3331795" lon="10.5615332"><ele>15.25</ele><time>2026-04-19T14:23:19.132Z</time></trkpt><trkpt lat="43.333277" lon="10.5617109"><ele>15.5</ele><time>2026-04-19T14:23:20.134Z</time></trkpt><trkpt lat="43.3333592" lon="10.5618783"><ele>15.75</ele><time>2026-04-19T14:23:21.132Z</time></trkpt><trkpt lat="43.3334161" lon="10.5620362"><ele>16.0</ele><time>2026-04-19T14:23:22.129Z</time></trkpt><trkpt lat="43.333448" lon="10.5621843"><ele>16.0</ele><time>2026-04-19T14:23:23.168Z</time></trkpt><trkpt lat="43.3334458" lon="10.5623253"><ele>16.0</ele><time>2026-04-19T14:23:24.16Z</time></trkpt><trkpt lat="43.3334329" lon="10.5624689"><ele>16.0</ele><time>2026-04-19T14:23:25.132Z</time></trkpt><trkpt lat="43.3334407" lon="10.5626072"><ele>16.0</ele><time>2026-04-19T14:23:26.132Z</time></trkpt><trkpt lat="43.3334765" lon="10.5627135"><ele>16.0</ele><time>2026-04-19T14:23:27.137Z</time></trkpt><trkpt lat="43.3335411" lon="10.5627818"><ele>16.0</ele><time>2026-04-19T14:23:28.132Z</time></trkpt><trkpt lat="43.3336338" lon="10.5628188"><ele>16.0</ele><time>2026-04-19T14:23:29.16Z</time></trkpt><trkpt lat="43.3337477" lon="10.5628566"><ele>16.0</ele><time>2026-04-19T14:23:30.133Z</time></trkpt><trkpt lat="43.333868" lon="10.5629359"><ele>16.0</ele><time>2026-04-19T14:23:31.16Z</time></trkpt><trkpt lat="43.3339836" lon="10.5630562"><ele>15.666666666666666</ele><time>2026-04-19T14:23:32.128Z</time></trkpt><trkpt lat="43.3341036" lon="10.5632003"><ele>15.333333333333332</ele><time>2026-04-19T14:23:33.128Z</time></trkpt><trkpt lat="43.334227" lon="10.56336"><ele>15.0</ele><time>2026-04-19T14:23:34.134Z</time></trkpt><trkpt lat="43.3343532" lon="10.5635294"><ele>14.333333333333332</ele><time>2026-04-19T14:23:35.166Z</time></trkpt><trkpt lat="43.3344798" lon="10.5637087"><ele>13.666666666666666</ele><time>2026-04-19T14:23:36.139Z</time></trkpt><trkpt lat="43.3346118" lon="10.563897"><ele>13.0</ele><time>2026-04-19T14:23:37.163Z</time></trkpt><trkpt lat="43.3347425" lon="10.5640907"><ele>13.0</ele><time>2026-04-19T14:23:38.135Z</time></trkpt><trkpt lat="43.3348702" lon="10.5642854"><ele>13.0</ele><time>2026-04-19T14:23:39.14Z</time></trkpt><trkpt lat="43.3349933" lon="10.564485"><ele>13.0</ele><time>2026-04-19T14:23:40.132Z</time></trkpt><trkpt lat="43.335119" lon="10.5646827"><ele>13.0</ele><time>2026-04-19T14:23:41.158Z</time></trkpt><trkpt lat="43.3352451" lon="10.5648824"><ele>13.0</ele><time>2026-04-19T14:23:42.133Z</time></trkpt><trkpt lat="43.3353719" lon="10.5650809"><ele>13.0</ele><time>2026-04-19T14:23:43.133Z</time></trkpt><trkpt lat="43.3355" lon="10.5652795"><ele>13.333333333333332</ele><time>2026-04-19T14:23:44.132Z</time></trkpt><trkpt lat="43.3356291" lon="10.5654792"><ele>13.666666666666668</ele><time>2026-04-19T14:23:45.162Z</time></trkpt><trkpt lat="43.3357609" lon="10.5656787"><ele>14.0</ele><time>2026-04-19T14:23:46.134Z</time></trkpt><trkpt lat="43.3358943" lon="10.5658802"><ele>14.0</ele><time>2026-04-19T14:23:47.143Z</time></trkpt><trkpt lat="43.3360276" lon="10.5660831"><ele>14.0</ele><time>2026-04-19T14:23:48.137Z</time></trkpt><trkpt lat="43.3361599" lon="10.5662866"><ele>14.0</ele><time>2026-04-19T14:23:49.135Z</time></trkpt><trkpt lat="43.3362909" lon="10.5664914"><ele>14.333333333333334</ele><time>2026-04-19T14:23:50.135Z</time></trkpt><trkpt lat="43.3364217" lon="10.5666959"><ele>14.666666666666668</ele><time>2026-04-19T14:23:51.134Z</time></trkpt><trkpt lat="43.3365521" lon="10.5669"><ele>15.0</ele><time>2026-04-19T14:23:52.162Z</time></trkpt><trkpt lat="43.3366816" lon="10.5671053"><ele>15.0</ele><time>2026-04-19T14:23:53.135Z</time></trkpt><trkpt lat="43.3368096" lon="10.5673134"><ele>15.0</ele><time>2026-04-19T14:23:54.133Z</time></trkpt><trkpt lat="43.3369339" lon="10.5675251"><ele>15.0</ele><time>2026-04-19T14:23:55.127Z</time></trkpt><trkpt lat="43.3370535" lon="10.5677427"><ele>14.666666666666668</ele><time>2026-04-19T14:23:56.131Z</time></trkpt><trkpt lat="43.3371704" lon="10.5679626"><ele>14.333333333333334</ele><time>2026-04-19T14:23:57.138Z</time></trkpt><trkpt lat="43.3372872" lon="10.5681819"><ele>14.0</ele><time>2026-04-19T14:23:58.133Z</time></trkpt><trkpt lat="43.3374062" lon="10.5683986"><ele>14.666666666666668</ele><time>2026-04-19T14:23:59.129Z</time></trkpt><trkpt lat="43.3375254" lon="10.5686143"><ele>15.333333333333332</ele><time>2026-04-19T14:24:00.136Z</time></trkpt><trkpt lat="43.3376456" lon="10.5688307"><ele>16.0</ele><time>2026-04-19T14:24:01.136Z</time></trkpt><trkpt lat="43.3377655" lon="10.5690474"><ele>16.0</ele><time>2026-04-19T14:24:02.167Z</time></trkpt><trkpt lat="43.3378852" lon="10.5692641"><ele>16.0</ele><time>2026-04-19T14:24:03.167Z</time></trkpt><trkpt lat="43.3380065" lon="10.5694794"><ele>16.0</ele><time>2026-04-19T14:24:04.132Z</time></trkpt><trkpt lat="43.3381283" lon="10.5696939"><ele>15.666666666666666</ele><time>2026-04-19T14:24:05.133Z</time></trkpt><trkpt lat="43.3382492" lon="10.5699103"><ele>15.333333333333332</ele><time>2026-04-19T14:24:06.14Z</time></trkpt><trkpt lat="43.3383713" lon="10.5701243"><ele>15.0</ele><time>2026-04-19T14:24:07.139Z</time></trkpt><trkpt lat="43.3384932" lon="10.5703387"><ele>18.333333333333336</ele><time>2026-04-19T14:24:08.139Z</time></trkpt><trkpt lat="43.338612" lon="10.5705567"><ele>21.666666666666668</ele><time>2026-04-19T14:24:09.14Z</time></trkpt><trkpt lat="43.3387275" lon="10.570778"><ele>25.0</ele><time>2026-04-19T14:24:10.132Z</time></trkpt><trkpt lat="43.3388374" lon="10.5710053"><ele>21.666666666666668</ele><time>2026-04-19T14:24:11.141Z</time></trkpt><trkpt lat="43.3389432" lon="10.5712356"><ele>18.333333333333336</ele><time>2026-04-19T14:24:12.165Z</time></trkpt><trkpt lat="43.3390442" lon="10.5714709"><ele>15.0</ele><time>2026-04-19T14:24:13.13Z</time></trkpt><trkpt lat="43.3391428" lon="10.5717099"><ele>15.0</ele><time>2026-04-19T14:24:14.133Z</time></trkpt><trkpt lat="43.3392405" lon="10.5719482"><ele>15.0</ele><time>2026-04-19T14:24:15.163Z</time></trkpt><trkpt lat="43.3393399" lon="10.5721827"><ele>15.0</ele><time>2026-04-19T14:24:16.129Z</time></trkpt><trkpt lat="43.3394404" lon="10.5724162"><ele>14.333333333333332</ele><time>2026-04-19T14:24:17.164Z</time></trkpt><trkpt lat="43.3395404" lon="10.5726489"><ele>13.666666666666666</ele><time>2026-04-19T14:24:18.136Z</time></trkpt><trkpt lat="43.3396405" lon="10.5728815"><ele>13.0</ele><time>2026-04-19T14:24:19.132Z</time></trkpt><trkpt lat="43.3397406" lon="10.5731129"><ele>12.333333333333332</ele><time>2026-04-19T14:24:20.137Z</time></trkpt><trkpt lat="43.3398398" lon="10.5733452"><ele>11.666666666666666</ele><time>2026-04-19T14:24:21.14Z</time></trkpt><trkpt lat="43.3399382" lon="10.573581"><ele>11.0</ele><time>2026-04-19T14:24:22.136Z</time></trkpt><trkpt lat="43.3400369" lon="10.5738177"><ele>11.0</ele><time>2026-04-19T14:24:23.131Z</time></trkpt><trkpt lat="43.3401356" lon="10.5740528"><ele>11.0</ele><time>2026-04-19T14:24:24.161Z</time></trkpt><trkpt lat="43.3402335" lon="10.5742889"><ele>11.0</ele><time>2026-04-19T14:24:25.133Z</time></trkpt><trkpt lat="43.3403306" lon="10.5745263"><ele>11.666666666666666</ele><time>2026-04-19T14:24:26.131Z</time></trkpt><trkpt lat="43.3404298" lon="10.5747619"><ele>12.333333333333332</ele><time>2026-04-19T14:24:27.161Z</time></trkpt><trkpt lat="43.3405275" lon="10.5749984"><ele>13.0</ele><time>2026-04-19T14:24:28.133Z</time></trkpt><trkpt lat="43.3406258" lon="10.5752335"><ele>14.0</ele><time>2026-04-19T14:24:29.164Z</time></trkpt><trkpt lat="43.340724" lon="10.5754696"><ele>15.0</ele><time>2026-04-19T14:24:30.134Z</time></trkpt><trkpt lat="43.3408254" lon="10.5757056"><ele>16.0</ele><time>2026-04-19T14:24:31.143Z</time></trkpt><trkpt lat="43.3409264" lon="10.5759409"><ele>16.0</ele><time>2026-04-19T14:24:32.164Z</time></trkpt><trkpt lat="43.3410261" lon="10.5761766"><ele>16.0</ele><time>2026-04-19T14:24:33.136Z</time></trkpt><trkpt lat="43.3411265" lon="10.5764105"><ele>16.0</ele><time>2026-04-19T14:24:34.13Z</time></trkpt><trkpt lat="43.3412262" lon="10.576646"><ele>16.333333333333332</ele><time>2026-04-19T14:24:35.167Z</time></trkpt><trkpt lat="43.3413255" lon="10.5768814"><ele>16.666666666666668</ele><time>2026-04-19T14:24:36.165Z</time></trkpt><trkpt lat="43.3414239" lon="10.5771163"><ele>17.0</ele><time>2026-04-19T14:24:37.13Z</time></trkpt><trkpt lat="43.3415221" lon="10.5773512"><ele>17.333333333333336</ele><time>2026-04-19T14:24:38.128Z</time></trkpt><trkpt lat="43.3416193" lon="10.5775861"><ele>17.666666666666668</ele><time>2026-04-19T14:24:39.136Z</time></trkpt><trkpt lat="43.3417145" lon="10.5778187"><ele>18.0</ele><time>2026-04-19T14:24:40.135Z</time></trkpt><trkpt lat="43.3418035" lon="10.5780402"><ele>18.666666666666668</ele><time>2026-04-19T14:24:41.133Z</time></trkpt><trkpt lat="43.3418863" lon="10.5782466"><ele>19.333333333333336</ele><time>2026-04-19T14:24:42.173Z</time></trkpt><trkpt lat="43.3419639" lon="10.5784409"><ele>20.0</ele><time>2026-04-19T14:24:43.131Z</time></trkpt><trkpt lat="43.3420361" lon="10.5786197"><ele>20.8</ele><time>2026-04-19T14:24:44.126Z</time></trkpt><trkpt lat="43.3421043" lon="10.5787767"><ele>21.6</ele><time>2026-04-19T14:24:45.144Z</time></trkpt><trkpt lat="43.3421664" lon="10.5789021"><ele>22.4</ele><time>2026-04-19T14:24:46.154Z</time></trkpt><trkpt lat="43.3422201" lon="10.5789868"><ele>23.2</ele><time>2026-04-19T14:24:47.136Z</time></trkpt><trkpt lat="43.3422816" lon="10.5790479"><ele>24.0</ele><time>2026-04-19T14:24:49.131Z</time></trkpt><trkpt lat="43.3423429" lon="10.5791265"><ele>24.0</ele><time>2026-04-19T14:24:52.133Z</time></trkpt><trkpt lat="43.3424307" lon="10.5792546"><ele>24.0</ele><time>2026-04-19T14:24:54.161Z</time></trkpt><trkpt lat="43.3424825" lon="10.5793366"><ele>24.0</ele><time>2026-04-19T14:24:55.132Z</time></trkpt><trkpt lat="43.3425346" lon="10.5794402"><ele>24.0</ele><time>2026-04-19T14:24:56.165Z</time></trkpt><trkpt lat="43.3425804" lon="10.5795663"><ele>24.0</ele><time>2026-04-19T14:24:57.134Z</time></trkpt><trkpt lat="43.3426175" lon="10.5797121"><ele>25.0</ele><time>2026-04-19T14:24:58.133Z</time></trkpt><trkpt lat="43.3426568" lon="10.5798655"><ele>26.0</ele><time>2026-04-19T14:24:59.132Z</time></trkpt><trkpt lat="43.3426991" lon="10.5800163"><ele>27.0</ele><time>2026-04-19T14:25:00.136Z</time></trkpt><trkpt lat="43.3427394" lon="10.5801624"><ele>28.0</ele><time>2026-04-19T14:25:01.137Z</time></trkpt><trkpt lat="43.3427828" lon="10.5803029"><ele>28.2</ele><time>2026-04-19T14:25:02.134Z</time></trkpt><trkpt lat="43.3428286" lon="10.580437"><ele>28.4</ele><time>2026-04-19T14:25:03.133Z</time></trkpt><trkpt lat="43.3428775" lon="10.5805686"><ele>28.599999999999998</ele><time>2026-04-19T14:25:04.135Z</time></trkpt><trkpt lat="43.3429303" lon="10.5807034"><ele>28.799999999999997</ele><time>2026-04-19T14:25:05.137Z</time></trkpt><trkpt lat="43.342985" lon="10.5808457"><ele>29.0</ele><time>2026-04-19T14:25:06.129Z</time></trkpt><trkpt lat="43.343038" lon="10.5809935"><ele>29.0</ele><time>2026-04-19T14:25:07.131Z</time></trkpt><trkpt lat="43.3430899" lon="10.5811432"><ele>29.0</ele><time>2026-04-19T14:25:08.132Z</time></trkpt><trkpt lat="43.3431382" lon="10.5812929"><ele>29.0</ele><time>2026-04-19T14:25:09.16Z</time></trkpt><trkpt lat="43.3431816" lon="10.5814396"><ele>29.0</ele><time>2026-04-19T14:25:10.131Z</time></trkpt><trkpt lat="43.3432187" lon="10.5815805"><ele>28.999999999999996</ele><time>2026-04-19T14:25:11.13Z</time></trkpt><trkpt lat="43.3432475" lon="10.5817148"><ele>29.0</ele><time>2026-04-19T14:25:12.13Z</time></trkpt><trkpt lat="43.3432677" lon="10.5818409"><ele>29.0</ele><time>2026-04-19T14:25:13.159Z</time></trkpt><trkpt lat="43.3432803" lon="10.5819571"><ele>29.0</ele><time>2026-04-19T14:25:14.13Z</time></trkpt><trkpt lat="43.3432858" lon="10.5820675"><ele>28.999999999999996</ele><time>2026-04-19T14:25:15.163Z</time></trkpt><trkpt lat="43.3432723" lon="10.5821742"><ele>29.0</ele><time>2026-04-19T14:25:16.161Z</time></trkpt><trkpt lat="43.343236" lon="10.5822792"><ele>28.333333333333332</ele><time>2026-04-19T14:25:17.139Z</time></trkpt><trkpt lat="43.3431884" lon="10.5823832"><ele>27.666666666666664</ele><time>2026-04-19T14:25:18.129Z</time></trkpt><trkpt lat="43.3431562" lon="10.5824835"><ele>27.0</ele><time>2026-04-19T14:25:19.152Z</time></trkpt><trkpt lat="43.3431558" lon="10.5825807"><ele>26.333333333333336</ele><time>2026-04-19T14:25:20.131Z</time></trkpt><trkpt lat="43.3431922" lon="10.5826637"><ele>25.666666666666668</ele><time>2026-04-19T14:25:21.139Z</time></trkpt><trkpt lat="43.3432608" lon="10.5827156"><ele>25.0</ele><time>2026-04-19T14:25:22.133Z</time></trkpt><trkpt lat="43.343353" lon="10.5827356"><ele>25.0</ele><time>2026-04-19T14:25:23.14Z</time></trkpt><trkpt lat="43.3434596" lon="10.5827388"><ele>25.0</ele><time>2026-04-19T14:25:24.136Z</time></trkpt><trkpt lat="43.3435712" lon="10.5827518"><ele>25.0</ele><time>2026-04-19T14:25:25.129Z</time></trkpt><trkpt lat="43.3436889" lon="10.5828019"><ele>25.0</ele><time>2026-04-19T14:25:26.13Z</time></trkpt><trkpt lat="43.3438064" lon="10.5828815"><ele>26.0</ele><time>2026-04-19T14:25:27.135Z</time></trkpt><trkpt lat="43.3439314" lon="10.5829764"><ele>27.0</ele><time>2026-04-19T14:25:28.134Z</time></trkpt><trkpt lat="43.3440679" lon="10.5830787"><ele>28.0</ele><time>2026-04-19T14:25:29.132Z</time></trkpt><trkpt lat="43.3442139" lon="10.5831832"><ele>28.0</ele><time>2026-04-19T14:25:30.139Z</time></trkpt><trkpt lat="43.3443589" lon="10.5832908"><ele>28.0</ele><time>2026-04-19T14:25:31.164Z</time></trkpt><trkpt lat="43.3445005" lon="10.5833951"><ele>28.0</ele><time>2026-04-19T14:25:32.138Z</time></trkpt><trkpt lat="43.3446429" lon="10.5835011"><ele>27.666666666666668</ele><time>2026-04-19T14:25:33.149Z</time></trkpt><trkpt lat="43.3447856" lon="10.5836139"><ele>27.333333333333336</ele><time>2026-04-19T14:25:34.132Z</time></trkpt><trkpt lat="43.3449326" lon="10.5837297"><ele>27.0</ele><time>2026-04-19T14:25:35.13Z</time></trkpt><trkpt lat="43.3450832" lon="10.5838453"><ele>27.0</ele><time>2026-04-19T14:25:36.136Z</time></trkpt><trkpt lat="43.3452374" lon="10.583964"><ele>27.0</ele><time>2026-04-19T14:25:37.147Z</time></trkpt><trkpt lat="43.3453932" lon="10.584082"><ele>27.0</ele><time>2026-04-19T14:25:38.129Z</time></trkpt><trkpt lat="43.3455492" lon="10.5841967"><ele>27.333333333333336</ele><time>2026-04-19T14:25:39.132Z</time></trkpt><trkpt lat="43.3457082" lon="10.5843111"><ele>27.666666666666668</ele><time>2026-04-19T14:25:40.133Z</time></trkpt><trkpt lat="43.3458732" lon="10.5844318"><ele>28.0</ele><time>2026-04-19T14:25:41.135Z</time></trkpt><trkpt lat="43.346045" lon="10.584559"><ele>28.0</ele><time>2026-04-19T14:25:42.133Z</time></trkpt><trkpt lat="43.346223" lon="10.5846926"><ele>28.0</ele><time>2026-04-19T14:25:43.162Z</time></trkpt><trkpt lat="43.3464044" lon="10.5848281"><ele>28.0</ele><time>2026-04-19T14:25:44.133Z</time></trkpt><trkpt lat="43.3465863" lon="10.5849627"><ele>28.0</ele><time>2026-04-19T14:25:45.132Z</time></trkpt><trkpt lat="43.3467653" lon="10.5850942"><ele>28.0</ele><time>2026-04-19T14:25:46.138Z</time></trkpt><trkpt lat="43.3469387" lon="10.5852283"><ele>28.0</ele><time>2026-04-19T14:25:47.164Z</time></trkpt><trkpt lat="43.347112" lon="10.5853599"><ele>29.333333333333336</ele><time>2026-04-19T14:25:48.132Z</time></trkpt><trkpt lat="43.3472898" lon="10.5854914"><ele>30.666666666666664</ele><time>2026-04-19T14:25:49.132Z</time></trkpt><trkpt lat="43.3474698" lon="10.5856269"><ele>32.0</ele><time>2026-04-19T14:25:50.131Z</time></trkpt><trkpt lat="43.3476506" lon="10.5857627"><ele>32.0</ele><time>2026-04-19T14:25:51.133Z</time></trkpt><trkpt lat="43.347833" lon="10.585898"><ele>32.0</ele><time>2026-04-19T14:25:52.139Z</time></trkpt><trkpt lat="43.3480167" lon="10.5860336"><ele>32.0</ele><time>2026-04-19T14:25:53.129Z</time></trkpt><trkpt lat="43.3482011" lon="10.5861699"><ele>32.666666666666664</ele><time>2026-04-19T14:25:54.135Z</time></trkpt><trkpt lat="43.3483846" lon="10.5863044"><ele>33.333333333333336</ele><time>2026-04-19T14:25:55.131Z</time></trkpt><trkpt lat="43.348567" lon="10.5864367"><ele>34.0</ele><time>2026-04-19T14:25:56.133Z</time></trkpt><trkpt lat="43.3487497" lon="10.5865702"><ele>35.0</ele><time>2026-04-19T14:25:57.135Z</time></trkpt><trkpt lat="43.3489334" lon="10.5867056"><ele>36.0</ele><time>2026-04-19T14:25:58.134Z</time></trkpt><trkpt lat="43.3491142" lon="10.586844"><ele>37.0</ele><time>2026-04-19T14:25:59.133Z</time></trkpt><trkpt lat="43.3492925" lon="10.5869777"><ele>38.333333333333336</ele><time>2026-04-19T14:26:00.163Z</time></trkpt><trkpt lat="43.3494706" lon="10.5871094"><ele>39.666666666666664</ele><time>2026-04-19T14:26:01.131Z</time></trkpt><trkpt lat="43.3496503" lon="10.5872485"><ele>41.0</ele><time>2026-04-19T14:26:02.138Z</time></trkpt><trkpt lat="43.3498311" lon="10.587385"><ele>41.0</ele><time>2026-04-19T14:26:03.138Z</time></trkpt><trkpt lat="43.3500116" lon="10.5875178"><ele>41.0</ele><time>2026-04-19T14:26:04.129Z</time></trkpt><trkpt lat="43.3501913" lon="10.5876518"><ele>41.0</ele><time>2026-04-19T14:26:05.134Z</time></trkpt><trkpt lat="43.3503699" lon="10.5877865"><ele>43.0</ele><time>2026-04-19T14:26:06.134Z</time></trkpt><trkpt lat="43.350548" lon="10.5879211"><ele>45.0</ele><time>2026-04-19T14:26:07.134Z</time></trkpt><trkpt lat="43.3507242" lon="10.5880535"><ele>47.0</ele><time>2026-04-19T14:26:08.13Z</time></trkpt><trkpt lat="43.3508993" lon="10.5881843"><ele>47.0</ele><time>2026-04-19T14:26:09.134Z</time></trkpt><trkpt lat="43.3510715" lon="10.5883147"><ele>47.0</ele><time>2026-04-19T14:26:10.13Z</time></trkpt><trkpt lat="43.3512446" lon="10.5884446"><ele>47.0</ele><time>2026-04-19T14:26:11.133Z</time></trkpt><trkpt lat="43.3514194" lon="10.5885739"><ele>52.0</ele><time>2026-04-19T14:26:12.135Z</time></trkpt><trkpt lat="43.3515992" lon="10.5886943"><ele>57.0</ele><time>2026-04-19T14:26:13.159Z</time></trkpt><trkpt lat="43.3517837" lon="10.5888014"><ele>62.0</ele><time>2026-04-19T14:26:14.168Z</time></trkpt><trkpt lat="43.3519699" lon="10.58889"><ele>62.0</ele><time>2026-04-19T14:26:15.131Z</time></trkpt><trkpt lat="43.3521569" lon="10.5889688"><ele>62.0</ele><time>2026-04-19T14:26:16.129Z</time></trkpt><trkpt lat="43.3523446" lon="10.5890327"><ele>62.0</ele><time>2026-04-19T14:26:17.138Z</time></trkpt><trkpt lat="43.3525338" lon="10.5890742"><ele>62.333333333333336</ele><time>2026-04-19T14:26:18.125Z</time></trkpt><trkpt lat="43.3527283" lon="10.5890837"><ele>62.66666666666667</ele><time>2026-04-19T14:26:19.162Z</time></trkpt><trkpt lat="43.35293" lon="10.5890679"><ele>63.0</ele><time>2026-04-19T14:26:20.16Z</time></trkpt><trkpt lat="43.3531324" lon="10.5890217"><ele>63.0</ele><time>2026-04-19T14:26:21.135Z</time></trkpt><trkpt lat="43.3533301" lon="10.5889613"><ele>63.0</ele><time>2026-04-19T14:26:22.135Z</time></trkpt><trkpt lat="43.3535144" lon="10.5888925"><ele>63.0</ele><time>2026-04-19T14:26:23.13Z</time></trkpt><trkpt lat="43.3536865" lon="10.5888334"><ele>63.0</ele><time>2026-04-19T14:26:24.13Z</time></trkpt><trkpt lat="43.3538501" lon="10.588786"><ele>63.0</ele><time>2026-04-19T14:26:25.136Z</time></trkpt><trkpt lat="43.3540111" lon="10.588761"><ele>63.0</ele><time>2026-04-19T14:26:26.14Z</time></trkpt><trkpt lat="43.3541719" lon="10.588776"><ele>63.66666666666667</ele><time>2026-04-19T14:26:27.136Z</time></trkpt><trkpt lat="43.3543245" lon="10.5888356"><ele>64.33333333333334</ele><time>2026-04-19T14:26:28.13Z</time></trkpt><trkpt lat="43.3544692" lon="10.5889145"><ele>65.0</ele><time>2026-04-19T14:26:29.128Z</time></trkpt><trkpt lat="43.354608" lon="10.5889944"><ele>63.75</ele><time>2026-04-19T14:26:30.165Z</time></trkpt><trkpt lat="43.3547404" lon="10.5890675"><ele>62.5</ele><time>2026-04-19T14:26:31.138Z</time></trkpt><trkpt lat="43.3548585" lon="10.5891338"><ele>61.25</ele><time>2026-04-19T14:26:32.162Z</time></trkpt><trkpt lat="43.3549666" lon="10.5892086"><ele>60.0</ele><time>2026-04-19T14:26:33.136Z</time></trkpt><trkpt lat="43.355056" lon="10.5892855"><ele>60.0</ele><time>2026-04-19T14:26:34.162Z</time></trkpt><trkpt lat="43.3551254" lon="10.589428"><ele>60.0</ele><time>2026-04-19T14:26:35.131Z</time></trkpt><trkpt lat="43.355172" lon="10.5896243"><ele>60.0</ele><time>2026-04-19T14:26:36.131Z</time></trkpt><trkpt lat="43.3552102" lon="10.5898214"><ele>60.0</ele><time>2026-04-19T14:26:37.133Z</time></trkpt><trkpt lat="43.3552623" lon="10.5900123"><ele>65.33333333333333</ele><time>2026-04-19T14:26:38.131Z</time></trkpt><trkpt lat="43.3553419" lon="10.5901884"><ele>70.66666666666666</ele><time>2026-04-19T14:26:39.128Z</time></trkpt><trkpt lat="43.3554472" lon="10.5903451"><ele>76.0</ele><time>2026-04-19T14:26:40.133Z</time></trkpt><trkpt lat="43.3555652" lon="10.590478"><ele>76.0</ele><time>2026-04-19T14:26:41.162Z</time></trkpt><trkpt lat="43.3556916" lon="10.5905858"><ele>76.0</ele><time>2026-04-19T14:26:42.142Z</time></trkpt><trkpt lat="43.3558208" lon="10.5906746"><ele>76.0</ele><time>2026-04-19T14:26:43.128Z</time></trkpt><trkpt lat="43.355945" lon="10.5907566"><ele>76.0</ele><time>2026-04-19T14:26:44.131Z</time></trkpt><trkpt lat="43.3560664" lon="10.5908364"><ele>76.0</ele><time>2026-04-19T14:26:45.166Z</time></trkpt><trkpt lat="43.3561804" lon="10.5909203"><ele>76.0</ele><time>2026-04-19T14:26:46.131Z</time></trkpt><trkpt lat="43.3562979" lon="10.5909908"><ele>76.0</ele><time>2026-04-19T14:26:47.132Z</time></trkpt><trkpt lat="43.3564308" lon="10.5910347"><ele>76.0</ele><time>2026-04-19T14:26:48.134Z</time></trkpt><trkpt lat="43.3565854" lon="10.5910227"><ele>73.0</ele><time>2026-04-19T14:26:49.138Z</time></trkpt><trkpt lat="43.3567431" lon="10.5909834"><ele>70.0</ele><time>2026-04-19T14:26:50.164Z</time></trkpt><trkpt lat="43.3568922" lon="10.590953"><ele>67.0</ele><time>2026-04-19T14:26:51.13Z</time></trkpt><trkpt lat="43.3570301" lon="10.5909309"><ele>67.0</ele><time>2026-04-19T14:26:52.13Z</time></trkpt><trkpt lat="43.3571541" lon="10.5909209"><ele>67.0</ele><time>2026-04-19T14:26:53.134Z</time></trkpt><trkpt lat="43.3572711" lon="10.5909349"><ele>67.0</ele><time>2026-04-19T14:26:54.131Z</time></trkpt><trkpt lat="43.3573725" lon="10.5909746"><ele>67.0</ele><time>2026-04-19T14:26:55.132Z</time></trkpt><trkpt lat="43.3574752" lon="10.591033"><ele>69.0</ele><time>2026-04-19T14:26:56.134Z</time></trkpt><trkpt lat="43.3575816" lon="10.5910962"><ele>71.0</ele><time>2026-04-19T14:26:57.138Z</time></trkpt><trkpt lat="43.3576949" lon="10.5911402"><ele>73.0</ele><time>2026-04-19T14:26:58.129Z</time></trkpt><trkpt lat="43.3578052" lon="10.5911465"><ele>75.0</ele><time>2026-04-19T14:26:59.163Z</time></trkpt><trkpt lat="43.357893" lon="10.5910849"><ele>77.0</ele><time>2026-04-19T14:27:00.139Z</time></trkpt><trkpt lat="43.3579439" lon="10.5909612"><ele>77.0</ele><time>2026-04-19T14:27:01.128Z</time></trkpt><trkpt lat="43.3579522" lon="10.5908208"><ele>77.0</ele><time>2026-04-19T14:27:02.13Z</time></trkpt><trkpt lat="43.3579288" lon="10.5906715"><ele>77.0</ele><time>2026-04-19T14:27:03.139Z</time></trkpt><trkpt lat="43.3578981" lon="10.5905393"><ele>77.0</ele><time>2026-04-19T14:27:04.132Z</time></trkpt><trkpt lat="43.3578791" lon="10.5904219"><ele>77.0</ele><time>2026-04-19T14:27:05.138Z</time></trkpt><trkpt lat="43.3578847" lon="10.5903146"><ele>77.16666666666667</ele><time>2026-04-19T14:27:06.137Z</time></trkpt><trkpt lat="43.35792" lon="10.5902282"><ele>77.33333333333334</ele><time>2026-04-19T14:27:07.132Z</time></trkpt><trkpt lat="43.3579856" lon="10.5901627"><ele>77.5</ele><time>2026-04-19T14:27:08.132Z</time></trkpt><trkpt lat="43.3580724" lon="10.59014"><ele>77.66666666666667</ele><time>2026-04-19T14:27:09.143Z</time></trkpt><trkpt lat="43.3581567" lon="10.5901677"><ele>77.83333333333333</ele><time>2026-04-19T14:27:10.139Z</time></trkpt><trkpt lat="43.358221" lon="10.590228"><ele>78.0</ele><time>2026-04-19T14:27:11.162Z</time></trkpt><trkpt lat="43.3582687" lon="10.5903106"><ele>80.5</ele><time>2026-04-19T14:27:12.137Z</time></trkpt><trkpt lat="43.3583111" lon="10.5904394"><ele>83.0</ele><time>2026-04-19T14:27:13.158Z</time></trkpt><trkpt lat="43.35835" lon="10.5906306"><ele>85.5</ele><time>2026-04-19T14:27:14.143Z</time></trkpt><trkpt lat="43.3583877" lon="10.5908787"><ele>88.0</ele><time>2026-04-19T14:27:15.137Z</time></trkpt><trkpt lat="43.3584286" lon="10.5911631"><ele>88.33333333333333</ele><time>2026-04-19T14:27:16.162Z</time></trkpt><trkpt lat="43.3584782" lon="10.5914439"><ele>88.66666666666667</ele><time>2026-04-19T14:27:17.133Z</time></trkpt><trkpt lat="43.3585467" lon="10.5916874"><ele>89.0</ele><time>2026-04-19T14:27:18.161Z</time></trkpt><trkpt lat="43.3586171" lon="10.5918961"><ele>88.5</ele><time>2026-04-19T14:27:19.13Z</time></trkpt><trkpt lat="43.358668" lon="10.5920945"><ele>88.0</ele><time>2026-04-19T14:27:20.137Z</time></trkpt><trkpt lat="43.358686" lon="10.5922818"><ele>87.5</ele><time>2026-04-19T14:27:21.133Z</time></trkpt><trkpt lat="43.3586858" lon="10.5924646"><ele>87.0</ele><time>2026-04-19T14:27:22.127Z</time></trkpt><trkpt lat="43.3586931" lon="10.5926503"><ele>87.0</ele><time>2026-04-19T14:27:23.133Z</time></trkpt><trkpt lat="43.3587243" lon="10.5928212"><ele>87.0</ele><time>2026-04-19T14:27:24.129Z</time></trkpt><trkpt lat="43.3587876" lon="10.5929789"><ele>87.0</ele><time>2026-04-19T14:27:25.149Z</time></trkpt><trkpt lat="43.3588712" lon="10.5931345"><ele>87.0</ele><time>2026-04-19T14:27:26.171Z</time></trkpt><trkpt lat="43.358979" lon="10.5932958"><ele>93.0</ele><time>2026-04-19T14:27:27.13Z</time></trkpt><trkpt lat="43.3591049" lon="10.5934589"><ele>99.0</ele><time>2026-04-19T14:27:28.13Z</time></trkpt><trkpt lat="43.3592284" lon="10.5936389"><ele>105.0</ele><time>2026-04-19T14:27:29.136Z</time></trkpt><trkpt lat="43.3593314" lon="10.5938318"><ele>105.0</ele><time>2026-04-19T14:27:30.133Z</time></trkpt><trkpt lat="43.3594169" lon="10.5940281"><ele>105.0</ele><time>2026-04-19T14:27:31.131Z</time></trkpt><trkpt lat="43.3594882" lon="10.5942097"><ele>105.0</ele><time>2026-04-19T14:27:32.136Z</time></trkpt><trkpt lat="43.3595618" lon="10.5943719"><ele>105.0</ele><time>2026-04-19T14:27:33.167Z</time></trkpt><trkpt lat="43.3596555" lon="10.5944953"><ele>105.0</ele><time>2026-04-19T14:27:34.166Z</time></trkpt><trkpt lat="43.359769" lon="10.5945746"><ele>105.0</ele><time>2026-04-19T14:27:35.137Z</time></trkpt><trkpt lat="43.3598891" lon="10.5946318"><ele>105.0</ele><time>2026-04-19T14:27:36.161Z</time></trkpt><trkpt lat="43.360003" lon="10.5947086"><ele>108.0</ele><time>2026-04-19T14:27:37.139Z</time></trkpt><trkpt lat="43.3600794" lon="10.594823"><ele>111.0</ele><time>2026-04-19T14:27:38.153Z</time></trkpt><trkpt lat="43.3600993" lon="10.5949536"><ele>114.0</ele><time>2026-04-19T14:27:39.13Z</time></trkpt><trkpt lat="43.3600972" lon="10.5950904"><ele>117.0</ele><time>2026-04-19T14:27:40.13Z</time></trkpt><trkpt lat="43.360113" lon="10.5952102"><ele>120.0</ele><time>2026-04-19T14:27:41.136Z</time></trkpt><trkpt lat="43.3601518" lon="10.5952793"><ele>120.0</ele><time>2026-04-19T14:27:42.135Z</time></trkpt><trkpt lat="43.3602247" lon="10.5952639"><ele>120.0</ele><time>2026-04-19T14:27:43.137Z</time></trkpt><trkpt lat="43.3603048" lon="10.5951889"><ele>120.0</ele><time>2026-04-19T14:27:44.142Z</time></trkpt><trkpt lat="43.3603683" lon="10.5950495"><ele>120.0</ele><time>2026-04-19T14:27:45.133Z</time></trkpt><trkpt lat="43.360415" lon="10.5948523"><ele>120.0</ele><time>2026-04-19T14:27:46.136Z</time></trkpt><trkpt lat="43.3604417" lon="10.5946307"><ele>123.0</ele><time>2026-04-19T14:27:47.13Z</time></trkpt><trkpt lat="43.3604397" lon="10.5943945"><ele>126.0</ele><time>2026-04-19T14:27:48.143Z</time></trkpt><trkpt lat="43.3603949" lon="10.5941714"><ele>129.0</ele><time>2026-04-19T14:27:49.135Z</time></trkpt><trkpt lat="43.3603095" lon="10.5940002"><ele>129.0</ele><time>2026-04-19T14:27:50.129Z</time></trkpt><trkpt lat="43.360187" lon="10.5938731"><ele>129.0</ele><time>2026-04-19T14:27:51.163Z</time></trkpt><trkpt lat="43.3600539" lon="10.5937688"><ele>129.0</ele><time>2026-04-19T14:27:52.133Z</time></trkpt><trkpt lat="43.3599279" lon="10.5936819"><ele>129.0</ele><time>2026-04-19T14:27:53.13Z</time></trkpt><trkpt lat="43.3598325" lon="10.5935908"><ele>126.25</ele><time>2026-04-19T14:27:54.172Z</time></trkpt><trkpt lat="43.3597586" lon="10.5934881"><ele>123.5</ele><time>2026-04-19T14:27:55.147Z</time></trkpt><trkpt lat="43.3596985" lon="10.5933669"><ele>120.75</ele><time>2026-04-19T14:27:56.13Z</time></trkpt><trkpt lat="43.3596434" lon="10.5932243"><ele>118.0</ele><time>2026-04-19T14:27:57.133Z</time></trkpt><trkpt lat="43.359588" lon="10.5930674"><ele>118.0</ele><time>2026-04-19T14:27:58.132Z</time></trkpt><trkpt lat="43.3595294" lon="10.5928977"><ele>118.0</ele><time>2026-04-19T14:27:59.164Z</time></trkpt><trkpt lat="43.35946" lon="10.5927255"><ele>118.0</ele><time>2026-04-19T14:28:00.139Z</time></trkpt><trkpt lat="43.3593985" lon="10.5925606"><ele>118.0</ele><time>2026-04-19T14:28:01.136Z</time></trkpt><trkpt lat="43.3593693" lon="10.5924041"><ele>119.75</ele><time>2026-04-19T14:28:02.13Z</time></trkpt><trkpt lat="43.3593835" lon="10.5922632"><ele>121.5</ele><time>2026-04-19T14:28:03.137Z</time></trkpt><trkpt lat="43.3594431" lon="10.5921559"><ele>123.25</ele><time>2026-04-19T14:28:04.13Z</time></trkpt><trkpt lat="43.3595577" lon="10.5920813"><ele>125.0</ele><time>2026-04-19T14:28:05.13Z</time></trkpt><trkpt lat="43.3596827" lon="10.5920092"><ele>127.75</ele><time>2026-04-19T14:28:06.143Z</time></trkpt><trkpt lat="43.3598156" lon="10.5919339"><ele>130.5</ele><time>2026-04-19T14:28:07.139Z</time></trkpt><trkpt lat="43.3599511" lon="10.5918556"><ele>133.25</ele><time>2026-04-19T14:28:08.128Z</time></trkpt><trkpt lat="43.3600886" lon="10.5917751"><ele>136.0</ele><time>2026-04-19T14:28:09.134Z</time></trkpt><trkpt lat="43.360235" lon="10.5917069"><ele>136.0</ele><time>2026-04-19T14:28:10.164Z</time></trkpt><trkpt lat="43.3603838" lon="10.5916679"><ele>136.0</ele><time>2026-04-19T14:28:11.163Z</time></trkpt><trkpt lat="43.3605419" lon="10.5916898"><ele>136.0</ele><time>2026-04-19T14:28:12.142Z</time></trkpt><trkpt lat="43.3607051" lon="10.5917549"><ele>140.33333333333334</ele><time>2026-04-19T14:28:13.141Z</time></trkpt><trkpt lat="43.3608624" lon="10.591845"><ele>144.66666666666666</ele><time>2026-04-19T14:28:14.146Z</time></trkpt><trkpt lat="43.3610094" lon="10.5919475"><ele>149.0</ele><time>2026-04-19T14:28:15.133Z</time></trkpt><trkpt lat="43.3611508" lon="10.5920508"><ele>154.66666666666666</ele><time>2026-04-19T14:28:16.131Z</time></trkpt><trkpt lat="43.3612988" lon="10.5921446"><ele>160.33333333333334</ele><time>2026-04-19T14:28:17.132Z</time></trkpt><trkpt lat="43.3614519" lon="10.5922097"><ele>166.0</ele><time>2026-04-19T14:28:18.145Z</time></trkpt><trkpt lat="43.3616133" lon="10.5922237"><ele>168.0</ele><time>2026-04-19T14:28:19.161Z</time></trkpt><trkpt lat="43.361776" lon="10.5921943"><ele>170.0</ele><time>2026-04-19T14:28:20.13Z</time></trkpt><trkpt lat="43.3619337" lon="10.592139"><ele>172.0</ele><time>2026-04-19T14:28:21.137Z</time></trkpt><trkpt lat="43.362076" lon="10.5920925"><ele>171.5</ele><time>2026-04-19T14:28:22.137Z</time></trkpt><trkpt lat="43.3622049" lon="10.5920827"><ele>171.0</ele><time>2026-04-19T14:28:23.138Z</time></trkpt><trkpt lat="43.3623232" lon="10.5921233"><ele>170.5</ele><time>2026-04-19T14:28:24.132Z</time></trkpt><trkpt lat="43.3624233" lon="10.5922271"><ele>170.0</ele><time>2026-04-19T14:28:25.133Z</time></trkpt><trkpt lat="43.362509" lon="10.5923892"><ele>170.0</ele><time>2026-04-19T14:28:26.135Z</time></trkpt><trkpt lat="43.3626004" lon="10.5925609"><ele>170.0</ele><time>2026-04-19T14:28:27.127Z</time></trkpt><trkpt lat="43.362715" lon="10.5927148"><ele>170.0</ele><time>2026-04-19T14:28:28.163Z</time></trkpt><trkpt lat="43.3628518" lon="10.5928452"><ele>174.33333333333331</ele><time>2026-04-19T14:28:29.144Z</time></trkpt><trkpt lat="43.363006" lon="10.5929504"><ele>178.66666666666666</ele><time>2026-04-19T14:28:30.127Z</time></trkpt><trkpt lat="43.3631692" lon="10.5930356"><ele>183.0</ele><time>2026-04-19T14:28:31.132Z</time></trkpt><trkpt lat="43.3633363" lon="10.5930926"><ele>183.0</ele><time>2026-04-19T14:28:32.129Z</time></trkpt><trkpt lat="43.3635041" lon="10.5931112"><ele>183.0</ele><time>2026-04-19T14:28:33.132Z</time></trkpt><trkpt lat="43.36367" lon="10.5931303"><ele>183.0</ele><time>2026-04-19T14:28:34.13Z</time></trkpt><trkpt lat="43.3638238" lon="10.5931892"><ele>179.66666666666666</ele><time>2026-04-19T14:28:35.13Z</time></trkpt><trkpt lat="43.3639495" lon="10.5933087"><ele>176.33333333333331</ele><time>2026-04-19T14:28:36.128Z</time></trkpt><trkpt lat="43.364043" lon="10.5934767"><ele>173.0</ele><time>2026-04-19T14:28:37.132Z</time></trkpt><trkpt lat="43.3641122" lon="10.5936631"><ele>176.66666666666666</ele><time>2026-04-19T14:28:38.13Z</time></trkpt><trkpt lat="43.3641461" lon="10.5938814"><ele>180.33333333333334</ele><time>2026-04-19T14:28:39.162Z</time></trkpt><trkpt lat="43.3641488" lon="10.594113"><ele>184.0</ele><time>2026-04-19T14:28:40.132Z</time></trkpt><trkpt lat="43.3641407" lon="10.5943471"><ele>186.0</ele><time>2026-04-19T14:28:41.129Z</time></trkpt><trkpt lat="43.3641372" lon="10.594579"><ele>188.0</ele><time>2026-04-19T14:28:42.134Z</time></trkpt><trkpt lat="43.3641357" lon="10.5948101"><ele>190.0</ele><time>2026-04-19T14:28:43.129Z</time></trkpt><trkpt lat="43.3641341" lon="10.5950377"><ele>190.0</ele><time>2026-04-19T14:28:44.135Z</time></trkpt><trkpt lat="43.3641349" lon="10.5952594"><ele>190.0</ele><time>2026-04-19T14:28:45.132Z</time></trkpt><trkpt lat="43.3641295" lon="10.5954798"><ele>190.0</ele><time>2026-04-19T14:28:46.131Z</time></trkpt><trkpt lat="43.3641262" lon="10.5956928"><ele>191.0</ele><time>2026-04-19T14:28:47.135Z</time></trkpt><trkpt lat="43.3641319" lon="10.5958965"><ele>192.0</ele><time>2026-04-19T14:28:48.135Z</time></trkpt><trkpt lat="43.3641511" lon="10.5960868"><ele>193.0</ele><time>2026-04-19T14:28:49.164Z</time></trkpt><trkpt lat="43.3641745" lon="10.5962616"><ele>194.0</ele><time>2026-04-19T14:28:50.133Z</time></trkpt><trkpt lat="43.3641901" lon="10.5964238"><ele>194.0</ele><time>2026-04-19T14:28:51.135Z</time></trkpt><trkpt lat="43.3641886" lon="10.596582"><ele>194.0</ele><time>2026-04-19T14:28:52.163Z</time></trkpt><trkpt lat="43.3641727" lon="10.5967378"><ele>194.0</ele><time>2026-04-19T14:28:53.13Z</time></trkpt><trkpt lat="43.3641487" lon="10.596886"><ele>194.0</ele><time>2026-04-19T14:28:54.14Z</time></trkpt><trkpt lat="43.3641243" lon="10.5970244"><ele>194.0</ele><time>2026-04-19T14:28:55.133Z</time></trkpt><trkpt lat="43.3641033" lon="10.597155"><ele>194.83333333333334</ele><time>2026-04-19T14:28:56.131Z</time></trkpt><trkpt lat="43.3640683" lon="10.5972701"><ele>195.66666666666669</ele><time>2026-04-19T14:28:57.141Z</time></trkpt><trkpt lat="43.3640363" lon="10.5973745"><ele>196.5</ele><time>2026-04-19T14:28:58.131Z</time></trkpt><trkpt lat="43.3640203" lon="10.5974814"><ele>197.33333333333331</ele><time>2026-04-19T14:28:59.157Z</time></trkpt><trkpt lat="43.3640284" lon="10.5975923"><ele>198.16666666666666</ele><time>2026-04-19T14:29:00.131Z</time></trkpt><trkpt lat="43.364057" lon="10.5977108"><ele>199.0</ele><time>2026-04-19T14:29:01.137Z</time></trkpt><trkpt lat="43.3640991" lon="10.5978353"><ele>201.0</ele><time>2026-04-19T14:29:02.142Z</time></trkpt><trkpt lat="43.364154" lon="10.5979642"><ele>203.0</ele><time>2026-04-19T14:29:03.135Z</time></trkpt><trkpt lat="43.3642124" lon="10.5980935"><ele>205.0</ele><time>2026-04-19T14:29:04.133Z</time></trkpt><trkpt lat="43.3642686" lon="10.5982311"><ele>207.0</ele><time>2026-04-19T14:29:05.128Z</time></trkpt><trkpt lat="43.364323" lon="10.5983672"><ele>209.0</ele><time>2026-04-19T14:29:06.129Z</time></trkpt><trkpt lat="43.364378" lon="10.5985045"><ele>209.0</ele><time>2026-04-19T14:29:07.132Z</time></trkpt><trkpt lat="43.3644254" lon="10.5986389"><ele>209.0</ele><time>2026-04-19T14:29:08.134Z</time></trkpt><trkpt lat="43.3644673" lon="10.5987729"><ele>209.0</ele><time>2026-04-19T14:29:09.129Z</time></trkpt><trkpt lat="43.3645054" lon="10.5989041"><ele>209.0</ele><time>2026-04-19T14:29:10.133Z</time></trkpt><trkpt lat="43.3645455" lon="10.5990265"><ele>209.0</ele><time>2026-04-19T14:29:11.134Z</time></trkpt><trkpt lat="43.3645792" lon="10.5991394"><ele>209.33333333333334</ele><time>2026-04-19T14:29:12.134Z</time></trkpt><trkpt lat="43.364609" lon="10.5992478"><ele>209.66666666666669</ele><time>2026-04-19T14:29:13.132Z</time></trkpt><trkpt lat="43.3646335" lon="10.5993561"><ele>210.0</ele><time>2026-04-19T14:29:14.132Z</time></trkpt><trkpt lat="43.3646572" lon="10.5994603"><ele>210.33333333333331</ele><time>2026-04-19T14:29:15.137Z</time></trkpt><trkpt lat="43.3646848" lon="10.5995627"><ele>210.66666666666666</ele><time>2026-04-19T14:29:16.164Z</time></trkpt><trkpt lat="43.3647223" lon="10.5996559"><ele>211.0</ele><time>2026-04-19T14:29:17.161Z</time></trkpt><trkpt lat="43.3647605" lon="10.5997485"><ele>212.28571428571428</ele><time>2026-04-19T14:29:18.129Z</time></trkpt><trkpt lat="43.3648083" lon="10.599831"><ele>213.57142857142858</ele><time>2026-04-19T14:29:19.133Z</time></trkpt><trkpt lat="43.3648581" lon="10.5998929"><ele>214.85714285714283</ele><time>2026-04-19T14:29:20.132Z</time></trkpt><trkpt lat="43.3649118" lon="10.5999397"><ele>216.14285714285714</ele><time>2026-04-19T14:29:21.164Z</time></trkpt><trkpt lat="43.3649643" lon="10.5999877"><ele>217.42857142857142</ele><time>2026-04-19T14:29:22.133Z</time></trkpt><trkpt lat="43.3650209" lon="10.6000383"><ele>218.7142857142857</ele><time>2026-04-19T14:29:23.132Z</time></trkpt><trkpt lat="43.3650869" lon="10.6000934"><ele>220.0</ele><time>2026-04-19T14:29:24.162Z</time></trkpt><trkpt lat="43.3651585" lon="10.6001542"><ele>220.0</ele><time>2026-04-19T14:29:25.129Z</time></trkpt><trkpt lat="43.3652294" lon="10.6002318"><ele>220.0</ele><time>2026-04-19T14:29:26.13Z</time></trkpt><trkpt lat="43.3652997" lon="10.6003178"><ele>220.0</ele><time>2026-04-19T14:29:27.134Z</time></trkpt><trkpt lat="43.3653711" lon="10.6004064"><ele>220.0</ele><time>2026-04-19T14:29:28.131Z</time></trkpt><trkpt lat="43.365444" lon="10.600489"><ele>220.0</ele><time>2026-04-19T14:29:29.161Z</time></trkpt><trkpt lat="43.365527" lon="10.6005696"><ele>219.8</ele><time>2026-04-19T14:29:30.13Z</time></trkpt><trkpt lat="43.3656061" lon="10.6006456"><ele>219.6</ele><time>2026-04-19T14:29:31.163Z</time></trkpt><trkpt lat="43.3656909" lon="10.6007214"><ele>219.39999999999998</ele><time>2026-04-19T14:29:32.132Z</time></trkpt><trkpt lat="43.3657806" lon="10.6008022"><ele>219.2</ele><time>2026-04-19T14:29:33.137Z</time></trkpt><trkpt lat="43.3658726" lon="10.6008641"><ele>219.0</ele><time>2026-04-19T14:29:34.127Z</time></trkpt><trkpt lat="43.365963" lon="10.6009209"><ele>219.0</ele><time>2026-04-19T14:29:35.134Z</time></trkpt><trkpt lat="43.3660595" lon="10.6009808"><ele>219.0</ele><time>2026-04-19T14:29:36.133Z</time></trkpt><trkpt lat="43.3661623" lon="10.6010519"><ele>219.0</ele><time>2026-04-19T14:29:37.129Z</time></trkpt><trkpt lat="43.3662658" lon="10.6011298"><ele>219.0</ele><time>2026-04-19T14:29:38.131Z</time></trkpt><trkpt lat="43.3663772" lon="10.6012095"><ele>221.0</ele><time>2026-04-19T14:29:39.163Z</time></trkpt><trkpt lat="43.3664887" lon="10.6012829"><ele>223.0</ele><time>2026-04-19T14:29:40.136Z</time></trkpt><trkpt lat="43.3665987" lon="10.6013536"><ele>225.0</ele><time>2026-04-19T14:29:41.129Z</time></trkpt><trkpt lat="43.3667123" lon="10.6014203"><ele>227.0</ele><time>2026-04-19T14:29:42.135Z</time></trkpt><trkpt lat="43.3668323" lon="10.6014835"><ele>227.0</ele><time>2026-04-19T14:29:43.131Z</time></trkpt><trkpt lat="43.3669493" lon="10.6015488"><ele>227.0</ele><time>2026-04-19T14:29:44.131Z</time></trkpt><trkpt lat="43.3670654" lon="10.6016181"><ele>227.0</ele><time>2026-04-19T14:29:45.131Z</time></trkpt><trkpt lat="43.3671742" lon="10.6016923"><ele>227.0</ele><time>2026-04-19T14:29:46.132Z</time></trkpt><trkpt lat="43.367285" lon="10.6017667"><ele>226.75</ele><time>2026-04-19T14:29:47.132Z</time></trkpt><trkpt lat="43.3673922" lon="10.6018453"><ele>226.5</ele><time>2026-04-19T14:29:48.166Z</time></trkpt><trkpt lat="43.3675056" lon="10.6019177"><ele>226.25</ele><time>2026-04-19T14:29:49.132Z</time></trkpt><trkpt lat="43.3676203" lon="10.601992"><ele>226.0</ele><time>2026-04-19T14:29:50.13Z</time></trkpt><trkpt lat="43.3677342" lon="10.6020663"><ele>227.25</ele><time>2026-04-19T14:29:51.13Z</time></trkpt><trkpt lat="43.3678527" lon="10.6021454"><ele>228.5</ele><time>2026-04-19T14:29:52.134Z</time></trkpt><trkpt lat="43.3679725" lon="10.6022347"><ele>229.75</ele><time>2026-04-19T14:29:53.132Z</time></trkpt><trkpt lat="43.3680984" lon="10.6023254"><ele>231.0</ele><time>2026-04-19T14:29:54.134Z</time></trkpt><trkpt lat="43.3682296" lon="10.6024205"><ele>231.0</ele><time>2026-04-19T14:29:55.131Z</time></trkpt><trkpt lat="43.3683653" lon="10.6025188"><ele>231.0</ele><time>2026-04-19T14:29:56.141Z</time></trkpt><trkpt lat="43.3684937" lon="10.6026204"><ele>231.0</ele><time>2026-04-19T14:29:57.131Z</time></trkpt><trkpt lat="43.3686188" lon="10.6027163"><ele>231.0</ele><time>2026-04-19T14:29:58.138Z</time></trkpt><trkpt lat="43.3687485" lon="10.6028075"><ele>231.0</ele><time>2026-04-19T14:29:59.127Z</time></trkpt><trkpt lat="43.3688818" lon="10.6028819"><ele>231.0</ele><time>2026-04-19T14:30:00.143Z</time></trkpt><trkpt lat="43.3690157" lon="10.6029288"><ele>231.0</ele><time>2026-04-19T14:30:01.127Z</time></trkpt><trkpt lat="43.3691453" lon="10.6029283"><ele>231.0</ele><time>2026-04-19T14:30:02.128Z</time></trkpt><trkpt lat="43.3692764" lon="10.6028734"><ele>231.5</ele><time>2026-04-19T14:30:03.135Z</time></trkpt><trkpt lat="43.3693962" lon="10.6027731"><ele>232.0</ele><time>2026-04-19T14:30:04.143Z</time></trkpt><trkpt lat="43.3695093" lon="10.6026381"><ele>232.5</ele><time>2026-04-19T14:30:05.137Z</time></trkpt><trkpt lat="43.369613" lon="10.602494"><ele>233.0</ele><time>2026-04-19T14:30:06.162Z</time></trkpt><trkpt lat="43.3697125" lon="10.6023605"><ele>233.8</ele><time>2026-04-19T14:30:07.129Z</time></trkpt><trkpt lat="43.3698116" lon="10.602256"><ele>234.60000000000002</ele><time>2026-04-19T14:30:08.138Z</time></trkpt><trkpt lat="43.3699004" lon="10.6021809"><ele>235.39999999999998</ele><time>2026-04-19T14:30:09.134Z</time></trkpt><trkpt lat="43.3699742" lon="10.6021372"><ele>236.2</ele><time>2026-04-19T14:30:10.132Z</time></trkpt><trkpt lat="43.3700597" lon="10.6020748"><ele>237.0</ele><time>2026-04-19T14:30:12.13Z</time></trkpt><trkpt lat="43.3700675" lon="10.601975"><ele>236.2</ele><time>2026-04-19T14:30:25.164Z</time></trkpt><trkpt lat="43.3699162" lon="10.6021035"><ele>235.39999999999998</ele><time>2026-04-19T14:30:32.129Z</time></trkpt><trkpt lat="43.3698155" lon="10.6021451"><ele>234.60000000000002</ele><time>2026-04-19T14:30:34.127Z</time></trkpt><trkpt lat="43.3697545" lon="10.6021742"><ele>233.8</ele><time>2026-04-19T14:30:35.131Z</time></trkpt><trkpt lat="43.3696963" lon="10.6022133"><ele>233.0</ele><time>2026-04-19T14:30:36.162Z</time></trkpt><trkpt lat="43.3696393" lon="10.6022623"><ele>233.0</ele><time>2026-04-19T14:30:37.131Z</time></trkpt><trkpt lat="43.3695885" lon="10.6023205"><ele>233.0</ele><time>2026-04-19T14:30:38.161Z</time></trkpt><trkpt lat="43.3695401" lon="10.6023858"><ele>233.0</ele><time>2026-04-19T14:30:39.13Z</time></trkpt><trkpt lat="43.3694902" lon="10.6024527"><ele>233.0</ele><time>2026-04-19T14:30:40.129Z</time></trkpt><trkpt lat="43.3694359" lon="10.602525"><ele>233.0</ele><time>2026-04-19T14:30:41.134Z</time></trkpt><trkpt lat="43.3693751" lon="10.6025999"><ele>233.0</ele><time>2026-04-19T14:30:42.134Z</time></trkpt><trkpt lat="43.3693068" lon="10.602674"><ele>233.0</ele><time>2026-04-19T14:30:43.131Z</time></trkpt><trkpt lat="43.3692357" lon="10.602747"><ele>233.00000000000003</ele><time>2026-04-19T14:30:44.132Z</time></trkpt><trkpt lat="43.3691688" lon="10.6028103"><ele>233.0</ele><time>2026-04-19T14:30:45.138Z</time></trkpt><trkpt lat="43.369108" lon="10.6028578"><ele>233.0</ele><time>2026-04-19T14:30:46.131Z</time></trkpt><trkpt lat="43.3690102" lon="10.6029061"><ele>233.0</ele><time>2026-04-19T14:30:48.135Z</time></trkpt><trkpt lat="43.3689427" lon="10.6029524"><ele>233.00000000000003</ele><time>2026-04-19T14:30:51.139Z</time></trkpt><trkpt lat="43.3689658" lon="10.6030387"><ele>233.0</ele><time>2026-04-19T14:30:53.13Z</time></trkpt><trkpt lat="43.3690655" lon="10.6031563"><ele>232.66666666666669</ele><time>2026-04-19T14:30:55.164Z</time></trkpt><trkpt lat="43.3691262" lon="10.6032114"><ele>232.33333333333334</ele><time>2026-04-19T14:30:56.132Z</time></trkpt><trkpt lat="43.3691897" lon="10.6032624"><ele>232.0</ele><time>2026-04-19T14:30:57.144Z</time></trkpt><trkpt lat="43.3692538" lon="10.6033125"><ele>231.66666666666669</ele><time>2026-04-19T14:30:58.147Z</time></trkpt><trkpt lat="43.3693243" lon="10.6033569"><ele>231.33333333333334</ele><time>2026-04-19T14:30:59.132Z</time></trkpt><trkpt lat="43.3693967" lon="10.6034045"><ele>231.0</ele><time>2026-04-19T14:31:00.159Z</time></trkpt><trkpt lat="43.3694743" lon="10.6034514"><ele>231.0</ele><time>2026-04-19T14:31:01.132Z</time></trkpt><trkpt lat="43.369561" lon="10.603488"><ele>231.00000000000003</ele><time>2026-04-19T14:31:02.131Z</time></trkpt><trkpt lat="43.3696575" lon="10.6035071"><ele>231.00000000000003</ele><time>2026-04-19T14:31:03.132Z</time></trkpt><trkpt lat="43.369763" lon="10.6035013"><ele>231.0</ele><time>2026-04-19T14:31:04.136Z</time></trkpt><trkpt lat="43.369872" lon="10.6034684"><ele>231.0</ele><time>2026-04-19T14:31:05.161Z</time></trkpt><trkpt lat="43.3699828" lon="10.6034182"><ele>235.0</ele><time>2026-04-19T14:31:06.135Z</time></trkpt><trkpt lat="43.3700935" lon="10.6033781"><ele>239.0</ele><time>2026-04-19T14:31:07.129Z</time></trkpt><trkpt lat="43.3702029" lon="10.6033556"><ele>243.0</ele><time>2026-04-19T14:31:08.148Z</time></trkpt><trkpt lat="43.370318" lon="10.6033454"><ele>247.0</ele><time>2026-04-19T14:31:09.128Z</time></trkpt><trkpt lat="43.3704389" lon="10.6033432"><ele>249.75</ele><time>2026-04-19T14:31:10.135Z</time></trkpt><trkpt lat="43.370564" lon="10.6033431"><ele>252.5</ele><time>2026-04-19T14:31:11.134Z</time></trkpt><trkpt lat="43.3706922" lon="10.6033368"><ele>255.25</ele><time>2026-04-19T14:31:12.133Z</time></trkpt><trkpt lat="43.3708223" lon="10.6033266"><ele>258.0</ele><time>2026-04-19T14:31:13.142Z</time></trkpt><trkpt lat="43.3709581" lon="10.6033168"><ele>258.0</ele><time>2026-04-19T14:31:14.141Z</time></trkpt><trkpt lat="43.371098" lon="10.6033128"><ele>258.0</ele><time>2026-04-19T14:31:15.143Z</time></trkpt><trkpt lat="43.3712442" lon="10.6033103"><ele>258.0</ele><time>2026-04-19T14:31:16.135Z</time></trkpt><trkpt lat="43.3713943" lon="10.6033078"><ele>258.0</ele><time>2026-04-19T14:31:17.155Z</time></trkpt><trkpt lat="43.3715433" lon="10.6032991"><ele>260.25</ele><time>2026-04-19T14:31:18.132Z</time></trkpt><trkpt lat="43.3716908" lon="10.6032873"><ele>262.5</ele><time>2026-04-19T14:31:19.141Z</time></trkpt><trkpt lat="43.3718368" lon="10.6032774"><ele>264.75</ele><time>2026-04-19T14:31:20.149Z</time></trkpt><trkpt lat="43.371982" lon="10.603273"><ele>267.0</ele><time>2026-04-19T14:31:21.141Z</time></trkpt><trkpt lat="43.3721246" lon="10.6032647"><ele>269.75</ele><time>2026-04-19T14:31:22.162Z</time></trkpt><trkpt lat="43.372263" lon="10.6032541"><ele>272.5</ele><time>2026-04-19T14:31:23.13Z</time></trkpt><trkpt lat="43.372403" lon="10.6032452"><ele>275.25</ele><time>2026-04-19T14:31:24.131Z</time></trkpt><trkpt lat="43.3725403" lon="10.6032359"><ele>278.0</ele><time>2026-04-19T14:31:25.151Z</time></trkpt><trkpt lat="43.3726763" lon="10.603231"><ele>278.0</ele><time>2026-04-19T14:31:26.144Z</time></trkpt><trkpt lat="43.3728069" lon="10.6032313"><ele>278.0</ele><time>2026-04-19T14:31:27.165Z</time></trkpt><trkpt lat="43.3729299" lon="10.6032322"><ele>278.0</ele><time>2026-04-19T14:31:28.129Z</time></trkpt><trkpt lat="43.373044" lon="10.6032615"><ele>278.0</ele><time>2026-04-19T14:31:29.135Z</time></trkpt><trkpt lat="43.3731578" lon="10.6032971"><ele>280.75</ele><time>2026-04-19T14:31:30.129Z</time></trkpt><trkpt lat="43.3732731" lon="10.6033417"><ele>283.5</ele><time>2026-04-19T14:31:31.171Z</time></trkpt><trkpt lat="43.3733899" lon="10.6033902"><ele>286.25</ele><time>2026-04-19T14:31:32.139Z</time></trkpt><trkpt lat="43.3735117" lon="10.6034431"><ele>289.0</ele><time>2026-04-19T14:31:33.166Z</time></trkpt><trkpt lat="43.3736374" lon="10.6034938"><ele>289.0</ele><time>2026-04-19T14:31:34.132Z</time></trkpt><trkpt lat="43.3737618" lon="10.6035477"><ele>289.0</ele><time>2026-04-19T14:31:35.127Z</time></trkpt><trkpt lat="43.3738895" lon="10.6036024"><ele>289.0</ele><time>2026-04-19T14:31:36.172Z</time></trkpt><trkpt lat="43.3740201" lon="10.6036565"><ele>289.0</ele><time>2026-04-19T14:31:37.172Z</time></trkpt><trkpt lat="43.3741479" lon="10.6037172"><ele>292.5</ele><time>2026-04-19T14:31:38.134Z</time></trkpt><trkpt lat="43.3742754" lon="10.6037851"><ele>296.0</ele><time>2026-04-19T14:31:39.143Z</time></trkpt><trkpt lat="43.3743974" lon="10.6038582"><ele>299.5</ele><time>2026-04-19T14:31:40.171Z</time></trkpt><trkpt lat="43.3745153" lon="10.6039342"><ele>303.0</ele><time>2026-04-19T14:31:41.13Z</time></trkpt><trkpt lat="43.3746303" lon="10.6040068"><ele>306.25</ele><time>2026-04-19T14:31:42.133Z</time></trkpt><trkpt lat="43.3747463" lon="10.6040769"><ele>309.5</ele><time>2026-04-19T14:31:43.137Z</time></trkpt><trkpt lat="43.3748647" lon="10.6041439"><ele>312.75</ele><time>2026-04-19T14:31:44.174Z</time></trkpt><trkpt lat="43.3749816" lon="10.6042027"><ele>316.0</ele><time>2026-04-19T14:31:45.129Z</time></trkpt><trkpt lat="43.3750961" lon="10.6042414"><ele>316.0</ele><time>2026-04-19T14:31:46.13Z</time></trkpt><trkpt lat="43.3752097" lon="10.6042527"><ele>316.0</ele><time>2026-04-19T14:31:47.133Z</time></trkpt><trkpt lat="43.3753287" lon="10.6042365"><ele>316.0</ele><time>2026-04-19T14:31:48.13Z</time></trkpt><trkpt lat="43.3754544" lon="10.6041958"><ele>316.0</ele><time>2026-04-19T14:31:49.177Z</time></trkpt><trkpt lat="43.3755889" lon="10.6041508"><ele>317.75</ele><time>2026-04-19T14:31:50.161Z</time></trkpt><trkpt lat="43.375728" lon="10.604106"><ele>319.5</ele><time>2026-04-19T14:31:51.135Z</time></trkpt><trkpt lat="43.3758618" lon="10.6040644"><ele>321.25</ele><time>2026-04-19T14:31:52.142Z</time></trkpt><trkpt lat="43.3759855" lon="10.604035"><ele>323.0</ele><time>2026-04-19T14:31:53.139Z</time></trkpt><trkpt lat="43.3761017" lon="10.6040101"><ele>323.0</ele><time>2026-04-19T14:31:54.13Z</time></trkpt><trkpt lat="43.3762069" lon="10.603998"><ele>323.0</ele><time>2026-04-19T14:31:55.171Z</time></trkpt><trkpt lat="43.3763074" lon="10.604"><ele>323.0</ele><time>2026-04-19T14:31:56.14Z</time></trkpt><trkpt lat="43.3764099" lon="10.6040192"><ele>323.0</ele><time>2026-04-19T14:31:57.132Z</time></trkpt><trkpt lat="43.3765183" lon="10.6040537"><ele>323.0</ele><time>2026-04-19T14:31:58.126Z</time></trkpt><trkpt lat="43.376633" lon="10.6041089"><ele>324.5</ele><time>2026-04-19T14:31:59.133Z</time></trkpt><trkpt lat="43.3767528" lon="10.6041808"><ele>326.0</ele><time>2026-04-19T14:32:00.16Z</time></trkpt><trkpt lat="43.3768809" lon="10.6042651"><ele>327.5</ele><time>2026-04-19T14:32:01.137Z</time></trkpt><trkpt lat="43.3770194" lon="10.6043587"><ele>329.0</ele><time>2026-04-19T14:32:02.171Z</time></trkpt><trkpt lat="43.3771604" lon="10.6044611"><ele>330.33333333333337</ele><time>2026-04-19T14:32:03.163Z</time></trkpt><trkpt lat="43.3773019" lon="10.6045648"><ele>331.6666666666667</ele><time>2026-04-19T14:32:04.145Z</time></trkpt><trkpt lat="43.3774507" lon="10.604674"><ele>333.0</ele><time>2026-04-19T14:32:05.132Z</time></trkpt><trkpt lat="43.3776044" lon="10.6048018"><ele>333.0</ele><time>2026-04-19T14:32:06.132Z</time></trkpt><trkpt lat="43.3777599" lon="10.6049289"><ele>333.0</ele><time>2026-04-19T14:32:07.16Z</time></trkpt><trkpt lat="43.3779123" lon="10.6050576"><ele>333.0</ele><time>2026-04-19T14:32:08.13Z</time></trkpt><trkpt lat="43.3780631" lon="10.6051913"><ele>334.0</ele><time>2026-04-19T14:32:09.168Z</time></trkpt><trkpt lat="43.3782143" lon="10.6053239"><ele>335.0</ele><time>2026-04-19T14:32:10.163Z</time></trkpt><trkpt lat="43.3783611" lon="10.6054477"><ele>336.0</ele><time>2026-04-19T14:32:11.138Z</time></trkpt><trkpt lat="43.3785034" lon="10.6055698"><ele>336.25</ele><time>2026-04-19T14:32:12.129Z</time></trkpt><trkpt lat="43.3786328" lon="10.60569"><ele>336.5</ele><time>2026-04-19T14:32:13.131Z</time></trkpt><trkpt lat="43.378746" lon="10.6057859"><ele>336.75</ele><time>2026-04-19T14:32:14.134Z</time></trkpt><trkpt lat="43.3788429" lon="10.6058292"><ele>337.0</ele><time>2026-04-19T14:32:15.136Z</time></trkpt><trkpt lat="43.3789317" lon="10.6058005"><ele>339.16666666666663</ele><time>2026-04-19T14:32:16.13Z</time></trkpt><trkpt lat="43.3790161" lon="10.605743"><ele>341.3333333333333</ele><time>2026-04-19T14:32:17.128Z</time></trkpt><trkpt lat="43.3791085" lon="10.6056993"><ele>343.5</ele><time>2026-04-19T14:32:18.135Z</time></trkpt><trkpt lat="43.3792001" lon="10.6056869"><ele>345.6666666666667</ele><time>2026-04-19T14:32:19.137Z</time></trkpt><trkpt lat="43.3792728" lon="10.6057243"><ele>347.83333333333337</ele><time>2026-04-19T14:32:20.13Z</time></trkpt><trkpt lat="43.3793093" lon="10.6058326"><ele>350.0</ele><time>2026-04-19T14:32:21.127Z</time></trkpt><trkpt lat="43.3793144" lon="10.6059684"><ele>350.0</ele><time>2026-04-19T14:32:22.136Z</time></trkpt><trkpt lat="43.3793097" lon="10.606105"><ele>350.0</ele><time>2026-04-19T14:32:23.132Z</time></trkpt><trkpt lat="43.3793309" lon="10.6062242"><ele>350.0</ele><time>2026-04-19T14:32:24.143Z</time></trkpt><trkpt lat="43.3793868" lon="10.6063273"><ele>350.0</ele><time>2026-04-19T14:32:25.133Z</time></trkpt><trkpt lat="43.3794782" lon="10.6064208"><ele>350.0</ele><time>2026-04-19T14:32:26.13Z</time></trkpt><trkpt lat="43.3795822" lon="10.6065255"><ele>351.25</ele><time>2026-04-19T14:32:27.139Z</time></trkpt><trkpt lat="43.3796831" lon="10.606651"><ele>352.5</ele><time>2026-04-19T14:32:28.13Z</time></trkpt><trkpt lat="43.3797687" lon="10.6067923"><ele>353.75</ele><time>2026-04-19T14:32:29.136Z</time></trkpt><trkpt lat="43.3798385" lon="10.6069486"><ele>355.0</ele><time>2026-04-19T14:32:30.167Z</time></trkpt><trkpt lat="43.3798914" lon="10.6071067"><ele>358.25</ele><time>2026-04-19T14:32:31.127Z</time></trkpt><trkpt lat="43.3799467" lon="10.6072448"><ele>361.5</ele><time>2026-04-19T14:32:32.132Z</time></trkpt><trkpt lat="43.3800237" lon="10.6073501"><ele>364.75</ele><time>2026-04-19T14:32:33.163Z</time></trkpt><trkpt lat="43.3801377" lon="10.6074208"><ele>368.0</ele><time>2026-04-19T14:32:34.129Z</time></trkpt><trkpt lat="43.3802734" lon="10.6074699"><ele>368.0</ele><time>2026-04-19T14:32:35.146Z</time></trkpt><trkpt lat="43.3804159" lon="10.6075127"><ele>368.0</ele><time>2026-04-19T14:32:36.143Z</time></trkpt><trkpt lat="43.3805557" lon="10.607557"><ele>368.0</ele><time>2026-04-19T14:32:37.138Z</time></trkpt><trkpt lat="43.380683" lon="10.6076101"><ele>368.0</ele><time>2026-04-19T14:32:38.138Z</time></trkpt><trkpt lat="43.3807928" lon="10.6076871"><ele>368.75</ele><time>2026-04-19T14:32:39.129Z</time></trkpt><trkpt lat="43.3808878" lon="10.6077946"><ele>369.5</ele><time>2026-04-19T14:32:40.135Z</time></trkpt><trkpt lat="43.3809827" lon="10.6079119"><ele>370.25</ele><time>2026-04-19T14:32:41.132Z</time></trkpt><trkpt lat="43.3810921" lon="10.6080122"><ele>371.0</ele><time>2026-04-19T14:32:42.164Z</time></trkpt><trkpt lat="43.381217" lon="10.608089"><ele>374.0</ele><time>2026-04-19T14:32:43.143Z</time></trkpt><trkpt lat="43.3813581" lon="10.6081535"><ele>377.0</ele><time>2026-04-19T14:32:44.162Z</time></trkpt><trkpt lat="43.3815002" lon="10.6082151"><ele>380.0</ele><time>2026-04-19T14:32:45.137Z</time></trkpt><trkpt lat="43.3816346" lon="10.6082682"><ele>383.0</ele><time>2026-04-19T14:32:46.133Z</time></trkpt><trkpt lat="43.3817612" lon="10.608304"><ele>383.0</ele><time>2026-04-19T14:32:47.135Z</time></trkpt><trkpt lat="43.3818838" lon="10.6083181"><ele>383.0</ele><time>2026-04-19T14:32:48.132Z</time></trkpt><trkpt lat="43.3820103" lon="10.6083252"><ele>383.0</ele><time>2026-04-19T14:32:49.138Z</time></trkpt><trkpt lat="43.38215" lon="10.6083455"><ele>383.0</ele><time>2026-04-19T14:32:50.129Z</time></trkpt><trkpt lat="43.3822993" lon="10.6083892"><ele>383.0</ele><time>2026-04-19T14:32:51.132Z</time></trkpt><trkpt lat="43.3824454" lon="10.6084626"><ele>383.0</ele><time>2026-04-19T14:32:52.137Z</time></trkpt><trkpt lat="43.382591" lon="10.6085476"><ele>383.0</ele><time>2026-04-19T14:32:53.141Z</time></trkpt><trkpt lat="43.3827326" lon="10.6086543"><ele>382.25</ele><time>2026-04-19T14:32:54.129Z</time></trkpt><trkpt lat="43.3828632" lon="10.6087812"><ele>381.5</ele><time>2026-04-19T14:32:55.128Z</time></trkpt><trkpt lat="43.3829819" lon="10.6088991"><ele>380.75</ele><time>2026-04-19T14:32:56.155Z</time></trkpt><trkpt lat="43.3831046" lon="10.6089938"><ele>380.0</ele><time>2026-04-19T14:32:57.134Z</time></trkpt><trkpt lat="43.3832407" lon="10.6090491"><ele>382.0</ele><time>2026-04-19T14:32:58.135Z</time></trkpt><trkpt lat="43.3833946" lon="10.6090712"><ele>384.0</ele><time>2026-04-19T14:32:59.131Z</time></trkpt><trkpt lat="43.3835549" lon="10.6090731"><ele>386.0</ele><time>2026-04-19T14:33:00.133Z</time></trkpt><trkpt lat="43.3837185" lon="10.6090714"><ele>387.3333333333333</ele><time>2026-04-19T14:33:01.144Z</time></trkpt><trkpt lat="43.3838813" lon="10.6090747"><ele>388.66666666666663</ele><time>2026-04-19T14:33:02.136Z</time></trkpt><trkpt lat="43.3840408" lon="10.6090842"><ele>390.0</ele><time>2026-04-19T14:33:03.162Z</time></trkpt><trkpt lat="43.3841956" lon="10.6090968"><ele>390.0</ele><time>2026-04-19T14:33:04.142Z</time></trkpt><trkpt lat="43.3843481" lon="10.6091262"><ele>390.0</ele><time>2026-04-19T14:33:05.136Z</time></trkpt><trkpt lat="43.3844982" lon="10.6091785"><ele>390.0</ele><time>2026-04-19T14:33:06.165Z</time></trkpt><trkpt lat="43.3846476" lon="10.6092427"><ele>392.0</ele><time>2026-04-19T14:33:07.137Z</time></trkpt><trkpt lat="43.3847996" lon="10.609313"><ele>394.0</ele><time>2026-04-19T14:33:08.131Z</time></trkpt><trkpt lat="43.3849539" lon="10.6093837"><ele>396.0</ele><time>2026-04-19T14:33:09.139Z</time></trkpt><trkpt lat="43.3851053" lon="10.6094551"><ele>397.33333333333337</ele><time>2026-04-19T14:33:10.163Z</time></trkpt><trkpt lat="43.3852538" lon="10.609529"><ele>398.6666666666667</ele><time>2026-04-19T14:33:11.162Z</time></trkpt><trkpt lat="43.3853957" lon="10.6096032"><ele>400.0</ele><time>2026-04-19T14:33:12.135Z</time></trkpt><trkpt lat="43.3855324" lon="10.6096819"><ele>404.0</ele><time>2026-04-19T14:33:13.134Z</time></trkpt><trkpt lat="43.3856649" lon="10.609776"><ele>408.0</ele><time>2026-04-19T14:33:14.13Z</time></trkpt><trkpt lat="43.3857898" lon="10.6098899"><ele>412.0</ele><time>2026-04-19T14:33:15.128Z</time></trkpt><trkpt lat="43.3859121" lon="10.6100152"><ele>412.0</ele><time>2026-04-19T14:33:16.133Z</time></trkpt><trkpt lat="43.3860408" lon="10.6101388"><ele>412.0</ele><time>2026-04-19T14:33:17.162Z</time></trkpt><trkpt lat="43.3861792" lon="10.6102624"><ele>412.0</ele><time>2026-04-19T14:33:18.133Z</time></trkpt><trkpt lat="43.3863258" lon="10.6103815"><ele>417.33333333333337</ele><time>2026-04-19T14:33:19.13Z</time></trkpt><trkpt lat="43.3864724" lon="10.6104923"><ele>422.66666666666663</ele><time>2026-04-19T14:33:20.146Z</time></trkpt><trkpt lat="43.3866187" lon="10.6105948"><ele>428.0</ele><time>2026-04-19T14:33:21.128Z</time></trkpt><trkpt lat="43.3867653" lon="10.6106851"><ele>428.0</ele><time>2026-04-19T14:33:22.131Z</time></trkpt><trkpt lat="43.3869151" lon="10.6107532"><ele>428.0</ele><time>2026-04-19T14:33:23.132Z</time></trkpt><trkpt lat="43.387068" lon="10.6107897"><ele>428.0</ele><time>2026-04-19T14:33:24.16Z</time></trkpt><trkpt lat="43.3872203" lon="10.6107969"><ele>430.25</ele><time>2026-04-19T14:33:25.135Z</time></trkpt><trkpt lat="43.387369" lon="10.6107902"><ele>432.5</ele><time>2026-04-19T14:33:26.129Z</time></trkpt><trkpt lat="43.3875017" lon="10.6107851"><ele>434.75</ele><time>2026-04-19T14:33:27.136Z</time></trkpt><trkpt lat="43.3876183" lon="10.610785"><ele>437.0</ele><time>2026-04-19T14:33:28.132Z</time></trkpt><trkpt lat="43.387731" lon="10.6108058"><ele>437.0</ele><time>2026-04-19T14:33:29.145Z</time></trkpt><trkpt lat="43.3878495" lon="10.61086"><ele>437.0</ele><time>2026-04-19T14:33:30.139Z</time></trkpt><trkpt lat="43.3879642" lon="10.610935"><ele>437.0</ele><time>2026-04-19T14:33:31.134Z</time></trkpt><trkpt lat="43.388073" lon="10.6110231"><ele>437.0</ele><time>2026-04-19T14:33:32.14Z</time></trkpt><trkpt lat="43.3881797" lon="10.6111202"><ele>438.5</ele><time>2026-04-19T14:33:33.136Z</time></trkpt><trkpt lat="43.3882898" lon="10.6111973"><ele>440.0</ele><time>2026-04-19T14:33:34.13Z</time></trkpt><trkpt lat="43.3884092" lon="10.6112476"><ele>441.5</ele><time>2026-04-19T14:33:35.139Z</time></trkpt><trkpt lat="43.3885371" lon="10.611262"><ele>443.0</ele><time>2026-04-19T14:33:36.145Z</time></trkpt><trkpt lat="43.3886663" lon="10.6112543"><ele>443.0</ele><time>2026-04-19T14:33:37.174Z</time></trkpt><trkpt lat="43.3887892" lon="10.6112424"><ele>443.0</ele><time>2026-04-19T14:33:38.164Z</time></trkpt><trkpt lat="43.3889137" lon="10.6112244"><ele>443.0</ele><time>2026-04-19T14:33:39.158Z</time></trkpt><trkpt lat="43.3890458" lon="10.6111887"><ele>443.0</ele><time>2026-04-19T14:33:40.128Z</time></trkpt><trkpt lat="43.3891865" lon="10.6111308"><ele>447.0</ele><time>2026-04-19T14:33:41.13Z</time></trkpt><trkpt lat="43.3893372" lon="10.6110488"><ele>451.0</ele><time>2026-04-19T14:33:42.147Z</time></trkpt><trkpt lat="43.3894882" lon="10.6109535"><ele>455.0</ele><time>2026-04-19T14:33:43.137Z</time></trkpt><trkpt lat="43.3896337" lon="10.6108571"><ele>456.25</ele><time>2026-04-19T14:33:44.136Z</time></trkpt><trkpt lat="43.38977" lon="10.6107696"><ele>457.5</ele><time>2026-04-19T14:33:45.148Z</time></trkpt><trkpt lat="43.3898916" lon="10.6106939"><ele>458.75</ele><time>2026-04-19T14:33:46.164Z</time></trkpt><trkpt lat="43.3899973" lon="10.6106267"><ele>460.0</ele><time>2026-04-19T14:33:47.163Z</time></trkpt><trkpt lat="43.3900933" lon="10.6105643"><ele>460.0</ele><time>2026-04-19T14:33:48.131Z</time></trkpt><trkpt lat="43.3901834" lon="10.6105084"><ele>460.0</ele><time>2026-04-19T14:33:49.137Z</time></trkpt><trkpt lat="43.3902794" lon="10.6104692"><ele>460.0</ele><time>2026-04-19T14:33:50.18Z</time></trkpt><trkpt lat="43.3903884" lon="10.610443"><ele>460.0</ele><time>2026-04-19T14:33:51.165Z</time></trkpt><trkpt lat="43.3905101" lon="10.6104279"><ele>460.0</ele><time>2026-04-19T14:33:52.134Z</time></trkpt><trkpt lat="43.3906564" lon="10.6104406"><ele>459.25</ele><time>2026-04-19T14:33:53.131Z</time></trkpt><trkpt lat="43.3907948" lon="10.6104494"><ele>458.5</ele><time>2026-04-19T14:33:54.132Z</time></trkpt><trkpt lat="43.3909242" lon="10.610457"><ele>457.75</ele><time>2026-04-19T14:33:55.139Z</time></trkpt><trkpt lat="43.3910449" lon="10.6104696"><ele>457.0</ele><time>2026-04-19T14:33:56.142Z</time></trkpt><trkpt lat="43.3911508" lon="10.6105042"><ele>457.0</ele><time>2026-04-19T14:33:57.139Z</time></trkpt><trkpt lat="43.3912366" lon="10.6105709"><ele>457.00000000000006</ele><time>2026-04-19T14:33:58.141Z</time></trkpt><trkpt lat="43.3913021" lon="10.6106763"><ele>457.00000000000006</ele><time>2026-04-19T14:33:59.132Z</time></trkpt><trkpt lat="43.3913548" lon="10.6108313"><ele>457.0</ele><time>2026-04-19T14:34:00.132Z</time></trkpt><trkpt lat="43.391403" lon="10.610988"><ele>457.0</ele><time>2026-04-19T14:34:01.131Z</time></trkpt><trkpt lat="43.3914669" lon="10.6111186"><ele>456.6</ele><time>2026-04-19T14:34:02.137Z</time></trkpt><trkpt lat="43.39155" lon="10.6112094"><ele>456.20000000000005</ele><time>2026-04-19T14:34:03.132Z</time></trkpt><trkpt lat="43.3916454" lon="10.6112788"><ele>455.8</ele><time>2026-04-19T14:34:04.137Z</time></trkpt><trkpt lat="43.3917424" lon="10.6113467"><ele>455.4</ele><time>2026-04-19T14:34:05.169Z</time></trkpt><trkpt lat="43.3918234" lon="10.6114269"><ele>455.0</ele><time>2026-04-19T14:34:06.164Z</time></trkpt><trkpt lat="43.3918743" lon="10.6115088"><ele>455.0</ele><time>2026-04-19T14:34:07.133Z</time></trkpt><trkpt lat="43.3918014" lon="10.6116761"><ele>455.0</ele><time>2026-04-19T14:34:09.133Z</time></trkpt><trkpt lat="43.3917536" lon="10.6117779"><ele>455.0</ele><time>2026-04-19T14:34:10.131Z</time></trkpt><trkpt lat="43.3917308" lon="10.611909"><ele>455.0</ele><time>2026-04-19T14:34:11.135Z</time></trkpt><trkpt lat="43.3917569" lon="10.612057"><ele>455.0</ele><time>2026-04-19T14:34:12.129Z</time></trkpt><trkpt lat="43.3918139" lon="10.612183"><ele>454.4</ele><time>2026-04-19T14:34:13.135Z</time></trkpt><trkpt lat="43.3918849" lon="10.6122734"><ele>453.8</ele><time>2026-04-19T14:34:14.128Z</time></trkpt><trkpt lat="43.3919465" lon="10.6123291"><ele>453.20000000000005</ele><time>2026-04-19T14:34:15.137Z</time></trkpt><trkpt lat="43.3920387" lon="10.6123882"><ele>452.6</ele><time>2026-04-19T14:34:17.134Z</time></trkpt><trkpt lat="43.3921449" lon="10.6124772"><ele>452.0</ele><time>2026-04-19T14:34:21.138Z</time></trkpt><trkpt lat="43.3922127" lon="10.6125245"><ele>453.40000000000003</ele><time>2026-04-19T14:34:22.138Z</time></trkpt><trkpt lat="43.392288" lon="10.6125763"><ele>454.80000000000007</ele><time>2026-04-19T14:34:23.131Z</time></trkpt><trkpt lat="43.3923647" lon="10.6126331"><ele>456.2</ele><time>2026-04-19T14:34:24.13Z</time></trkpt><trkpt lat="43.392445" lon="10.6126955"><ele>457.6</ele><time>2026-04-19T14:34:25.134Z</time></trkpt><trkpt lat="43.3925251" lon="10.6127752"><ele>459.0</ele><time>2026-04-19T14:34:26.132Z</time></trkpt><trkpt lat="43.3926108" lon="10.612878"><ele>459.0</ele><time>2026-04-19T14:34:27.132Z</time></trkpt><trkpt lat="43.3926951" lon="10.6130011"><ele>459.0</ele><time>2026-04-19T14:34:28.132Z</time></trkpt><trkpt lat="43.3927703" lon="10.6131373"><ele>459.0</ele><time>2026-04-19T14:34:29.136Z</time></trkpt><trkpt lat="43.3928288" lon="10.6132758"><ele>459.0</ele><time>2026-04-19T14:34:30.142Z</time></trkpt><trkpt lat="43.3928755" lon="10.6134157"><ele>459.0</ele><time>2026-04-19T14:34:31.135Z</time></trkpt><trkpt lat="43.3929048" lon="10.6135577"><ele>459.0</ele><time>2026-04-19T14:34:32.134Z</time></trkpt><trkpt lat="43.3929214" lon="10.613708"><ele>459.0</ele><time>2026-04-19T14:34:33.127Z</time></trkpt><trkpt lat="43.3929262" lon="10.6138681"><ele>459.0</ele><time>2026-04-19T14:34:34.131Z</time></trkpt><trkpt lat="43.3929134" lon="10.6140254"><ele>459.0</ele><time>2026-04-19T14:34:35.128Z</time></trkpt><trkpt lat="43.3928837" lon="10.6141876"><ele>459.4</ele><time>2026-04-19T14:34:36.132Z</time></trkpt><trkpt lat="43.3928632" lon="10.6143521"><ele>459.79999999999995</ele><time>2026-04-19T14:34:37.139Z</time></trkpt><trkpt lat="43.3928498" lon="10.6145099"><ele>460.20000000000005</ele><time>2026-04-19T14:34:38.133Z</time></trkpt><trkpt lat="43.3928308" lon="10.6146541"><ele>460.6</ele><time>2026-04-19T14:34:39.14Z</time></trkpt><trkpt lat="43.3927975" lon="10.6147841"><ele>461.0</ele><time>2026-04-19T14:34:40.159Z</time></trkpt><trkpt lat="43.3927497" lon="10.6148934"><ele>461.8333333333333</ele><time>2026-04-19T14:34:41.131Z</time></trkpt><trkpt lat="43.3926991" lon="10.6149881"><ele>462.66666666666663</ele><time>2026-04-19T14:34:42.13Z</time></trkpt><trkpt lat="43.3926576" lon="10.6150817"><ele>463.5</ele><time>2026-04-19T14:34:43.134Z</time></trkpt><trkpt lat="43.3926302" lon="10.6151818"><ele>464.33333333333337</ele><time>2026-04-19T14:34:44.136Z</time></trkpt><trkpt lat="43.3926248" lon="10.6152892"><ele>465.1666666666667</ele><time>2026-04-19T14:34:45.143Z</time></trkpt><trkpt lat="43.392653" lon="10.6153996"><ele>466.0</ele><time>2026-04-19T14:34:46.132Z</time></trkpt><trkpt lat="43.3927109" lon="10.6155059"><ele>466.0</ele><time>2026-04-19T14:34:47.13Z</time></trkpt><trkpt lat="43.392796" lon="10.6155901"><ele>466.0</ele><time>2026-04-19T14:34:48.143Z</time></trkpt><trkpt lat="43.3929032" lon="10.615641"><ele>466.0</ele><time>2026-04-19T14:34:49.14Z</time></trkpt><trkpt lat="43.3930219" lon="10.6156487"><ele>466.0</ele><time>2026-04-19T14:34:50.134Z</time></trkpt><trkpt lat="43.3931447" lon="10.6156063"><ele>464.8</ele><time>2026-04-19T14:34:51.139Z</time></trkpt><trkpt lat="43.3932577" lon="10.6155548"><ele>463.6</ele><time>2026-04-19T14:34:52.16Z</time></trkpt><trkpt lat="43.3933596" lon="10.615503"><ele>462.4</ele><time>2026-04-19T14:34:53.133Z</time></trkpt><trkpt lat="43.3934607" lon="10.6154604"><ele>461.2</ele><time>2026-04-19T14:34:54.165Z</time></trkpt><trkpt lat="43.3935689" lon="10.6154472"><ele>460.0</ele><time>2026-04-19T14:34:55.127Z</time></trkpt><trkpt lat="43.3936817" lon="10.615477"><ele>460.0</ele><time>2026-04-19T14:34:56.131Z</time></trkpt><trkpt lat="43.3937942" lon="10.6155231"><ele>460.0</ele><time>2026-04-19T14:34:57.131Z</time></trkpt><trkpt lat="43.3939041" lon="10.615576"><ele>460.0</ele><time>2026-04-19T14:34:58.134Z</time></trkpt><trkpt lat="43.3940081" lon="10.6156413"><ele>460.0</ele><time>2026-04-19T14:34:59.144Z</time></trkpt><trkpt lat="43.3941099" lon="10.615726"><ele>458.5</ele><time>2026-04-19T14:35:00.128Z</time></trkpt><trkpt lat="43.3942122" lon="10.615837"><ele>457.0</ele><time>2026-04-19T14:35:01.135Z</time></trkpt><trkpt lat="43.3943125" lon="10.6159678"><ele>455.5</ele><time>2026-04-19T14:35:02.131Z</time></trkpt><trkpt lat="43.3943971" lon="10.6161095"><ele>454.0</ele><time>2026-04-19T14:35:03.161Z</time></trkpt><trkpt lat="43.3944622" lon="10.6162548"><ele>454.0</ele><time>2026-04-19T14:35:04.128Z</time></trkpt><trkpt lat="43.3945154" lon="10.6164073"><ele>454.0</ele><time>2026-04-19T14:35:05.134Z</time></trkpt><trkpt lat="43.3945688" lon="10.6165564"><ele>454.0</ele><time>2026-04-19T14:35:06.129Z</time></trkpt><trkpt lat="43.3946227" lon="10.6166765"><ele>454.0</ele><time>2026-04-19T14:35:07.162Z</time></trkpt><trkpt lat="43.3946885" lon="10.6167588"><ele>454.0</ele><time>2026-04-19T14:35:08.139Z</time></trkpt><trkpt lat="43.3947642" lon="10.6167924"><ele>457.1666666666667</ele><time>2026-04-19T14:35:09.136Z</time></trkpt><trkpt lat="43.394847" lon="10.6167805"><ele>460.33333333333337</ele><time>2026-04-19T14:35:10.133Z</time></trkpt><trkpt lat="43.3949323" lon="10.6167541"><ele>463.5</ele><time>2026-04-19T14:35:11.132Z</time></trkpt><trkpt lat="43.3950152" lon="10.6167462"><ele>466.66666666666663</ele><time>2026-04-19T14:35:12.135Z</time></trkpt><trkpt lat="43.3950797" lon="10.6167836"><ele>469.8333333333333</ele><time>2026-04-19T14:35:13.133Z</time></trkpt><trkpt lat="43.3951207" lon="10.616855"><ele>473.0</ele><time>2026-04-19T14:35:14.131Z</time></trkpt><trkpt lat="43.3951459" lon="10.6169654"><ele>471.0</ele><time>2026-04-19T14:35:15.163Z</time></trkpt><trkpt lat="43.3951548" lon="10.6170953"><ele>468.99999999999994</ele><time>2026-04-19T14:35:16.137Z</time></trkpt><trkpt lat="43.3951668" lon="10.6172356"><ele>466.99999999999994</ele><time>2026-04-19T14:35:17.136Z</time></trkpt><trkpt lat="43.3951944" lon="10.6173725"><ele>465.0</ele><time>2026-04-19T14:35:18.139Z</time></trkpt><trkpt lat="43.3952306" lon="10.6174857"><ele>463.0</ele><time>2026-04-19T14:35:19.134Z</time></trkpt><trkpt lat="43.3952935" lon="10.617567"><ele>463.0</ele><time>2026-04-19T14:35:20.132Z</time></trkpt><trkpt lat="43.3953841" lon="10.6176011"><ele>462.99999999999994</ele><time>2026-04-19T14:35:21.135Z</time></trkpt><trkpt lat="43.3954815" lon="10.6175926"><ele>462.99999999999994</ele><time>2026-04-19T14:35:22.166Z</time></trkpt><trkpt lat="43.3955851" lon="10.6175469"><ele>463.0</ele><time>2026-04-19T14:35:23.137Z</time></trkpt><trkpt lat="43.395691" lon="10.6174806"><ele>463.0</ele><time>2026-04-19T14:35:24.131Z</time></trkpt><trkpt lat="43.3957954" lon="10.6174084"><ele>467.0</ele><time>2026-04-19T14:35:25.13Z</time></trkpt><trkpt lat="43.3958942" lon="10.6173351"><ele>470.99999999999994</ele><time>2026-04-19T14:35:26.137Z</time></trkpt><trkpt lat="43.3959904" lon="10.617268"><ele>474.99999999999994</ele><time>2026-04-19T14:35:27.132Z</time></trkpt><trkpt lat="43.396091" lon="10.6172054"><ele>479.0</ele><time>2026-04-19T14:35:28.134Z</time></trkpt><trkpt lat="43.3961929" lon="10.6171464"><ele>483.0</ele><time>2026-04-19T14:35:29.131Z</time></trkpt><trkpt lat="43.396294" lon="10.6170899"><ele>485.3333333333333</ele><time>2026-04-19T14:35:30.135Z</time></trkpt><trkpt lat="43.3963873" lon="10.617043"><ele>487.66666666666663</ele><time>2026-04-19T14:35:31.132Z</time></trkpt><trkpt lat="43.3964718" lon="10.6170126"><ele>490.0</ele><time>2026-04-19T14:35:32.141Z</time></trkpt><trkpt lat="43.3965467" lon="10.6170033"><ele>492.3333333333333</ele><time>2026-04-19T14:35:33.132Z</time></trkpt><trkpt lat="43.3966512" lon="10.6170628"><ele>494.66666666666663</ele><time>2026-04-19T14:35:35.135Z</time></trkpt><trkpt lat="43.3966855" lon="10.6171455"><ele>497.0</ele><time>2026-04-19T14:35:36.13Z</time></trkpt><trkpt lat="43.3967153" lon="10.617271"><ele>497.0</ele><time>2026-04-19T14:35:37.133Z</time></trkpt><trkpt lat="43.3967586" lon="10.6174233"><ele>497.0</ele><time>2026-04-19T14:35:38.13Z</time></trkpt><trkpt lat="43.3968209" lon="10.6175751"><ele>497.0</ele><time>2026-04-19T14:35:39.135Z</time></trkpt><trkpt lat="43.3968986" lon="10.6176928"><ele>497.0</ele><time>2026-04-19T14:35:40.137Z</time></trkpt><trkpt lat="43.3969933" lon="10.6177665"><ele>497.0</ele><time>2026-04-19T14:35:41.129Z</time></trkpt><trkpt lat="43.3971041" lon="10.6177981"><ele>497.0</ele><time>2026-04-19T14:35:42.13Z</time></trkpt><trkpt lat="43.3972208" lon="10.6178082"><ele>497.0</ele><time>2026-04-19T14:35:43.162Z</time></trkpt><trkpt lat="43.397339" lon="10.6178123"><ele>497.0</ele><time>2026-04-19T14:35:44.135Z</time></trkpt><trkpt lat="43.3974632" lon="10.6178179"><ele>501.25</ele><time>2026-04-19T14:35:45.136Z</time></trkpt><trkpt lat="43.3975961" lon="10.6178146"><ele>505.5</ele><time>2026-04-19T14:35:46.163Z</time></trkpt><trkpt lat="43.3977326" lon="10.6177973"><ele>509.75</ele><time>2026-04-19T14:35:47.163Z</time></trkpt><trkpt lat="43.3978649" lon="10.6177627"><ele>514.0</ele><time>2026-04-19T14:35:48.145Z</time></trkpt><trkpt lat="43.3979879" lon="10.6177136"><ele>516.0</ele><time>2026-04-19T14:35:49.134Z</time></trkpt><trkpt lat="43.3980967" lon="10.6176486"><ele>518.0</ele><time>2026-04-19T14:35:50.133Z</time></trkpt><trkpt lat="43.3981919" lon="10.6175774"><ele>520.0</ele><time>2026-04-19T14:35:51.131Z</time></trkpt><trkpt lat="43.3982779" lon="10.6175049"><ele>522.0</ele><time>2026-04-19T14:35:52.168Z</time></trkpt><trkpt lat="43.3983698" lon="10.6174405"><ele>524.0</ele><time>2026-04-19T14:35:53.133Z</time></trkpt><trkpt lat="43.3984782" lon="10.6173972"><ele>524.0</ele><time>2026-04-19T14:35:54.13Z</time></trkpt><trkpt lat="43.3985974" lon="10.617372"><ele>524.0</ele><time>2026-04-19T14:35:55.135Z</time></trkpt><trkpt lat="43.3987261" lon="10.6173564"><ele>524.0</ele><time>2026-04-19T14:35:56.137Z</time></trkpt><trkpt lat="43.3988616" lon="10.6173467"><ele>524.0</ele><time>2026-04-19T14:35:57.159Z</time></trkpt><trkpt lat="43.3989972" lon="10.6173403"><ele>526.0</ele><time>2026-04-19T14:35:58.134Z</time></trkpt><trkpt lat="43.3991183" lon="10.6173374"><ele>528.0</ele><time>2026-04-19T14:35:59.132Z</time></trkpt><trkpt lat="43.3992183" lon="10.6173492"><ele>530.0</ele><time>2026-04-19T14:36:00.134Z</time></trkpt><trkpt lat="43.3992925" lon="10.6173819"><ele>532.0</ele><time>2026-04-19T14:36:01.129Z</time></trkpt><trkpt lat="43.3993463" lon="10.6174467"><ele>534.0</ele><time>2026-04-19T14:36:02.133Z</time></trkpt><trkpt lat="43.3993786" lon="10.6175487"><ele>534.0</ele><time>2026-04-19T14:36:03.167Z</time></trkpt><trkpt lat="43.3993869" lon="10.617683"><ele>534.0</ele><time>2026-04-19T14:36:04.132Z</time></trkpt><trkpt lat="43.3993736" lon="10.6178283"><ele>534.0</ele><time>2026-04-19T14:36:05.13Z</time></trkpt><trkpt lat="43.3993575" lon="10.6179729"><ele>534.0</ele><time>2026-04-19T14:36:06.143Z</time></trkpt><trkpt lat="43.3993627" lon="10.6181102"><ele>534.0</ele><time>2026-04-19T14:36:07.137Z</time></trkpt><trkpt lat="43.3993888" lon="10.6182319"><ele>534.2</ele><time>2026-04-19T14:36:08.17Z</time></trkpt><trkpt lat="43.3994261" lon="10.6183359"><ele>534.4</ele><time>2026-04-19T14:36:09.143Z</time></trkpt><trkpt lat="43.3994604" lon="10.6184108"><ele>534.6</ele><time>2026-04-19T14:36:10.131Z</time></trkpt><trkpt lat="43.3995241" lon="10.6185013"><ele>534.8</ele><time>2026-04-19T14:36:12.131Z</time></trkpt><trkpt lat="43.399657" lon="10.6185651"><ele>535.0</ele><time>2026-04-19T14:36:14.133Z</time></trkpt><trkpt lat="43.3997546" lon="10.6186202"><ele>535.5</ele><time>2026-04-19T14:36:15.132Z</time></trkpt><trkpt lat="43.3998726" lon="10.6187055"><ele>536.0</ele><time>2026-04-19T14:36:16.132Z</time></trkpt><trkpt lat="43.3999956" lon="10.6188025"><ele>536.5</ele><time>2026-04-19T14:36:17.13Z</time></trkpt><trkpt lat="43.4001129" lon="10.6188942"><ele>537.0</ele><time>2026-04-19T14:36:18.137Z</time></trkpt><trkpt lat="43.4002229" lon="10.6189794"><ele>537.0</ele><time>2026-04-19T14:36:19.141Z</time></trkpt><trkpt lat="43.4003238" lon="10.6190602"><ele>537.0</ele><time>2026-04-19T14:36:20.13Z</time></trkpt><trkpt lat="43.4004195" lon="10.6191372"><ele>537.0</ele><time>2026-04-19T14:36:21.131Z</time></trkpt><trkpt lat="43.4005173" lon="10.6192099"><ele>537.0</ele><time>2026-04-19T14:36:22.137Z</time></trkpt><trkpt lat="43.4006233" lon="10.6192712"><ele>535.0</ele><time>2026-04-19T14:36:23.13Z</time></trkpt><trkpt lat="43.4007376" lon="10.6193051"><ele>533.0</ele><time>2026-04-19T14:36:24.137Z</time></trkpt><trkpt lat="43.4008541" lon="10.6193097"><ele>531.0</ele><time>2026-04-19T14:36:25.135Z</time></trkpt><trkpt lat="43.4009651" lon="10.6192958"><ele>529.0</ele><time>2026-04-19T14:36:26.147Z</time></trkpt><trkpt lat="43.4010709" lon="10.6192631"><ele>529.0</ele><time>2026-04-19T14:36:27.168Z</time></trkpt><trkpt lat="43.4011737" lon="10.6192126"><ele>529.0</ele><time>2026-04-19T14:36:28.136Z</time></trkpt><trkpt lat="43.4012721" lon="10.6191588"><ele>529.0</ele><time>2026-04-19T14:36:29.127Z</time></trkpt><trkpt lat="43.4013646" lon="10.6191238"><ele>529.0</ele><time>2026-04-19T14:36:30.133Z</time></trkpt><trkpt lat="43.4014552" lon="10.6191191"><ele>529.0</ele><time>2026-04-19T14:36:31.133Z</time></trkpt><trkpt lat="43.4015494" lon="10.6191533"><ele>527.5</ele><time>2026-04-19T14:36:32.129Z</time></trkpt><trkpt lat="43.4016561" lon="10.6192294"><ele>526.0</ele><time>2026-04-19T14:36:33.163Z</time></trkpt><trkpt lat="43.4017765" lon="10.6193343"><ele>524.5</ele><time>2026-04-19T14:36:34.166Z</time></trkpt><trkpt lat="43.4018993" lon="10.6194464"><ele>523.0</ele><time>2026-04-19T14:36:35.165Z</time></trkpt><trkpt lat="43.4020253" lon="10.6195444"><ele>523.0</ele><time>2026-04-19T14:36:36.14Z</time></trkpt><trkpt lat="43.4021504" lon="10.6196289"><ele>523.0</ele><time>2026-04-19T14:36:37.13Z</time></trkpt><trkpt lat="43.402269" lon="10.6197105"><ele>523.0</ele><time>2026-04-19T14:36:38.137Z</time></trkpt><trkpt lat="43.4023818" lon="10.6197961"><ele>523.0</ele><time>2026-04-19T14:36:39.167Z</time></trkpt><trkpt lat="43.4024845" lon="10.6198924"><ele>517.25</ele><time>2026-04-19T14:36:40.131Z</time></trkpt><trkpt lat="43.4025803" lon="10.6200093"><ele>511.5</ele><time>2026-04-19T14:36:41.162Z</time></trkpt><trkpt lat="43.402668" lon="10.6201481"><ele>505.75</ele><time>2026-04-19T14:36:42.135Z</time></trkpt><trkpt lat="43.4027498" lon="10.6203041"><ele>500.0</ele><time>2026-04-19T14:36:43.136Z</time></trkpt><trkpt lat="43.4028165" lon="10.6204633"><ele>499.5</ele><time>2026-04-19T14:36:44.134Z</time></trkpt><trkpt lat="43.4028669" lon="10.6206231"><ele>499.0</ele><time>2026-04-19T14:36:45.134Z</time></trkpt><trkpt lat="43.4029119" lon="10.6207648"><ele>498.5</ele><time>2026-04-19T14:36:46.129Z</time></trkpt><trkpt lat="43.4029476" lon="10.6209105"><ele>498.0</ele><time>2026-04-19T14:36:47.148Z</time></trkpt><trkpt lat="43.4029676" lon="10.6210671"><ele>496.75</ele><time>2026-04-19T14:36:48.132Z</time></trkpt><trkpt lat="43.4029723" lon="10.6212519"><ele>495.5</ele><time>2026-04-19T14:36:49.134Z</time></trkpt><trkpt lat="43.4029687" lon="10.6214568"><ele>494.25</ele><time>2026-04-19T14:36:50.128Z</time></trkpt><trkpt lat="43.4029712" lon="10.6216641"><ele>493.0</ele><time>2026-04-19T14:36:51.149Z</time></trkpt><trkpt lat="43.4029778" lon="10.6218704"><ele>492.5</ele><time>2026-04-19T14:36:52.157Z</time></trkpt><trkpt lat="43.4029812" lon="10.6220684"><ele>492.0</ele><time>2026-04-19T14:36:53.138Z</time></trkpt><trkpt lat="43.4029803" lon="10.6222531"><ele>491.5</ele><time>2026-04-19T14:36:54.136Z</time></trkpt><trkpt lat="43.4029654" lon="10.6224235"><ele>491.0</ele><time>2026-04-19T14:36:55.161Z</time></trkpt><trkpt lat="43.4029363" lon="10.6225861"><ele>491.0</ele><time>2026-04-19T14:36:56.137Z</time></trkpt><trkpt lat="43.4028879" lon="10.6227462"><ele>491.0</ele><time>2026-04-19T14:36:57.163Z</time></trkpt><trkpt lat="43.4028284" lon="10.6229024"><ele>491.0</ele><time>2026-04-19T14:36:58.129Z</time></trkpt><trkpt lat="43.4027717" lon="10.6230524"><ele>491.0</ele><time>2026-04-19T14:36:59.133Z</time></trkpt><trkpt lat="43.4027273" lon="10.6232039"><ele>490.75</ele><time>2026-04-19T14:37:00.132Z</time></trkpt><trkpt lat="43.4027053" lon="10.6233606"><ele>490.5</ele><time>2026-04-19T14:37:01.144Z</time></trkpt><trkpt lat="43.4027087" lon="10.6235235"><ele>490.25</ele><time>2026-04-19T14:37:02.134Z</time></trkpt><trkpt lat="43.402732" lon="10.623687"><ele>490.0</ele><time>2026-04-19T14:37:03.132Z</time></trkpt><trkpt lat="43.4027711" lon="10.6238431"><ele>490.0</ele><time>2026-04-19T14:37:04.133Z</time></trkpt><trkpt lat="43.402814" lon="10.6239896"><ele>490.0</ele><time>2026-04-19T14:37:05.176Z</time></trkpt><trkpt lat="43.4028498" lon="10.6241297"><ele>490.0</ele><time>2026-04-19T14:37:06.17Z</time></trkpt><trkpt lat="43.4028823" lon="10.624264"><ele>490.0</ele><time>2026-04-19T14:37:07.133Z</time></trkpt><trkpt lat="43.4029144" lon="10.6243983"><ele>490.0</ele><time>2026-04-19T14:37:08.128Z</time></trkpt><trkpt lat="43.4029556" lon="10.6245412"><ele>490.75</ele><time>2026-04-19T14:37:09.13Z</time></trkpt><trkpt lat="43.4030135" lon="10.6246888"><ele>491.5</ele><time>2026-04-19T14:37:10.146Z</time></trkpt><trkpt lat="43.4030812" lon="10.6248339"><ele>492.25</ele><time>2026-04-19T14:37:11.145Z</time></trkpt><trkpt lat="43.403147" lon="10.6249806"><ele>493.0</ele><time>2026-04-19T14:37:12.159Z</time></trkpt><trkpt lat="43.4031965" lon="10.625116"><ele>493.0</ele><time>2026-04-19T14:37:13.13Z</time></trkpt><trkpt lat="43.4032331" lon="10.6252456"><ele>492.99999999999994</ele><time>2026-04-19T14:37:14.135Z</time></trkpt><trkpt lat="43.403273" lon="10.6253766"><ele>492.99999999999994</ele><time>2026-04-19T14:37:15.13Z</time></trkpt><trkpt lat="43.4033313" lon="10.6255127"><ele>493.0</ele><time>2026-04-19T14:37:16.147Z</time></trkpt><trkpt lat="43.4034124" lon="10.625651"><ele>493.0</ele><time>2026-04-19T14:37:17.142Z</time></trkpt><trkpt lat="43.4035081" lon="10.625789"><ele>490.5</ele><time>2026-04-19T14:37:18.16Z</time></trkpt><trkpt lat="43.4036013" lon="10.6259224"><ele>488.0</ele><time>2026-04-19T14:37:19.133Z</time></trkpt><trkpt lat="43.4036888" lon="10.6260576"><ele>485.5</ele><time>2026-04-19T14:37:20.132Z</time></trkpt><trkpt lat="43.4037726" lon="10.6261963"><ele>483.0</ele><time>2026-04-19T14:37:21.139Z</time></trkpt><trkpt lat="43.4038527" lon="10.6263394"><ele>483.0</ele><time>2026-04-19T14:37:22.169Z</time></trkpt><trkpt lat="43.4039288" lon="10.6264837"><ele>483.0</ele><time>2026-04-19T14:37:23.154Z</time></trkpt><trkpt lat="43.4039993" lon="10.6266243"><ele>483.0</ele><time>2026-04-19T14:37:24.164Z</time></trkpt><trkpt lat="43.4040677" lon="10.6267487"><ele>483.0</ele><time>2026-04-19T14:37:25.129Z</time></trkpt><trkpt lat="43.4041368" lon="10.6268559"><ele>483.0</ele><time>2026-04-19T14:37:26.167Z</time></trkpt><trkpt lat="43.4042099" lon="10.6269529"><ele>482.99999999999994</ele><time>2026-04-19T14:37:27.164Z</time></trkpt><trkpt lat="43.4042878" lon="10.6270449"><ele>482.99999999999994</ele><time>2026-04-19T14:37:28.161Z</time></trkpt><trkpt lat="43.4043648" lon="10.6271415"><ele>483.0</ele><time>2026-04-19T14:37:29.138Z</time></trkpt><trkpt lat="43.4044408" lon="10.6272273"><ele>483.0</ele><time>2026-04-19T14:37:30.161Z</time></trkpt><trkpt lat="43.4045232" lon="10.6272942"><ele>479.5</ele><time>2026-04-19T14:37:31.136Z</time></trkpt><trkpt lat="43.4046214" lon="10.6273391"><ele>476.0</ele><time>2026-04-19T14:37:32.132Z</time></trkpt><trkpt lat="43.4047339" lon="10.6273644"><ele>472.5</ele><time>2026-04-19T14:37:33.165Z</time></trkpt><trkpt lat="43.4048524" lon="10.6273798"><ele>469.0</ele><time>2026-04-19T14:37:34.129Z</time></trkpt><trkpt lat="43.4049717" lon="10.6273989"><ele>469.0</ele><time>2026-04-19T14:37:35.13Z</time></trkpt><trkpt lat="43.4050872" lon="10.6274311"><ele>469.0</ele><time>2026-04-19T14:37:36.133Z</time></trkpt><trkpt lat="43.4051958" lon="10.627483"><ele>469.0</ele><time>2026-04-19T14:37:37.134Z</time></trkpt><trkpt lat="43.4052959" lon="10.6275604"><ele>469.0</ele><time>2026-04-19T14:37:38.14Z</time></trkpt><trkpt lat="43.4053834" lon="10.6276753"><ele>465.0</ele><time>2026-04-19T14:37:39.134Z</time></trkpt><trkpt lat="43.4054554" lon="10.6278192"><ele>461.0</ele><time>2026-04-19T14:37:40.164Z</time></trkpt><trkpt lat="43.4055063" lon="10.6279837"><ele>457.0</ele><time>2026-04-19T14:37:41.135Z</time></trkpt><trkpt lat="43.4055399" lon="10.6281397"><ele>453.0</ele><time>2026-04-19T14:37:42.159Z</time></trkpt><trkpt lat="43.4055773" lon="10.6282722"><ele>453.0</ele><time>2026-04-19T14:37:43.133Z</time></trkpt><trkpt lat="43.4056206" lon="10.6283856"><ele>453.0</ele><time>2026-04-19T14:37:44.133Z</time></trkpt><trkpt lat="43.4056727" lon="10.6284693"><ele>453.0</ele><time>2026-04-19T14:37:45.158Z</time></trkpt><trkpt lat="43.4057318" lon="10.6285125"><ele>453.0</ele><time>2026-04-19T14:37:46.131Z</time></trkpt><trkpt lat="43.4057942" lon="10.6285287"><ele>453.0</ele><time>2026-04-19T14:37:47.137Z</time></trkpt><trkpt lat="43.4059256" lon="10.6285515"><ele>453.0</ele><time>2026-04-19T14:37:49.131Z</time></trkpt><trkpt lat="43.4060048" lon="10.6285769"><ele>453.0</ele><time>2026-04-19T14:37:50.141Z</time></trkpt><trkpt lat="43.4060941" lon="10.6286045"><ele>452.99999999999994</ele><time>2026-04-19T14:37:51.133Z</time></trkpt><trkpt lat="43.4061921" lon="10.6286304"><ele>452.99999999999994</ele><time>2026-04-19T14:37:52.132Z</time></trkpt><trkpt lat="43.4062893" lon="10.6286577"><ele>453.0</ele><time>2026-04-19T14:37:53.161Z</time></trkpt><trkpt lat="43.4063845" lon="10.6286822"><ele>453.0</ele><time>2026-04-19T14:37:54.139Z</time></trkpt><trkpt lat="43.4064748" lon="10.6287104"><ele>450.4</ele><time>2026-04-19T14:37:55.14Z</time></trkpt><trkpt lat="43.4065611" lon="10.6287493"><ele>447.79999999999995</ele><time>2026-04-19T14:37:56.159Z</time></trkpt><trkpt lat="43.4066407" lon="10.6288045"><ele>445.2</ele><time>2026-04-19T14:37:57.128Z</time></trkpt><trkpt lat="43.4067155" lon="10.6288879"><ele>442.6</ele><time>2026-04-19T14:37:58.164Z</time></trkpt><trkpt lat="43.4067842" lon="10.6289994"><ele>440.0</ele><time>2026-04-19T14:37:59.134Z</time></trkpt><trkpt lat="43.406856" lon="10.6291312"><ele>440.0</ele><time>2026-04-19T14:38:00.166Z</time></trkpt><trkpt lat="43.4069297" lon="10.6292694"><ele>440.0</ele><time>2026-04-19T14:38:01.135Z</time></trkpt><trkpt lat="43.4070118" lon="10.6294102"><ele>440.0</ele><time>2026-04-19T14:38:02.137Z</time></trkpt><trkpt lat="43.4070977" lon="10.6295488"><ele>440.0</ele><time>2026-04-19T14:38:03.141Z</time></trkpt><trkpt lat="43.4071809" lon="10.6296852"><ele>437.0</ele><time>2026-04-19T14:38:04.131Z</time></trkpt><trkpt lat="43.4072605" lon="10.62982"><ele>434.0</ele><time>2026-04-19T14:38:05.134Z</time></trkpt><trkpt lat="43.40734" lon="10.6299528"><ele>431.0</ele><time>2026-04-19T14:38:06.136Z</time></trkpt><trkpt lat="43.407416" lon="10.6300799"><ele>428.0</ele><time>2026-04-19T14:38:07.168Z</time></trkpt><trkpt lat="43.4074896" lon="10.6302035"><ele>428.5</ele><time>2026-04-19T14:38:08.14Z</time></trkpt><trkpt lat="43.4075633" lon="10.6303273"><ele>429.0</ele><time>2026-04-19T14:38:09.14Z</time></trkpt><trkpt lat="43.4076391" lon="10.6304506"><ele>429.5</ele><time>2026-04-19T14:38:10.131Z</time></trkpt><trkpt lat="43.4077134" lon="10.6305738"><ele>430.0</ele><time>2026-04-19T14:38:11.131Z</time></trkpt><trkpt lat="43.4077861" lon="10.630692"><ele>430.0</ele><time>2026-04-19T14:38:12.163Z</time></trkpt><trkpt lat="43.4078526" lon="10.6308059"><ele>430.0</ele><time>2026-04-19T14:38:13.135Z</time></trkpt><trkpt lat="43.4079122" lon="10.630919"><ele>430.0</ele><time>2026-04-19T14:38:14.133Z</time></trkpt><trkpt lat="43.4079644" lon="10.6310341"><ele>430.0</ele><time>2026-04-19T14:38:15.148Z</time></trkpt><trkpt lat="43.4080203" lon="10.6311513"><ele>430.0</ele><time>2026-04-19T14:38:16.133Z</time></trkpt><trkpt lat="43.4080866" lon="10.6312579"><ele>428.33333333333337</ele><time>2026-04-19T14:38:17.136Z</time></trkpt><trkpt lat="43.4081601" lon="10.6313394"><ele>426.6666666666667</ele><time>2026-04-19T14:38:18.132Z</time></trkpt><trkpt lat="43.4082353" lon="10.6313948"><ele>425.0</ele><time>2026-04-19T14:38:19.163Z</time></trkpt><trkpt lat="43.4083121" lon="10.631442"><ele>423.33333333333337</ele><time>2026-04-19T14:38:20.141Z</time></trkpt><trkpt lat="43.4083904" lon="10.6314841"><ele>421.6666666666667</ele><time>2026-04-19T14:38:21.124Z</time></trkpt><trkpt lat="43.4084742" lon="10.631536"><ele>420.0</ele><time>2026-04-19T14:38:22.133Z</time></trkpt><trkpt lat="43.4085641" lon="10.6315974"><ele>420.0</ele><time>2026-04-19T14:38:23.133Z</time></trkpt><trkpt lat="43.4086573" lon="10.6316643"><ele>420.0</ele><time>2026-04-19T14:38:24.136Z</time></trkpt><trkpt lat="43.4087513" lon="10.6317231"><ele>420.0</ele><time>2026-04-19T14:38:25.131Z</time></trkpt><trkpt lat="43.4088516" lon="10.6317623"><ele>420.0</ele><time>2026-04-19T14:38:26.141Z</time></trkpt><trkpt lat="43.4089615" lon="10.6317676"><ele>420.0</ele><time>2026-04-19T14:38:27.163Z</time></trkpt><trkpt lat="43.4090704" lon="10.6317463"><ele>417.4</ele><time>2026-04-19T14:38:28.163Z</time></trkpt><trkpt lat="43.4091762" lon="10.6317068"><ele>414.8</ele><time>2026-04-19T14:38:29.135Z</time></trkpt><trkpt lat="43.4092789" lon="10.631662"><ele>412.20000000000005</ele><time>2026-04-19T14:38:30.16Z</time></trkpt><trkpt lat="43.4093803" lon="10.631618"><ele>409.6</ele><time>2026-04-19T14:38:31.137Z</time></trkpt><trkpt lat="43.4094796" lon="10.6315829"><ele>407.0</ele><time>2026-04-19T14:38:32.137Z</time></trkpt><trkpt lat="43.4095748" lon="10.6315557"><ele>406.99999999999994</ele><time>2026-04-19T14:38:33.13Z</time></trkpt><trkpt lat="43.4096585" lon="10.6315312"><ele>407.0</ele><time>2026-04-19T14:38:34.163Z</time></trkpt><trkpt lat="43.4097252" lon="10.6315124"><ele>407.0</ele><time>2026-04-19T14:38:35.134Z</time></trkpt><trkpt lat="43.4097993" lon="10.631501"><ele>407.0</ele><time>2026-04-19T14:38:37.132Z</time></trkpt><trkpt lat="43.4098758" lon="10.6315131"><ele>406.99999999999994</ele><time>2026-04-19T14:38:41.134Z</time></trkpt><trkpt lat="43.4099347" lon="10.6315614"><ele>407.0</ele><time>2026-04-19T14:38:43.133Z</time></trkpt><trkpt lat="43.4100143" lon="10.6317066"><ele>406.3333333333333</ele><time>2026-04-19T14:38:45.136Z</time></trkpt><trkpt lat="43.4100561" lon="10.6318057"><ele>405.66666666666663</ele><time>2026-04-19T14:38:46.134Z</time></trkpt><trkpt lat="43.4100984" lon="10.6319135"><ele>405.0</ele><time>2026-04-19T14:38:47.134Z</time></trkpt><trkpt lat="43.4101392" lon="10.6320237"><ele>404.33333333333337</ele><time>2026-04-19T14:38:48.138Z</time></trkpt><trkpt lat="43.4101794" lon="10.6321345"><ele>403.6666666666667</ele><time>2026-04-19T14:38:49.137Z</time></trkpt><trkpt lat="43.410219" lon="10.6322483"><ele>403.0</ele><time>2026-04-19T14:38:50.131Z</time></trkpt><trkpt lat="43.4102631" lon="10.632362"><ele>403.0</ele><time>2026-04-19T14:38:51.131Z</time></trkpt><trkpt lat="43.410321" lon="10.6324759"><ele>403.0</ele><time>2026-04-19T14:38:52.14Z</time></trkpt><trkpt lat="43.4103995" lon="10.6325657"><ele>403.0</ele><time>2026-04-19T14:38:53.162Z</time></trkpt><trkpt lat="43.4105033" lon="10.6326366"><ele>403.0</ele><time>2026-04-19T14:38:54.134Z</time></trkpt><trkpt lat="43.4106257" lon="10.6327014"><ele>398.75</ele><time>2026-04-19T14:38:55.133Z</time></trkpt><trkpt lat="43.4107459" lon="10.6327587"><ele>394.5</ele><time>2026-04-19T14:38:56.131Z</time></trkpt><trkpt lat="43.4108595" lon="10.6328046"><ele>390.25</ele><time>2026-04-19T14:38:57.169Z</time></trkpt><trkpt lat="43.4109606" lon="10.6328523"><ele>386.0</ele><time>2026-04-19T14:38:58.127Z</time></trkpt><trkpt lat="43.4110489" lon="10.6329205"><ele>386.0</ele><time>2026-04-19T14:38:59.136Z</time></trkpt><trkpt lat="43.4111262" lon="10.6330233"><ele>386.0</ele><time>2026-04-19T14:39:00.134Z</time></trkpt><trkpt lat="43.4111872" lon="10.6331547"><ele>386.0</ele><time>2026-04-19T14:39:01.135Z</time></trkpt><trkpt lat="43.4112286" lon="10.6333113"><ele>386.0</ele><time>2026-04-19T14:39:02.133Z</time></trkpt><trkpt lat="43.4112633" lon="10.6334705"><ele>386.0</ele><time>2026-04-19T14:39:03.132Z</time></trkpt><trkpt lat="43.4112973" lon="10.6336174"><ele>386.0</ele><time>2026-04-19T14:39:04.131Z</time></trkpt><trkpt lat="43.411332" lon="10.6337438"><ele>386.0</ele><time>2026-04-19T14:39:05.138Z</time></trkpt><trkpt lat="43.4113695" lon="10.6338639"><ele>386.0</ele><time>2026-04-19T14:39:06.133Z</time></trkpt><trkpt lat="43.4113968" lon="10.6339969"><ele>386.0</ele><time>2026-04-19T14:39:07.137Z</time></trkpt><trkpt lat="43.4114143" lon="10.6341459"><ele>384.75</ele><time>2026-04-19T14:39:08.133Z</time></trkpt><trkpt lat="43.4114367" lon="10.634304"><ele>383.5</ele><time>2026-04-19T14:39:09.164Z</time></trkpt><trkpt lat="43.4114717" lon="10.634461"><ele>382.25</ele><time>2026-04-19T14:39:10.129Z</time></trkpt><trkpt lat="43.4115237" lon="10.6346058"><ele>381.0</ele><time>2026-04-19T14:39:11.13Z</time></trkpt><trkpt lat="43.4115961" lon="10.6347522"><ele>381.0</ele><time>2026-04-19T14:39:12.145Z</time></trkpt><trkpt lat="43.411676" lon="10.6348943"><ele>381.0</ele><time>2026-04-19T14:39:13.166Z</time></trkpt><trkpt lat="43.4117457" lon="10.6350217"><ele>381.0</ele><time>2026-04-19T14:39:14.139Z</time></trkpt><trkpt lat="43.4118025" lon="10.6351378"><ele>381.0</ele><time>2026-04-19T14:39:15.132Z</time></trkpt><trkpt lat="43.4118469" lon="10.6352442"><ele>381.0</ele><time>2026-04-19T14:39:16.131Z</time></trkpt><trkpt lat="43.4118884" lon="10.6353442"><ele>381.6666666666667</ele><time>2026-04-19T14:39:17.136Z</time></trkpt><trkpt lat="43.4119185" lon="10.6354529"><ele>382.33333333333337</ele><time>2026-04-19T14:39:18.13Z</time></trkpt><trkpt lat="43.4119335" lon="10.6355722"><ele>383.0</ele><time>2026-04-19T14:39:19.166Z</time></trkpt><trkpt lat="43.4119368" lon="10.6356971"><ele>383.6666666666667</ele><time>2026-04-19T14:39:20.131Z</time></trkpt><trkpt lat="43.4119408" lon="10.6358223"><ele>384.33333333333337</ele><time>2026-04-19T14:39:21.136Z</time></trkpt><trkpt lat="43.4119542" lon="10.6359507"><ele>385.0</ele><time>2026-04-19T14:39:22.126Z</time></trkpt><trkpt lat="43.411974" lon="10.6360792"><ele>384.8</ele><time>2026-04-19T14:39:23.141Z</time></trkpt><trkpt lat="43.4120029" lon="10.6362024"><ele>384.6</ele><time>2026-04-19T14:39:24.134Z</time></trkpt><trkpt lat="43.4120441" lon="10.6363218"><ele>384.4</ele><time>2026-04-19T14:39:25.183Z</time></trkpt><trkpt lat="43.4121019" lon="10.6364331"><ele>384.2</ele><time>2026-04-19T14:39:26.168Z</time></trkpt><trkpt lat="43.4121729" lon="10.6365403"><ele>384.0</ele><time>2026-04-19T14:39:27.164Z</time></trkpt><trkpt lat="43.4122536" lon="10.6366547"><ele>381.5</ele><time>2026-04-19T14:39:28.139Z</time></trkpt><trkpt lat="43.4123442" lon="10.6367763"><ele>379.0</ele><time>2026-04-19T14:39:29.137Z</time></trkpt><trkpt lat="43.4124449" lon="10.6369001"><ele>376.5</ele><time>2026-04-19T14:39:30.162Z</time></trkpt><trkpt lat="43.4125425" lon="10.637026"><ele>374.0</ele><time>2026-04-19T14:39:31.134Z</time></trkpt><trkpt lat="43.4126368" lon="10.6371526"><ele>373.0</ele><time>2026-04-19T14:39:32.132Z</time></trkpt><trkpt lat="43.4127229" lon="10.6372821"><ele>372.0</ele><time>2026-04-19T14:39:33.135Z</time></trkpt><trkpt lat="43.4128017" lon="10.6374125"><ele>371.0</ele><time>2026-04-19T14:39:34.129Z</time></trkpt><trkpt lat="43.4128769" lon="10.637536"><ele>370.0</ele><time>2026-04-19T14:39:35.138Z</time></trkpt><trkpt lat="43.4129457" lon="10.6376435"><ele>369.0</ele><time>2026-04-19T14:39:36.134Z</time></trkpt><trkpt lat="43.4130153" lon="10.6377182"><ele>368.0</ele><time>2026-04-19T14:39:37.137Z</time></trkpt><trkpt lat="43.413082" lon="10.6377615"><ele>367.0</ele><time>2026-04-19T14:39:38.134Z</time></trkpt><trkpt lat="43.413155" lon="10.6377724"><ele>366.0</ele><time>2026-04-19T14:39:39.169Z</time></trkpt><trkpt lat="43.4132323" lon="10.6377714"><ele>365.0</ele><time>2026-04-19T14:39:40.13Z</time></trkpt><trkpt lat="43.4133051" lon="10.6377772"><ele>364.0</ele><time>2026-04-19T14:39:41.164Z</time></trkpt><trkpt lat="43.4133685" lon="10.6378015"><ele>364.14285714285717</ele><time>2026-04-19T14:39:42.136Z</time></trkpt><trkpt lat="43.4134271" lon="10.6378411"><ele>364.2857142857143</ele><time>2026-04-19T14:39:43.132Z</time></trkpt><trkpt lat="43.413496" lon="10.6378783"><ele>364.42857142857144</ele><time>2026-04-19T14:39:44.132Z</time></trkpt><trkpt lat="43.4135697" lon="10.6379127"><ele>364.57142857142856</ele><time>2026-04-19T14:39:45.137Z</time></trkpt><trkpt lat="43.4136368" lon="10.6379458"><ele>364.7142857142857</ele><time>2026-04-19T14:39:46.138Z</time></trkpt><trkpt lat="43.413698" lon="10.637986"><ele>364.8571428571429</ele><time>2026-04-19T14:39:47.131Z</time></trkpt><trkpt lat="43.4137599" lon="10.6380391"><ele>365.0</ele><time>2026-04-19T14:39:48.161Z</time></trkpt><trkpt lat="43.4138273" lon="10.6381123"><ele>365.0</ele><time>2026-04-19T14:39:49.133Z</time></trkpt><trkpt lat="43.4138995" lon="10.6381943"><ele>365.0</ele><time>2026-04-19T14:39:50.139Z</time></trkpt><trkpt lat="43.4139822" lon="10.6382672"><ele>365.0</ele><time>2026-04-19T14:39:51.134Z</time></trkpt><trkpt lat="43.4140737" lon="10.638326"><ele>365.0</ele><time>2026-04-19T14:39:52.133Z</time></trkpt><trkpt lat="43.41417" lon="10.6383735"><ele>365.0</ele><time>2026-04-19T14:39:53.136Z</time></trkpt><trkpt lat="43.4142648" lon="10.6384148"><ele>365.0</ele><time>2026-04-19T14:39:54.135Z</time></trkpt><trkpt lat="43.4143472" lon="10.6384694"><ele>365.0</ele><time>2026-04-19T14:39:55.13Z</time></trkpt><trkpt lat="43.414418" lon="10.6385505"><ele>365.0</ele><time>2026-04-19T14:39:56.129Z</time></trkpt><trkpt lat="43.414475" lon="10.6386508"><ele>365.0</ele><time>2026-04-19T14:39:57.134Z</time></trkpt><trkpt lat="43.4145304" lon="10.6387554"><ele>365.0</ele><time>2026-04-19T14:39:58.139Z</time></trkpt><trkpt lat="43.4145991" lon="10.6388512"><ele>363.5</ele><time>2026-04-19T14:39:59.126Z</time></trkpt><trkpt lat="43.4146829" lon="10.6389359"><ele>362.0</ele><time>2026-04-19T14:40:00.134Z</time></trkpt><trkpt lat="43.4147811" lon="10.6390124"><ele>360.5</ele><time>2026-04-19T14:40:01.127Z</time></trkpt><trkpt lat="43.4148886" lon="10.6390874"><ele>359.0</ele><time>2026-04-19T14:40:02.141Z</time></trkpt><trkpt lat="43.4149977" lon="10.639162"><ele>359.0</ele><time>2026-04-19T14:40:03.132Z</time></trkpt><trkpt lat="43.4151019" lon="10.6392376"><ele>359.0</ele><time>2026-04-19T14:40:04.133Z</time></trkpt><trkpt lat="43.4151978" lon="10.6393116"><ele>359.0</ele><time>2026-04-19T14:40:05.133Z</time></trkpt><trkpt lat="43.4152921" lon="10.6393931"><ele>359.0</ele><time>2026-04-19T14:40:06.141Z</time></trkpt><trkpt lat="43.4153825" lon="10.6394924"><ele>360.5</ele><time>2026-04-19T14:40:07.165Z</time></trkpt><trkpt lat="43.4154685" lon="10.6396092"><ele>362.0</ele><time>2026-04-19T14:40:08.133Z</time></trkpt><trkpt lat="43.4155523" lon="10.6397284"><ele>363.5</ele><time>2026-04-19T14:40:09.135Z</time></trkpt><trkpt lat="43.4156407" lon="10.6398277"><ele>365.0</ele><time>2026-04-19T14:40:10.131Z</time></trkpt><trkpt lat="43.4157372" lon="10.639913"><ele>365.0</ele><time>2026-04-19T14:40:11.133Z</time></trkpt><trkpt lat="43.4158378" lon="10.6399829"><ele>365.0</ele><time>2026-04-19T14:40:12.132Z</time></trkpt><trkpt lat="43.415934" lon="10.6400476"><ele>365.0</ele><time>2026-04-19T14:40:13.128Z</time></trkpt><trkpt lat="43.4160234" lon="10.6401092"><ele>365.0</ele><time>2026-04-19T14:40:14.134Z</time></trkpt><trkpt lat="43.4161143" lon="10.6401588"><ele>365.0</ele><time>2026-04-19T14:40:15.136Z</time></trkpt><trkpt lat="43.4162114" lon="10.6401913"><ele>365.0</ele><time>2026-04-19T14:40:16.133Z</time></trkpt><trkpt lat="43.4163098" lon="10.640216"><ele>365.0</ele><time>2026-04-19T14:40:17.132Z</time></trkpt><trkpt lat="43.4164064" lon="10.6402333"><ele>365.0</ele><time>2026-04-19T14:40:18.135Z</time></trkpt><trkpt lat="43.4164928" lon="10.6402511"><ele>365.0</ele><time>2026-04-19T14:40:19.134Z</time></trkpt><trkpt lat="43.4165677" lon="10.6402747"><ele>365.0</ele><time>2026-04-19T14:40:20.134Z</time></trkpt><trkpt lat="43.4166276" lon="10.6403033"><ele>365.0</ele><time>2026-04-19T14:40:21.161Z</time></trkpt><trkpt lat="43.4167285" lon="10.6404279"><ele>368.0</ele><time>2026-04-19T14:40:23.164Z</time></trkpt><trkpt lat="43.4168007" lon="10.6405277"><ele>371.0</ele><time>2026-04-19T14:40:24.138Z</time></trkpt><trkpt lat="43.4168914" lon="10.6406448"><ele>374.0</ele><time>2026-04-19T14:40:25.138Z</time></trkpt><trkpt lat="43.4169937" lon="10.6407631"><ele>377.0</ele><time>2026-04-19T14:40:26.134Z</time></trkpt><trkpt lat="43.4170962" lon="10.64088"><ele>374.25</ele><time>2026-04-19T14:40:27.131Z</time></trkpt><trkpt lat="43.4171977" lon="10.6409955"><ele>371.5</ele><time>2026-04-19T14:40:28.136Z</time></trkpt><trkpt lat="43.4172961" lon="10.6411117"><ele>368.75</ele><time>2026-04-19T14:40:29.169Z</time></trkpt><trkpt lat="43.4173954" lon="10.6412336"><ele>366.0</ele><time>2026-04-19T14:40:30.135Z</time></trkpt><trkpt lat="43.4175012" lon="10.6413705"><ele>365.75</ele><time>2026-04-19T14:40:31.137Z</time></trkpt><trkpt lat="43.4176078" lon="10.6415085"><ele>365.5</ele><time>2026-04-19T14:40:32.14Z</time></trkpt><trkpt lat="43.4177076" lon="10.6416387"><ele>365.25</ele><time>2026-04-19T14:40:33.132Z</time></trkpt><trkpt lat="43.417803" lon="10.6417632"><ele>365.0</ele><time>2026-04-19T14:40:34.135Z</time></trkpt><trkpt lat="43.4178912" lon="10.6418833"><ele>365.6</ele><time>2026-04-19T14:40:35.136Z</time></trkpt><trkpt lat="43.4179686" lon="10.6420019"><ele>366.2</ele><time>2026-04-19T14:40:36.131Z</time></trkpt><trkpt lat="43.418044" lon="10.6421072"><ele>366.79999999999995</ele><time>2026-04-19T14:40:37.132Z</time></trkpt><trkpt lat="43.4181304" lon="10.642197"><ele>367.4</ele><time>2026-04-19T14:40:38.135Z</time></trkpt><trkpt lat="43.4182354" lon="10.6422706"><ele>368.0</ele><time>2026-04-19T14:40:39.137Z</time></trkpt><trkpt lat="43.4183368" lon="10.6423421"><ele>368.0</ele><time>2026-04-19T14:40:40.141Z</time></trkpt><trkpt lat="43.4184327" lon="10.6424221"><ele>368.0</ele><time>2026-04-19T14:40:41.13Z</time></trkpt><trkpt lat="43.4185237" lon="10.6425069"><ele>368.0</ele><time>2026-04-19T14:40:42.133Z</time></trkpt><trkpt lat="43.4186151" lon="10.6425868"><ele>368.0</ele><time>2026-04-19T14:40:43.136Z</time></trkpt><trkpt lat="43.4187189" lon="10.6426599"><ele>368.0</ele><time>2026-04-19T14:40:44.13Z</time></trkpt><trkpt lat="43.4188324" lon="10.6427281"><ele>370.0</ele><time>2026-04-19T14:40:45.169Z</time></trkpt><trkpt lat="43.4189446" lon="10.6427925"><ele>372.0</ele><time>2026-04-19T14:40:46.135Z</time></trkpt><trkpt lat="43.4190435" lon="10.642871"><ele>374.0</ele><time>2026-04-19T14:40:47.137Z</time></trkpt><trkpt lat="43.4191359" lon="10.6429548"><ele>376.0</ele><time>2026-04-19T14:40:48.135Z</time></trkpt><trkpt lat="43.4192236" lon="10.643037"><ele>376.0</ele><time>2026-04-19T14:40:49.137Z</time></trkpt><trkpt lat="43.4193196" lon="10.6431064"><ele>376.0</ele><time>2026-04-19T14:40:50.146Z</time></trkpt><trkpt lat="43.4194226" lon="10.643169"><ele>376.0</ele><time>2026-04-19T14:40:51.152Z</time></trkpt><trkpt lat="43.4195221" lon="10.6432242"><ele>376.0</ele><time>2026-04-19T14:40:52.133Z</time></trkpt><trkpt lat="43.4196108" lon="10.6432713"><ele>376.0</ele><time>2026-04-19T14:40:53.161Z</time></trkpt><trkpt lat="43.4196831" lon="10.6433153"><ele>376.8</ele><time>2026-04-19T14:40:54.135Z</time></trkpt><trkpt lat="43.4197469" lon="10.6433733"><ele>377.6</ele><time>2026-04-19T14:40:55.134Z</time></trkpt><trkpt lat="43.4198114" lon="10.6434688"><ele>378.4</ele><time>2026-04-19T14:40:56.131Z</time></trkpt><trkpt lat="43.4198756" lon="10.6435877"><ele>379.2</ele><time>2026-04-19T14:40:57.129Z</time></trkpt><trkpt lat="43.4199467" lon="10.643721"><ele>380.0</ele><time>2026-04-19T14:40:58.13Z</time></trkpt><trkpt lat="43.4200248" lon="10.6438579"><ele>380.0</ele><time>2026-04-19T14:40:59.133Z</time></trkpt><trkpt lat="43.4201132" lon="10.6439899"><ele>380.0</ele><time>2026-04-19T14:41:00.142Z</time></trkpt><trkpt lat="43.4202059" lon="10.6441147"><ele>380.0</ele><time>2026-04-19T14:41:01.14Z</time></trkpt><trkpt lat="43.4202989" lon="10.6442276"><ele>380.0</ele><time>2026-04-19T14:41:02.134Z</time></trkpt><trkpt lat="43.420393" lon="10.6443292"><ele>378.75</ele><time>2026-04-19T14:41:03.137Z</time></trkpt><trkpt lat="43.4204887" lon="10.6444253"><ele>377.5</ele><time>2026-04-19T14:41:04.132Z</time></trkpt><trkpt lat="43.4205883" lon="10.6445204"><ele>376.25</ele><time>2026-04-19T14:41:05.131Z</time></trkpt><trkpt lat="43.4206924" lon="10.6446051"><ele>375.0</ele><time>2026-04-19T14:41:06.138Z</time></trkpt><trkpt lat="43.4208001" lon="10.6446881"><ele>374.5</ele><time>2026-04-19T14:41:07.138Z</time></trkpt><trkpt lat="43.4209029" lon="10.6447789"><ele>374.0</ele><time>2026-04-19T14:41:08.134Z</time></trkpt><trkpt lat="43.4210009" lon="10.6448768"><ele>373.5</ele><time>2026-04-19T14:41:09.169Z</time></trkpt><trkpt lat="43.4210999" lon="10.6449875"><ele>373.0</ele><time>2026-04-19T14:41:10.129Z</time></trkpt><trkpt lat="43.4212023" lon="10.6451053"><ele>373.0</ele><time>2026-04-19T14:41:11.135Z</time></trkpt><trkpt lat="43.4213075" lon="10.6452218"><ele>373.0</ele><time>2026-04-19T14:41:12.159Z</time></trkpt><trkpt lat="43.4214165" lon="10.6453306"><ele>373.0</ele><time>2026-04-19T14:41:13.136Z</time></trkpt><trkpt lat="43.4215234" lon="10.6454329"><ele>373.0</ele><time>2026-04-19T14:41:14.135Z</time></trkpt><trkpt lat="43.4216317" lon="10.6455268"><ele>371.5</ele><time>2026-04-19T14:41:15.165Z</time></trkpt><trkpt lat="43.4217402" lon="10.6456094"><ele>370.0</ele><time>2026-04-19T14:41:16.133Z</time></trkpt><trkpt lat="43.4218486" lon="10.6456866"><ele>368.5</ele><time>2026-04-19T14:41:17.132Z</time></trkpt><trkpt lat="43.4219561" lon="10.6457554"><ele>367.0</ele><time>2026-04-19T14:41:18.152Z</time></trkpt><trkpt lat="43.422064" lon="10.6458237"><ele>365.6</ele><time>2026-04-19T14:41:19.14Z</time></trkpt><trkpt lat="43.4221694" lon="10.6458866"><ele>364.20000000000005</ele><time>2026-04-19T14:41:20.163Z</time></trkpt><trkpt lat="43.4222735" lon="10.6459387"><ele>362.8</ele><time>2026-04-19T14:41:21.136Z</time></trkpt><trkpt lat="43.4223775" lon="10.6459856"><ele>361.4</ele><time>2026-04-19T14:41:22.159Z</time></trkpt><trkpt lat="43.4224787" lon="10.6460372"><ele>360.0</ele><time>2026-04-19T14:41:23.164Z</time></trkpt><trkpt lat="43.422576" lon="10.6461062"><ele>357.2</ele><time>2026-04-19T14:41:24.189Z</time></trkpt><trkpt lat="43.4226671" lon="10.6461895"><ele>354.4</ele><time>2026-04-19T14:41:25.141Z</time></trkpt><trkpt lat="43.4227574" lon="10.6462794"><ele>351.6</ele><time>2026-04-19T14:41:26.131Z</time></trkpt><trkpt lat="43.4228525" lon="10.646363"><ele>348.8</ele><time>2026-04-19T14:41:27.139Z</time></trkpt><trkpt lat="43.4229531" lon="10.6464414"><ele>346.0</ele><time>2026-04-19T14:41:28.132Z</time></trkpt><trkpt lat="43.4230556" lon="10.6465176"><ele>346.0</ele><time>2026-04-19T14:41:29.129Z</time></trkpt><trkpt lat="43.4231603" lon="10.6465981"><ele>346.0</ele><time>2026-04-19T14:41:30.15Z</time></trkpt><trkpt lat="43.4232691" lon="10.6466757"><ele>346.0</ele><time>2026-04-19T14:41:31.146Z</time></trkpt><trkpt lat="43.4233809" lon="10.6467508"><ele>346.0</ele><time>2026-04-19T14:41:32.134Z</time></trkpt><trkpt lat="43.4234982" lon="10.6468259"><ele>346.0</ele><time>2026-04-19T14:41:33.133Z</time></trkpt><trkpt lat="43.4236178" lon="10.6468935"><ele>346.0</ele><time>2026-04-19T14:41:34.132Z</time></trkpt><trkpt lat="43.4237353" lon="10.6469556"><ele>346.0</ele><time>2026-04-19T14:41:35.129Z</time></trkpt><trkpt lat="43.423844" lon="10.6470111"><ele>346.0</ele><time>2026-04-19T14:41:36.144Z</time></trkpt><trkpt lat="43.4239423" lon="10.6470584"><ele>340.8</ele><time>2026-04-19T14:41:37.148Z</time></trkpt><trkpt lat="43.4240314" lon="10.6471067"><ele>335.6</ele><time>2026-04-19T14:41:38.127Z</time></trkpt><trkpt lat="43.4241132" lon="10.6471657"><ele>330.4</ele><time>2026-04-19T14:41:39.133Z</time></trkpt><trkpt lat="43.424192" lon="10.6472416"><ele>325.2</ele><time>2026-04-19T14:41:40.145Z</time></trkpt><trkpt lat="43.4242744" lon="10.647325"><ele>320.0</ele><time>2026-04-19T14:41:41.134Z</time></trkpt><trkpt lat="43.4243608" lon="10.6474146"><ele>320.0</ele><time>2026-04-19T14:41:42.144Z</time></trkpt><trkpt lat="43.4244479" lon="10.6475194"><ele>320.0</ele><time>2026-04-19T14:41:43.17Z</time></trkpt><trkpt lat="43.4245375" lon="10.6476249"><ele>320.0</ele><time>2026-04-19T14:41:44.132Z</time></trkpt><trkpt lat="43.4246281" lon="10.6477326"><ele>320.0</ele><time>2026-04-19T14:41:45.144Z</time></trkpt><trkpt lat="43.4247148" lon="10.6478398"><ele>316.5</ele><time>2026-04-19T14:41:46.135Z</time></trkpt><trkpt lat="43.4247946" lon="10.6479561"><ele>313.0</ele><time>2026-04-19T14:41:47.138Z</time></trkpt><trkpt lat="43.4248656" lon="10.6480826"><ele>309.5</ele><time>2026-04-19T14:41:48.141Z</time></trkpt><trkpt lat="43.424921" lon="10.6482163"><ele>306.0</ele><time>2026-04-19T14:41:49.136Z</time></trkpt><trkpt lat="43.4249524" lon="10.6483651"><ele>306.0</ele><time>2026-04-19T14:41:50.129Z</time></trkpt><trkpt lat="43.4249576" lon="10.6485138"><ele>306.0</ele><time>2026-04-19T14:41:51.135Z</time></trkpt><trkpt lat="43.4249523" lon="10.6486484"><ele>306.0</ele><time>2026-04-19T14:41:52.136Z</time></trkpt><trkpt lat="43.4249434" lon="10.648778"><ele>306.0</ele><time>2026-04-19T14:41:53.131Z</time></trkpt><trkpt lat="43.42494" lon="10.6489026"><ele>306.0</ele><time>2026-04-19T14:41:54.176Z</time></trkpt><trkpt lat="43.4249487" lon="10.6490177"><ele>305.6</ele><time>2026-04-19T14:41:55.145Z</time></trkpt><trkpt lat="43.4249707" lon="10.6491402"><ele>305.20000000000005</ele><time>2026-04-19T14:41:56.162Z</time></trkpt><trkpt lat="43.4250122" lon="10.6492684"><ele>304.79999999999995</ele><time>2026-04-19T14:41:57.134Z</time></trkpt><trkpt lat="43.4250792" lon="10.6493792"><ele>304.4</ele><time>2026-04-19T14:41:58.136Z</time></trkpt><trkpt lat="43.4251625" lon="10.649469"><ele>304.0</ele><time>2026-04-19T14:41:59.138Z</time></trkpt><trkpt lat="43.4252536" lon="10.6495511"><ele>303.5</ele><time>2026-04-19T14:42:00.141Z</time></trkpt><trkpt lat="43.4253344" lon="10.649646"><ele>303.0</ele><time>2026-04-19T14:42:01.141Z</time></trkpt><trkpt lat="43.4254015" lon="10.6497416"><ele>302.5</ele><time>2026-04-19T14:42:02.13Z</time></trkpt><trkpt lat="43.4254438" lon="10.6498426"><ele>302.0</ele><time>2026-04-19T14:42:03.128Z</time></trkpt><trkpt lat="43.4254626" lon="10.6499465"><ele>301.5</ele><time>2026-04-19T14:42:04.157Z</time></trkpt><trkpt lat="43.4254599" lon="10.6500571"><ele>301.0</ele><time>2026-04-19T14:42:05.14Z</time></trkpt><trkpt lat="43.4254384" lon="10.6501711"><ele>301.0</ele><time>2026-04-19T14:42:06.13Z</time></trkpt><trkpt lat="43.425411" lon="10.6502904"><ele>301.0</ele><time>2026-04-19T14:42:07.143Z</time></trkpt><trkpt lat="43.4253896" lon="10.6504128"><ele>301.0</ele><time>2026-04-19T14:42:08.127Z</time></trkpt><trkpt lat="43.4253762" lon="10.6505339"><ele>301.0</ele><time>2026-04-19T14:42:09.136Z</time></trkpt><trkpt lat="43.4253689" lon="10.6506599"><ele>301.0</ele><time>2026-04-19T14:42:10.133Z</time></trkpt><trkpt lat="43.4253751" lon="10.6507904"><ele>298.66666666666663</ele><time>2026-04-19T14:42:11.134Z</time></trkpt><trkpt lat="43.4253879" lon="10.65092"><ele>296.3333333333333</ele><time>2026-04-19T14:42:12.134Z</time></trkpt><trkpt lat="43.4254043" lon="10.6510393"><ele>294.0</ele><time>2026-04-19T14:42:13.137Z</time></trkpt><trkpt lat="43.4254296" lon="10.6511338"><ele>291.6666666666667</ele><time>2026-04-19T14:42:14.137Z</time></trkpt><trkpt lat="43.4254823" lon="10.6512368"><ele>289.33333333333337</ele><time>2026-04-19T14:42:16.135Z</time></trkpt><trkpt lat="43.4255574" lon="10.6513312"><ele>287.0</ele><time>2026-04-19T14:42:22.158Z</time></trkpt><trkpt lat="43.4256471" lon="10.6514475"><ele>284.42857142857144</ele><time>2026-04-19T14:42:24.134Z</time></trkpt><trkpt lat="43.425703" lon="10.6515061"><ele>281.8571428571429</ele><time>2026-04-19T14:42:25.161Z</time></trkpt><trkpt lat="43.4257633" lon="10.6515556"><ele>279.2857142857143</ele><time>2026-04-19T14:42:26.13Z</time></trkpt><trkpt lat="43.4258263" lon="10.6516055"><ele>276.7142857142857</ele><time>2026-04-19T14:42:27.134Z</time></trkpt><trkpt lat="43.4258886" lon="10.6516518"><ele>274.14285714285717</ele><time>2026-04-19T14:42:28.14Z</time></trkpt><trkpt lat="43.4259532" lon="10.6516978"><ele>271.57142857142856</ele><time>2026-04-19T14:42:29.131Z</time></trkpt><trkpt lat="43.4260185" lon="10.6517456"><ele>269.0</ele><time>2026-04-19T14:42:30.129Z</time></trkpt><trkpt lat="43.4260857" lon="10.6518023"><ele>269.0</ele><time>2026-04-19T14:42:31.134Z</time></trkpt><trkpt lat="43.4261506" lon="10.6518613"><ele>269.0</ele><time>2026-04-19T14:42:32.135Z</time></trkpt><trkpt lat="43.4262133" lon="10.6519352"><ele>269.0</ele><time>2026-04-19T14:42:33.166Z</time></trkpt><trkpt lat="43.4262728" lon="10.6520227"><ele>269.0</ele><time>2026-04-19T14:42:34.136Z</time></trkpt><trkpt lat="43.4263359" lon="10.6521138"><ele>269.0</ele><time>2026-04-19T14:42:35.129Z</time></trkpt><trkpt lat="43.4264051" lon="10.652208"><ele>269.0</ele><time>2026-04-19T14:42:36.138Z</time></trkpt><trkpt lat="43.426478" lon="10.6522928"><ele>265.59999999999997</ele><time>2026-04-19T14:42:37.136Z</time></trkpt><trkpt lat="43.4265555" lon="10.6523658"><ele>262.2</ele><time>2026-04-19T14:42:38.137Z</time></trkpt><trkpt lat="43.4266373" lon="10.6524308"><ele>258.79999999999995</ele><time>2026-04-19T14:42:39.128Z</time></trkpt><trkpt lat="43.4267251" lon="10.6524641"><ele>255.39999999999998</ele><time>2026-04-19T14:42:40.131Z</time></trkpt><trkpt lat="43.4268174" lon="10.6524622"><ele>252.0</ele><time>2026-04-19T14:42:41.133Z</time></trkpt><trkpt lat="43.4269069" lon="10.6524535"><ele>252.0</ele><time>2026-04-19T14:42:42.131Z</time></trkpt><trkpt lat="43.4269947" lon="10.6524513"><ele>252.0</ele><time>2026-04-19T14:42:43.165Z</time></trkpt><trkpt lat="43.4270863" lon="10.6524471"><ele>252.0</ele><time>2026-04-19T14:42:44.132Z</time></trkpt><trkpt lat="43.4271793" lon="10.6524597"><ele>252.0</ele><time>2026-04-19T14:42:45.134Z</time></trkpt><trkpt lat="43.4272704" lon="10.652491"><ele>252.0</ele><time>2026-04-19T14:42:46.135Z</time></trkpt><trkpt lat="43.4273594" lon="10.6525334"><ele>250.33333333333334</ele><time>2026-04-19T14:42:47.128Z</time></trkpt><trkpt lat="43.427445" lon="10.6525866"><ele>248.66666666666669</ele><time>2026-04-19T14:42:48.131Z</time></trkpt><trkpt lat="43.4275182" lon="10.6526392"><ele>247.0</ele><time>2026-04-19T14:42:49.13Z</time></trkpt><trkpt lat="43.4275878" lon="10.6527035"><ele>245.33333333333334</ele><time>2026-04-19T14:42:50.147Z</time></trkpt><trkpt lat="43.4276409" lon="10.6528034"><ele>243.66666666666669</ele><time>2026-04-19T14:42:51.132Z</time></trkpt><trkpt lat="43.4276755" lon="10.6529226"><ele>242.0</ele><time>2026-04-19T14:42:52.164Z</time></trkpt><trkpt lat="43.427691" lon="10.653052"><ele>240.39999999999998</ele><time>2026-04-19T14:42:53.131Z</time></trkpt><trkpt lat="43.4276892" lon="10.6531813"><ele>238.79999999999998</ele><time>2026-04-19T14:42:54.14Z</time></trkpt><trkpt lat="43.4276696" lon="10.653313"><ele>237.2</ele><time>2026-04-19T14:42:55.14Z</time></trkpt><trkpt lat="43.4276331" lon="10.653446"><ele>235.6</ele><time>2026-04-19T14:42:56.128Z</time></trkpt><trkpt lat="43.4275873" lon="10.653568"><ele>234.0</ele><time>2026-04-19T14:42:57.159Z</time></trkpt><trkpt lat="43.4275328" lon="10.6536789"><ele>232.0</ele><time>2026-04-19T14:42:58.164Z</time></trkpt><trkpt lat="43.4274683" lon="10.6537785"><ele>230.0</ele><time>2026-04-19T14:42:59.165Z</time></trkpt><trkpt lat="43.4274022" lon="10.653871"><ele>228.0</ele><time>2026-04-19T14:43:00.143Z</time></trkpt><trkpt lat="43.4273384" lon="10.6539557"><ele>226.0</ele><time>2026-04-19T14:43:01.133Z</time></trkpt><trkpt lat="43.4272798" lon="10.6540361"><ele>224.0</ele><time>2026-04-19T14:43:02.134Z</time></trkpt><trkpt lat="43.4272356" lon="10.6541225"><ele>222.0</ele><time>2026-04-19T14:43:03.133Z</time></trkpt><trkpt lat="43.4272088" lon="10.6542223"><ele>222.0</ele><time>2026-04-19T14:43:04.156Z</time></trkpt><trkpt lat="43.4271966" lon="10.6543327"><ele>222.0</ele><time>2026-04-19T14:43:05.136Z</time></trkpt><trkpt lat="43.4271965" lon="10.6544431"><ele>222.0</ele><time>2026-04-19T14:43:06.13Z</time></trkpt><trkpt lat="43.4272102" lon="10.6545483"><ele>222.0</ele><time>2026-04-19T14:43:07.172Z</time></trkpt><trkpt lat="43.4272407" lon="10.6546471"><ele>222.0</ele><time>2026-04-19T14:43:08.133Z</time></trkpt><trkpt lat="43.4272908" lon="10.6547334"><ele>222.0</ele><time>2026-04-19T14:43:09.163Z</time></trkpt><trkpt lat="43.4273558" lon="10.6548073"><ele>219.6</ele><time>2026-04-19T14:43:10.165Z</time></trkpt><trkpt lat="43.4274369" lon="10.6548613"><ele>217.2</ele><time>2026-04-19T14:43:11.132Z</time></trkpt><trkpt lat="43.427528" lon="10.6548996"><ele>214.8</ele><time>2026-04-19T14:43:12.173Z</time></trkpt><trkpt lat="43.427621" lon="10.6549329"><ele>212.4</ele><time>2026-04-19T14:43:13.154Z</time></trkpt><trkpt lat="43.4277077" lon="10.6549673"><ele>210.0</ele><time>2026-04-19T14:43:14.128Z</time></trkpt><trkpt lat="43.4277906" lon="10.6550059"><ele>210.0</ele><time>2026-04-19T14:43:15.129Z</time></trkpt><trkpt lat="43.427871" lon="10.6550464"><ele>210.0</ele><time>2026-04-19T14:43:16.13Z</time></trkpt><trkpt lat="43.42795" lon="10.6550882"><ele>210.0</ele><time>2026-04-19T14:43:17.137Z</time></trkpt><trkpt lat="43.4280282" lon="10.6551313"><ele>210.0</ele><time>2026-04-19T14:43:18.16Z</time></trkpt><trkpt lat="43.4281032" lon="10.6551755"><ele>210.0</ele><time>2026-04-19T14:43:19.13Z</time></trkpt><trkpt lat="43.4281752" lon="10.6552272"><ele>210.0</ele><time>2026-04-19T14:43:20.171Z</time></trkpt><trkpt lat="43.4282417" lon="10.655286"><ele>207.33333333333334</ele><time>2026-04-19T14:43:21.138Z</time></trkpt><trkpt lat="43.4283074" lon="10.6553489"><ele>204.66666666666669</ele><time>2026-04-19T14:43:22.156Z</time></trkpt><trkpt lat="43.4283729" lon="10.6554187"><ele>202.0</ele><time>2026-04-19T14:43:23.14Z</time></trkpt><trkpt lat="43.4284383" lon="10.6554931"><ele>199.33333333333334</ele><time>2026-04-19T14:43:24.131Z</time></trkpt><trkpt lat="43.4285022" lon="10.6555759"><ele>196.66666666666669</ele><time>2026-04-19T14:43:25.132Z</time></trkpt><trkpt lat="43.4285601" lon="10.6556721"><ele>194.0</ele><time>2026-04-19T14:43:26.135Z</time></trkpt><trkpt lat="43.4286102" lon="10.6557778"><ele>194.00000000000003</ele><time>2026-04-19T14:43:27.164Z</time></trkpt><trkpt lat="43.4286573" lon="10.6558843"><ele>194.0</ele><time>2026-04-19T14:43:28.137Z</time></trkpt><trkpt lat="43.4287086" lon="10.6559848"><ele>194.0</ele><time>2026-04-19T14:43:29.141Z</time></trkpt><trkpt lat="43.4287677" lon="10.6560708"><ele>194.0</ele><time>2026-04-19T14:43:30.135Z</time></trkpt><trkpt lat="43.4288365" lon="10.6561345"><ele>194.00000000000003</ele><time>2026-04-19T14:43:31.136Z</time></trkpt><trkpt lat="43.4289175" lon="10.6561755"><ele>194.0</ele><time>2026-04-19T14:43:32.143Z</time></trkpt><trkpt lat="43.4290037" lon="10.6562029"><ele>192.33333333333334</ele><time>2026-04-19T14:43:33.126Z</time></trkpt><trkpt lat="43.4290931" lon="10.6562228"><ele>190.66666666666669</ele><time>2026-04-19T14:43:34.132Z</time></trkpt><trkpt lat="43.4291778" lon="10.6562434"><ele>189.0</ele><time>2026-04-19T14:43:35.127Z</time></trkpt><trkpt lat="43.4292527" lon="10.6562749"><ele>187.33333333333334</ele><time>2026-04-19T14:43:36.162Z</time></trkpt><trkpt lat="43.4293152" lon="10.6563261"><ele>185.66666666666669</ele><time>2026-04-19T14:43:37.139Z</time></trkpt><trkpt lat="43.4293677" lon="10.6563956"><ele>184.0</ele><time>2026-04-19T14:43:38.133Z</time></trkpt><trkpt lat="43.4294184" lon="10.6564751"><ele>184.0</ele><time>2026-04-19T14:43:39.13Z</time></trkpt><trkpt lat="43.4294719" lon="10.6565472"><ele>184.0</ele><time>2026-04-19T14:43:40.137Z</time></trkpt><trkpt lat="43.4295417" lon="10.6566153"><ele>184.0</ele><time>2026-04-19T14:43:41.138Z</time></trkpt><trkpt lat="43.4296325" lon="10.6566896"><ele>184.0</ele><time>2026-04-19T14:43:42.164Z</time></trkpt><trkpt lat="43.4297414" lon="10.656768"><ele>184.0</ele><time>2026-04-19T14:43:43.163Z</time></trkpt><trkpt lat="43.4298599" lon="10.6568531"><ele>184.0</ele><time>2026-04-19T14:43:44.133Z</time></trkpt><trkpt lat="43.4299858" lon="10.6569394"><ele>184.0</ele><time>2026-04-19T14:43:45.147Z</time></trkpt><trkpt lat="43.4301154" lon="10.6570274"><ele>184.0</ele><time>2026-04-19T14:43:46.174Z</time></trkpt><trkpt lat="43.4302486" lon="10.6571155"><ele>184.0</ele><time>2026-04-19T14:43:47.141Z</time></trkpt><trkpt lat="43.4303845" lon="10.6572046"><ele>183.33333333333334</ele><time>2026-04-19T14:43:48.14Z</time></trkpt><trkpt lat="43.4305245" lon="10.6572981"><ele>182.66666666666666</ele><time>2026-04-19T14:43:49.156Z</time></trkpt><trkpt lat="43.4306702" lon="10.6573985"><ele>182.0</ele><time>2026-04-19T14:43:50.169Z</time></trkpt><trkpt lat="43.4308203" lon="10.6574991"><ele>182.0</ele><time>2026-04-19T14:43:51.132Z</time></trkpt><trkpt lat="43.4309711" lon="10.6576002"><ele>182.0</ele><time>2026-04-19T14:43:52.135Z</time></trkpt><trkpt lat="43.4311214" lon="10.6577018"><ele>182.0</ele><time>2026-04-19T14:43:53.133Z</time></trkpt><trkpt lat="43.4312754" lon="10.6577991"><ele>181.66666666666666</ele><time>2026-04-19T14:43:54.143Z</time></trkpt><trkpt lat="43.4314293" lon="10.6578955"><ele>181.33333333333334</ele><time>2026-04-19T14:43:55.134Z</time></trkpt><trkpt lat="43.431581" lon="10.6579926"><ele>181.0</ele><time>2026-04-19T14:43:56.128Z</time></trkpt><trkpt lat="43.4317322" lon="10.6580918"><ele>181.0</ele><time>2026-04-19T14:43:57.139Z</time></trkpt><trkpt lat="43.4318811" lon="10.6581894"><ele>181.0</ele><time>2026-04-19T14:43:58.129Z</time></trkpt><trkpt lat="43.4320283" lon="10.6582853"><ele>181.0</ele><time>2026-04-19T14:43:59.13Z</time></trkpt><trkpt lat="43.4321714" lon="10.6583821"><ele>180.66666666666669</ele><time>2026-04-19T14:44:00.13Z</time></trkpt><trkpt lat="43.4323149" lon="10.6584784"><ele>180.33333333333334</ele><time>2026-04-19T14:44:01.135Z</time></trkpt><trkpt lat="43.43246" lon="10.6585738"><ele>180.0</ele><time>2026-04-19T14:44:02.136Z</time></trkpt><trkpt lat="43.4326031" lon="10.6586685"><ele>179.33333333333334</ele><time>2026-04-19T14:44:03.135Z</time></trkpt><trkpt lat="43.4327416" lon="10.6587633"><ele>178.66666666666669</ele><time>2026-04-19T14:44:04.133Z</time></trkpt><trkpt lat="43.4328725" lon="10.6588654"><ele>178.0</ele><time>2026-04-19T14:44:05.143Z</time></trkpt><trkpt lat="43.4329914" lon="10.658986"><ele>177.75</ele><time>2026-04-19T14:44:06.145Z</time></trkpt><trkpt lat="43.4330918" lon="10.6591282"><ele>177.5</ele><time>2026-04-19T14:44:07.134Z</time></trkpt><trkpt lat="43.4331715" lon="10.6592855"><ele>177.25</ele><time>2026-04-19T14:44:08.166Z</time></trkpt><trkpt lat="43.4332369" lon="10.6594442"><ele>177.0</ele><time>2026-04-19T14:44:09.13Z</time></trkpt><trkpt lat="43.4333077" lon="10.6595847"><ele>177.0</ele><time>2026-04-19T14:44:10.15Z</time></trkpt><trkpt lat="43.4334065" lon="10.6596942"><ele>177.0</ele><time>2026-04-19T14:44:11.179Z</time></trkpt><trkpt lat="43.4335372" lon="10.6597601"><ele>177.0</ele><time>2026-04-19T14:44:12.135Z</time></trkpt><trkpt lat="43.4336914" lon="10.659799"><ele>177.0</ele><time>2026-04-19T14:44:13.133Z</time></trkpt><trkpt lat="43.4338601" lon="10.6598363"><ele>178.0</ele><time>2026-04-19T14:44:14.131Z</time></trkpt><trkpt lat="43.4340298" lon="10.6598754"><ele>179.0</ele><time>2026-04-19T14:44:15.137Z</time></trkpt><trkpt lat="43.4342047" lon="10.659921"><ele>180.0</ele><time>2026-04-19T14:44:16.136Z</time></trkpt><trkpt lat="43.4343757" lon="10.6599766"><ele>180.0</ele><time>2026-04-19T14:44:17.135Z</time></trkpt><trkpt lat="43.434542" lon="10.6600416"><ele>180.0</ele><time>2026-04-19T14:44:18.133Z</time></trkpt><trkpt lat="43.4347065" lon="10.6601182"><ele>180.0</ele><time>2026-04-19T14:44:19.138Z</time></trkpt><trkpt lat="43.4348672" lon="10.6602128"><ele>178.0</ele><time>2026-04-19T14:44:20.133Z</time></trkpt><trkpt lat="43.435027" lon="10.6603104"><ele>176.0</ele><time>2026-04-19T14:44:21.166Z</time></trkpt><trkpt lat="43.435189" lon="10.6604161"><ele>174.0</ele><time>2026-04-19T14:44:22.132Z</time></trkpt><trkpt lat="43.4353473" lon="10.6605318"><ele>175.0</ele><time>2026-04-19T14:44:23.142Z</time></trkpt><trkpt lat="43.4355013" lon="10.660651"><ele>176.0</ele><time>2026-04-19T14:44:24.131Z</time></trkpt><trkpt lat="43.4356521" lon="10.6607705"><ele>177.0</ele><time>2026-04-19T14:44:25.134Z</time></trkpt><trkpt lat="43.4358018" lon="10.6608868"><ele>177.0</ele><time>2026-04-19T14:44:26.131Z</time></trkpt><trkpt lat="43.4359484" lon="10.6609989"><ele>177.0</ele><time>2026-04-19T14:44:27.134Z</time></trkpt><trkpt lat="43.43609" lon="10.6611096"><ele>177.0</ele><time>2026-04-19T14:44:28.133Z</time></trkpt><trkpt lat="43.4362283" lon="10.6612214"><ele>175.33333333333334</ele><time>2026-04-19T14:44:29.164Z</time></trkpt><trkpt lat="43.4363672" lon="10.6613354"><ele>173.66666666666669</ele><time>2026-04-19T14:44:30.133Z</time></trkpt><trkpt lat="43.4365092" lon="10.6614453"><ele>172.0</ele><time>2026-04-19T14:44:31.129Z</time></trkpt><trkpt lat="43.4366517" lon="10.6615518"><ele>172.0</ele><time>2026-04-19T14:44:32.135Z</time></trkpt><trkpt lat="43.4367982" lon="10.6616509"><ele>172.0</ele><time>2026-04-19T14:44:33.129Z</time></trkpt><trkpt lat="43.436949" lon="10.6617396"><ele>172.0</ele><time>2026-04-19T14:44:34.135Z</time></trkpt><trkpt lat="43.4371069" lon="10.6618104"><ele>170.33333333333334</ele><time>2026-04-19T14:44:35.134Z</time></trkpt><trkpt lat="43.437269" lon="10.6618689"><ele>168.66666666666666</ele><time>2026-04-19T14:44:36.134Z</time></trkpt><trkpt lat="43.4374368" lon="10.6619211"><ele>167.0</ele><time>2026-04-19T14:44:37.129Z</time></trkpt><trkpt lat="43.437602" lon="10.6619748"><ele>167.0</ele><time>2026-04-19T14:44:38.135Z</time></trkpt><trkpt lat="43.4377672" lon="10.6620342"><ele>167.0</ele><time>2026-04-19T14:44:39.137Z</time></trkpt><trkpt lat="43.4379351" lon="10.6620951"><ele>167.0</ele><time>2026-04-19T14:44:40.164Z</time></trkpt><trkpt lat="43.4381032" lon="10.6621582"><ele>168.0</ele><time>2026-04-19T14:44:41.134Z</time></trkpt><trkpt lat="43.4382708" lon="10.6622177"><ele>169.0</ele><time>2026-04-19T14:44:42.129Z</time></trkpt><trkpt lat="43.4384367" lon="10.6622775"><ele>170.0</ele><time>2026-04-19T14:44:43.131Z</time></trkpt><trkpt lat="43.4385982" lon="10.6623389"><ele>170.0</ele><time>2026-04-19T14:44:44.136Z</time></trkpt><trkpt lat="43.4387486" lon="10.6624056"><ele>170.0</ele><time>2026-04-19T14:44:45.131Z</time></trkpt><trkpt lat="43.4388859" lon="10.6624921"><ele>170.0</ele><time>2026-04-19T14:44:46.141Z</time></trkpt><trkpt lat="43.4390113" lon="10.662606"><ele>169.66666666666666</ele><time>2026-04-19T14:44:47.133Z</time></trkpt><trkpt lat="43.4391323" lon="10.6627469"><ele>169.33333333333334</ele><time>2026-04-19T14:44:48.139Z</time></trkpt><trkpt lat="43.4392513" lon="10.6629058"><ele>169.0</ele><time>2026-04-19T14:44:49.16Z</time></trkpt><trkpt lat="43.4393701" lon="10.6630731"><ele>169.0</ele><time>2026-04-19T14:44:50.128Z</time></trkpt><trkpt lat="43.439492" lon="10.6632493"><ele>169.0</ele><time>2026-04-19T14:44:51.129Z</time></trkpt><trkpt lat="43.4396194" lon="10.6634283"><ele>169.0</ele><time>2026-04-19T14:44:52.13Z</time></trkpt><trkpt lat="43.4397484" lon="10.6636077"><ele>167.66666666666669</ele><time>2026-04-19T14:44:53.131Z</time></trkpt><trkpt lat="43.4398796" lon="10.6637889"><ele>166.33333333333334</ele><time>2026-04-19T14:44:54.131Z</time></trkpt><trkpt lat="43.4400113" lon="10.6639722"><ele>165.0</ele><time>2026-04-19T14:44:55.145Z</time></trkpt><trkpt lat="43.440144" lon="10.664153"><ele>165.0</ele><time>2026-04-19T14:44:56.13Z</time></trkpt><trkpt lat="43.440281" lon="10.6643238"><ele>165.0</ele><time>2026-04-19T14:44:57.133Z</time></trkpt><trkpt lat="43.4404275" lon="10.6644775"><ele>165.0</ele><time>2026-04-19T14:44:58.137Z</time></trkpt><trkpt lat="43.4405873" lon="10.664604"><ele>164.0</ele><time>2026-04-19T14:44:59.134Z</time></trkpt><trkpt lat="43.44076" lon="10.6646989"><ele>163.0</ele><time>2026-04-19T14:45:00.158Z</time></trkpt><trkpt lat="43.4409401" lon="10.6647713"><ele>162.0</ele><time>2026-04-19T14:45:01.14Z</time></trkpt><trkpt lat="43.4411243" lon="10.6648289"><ele>161.66666666666666</ele><time>2026-04-19T14:45:02.132Z</time></trkpt><trkpt lat="43.4413085" lon="10.6648787"><ele>161.33333333333331</ele><time>2026-04-19T14:45:03.134Z</time></trkpt><trkpt lat="43.4414913" lon="10.664927"><ele>161.0</ele><time>2026-04-19T14:45:04.137Z</time></trkpt><trkpt lat="43.4416669" lon="10.6649738"><ele>161.0</ele><time>2026-04-19T14:45:05.162Z</time></trkpt><trkpt lat="43.4418321" lon="10.6650195"><ele>161.0</ele><time>2026-04-19T14:45:06.132Z</time></trkpt><trkpt lat="43.4419854" lon="10.6650677"><ele>161.0</ele><time>2026-04-19T14:45:07.127Z</time></trkpt><trkpt lat="43.4421331" lon="10.6651193"><ele>162.0</ele><time>2026-04-19T14:45:08.132Z</time></trkpt><trkpt lat="43.4422809" lon="10.6651699"><ele>163.0</ele><time>2026-04-19T14:45:09.167Z</time></trkpt><trkpt lat="43.4424362" lon="10.6652142"><ele>164.0</ele><time>2026-04-19T14:45:10.137Z</time></trkpt><trkpt lat="43.442598" lon="10.6652546"><ele>162.33333333333331</ele><time>2026-04-19T14:45:11.164Z</time></trkpt><trkpt lat="43.4427669" lon="10.6653005"><ele>160.66666666666666</ele><time>2026-04-19T14:45:12.165Z</time></trkpt><trkpt lat="43.4429374" lon="10.6653532"><ele>159.0</ele><time>2026-04-19T14:45:13.136Z</time></trkpt><trkpt lat="43.4431088" lon="10.6654104"><ele>158.33333333333334</ele><time>2026-04-19T14:45:14.136Z</time></trkpt><trkpt lat="43.4432739" lon="10.6654685"><ele>157.66666666666669</ele><time>2026-04-19T14:45:15.131Z</time></trkpt><trkpt lat="43.4434407" lon="10.6655279"><ele>157.0</ele><time>2026-04-19T14:45:16.131Z</time></trkpt><trkpt lat="43.4436144" lon="10.665587"><ele>157.0</ele><time>2026-04-19T14:45:17.138Z</time></trkpt><trkpt lat="43.4437912" lon="10.6656508"><ele>157.0</ele><time>2026-04-19T14:45:18.136Z</time></trkpt><trkpt lat="43.4439708" lon="10.6657192"><ele>157.0</ele><time>2026-04-19T14:45:19.134Z</time></trkpt><trkpt lat="43.4441527" lon="10.665793"><ele>157.0</ele><time>2026-04-19T14:45:20.134Z</time></trkpt><trkpt lat="43.444338" lon="10.6658702"><ele>157.0</ele><time>2026-04-19T14:45:21.131Z</time></trkpt><trkpt lat="43.4445286" lon="10.6659481"><ele>157.0</ele><time>2026-04-19T14:45:22.133Z</time></trkpt><trkpt lat="43.4447211" lon="10.6660241"><ele>156.66666666666669</ele><time>2026-04-19T14:45:23.134Z</time></trkpt><trkpt lat="43.444913" lon="10.6661"><ele>156.33333333333334</ele><time>2026-04-19T14:45:24.131Z</time></trkpt><trkpt lat="43.4451033" lon="10.6661771"><ele>156.0</ele><time>2026-04-19T14:45:25.136Z</time></trkpt><trkpt lat="43.4452938" lon="10.6662539"><ele>155.0</ele><time>2026-04-19T14:45:26.136Z</time></trkpt><trkpt lat="43.4454823" lon="10.6663283"><ele>154.0</ele><time>2026-04-19T14:45:27.166Z</time></trkpt><trkpt lat="43.4456725" lon="10.666404"><ele>153.0</ele><time>2026-04-19T14:45:28.136Z</time></trkpt><trkpt lat="43.445863" lon="10.6664796"><ele>153.0</ele><time>2026-04-19T14:45:29.134Z</time></trkpt><trkpt lat="43.4460537" lon="10.6665556"><ele>153.0</ele><time>2026-04-19T14:45:30.136Z</time></trkpt><trkpt lat="43.446244" lon="10.6666328"><ele>153.0</ele><time>2026-04-19T14:45:31.135Z</time></trkpt><trkpt lat="43.4464339" lon="10.6667082"><ele>152.33333333333334</ele><time>2026-04-19T14:45:32.134Z</time></trkpt><trkpt lat="43.4466231" lon="10.6667836"><ele>151.66666666666669</ele><time>2026-04-19T14:45:33.14Z</time></trkpt><trkpt lat="43.446813" lon="10.6668611"><ele>151.0</ele><time>2026-04-19T14:45:34.128Z</time></trkpt><trkpt lat="43.4470038" lon="10.6669373"><ele>150.66666666666669</ele><time>2026-04-19T14:45:35.135Z</time></trkpt><trkpt lat="43.4471938" lon="10.667012"><ele>150.33333333333334</ele><time>2026-04-19T14:45:36.162Z</time></trkpt><trkpt lat="43.4473836" lon="10.667086"><ele>150.0</ele><time>2026-04-19T14:45:37.132Z</time></trkpt><trkpt lat="43.4475735" lon="10.6671616"><ele>150.0</ele><time>2026-04-19T14:45:38.164Z</time></trkpt><trkpt lat="43.4477619" lon="10.6672361"><ele>150.0</ele><time>2026-04-19T14:45:39.14Z</time></trkpt><trkpt lat="43.44795" lon="10.6673089"><ele>150.0</ele><time>2026-04-19T14:45:40.147Z</time></trkpt><trkpt lat="43.448139" lon="10.6673803"><ele>150.0</ele><time>2026-04-19T14:45:41.159Z</time></trkpt><trkpt lat="43.4483293" lon="10.6674518"><ele>150.0</ele><time>2026-04-19T14:45:42.131Z</time></trkpt><trkpt lat="43.4485204" lon="10.6675198"><ele>150.0</ele><time>2026-04-19T14:45:43.157Z</time></trkpt><trkpt lat="43.4487123" lon="10.667576"><ele>150.33333333333334</ele><time>2026-04-19T14:45:44.134Z</time></trkpt><trkpt lat="43.4489068" lon="10.6676145"><ele>150.66666666666669</ele><time>2026-04-19T14:45:45.144Z</time></trkpt><trkpt lat="43.4491028" lon="10.6676409"><ele>151.0</ele><time>2026-04-19T14:45:46.135Z</time></trkpt><trkpt lat="43.4492954" lon="10.6676499"><ele>151.0</ele><time>2026-04-19T14:45:47.148Z</time></trkpt><trkpt lat="43.4494807" lon="10.6676242"><ele>151.0</ele><time>2026-04-19T14:45:48.168Z</time></trkpt><trkpt lat="43.4496591" lon="10.6675624"><ele>151.0</ele><time>2026-04-19T14:45:49.171Z</time></trkpt><trkpt lat="43.4498316" lon="10.6674729"><ele>150.33333333333334</ele><time>2026-04-19T14:45:50.141Z</time></trkpt><trkpt lat="43.4499947" lon="10.6673783"><ele>149.66666666666666</ele><time>2026-04-19T14:45:51.139Z</time></trkpt><trkpt lat="43.4501472" lon="10.6672914"><ele>149.0</ele><time>2026-04-19T14:45:52.159Z</time></trkpt><trkpt lat="43.4502921" lon="10.6672227"><ele>149.0</ele><time>2026-04-19T14:45:53.135Z</time></trkpt><trkpt lat="43.4504383" lon="10.6671839"><ele>149.0</ele><time>2026-04-19T14:45:54.143Z</time></trkpt><trkpt lat="43.4505893" lon="10.6671811"><ele>149.0</ele><time>2026-04-19T14:45:55.169Z</time></trkpt><trkpt lat="43.4507522" lon="10.6672101"><ele>149.0</ele><time>2026-04-19T14:45:56.136Z</time></trkpt><trkpt lat="43.450924" lon="10.6672579"><ele>149.0</ele><time>2026-04-19T14:45:57.176Z</time></trkpt><trkpt lat="43.4511011" lon="10.6673012"><ele>149.0</ele><time>2026-04-19T14:45:58.138Z</time></trkpt><trkpt lat="43.4512823" lon="10.6673443"><ele>149.66666666666666</ele><time>2026-04-19T14:45:59.15Z</time></trkpt><trkpt lat="43.4514647" lon="10.6673908"><ele>150.33333333333334</ele><time>2026-04-19T14:46:00.133Z</time></trkpt><trkpt lat="43.4516487" lon="10.6674357"><ele>151.0</ele><time>2026-04-19T14:46:01.135Z</time></trkpt><trkpt lat="43.4518297" lon="10.6674776"><ele>151.0</ele><time>2026-04-19T14:46:02.149Z</time></trkpt><trkpt lat="43.4520096" lon="10.6675154"><ele>151.0</ele><time>2026-04-19T14:46:03.137Z</time></trkpt><trkpt lat="43.452192" lon="10.6675483"><ele>151.0</ele><time>2026-04-19T14:46:04.135Z</time></trkpt><trkpt lat="43.4523747" lon="10.6675708"><ele>150.33333333333334</ele><time>2026-04-19T14:46:05.145Z</time></trkpt><trkpt lat="43.4525581" lon="10.6675837"><ele>149.66666666666666</ele><time>2026-04-19T14:46:06.166Z</time></trkpt><trkpt lat="43.452742" lon="10.6675819"><ele>149.0</ele><time>2026-04-19T14:46:07.14Z</time></trkpt><trkpt lat="43.4529292" lon="10.6675767"><ele>148.66666666666666</ele><time>2026-04-19T14:46:08.145Z</time></trkpt><trkpt lat="43.4531175" lon="10.6675668"><ele>148.33333333333334</ele><time>2026-04-19T14:46:09.141Z</time></trkpt><trkpt lat="43.4533029" lon="10.6675603"><ele>148.0</ele><time>2026-04-19T14:46:10.134Z</time></trkpt><trkpt lat="43.453485" lon="10.6675673"><ele>148.0</ele><time>2026-04-19T14:46:11.138Z</time></trkpt><trkpt lat="43.4536655" lon="10.6675877"><ele>148.0</ele><time>2026-04-19T14:46:12.137Z</time></trkpt><trkpt lat="43.4538458" lon="10.6676174"><ele>148.0</ele><time>2026-04-19T14:46:13.134Z</time></trkpt><trkpt lat="43.4540255" lon="10.6676512"><ele>147.0</ele><time>2026-04-19T14:46:14.14Z</time></trkpt><trkpt lat="43.4542077" lon="10.6676888"><ele>146.0</ele><time>2026-04-19T14:46:15.135Z</time></trkpt><trkpt lat="43.4543923" lon="10.667728"><ele>145.0</ele><time>2026-04-19T14:46:16.146Z</time></trkpt><trkpt lat="43.4545778" lon="10.6677649"><ele>144.66666666666669</ele><time>2026-04-19T14:46:17.145Z</time></trkpt><trkpt lat="43.454764" lon="10.6678006"><ele>144.33333333333334</ele><time>2026-04-19T14:46:18.148Z</time></trkpt><trkpt lat="43.4549484" lon="10.6678365"><ele>144.0</ele><time>2026-04-19T14:46:19.141Z</time></trkpt><trkpt lat="43.4551292" lon="10.6678736"><ele>144.0</ele><time>2026-04-19T14:46:20.138Z</time></trkpt><trkpt lat="43.4553029" lon="10.6679064"><ele>144.0</ele><time>2026-04-19T14:46:21.153Z</time></trkpt><trkpt lat="43.4554716" lon="10.6679372"><ele>144.0</ele><time>2026-04-19T14:46:22.14Z</time></trkpt><trkpt lat="43.4556381" lon="10.6679758"><ele>143.66666666666666</ele><time>2026-04-19T14:46:23.177Z</time></trkpt><trkpt lat="43.4558071" lon="10.6680346"><ele>143.33333333333331</ele><time>2026-04-19T14:46:24.158Z</time></trkpt><trkpt lat="43.4559757" lon="10.668115"><ele>143.0</ele><time>2026-04-19T14:46:25.154Z</time></trkpt><trkpt lat="43.4561458" lon="10.6682164"><ele>142.66666666666666</ele><time>2026-04-19T14:46:26.142Z</time></trkpt><trkpt lat="43.456311" lon="10.6683332"><ele>142.33333333333334</ele><time>2026-04-19T14:46:27.154Z</time></trkpt><trkpt lat="43.4564724" lon="10.6684572"><ele>142.0</ele><time>2026-04-19T14:46:28.137Z</time></trkpt><trkpt lat="43.4566359" lon="10.6685754"><ele>141.66666666666669</ele><time>2026-04-19T14:46:29.136Z</time></trkpt><trkpt lat="43.4568036" lon="10.6686933"><ele>141.33333333333334</ele><time>2026-04-19T14:46:30.147Z</time></trkpt><trkpt lat="43.4569714" lon="10.6688132"><ele>141.0</ele><time>2026-04-19T14:46:31.149Z</time></trkpt><trkpt lat="43.4571414" lon="10.6689375"><ele>140.66666666666666</ele><time>2026-04-19T14:46:32.134Z</time></trkpt><trkpt lat="43.4573118" lon="10.6690647"><ele>140.33333333333331</ele><time>2026-04-19T14:46:33.142Z</time></trkpt><trkpt lat="43.4574831" lon="10.6691942"><ele>140.0</ele><time>2026-04-19T14:46:34.15Z</time></trkpt><trkpt lat="43.4576566" lon="10.6693241"><ele>139.66666666666666</ele><time>2026-04-19T14:46:35.136Z</time></trkpt><trkpt lat="43.4578309" lon="10.6694533"><ele>139.33333333333334</ele><time>2026-04-19T14:46:36.142Z</time></trkpt><trkpt lat="43.4580073" lon="10.6695827"><ele>139.0</ele><time>2026-04-19T14:46:37.18Z</time></trkpt><trkpt lat="43.4581847" lon="10.6697116"><ele>139.0</ele><time>2026-04-19T14:46:38.137Z</time></trkpt><trkpt lat="43.4583627" lon="10.6698411"><ele>139.0</ele><time>2026-04-19T14:46:39.14Z</time></trkpt><trkpt lat="43.4585415" lon="10.6699731"><ele>139.0</ele><time>2026-04-19T14:46:40.138Z</time></trkpt><trkpt lat="43.4587206" lon="10.6701062"><ele>139.66666666666669</ele><time>2026-04-19T14:46:41.147Z</time></trkpt><trkpt lat="43.4588992" lon="10.6702381"><ele>140.33333333333334</ele><time>2026-04-19T14:46:42.143Z</time></trkpt><trkpt lat="43.4590769" lon="10.6703686"><ele>141.0</ele><time>2026-04-19T14:46:43.139Z</time></trkpt><trkpt lat="43.4592549" lon="10.6704958"><ele>139.66666666666666</ele><time>2026-04-19T14:46:44.145Z</time></trkpt><trkpt lat="43.4594351" lon="10.6706223"><ele>138.33333333333331</ele><time>2026-04-19T14:46:45.169Z</time></trkpt><trkpt lat="43.4596162" lon="10.6707508"><ele>137.0</ele><time>2026-04-19T14:46:46.137Z</time></trkpt><trkpt lat="43.459799" lon="10.6708815"><ele>137.0</ele><time>2026-04-19T14:46:47.159Z</time></trkpt><trkpt lat="43.4599807" lon="10.6710141"><ele>137.0</ele><time>2026-04-19T14:46:48.131Z</time></trkpt><trkpt lat="43.4601641" lon="10.6711468"><ele>137.0</ele><time>2026-04-19T14:46:49.152Z</time></trkpt><trkpt lat="43.4603496" lon="10.6712815"><ele>135.33333333333331</ele><time>2026-04-19T14:46:50.167Z</time></trkpt><trkpt lat="43.4605356" lon="10.6714115"><ele>133.66666666666666</ele><time>2026-04-19T14:46:51.144Z</time></trkpt><trkpt lat="43.4607212" lon="10.6715403"><ele>132.0</ele><time>2026-04-19T14:46:52.136Z</time></trkpt><trkpt lat="43.4609061" lon="10.6716685"><ele>132.0</ele><time>2026-04-19T14:46:53.168Z</time></trkpt><trkpt lat="43.4610877" lon="10.6717984"><ele>132.0</ele><time>2026-04-19T14:46:54.137Z</time></trkpt><trkpt lat="43.4612669" lon="10.6719292"><ele>132.0</ele><time>2026-04-19T14:46:55.143Z</time></trkpt><trkpt lat="43.4614526" lon="10.6720603"><ele>131.66666666666666</ele><time>2026-04-19T14:46:56.149Z</time></trkpt><trkpt lat="43.4616379" lon="10.6721916"><ele>131.33333333333331</ele><time>2026-04-19T14:46:57.135Z</time></trkpt><trkpt lat="43.4618197" lon="10.6723229"><ele>131.0</ele><time>2026-04-19T14:46:58.135Z</time></trkpt><trkpt lat="43.4620015" lon="10.6724491"><ele>130.66666666666666</ele><time>2026-04-19T14:46:59.145Z</time></trkpt><trkpt lat="43.4621825" lon="10.6725755"><ele>130.33333333333334</ele><time>2026-04-19T14:47:00.149Z</time></trkpt><trkpt lat="43.4623632" lon="10.6727045"><ele>130.0</ele><time>2026-04-19T14:47:01.135Z</time></trkpt><trkpt lat="43.4625422" lon="10.6728344"><ele>130.0</ele><time>2026-04-19T14:47:02.147Z</time></trkpt><trkpt lat="43.4627216" lon="10.6729622"><ele>130.0</ele><time>2026-04-19T14:47:03.167Z</time></trkpt><trkpt lat="43.4629024" lon="10.6730923"><ele>130.0</ele><time>2026-04-19T14:47:04.139Z</time></trkpt><trkpt lat="43.4630827" lon="10.6732245"><ele>130.66666666666669</ele><time>2026-04-19T14:47:05.152Z</time></trkpt><trkpt lat="43.463264" lon="10.6733592"><ele>131.33333333333334</ele><time>2026-04-19T14:47:06.137Z</time></trkpt><trkpt lat="43.463446" lon="10.673493"><ele>132.0</ele><time>2026-04-19T14:47:07.132Z</time></trkpt><trkpt lat="43.46363" lon="10.6736252"><ele>130.66666666666666</ele><time>2026-04-19T14:47:08.144Z</time></trkpt><trkpt lat="43.4638155" lon="10.6737576"><ele>129.33333333333331</ele><time>2026-04-19T14:47:09.176Z</time></trkpt><trkpt lat="43.4640021" lon="10.6738894"><ele>128.0</ele><time>2026-04-19T14:47:10.135Z</time></trkpt><trkpt lat="43.4641888" lon="10.6740232"><ele>128.0</ele><time>2026-04-19T14:47:11.173Z</time></trkpt><trkpt lat="43.4643734" lon="10.6741642"><ele>128.0</ele><time>2026-04-19T14:47:12.15Z</time></trkpt><trkpt lat="43.4645541" lon="10.6743139"><ele>128.0</ele><time>2026-04-19T14:47:13.136Z</time></trkpt><trkpt lat="43.464729" lon="10.6744754"><ele>127.33333333333333</ele><time>2026-04-19T14:47:14.144Z</time></trkpt><trkpt lat="43.4648944" lon="10.6746551"><ele>126.66666666666666</ele><time>2026-04-19T14:47:15.143Z</time></trkpt><trkpt lat="43.4650477" lon="10.6748509"><ele>126.0</ele><time>2026-04-19T14:47:16.138Z</time></trkpt><trkpt lat="43.4651931" lon="10.6750615"><ele>125.66666666666666</ele><time>2026-04-19T14:47:17.147Z</time></trkpt><trkpt lat="43.4653258" lon="10.6752887"><ele>125.33333333333333</ele><time>2026-04-19T14:47:18.144Z</time></trkpt><trkpt lat="43.4654414" lon="10.6755263"><ele>125.0</ele><time>2026-04-19T14:47:19.135Z</time></trkpt><trkpt lat="43.465541" lon="10.6757842"><ele>126.0</ele><time>2026-04-19T14:47:20.172Z</time></trkpt><trkpt lat="43.4656311" lon="10.6760563"><ele>127.0</ele><time>2026-04-19T14:47:21.137Z</time></trkpt><trkpt lat="43.4657185" lon="10.6763316"><ele>128.0</ele><time>2026-04-19T14:47:22.139Z</time></trkpt><trkpt lat="43.4658092" lon="10.6766082"><ele>128.0</ele><time>2026-04-19T14:47:23.148Z</time></trkpt><trkpt lat="43.4659043" lon="10.6768862"><ele>128.0</ele><time>2026-04-19T14:47:24.146Z</time></trkpt><trkpt lat="43.4660032" lon="10.6771645"><ele>128.0</ele><time>2026-04-19T14:47:25.166Z</time></trkpt><trkpt lat="43.466105" lon="10.677441"><ele>128.33333333333331</ele><time>2026-04-19T14:47:26.14Z</time></trkpt><trkpt lat="43.4662024" lon="10.6777131"><ele>128.66666666666666</ele><time>2026-04-19T14:47:27.144Z</time></trkpt><trkpt lat="43.4662992" lon="10.6779773"><ele>129.0</ele><time>2026-04-19T14:47:28.178Z</time></trkpt><trkpt lat="43.4663966" lon="10.6782365"><ele>129.0</ele><time>2026-04-19T14:47:29.171Z</time></trkpt><trkpt lat="43.4664961" lon="10.6784931"><ele>129.0</ele><time>2026-04-19T14:47:30.148Z</time></trkpt><trkpt lat="43.4666003" lon="10.678743"><ele>129.0</ele><time>2026-04-19T14:47:31.166Z</time></trkpt><trkpt lat="43.4667126" lon="10.6789856"><ele>126.33333333333334</ele><time>2026-04-19T14:47:32.136Z</time></trkpt><trkpt lat="43.4668333" lon="10.6792216"><ele>123.66666666666667</ele><time>2026-04-19T14:47:33.149Z</time></trkpt><trkpt lat="43.4669654" lon="10.6794484"><ele>121.0</ele><time>2026-04-19T14:47:34.138Z</time></trkpt><trkpt lat="43.4671039" lon="10.6796708"><ele>121.0</ele><time>2026-04-19T14:47:35.154Z</time></trkpt><trkpt lat="43.4672486" lon="10.6798901"><ele>121.0</ele><time>2026-04-19T14:47:36.139Z</time></trkpt><trkpt lat="43.467392" lon="10.6801096"><ele>121.0</ele><time>2026-04-19T14:47:37.144Z</time></trkpt><trkpt lat="43.467531" lon="10.6803286"><ele>120.33333333333334</ele><time>2026-04-19T14:47:38.178Z</time></trkpt><trkpt lat="43.4676689" lon="10.6805463"><ele>119.66666666666666</ele><time>2026-04-19T14:47:39.143Z</time></trkpt><trkpt lat="43.4678033" lon="10.6807685"><ele>119.0</ele><time>2026-04-19T14:47:40.131Z</time></trkpt><trkpt lat="43.4679366" lon="10.6809909"><ele>121.33333333333333</ele><time>2026-04-19T14:47:41.149Z</time></trkpt><trkpt lat="43.4680681" lon="10.6812109"><ele>123.66666666666666</ele><time>2026-04-19T14:47:42.146Z</time></trkpt><trkpt lat="43.4681943" lon="10.6814259"><ele>126.0</ele><time>2026-04-19T14:47:43.137Z</time></trkpt><trkpt lat="43.4683156" lon="10.6816381"><ele>126.0</ele><time>2026-04-19T14:47:44.169Z</time></trkpt><trkpt lat="43.4684389" lon="10.6818451"><ele>126.0</ele><time>2026-04-19T14:47:45.167Z</time></trkpt><trkpt lat="43.4685581" lon="10.682038"><ele>126.0</ele><time>2026-04-19T14:47:46.14Z</time></trkpt><trkpt lat="43.468666" lon="10.6822226"><ele>124.66666666666666</ele><time>2026-04-19T14:47:47.139Z</time></trkpt><trkpt lat="43.4687573" lon="10.6824117"><ele>123.33333333333333</ele><time>2026-04-19T14:47:48.132Z</time></trkpt><trkpt lat="43.468822" lon="10.6826056"><ele>122.0</ele><time>2026-04-19T14:47:49.142Z</time></trkpt><trkpt lat="43.468854" lon="10.6828205"><ele>130.33333333333331</ele><time>2026-04-19T14:47:50.17Z</time></trkpt><trkpt lat="43.4688518" lon="10.6830511"><ele>138.66666666666666</ele><time>2026-04-19T14:47:51.169Z</time></trkpt><trkpt lat="43.4688165" lon="10.6832767"><ele>147.0</ele><time>2026-04-19T14:47:52.15Z</time></trkpt><trkpt lat="43.4687782" lon="10.6834894"><ele>142.33333333333334</ele><time>2026-04-19T14:47:53.134Z</time></trkpt><trkpt lat="43.4687546" lon="10.6836934"><ele>137.66666666666669</ele><time>2026-04-19T14:47:54.132Z</time></trkpt><trkpt lat="43.4687556" lon="10.683903"><ele>133.0</ele><time>2026-04-19T14:47:55.187Z</time></trkpt><trkpt lat="43.4687874" lon="10.6841108"><ele>133.0</ele><time>2026-04-19T14:47:56.141Z</time></trkpt><trkpt lat="43.4688602" lon="10.6843028"><ele>133.0</ele><time>2026-04-19T14:47:57.135Z</time></trkpt><trkpt lat="43.4689606" lon="10.684473"><ele>133.0</ele><time>2026-04-19T14:47:58.18Z</time></trkpt><trkpt lat="43.4691088" lon="10.6846005"><ele>127.66666666666667</ele><time>2026-04-19T14:47:59.138Z</time></trkpt><trkpt lat="43.4692712" lon="10.6847142"><ele>122.33333333333334</ele><time>2026-04-19T14:48:00.159Z</time></trkpt><trkpt lat="43.469428" lon="10.6848249"><ele>117.0</ele><time>2026-04-19T14:48:01.173Z</time></trkpt><trkpt lat="43.4695813" lon="10.6849432"><ele>115.66666666666666</ele><time>2026-04-19T14:48:02.136Z</time></trkpt><trkpt lat="43.4697377" lon="10.6850694"><ele>114.33333333333333</ele><time>2026-04-19T14:48:03.132Z</time></trkpt><trkpt lat="43.4698936" lon="10.6852144"><ele>113.0</ele><time>2026-04-19T14:48:04.147Z</time></trkpt><trkpt lat="43.4700488" lon="10.6853571"><ele>113.0</ele><time>2026-04-19T14:48:05.14Z</time></trkpt><trkpt lat="43.4702094" lon="10.6854853"><ele>113.0</ele><time>2026-04-19T14:48:06.133Z</time></trkpt><trkpt lat="43.470376" lon="10.6856031"><ele>113.0</ele><time>2026-04-19T14:48:07.138Z</time></trkpt><trkpt lat="43.4705494" lon="10.6857133"><ele>113.33333333333333</ele><time>2026-04-19T14:48:08.145Z</time></trkpt><trkpt lat="43.4707309" lon="10.6858178"><ele>113.66666666666666</ele><time>2026-04-19T14:48:09.148Z</time></trkpt><trkpt lat="43.4709115" lon="10.6859236"><ele>114.0</ele><time>2026-04-19T14:48:10.139Z</time></trkpt><trkpt lat="43.4710913" lon="10.6860369"><ele>113.66666666666666</ele><time>2026-04-19T14:48:11.143Z</time></trkpt><trkpt lat="43.471265" lon="10.6861652"><ele>113.33333333333333</ele><time>2026-04-19T14:48:12.179Z</time></trkpt><trkpt lat="43.4714276" lon="10.6863098"><ele>113.0</ele><time>2026-04-19T14:48:13.14Z</time></trkpt><trkpt lat="43.4715745" lon="10.6864764"><ele>113.0</ele><time>2026-04-19T14:48:14.137Z</time></trkpt><trkpt lat="43.4717109" lon="10.6866603"><ele>113.0</ele><time>2026-04-19T14:48:15.142Z</time></trkpt><trkpt lat="43.4718391" lon="10.6868585"><ele>113.0</ele><time>2026-04-19T14:48:16.149Z</time></trkpt><trkpt lat="43.4719589" lon="10.6870701"><ele>113.0</ele><time>2026-04-19T14:48:17.169Z</time></trkpt><trkpt lat="43.4720746" lon="10.6872928"><ele>113.0</ele><time>2026-04-19T14:48:18.146Z</time></trkpt><trkpt lat="43.4721859" lon="10.6875236"><ele>113.0</ele><time>2026-04-19T14:48:19.134Z</time></trkpt><trkpt lat="43.4722952" lon="10.6877594"><ele>112.0</ele><time>2026-04-19T14:48:20.151Z</time></trkpt><trkpt lat="43.4724038" lon="10.6879993"><ele>111.0</ele><time>2026-04-19T14:48:21.139Z</time></trkpt><trkpt lat="43.472509" lon="10.6882401"><ele>110.0</ele><time>2026-04-19T14:48:22.139Z</time></trkpt><trkpt lat="43.4726092" lon="10.6884842"><ele>109.33333333333333</ele><time>2026-04-19T14:48:23.151Z</time></trkpt><trkpt lat="43.4727081" lon="10.688733"><ele>108.66666666666666</ele><time>2026-04-19T14:48:24.14Z</time></trkpt><trkpt lat="43.4728067" lon="10.6889857"><ele>108.0</ele><time>2026-04-19T14:48:25.14Z</time></trkpt><trkpt lat="43.4729042" lon="10.6892383"><ele>109.33333333333334</ele><time>2026-04-19T14:48:26.147Z</time></trkpt><trkpt lat="43.473001" lon="10.6894898"><ele>110.66666666666667</ele><time>2026-04-19T14:48:27.165Z</time></trkpt><trkpt lat="43.4730967" lon="10.689742"><ele>112.0</ele><time>2026-04-19T14:48:28.135Z</time></trkpt><trkpt lat="43.4731938" lon="10.6899934"><ele>112.0</ele><time>2026-04-19T14:48:29.143Z</time></trkpt><trkpt lat="43.4732917" lon="10.690245"><ele>112.0</ele><time>2026-04-19T14:48:30.147Z</time></trkpt><trkpt lat="43.4733895" lon="10.6904972"><ele>112.0</ele><time>2026-04-19T14:48:31.137Z</time></trkpt><trkpt lat="43.4734879" lon="10.6907494"><ele>113.0</ele><time>2026-04-19T14:48:32.168Z</time></trkpt><trkpt lat="43.4735857" lon="10.6910017"><ele>114.0</ele><time>2026-04-19T14:48:33.152Z</time></trkpt><trkpt lat="43.473682" lon="10.6912548"><ele>115.0</ele><time>2026-04-19T14:48:34.15Z</time></trkpt><trkpt lat="43.4737781" lon="10.6915071"><ele>115.0</ele><time>2026-04-19T14:48:35.173Z</time></trkpt><trkpt lat="43.4738732" lon="10.691759"><ele>115.0</ele><time>2026-04-19T14:48:36.136Z</time></trkpt><trkpt lat="43.4739675" lon="10.6920096"><ele>115.0</ele><time>2026-04-19T14:48:37.143Z</time></trkpt><trkpt lat="43.4740606" lon="10.6922577"><ele>113.0</ele><time>2026-04-19T14:48:38.155Z</time></trkpt><trkpt lat="43.474154" lon="10.6925043"><ele>111.0</ele><time>2026-04-19T14:48:39.146Z</time></trkpt><trkpt lat="43.4742493" lon="10.6927487"><ele>109.0</ele><time>2026-04-19T14:48:40.141Z</time></trkpt><trkpt lat="43.4743448" lon="10.6929931"><ele>109.66666666666667</ele><time>2026-04-19T14:48:41.142Z</time></trkpt><trkpt lat="43.4744413" lon="10.6932386"><ele>110.33333333333334</ele><time>2026-04-19T14:48:42.169Z</time></trkpt><trkpt lat="43.4745366" lon="10.6934859"><ele>111.0</ele><time>2026-04-19T14:48:43.15Z</time></trkpt><trkpt lat="43.4746301" lon="10.6937344"><ele>111.0</ele><time>2026-04-19T14:48:44.166Z</time></trkpt><trkpt lat="43.474725" lon="10.6939813"><ele>111.0</ele><time>2026-04-19T14:48:45.178Z</time></trkpt><trkpt lat="43.4748215" lon="10.6942257"><ele>111.0</ele><time>2026-04-19T14:48:46.166Z</time></trkpt><trkpt lat="43.4749217" lon="10.6944652"><ele>108.66666666666666</ele><time>2026-04-19T14:48:47.138Z</time></trkpt><trkpt lat="43.4750308" lon="10.6946982"><ele>106.33333333333333</ele><time>2026-04-19T14:48:48.138Z</time></trkpt><trkpt lat="43.4751492" lon="10.6949234"><ele>104.0</ele><time>2026-04-19T14:48:49.143Z</time></trkpt><trkpt lat="43.4752768" lon="10.6951421"><ele>104.66666666666666</ele><time>2026-04-19T14:48:50.146Z</time></trkpt><trkpt lat="43.4754089" lon="10.6953608"><ele>105.33333333333334</ele><time>2026-04-19T14:48:51.136Z</time></trkpt><trkpt lat="43.4755418" lon="10.6955797"><ele>106.0</ele><time>2026-04-19T14:48:52.139Z</time></trkpt><trkpt lat="43.4756722" lon="10.6958001"><ele>106.0</ele><time>2026-04-19T14:48:53.148Z</time></trkpt><trkpt lat="43.4757984" lon="10.6960251"><ele>106.0</ele><time>2026-04-19T14:48:54.15Z</time></trkpt><trkpt lat="43.4759231" lon="10.6962518"><ele>106.0</ele><time>2026-04-19T14:48:55.137Z</time></trkpt><trkpt lat="43.4760474" lon="10.696479"><ele>104.66666666666667</ele><time>2026-04-19T14:48:56.135Z</time></trkpt><trkpt lat="43.4761717" lon="10.6967054"><ele>103.33333333333334</ele><time>2026-04-19T14:48:57.171Z</time></trkpt><trkpt lat="43.4763006" lon="10.6969256"><ele>102.0</ele><time>2026-04-19T14:48:58.138Z</time></trkpt><trkpt lat="43.4764355" lon="10.6971365"><ele>101.33333333333334</ele><time>2026-04-19T14:48:59.14Z</time></trkpt><trkpt lat="43.4765772" lon="10.6973393"><ele>100.66666666666667</ele><time>2026-04-19T14:49:00.137Z</time></trkpt><trkpt lat="43.4767245" lon="10.6975396"><ele>100.0</ele><time>2026-04-19T14:49:01.147Z</time></trkpt><trkpt lat="43.4768749" lon="10.6977369"><ele>99.0</ele><time>2026-04-19T14:49:02.148Z</time></trkpt><trkpt lat="43.4770286" lon="10.6979393"><ele>98.0</ele><time>2026-04-19T14:49:03.136Z</time></trkpt><trkpt lat="43.4771824" lon="10.6981407"><ele>97.0</ele><time>2026-04-19T14:49:04.14Z</time></trkpt><trkpt lat="43.4773389" lon="10.69834"><ele>96.66666666666667</ele><time>2026-04-19T14:49:05.171Z</time></trkpt><trkpt lat="43.477499" lon="10.6985381"><ele>96.33333333333334</ele><time>2026-04-19T14:49:06.164Z</time></trkpt><trkpt lat="43.477658" lon="10.6987351"><ele>96.0</ele><time>2026-04-19T14:49:07.137Z</time></trkpt><trkpt lat="43.477816" lon="10.6989318"><ele>96.0</ele><time>2026-04-19T14:49:08.149Z</time></trkpt><trkpt lat="43.477973" lon="10.6991284"><ele>96.0</ele><time>2026-04-19T14:49:09.17Z</time></trkpt><trkpt lat="43.4781289" lon="10.6993265"><ele>96.0</ele><time>2026-04-19T14:49:10.13Z</time></trkpt><trkpt lat="43.478284" lon="10.6995285"><ele>96.0</ele><time>2026-04-19T14:49:11.149Z</time></trkpt><trkpt lat="43.4784394" lon="10.6997329"><ele>96.0</ele><time>2026-04-19T14:49:12.15Z</time></trkpt><trkpt lat="43.4785979" lon="10.6999356"><ele>96.0</ele><time>2026-04-19T14:49:13.133Z</time></trkpt><trkpt lat="43.4787581" lon="10.7001356"><ele>95.0</ele><time>2026-04-19T14:49:14.169Z</time></trkpt><trkpt lat="43.4789189" lon="10.7003356"><ele>94.0</ele><time>2026-04-19T14:49:15.142Z</time></trkpt><trkpt lat="43.47908" lon="10.7005362"><ele>93.0</ele><time>2026-04-19T14:49:16.135Z</time></trkpt><trkpt lat="43.4792401" lon="10.7007388"><ele>93.0</ele><time>2026-04-19T14:49:17.137Z</time></trkpt><trkpt lat="43.4793956" lon="10.7009422"><ele>93.0</ele><time>2026-04-19T14:49:18.154Z</time></trkpt><trkpt lat="43.4795498" lon="10.7011442"><ele>93.0</ele><time>2026-04-19T14:49:19.15Z</time></trkpt><trkpt lat="43.4797041" lon="10.7013447"><ele>92.66666666666667</ele><time>2026-04-19T14:49:20.147Z</time></trkpt><trkpt lat="43.4798589" lon="10.7015423"><ele>92.33333333333334</ele><time>2026-04-19T14:49:21.15Z</time></trkpt><trkpt lat="43.4800148" lon="10.7017376"><ele>92.0</ele><time>2026-04-19T14:49:22.144Z</time></trkpt><trkpt lat="43.4801708" lon="10.7019326"><ele>91.33333333333334</ele><time>2026-04-19T14:49:23.142Z</time></trkpt><trkpt lat="43.4803257" lon="10.7021287"><ele>90.66666666666667</ele><time>2026-04-19T14:49:24.14Z</time></trkpt><trkpt lat="43.4804805" lon="10.7023259"><ele>90.0</ele><time>2026-04-19T14:49:25.139Z</time></trkpt><trkpt lat="43.4806359" lon="10.7025258"><ele>90.0</ele><time>2026-04-19T14:49:26.136Z</time></trkpt><trkpt lat="43.4807926" lon="10.7027239"><ele>90.0</ele><time>2026-04-19T14:49:27.139Z</time></trkpt><trkpt lat="43.4809488" lon="10.7029208"><ele>90.0</ele><time>2026-04-19T14:49:28.148Z</time></trkpt><trkpt lat="43.4810986" lon="10.7031162"><ele>90.0</ele><time>2026-04-19T14:49:29.183Z</time></trkpt><trkpt lat="43.4812493" lon="10.703316"><ele>90.0</ele><time>2026-04-19T14:49:30.143Z</time></trkpt><trkpt lat="43.4814074" lon="10.7035165"><ele>90.0</ele><time>2026-04-19T14:49:31.146Z</time></trkpt><trkpt lat="43.4815683" lon="10.7037147"><ele>90.0</ele><time>2026-04-19T14:49:32.16Z</time></trkpt><trkpt lat="43.4817276" lon="10.7039114"><ele>90.0</ele><time>2026-04-19T14:49:33.142Z</time></trkpt><trkpt lat="43.4818862" lon="10.7041112"><ele>90.0</ele><time>2026-04-19T14:49:34.133Z</time></trkpt><trkpt lat="43.4820449" lon="10.7043141"><ele>90.33333333333333</ele><time>2026-04-19T14:49:35.148Z</time></trkpt><trkpt lat="43.4822026" lon="10.7045149"><ele>90.66666666666666</ele><time>2026-04-19T14:49:36.173Z</time></trkpt><trkpt lat="43.4823588" lon="10.7047105"><ele>91.0</ele><time>2026-04-19T14:49:37.18Z</time></trkpt><trkpt lat="43.4825234" lon="10.7049029"><ele>91.0</ele><time>2026-04-19T14:49:38.141Z</time></trkpt><trkpt lat="43.4826844" lon="10.7050948"><ele>91.0</ele><time>2026-04-19T14:49:39.14Z</time></trkpt><trkpt lat="43.482833" lon="10.7052865"><ele>91.0</ele><time>2026-04-19T14:49:40.144Z</time></trkpt><trkpt lat="43.4829856" lon="10.705472"><ele>91.33333333333333</ele><time>2026-04-19T14:49:41.147Z</time></trkpt><trkpt lat="43.483146" lon="10.7056455"><ele>91.66666666666667</ele><time>2026-04-19T14:49:42.131Z</time></trkpt><trkpt lat="43.4833153" lon="10.7058031"><ele>92.0</ele><time>2026-04-19T14:49:43.147Z</time></trkpt><trkpt lat="43.4834888" lon="10.7059424"><ele>90.33333333333334</ele><time>2026-04-19T14:49:44.136Z</time></trkpt><trkpt lat="43.4836694" lon="10.7060784"><ele>88.66666666666667</ele><time>2026-04-19T14:49:45.14Z</time></trkpt><trkpt lat="43.48385" lon="10.7062131"><ele>87.0</ele><time>2026-04-19T14:49:46.152Z</time></trkpt><trkpt lat="43.4840332" lon="10.7063489"><ele>87.0</ele><time>2026-04-19T14:49:47.136Z</time></trkpt><trkpt lat="43.4842205" lon="10.7064859"><ele>87.0</ele><time>2026-04-19T14:49:48.142Z</time></trkpt><trkpt lat="43.4844097" lon="10.7066254"><ele>87.0</ele><time>2026-04-19T14:49:49.148Z</time></trkpt><trkpt lat="43.4846005" lon="10.7067659"><ele>87.0</ele><time>2026-04-19T14:49:50.135Z</time></trkpt><trkpt lat="43.4847894" lon="10.7069091"><ele>87.0</ele><time>2026-04-19T14:49:51.138Z</time></trkpt><trkpt lat="43.4849736" lon="10.707052"><ele>87.0</ele><time>2026-04-19T14:49:52.163Z</time></trkpt><trkpt lat="43.4851562" lon="10.7071968"><ele>87.0</ele><time>2026-04-19T14:49:53.139Z</time></trkpt><trkpt lat="43.4853396" lon="10.7073418"><ele>87.0</ele><time>2026-04-19T14:49:54.173Z</time></trkpt><trkpt lat="43.4855237" lon="10.7074822"><ele>87.0</ele><time>2026-04-19T14:49:55.134Z</time></trkpt><trkpt lat="43.4857088" lon="10.7076195"><ele>85.66666666666667</ele><time>2026-04-19T14:49:56.144Z</time></trkpt><trkpt lat="43.4858922" lon="10.7077571"><ele>84.33333333333334</ele><time>2026-04-19T14:49:57.149Z</time></trkpt><trkpt lat="43.4860711" lon="10.7078928"><ele>83.0</ele><time>2026-04-19T14:49:58.155Z</time></trkpt><trkpt lat="43.4862456" lon="10.7080274"><ele>83.66666666666667</ele><time>2026-04-19T14:49:59.144Z</time></trkpt><trkpt lat="43.4864208" lon="10.7081517"><ele>84.33333333333333</ele><time>2026-04-19T14:50:00.152Z</time></trkpt><trkpt lat="43.4866007" lon="10.7082543"><ele>85.0</ele><time>2026-04-19T14:50:01.134Z</time></trkpt><trkpt lat="43.4867871" lon="10.7083325"><ele>85.0</ele><time>2026-04-19T14:50:02.142Z</time></trkpt><trkpt lat="43.48698" lon="10.7083783"><ele>85.0</ele><time>2026-04-19T14:50:03.171Z</time></trkpt><trkpt lat="43.4871789" lon="10.7083944"><ele>85.0</ele><time>2026-04-19T14:50:04.134Z</time></trkpt><trkpt lat="43.4873805" lon="10.708388"><ele>84.66666666666666</ele><time>2026-04-19T14:50:05.128Z</time></trkpt><trkpt lat="43.4875828" lon="10.7083778"><ele>84.33333333333333</ele><time>2026-04-19T14:50:06.144Z</time></trkpt><trkpt lat="43.4877823" lon="10.7083678"><ele>84.0</ele><time>2026-04-19T14:50:07.139Z</time></trkpt><trkpt lat="43.4879773" lon="10.7083617"><ele>84.0</ele><time>2026-04-19T14:50:08.143Z</time></trkpt><trkpt lat="43.488168" lon="10.7083623"><ele>84.0</ele><time>2026-04-19T14:50:09.152Z</time></trkpt><trkpt lat="43.4883531" lon="10.7083713"><ele>84.0</ele><time>2026-04-19T14:50:10.132Z</time></trkpt><trkpt lat="43.4885316" lon="10.7083943"><ele>84.0</ele><time>2026-04-19T14:50:11.168Z</time></trkpt><trkpt lat="43.4887039" lon="10.7084341"><ele>84.0</ele><time>2026-04-19T14:50:12.18Z</time></trkpt><trkpt lat="43.488828" lon="10.7085129"><ele>84.0</ele><time>2026-04-19T14:50:13.154Z</time></trkpt><trkpt lat="43.4889984" lon="10.7086065"><ele>83.33333333333333</ele><time>2026-04-19T14:50:14.148Z</time></trkpt><trkpt lat="43.4891934" lon="10.7087149"><ele>82.66666666666666</ele><time>2026-04-19T14:50:15.136Z</time></trkpt><trkpt lat="43.4893864" lon="10.7088289"><ele>82.0</ele><time>2026-04-19T14:50:16.146Z</time></trkpt><trkpt lat="43.4895767" lon="10.7089419"><ele>82.33333333333333</ele><time>2026-04-19T14:50:17.141Z</time></trkpt><trkpt lat="43.4897673" lon="10.7090556"><ele>82.66666666666667</ele><time>2026-04-19T14:50:18.144Z</time></trkpt><trkpt lat="43.4899575" lon="10.7091698"><ele>83.0</ele><time>2026-04-19T14:50:19.142Z</time></trkpt><trkpt lat="43.4901458" lon="10.7092874"><ele>82.0</ele><time>2026-04-19T14:50:20.15Z</time></trkpt><trkpt lat="43.49033" lon="10.7094131"><ele>81.0</ele><time>2026-04-19T14:50:21.169Z</time></trkpt><trkpt lat="43.4905023" lon="10.7095453"><ele>80.0</ele><time>2026-04-19T14:50:22.142Z</time></trkpt><trkpt lat="43.4906764" lon="10.7096922"><ele>80.0</ele><time>2026-04-19T14:50:23.133Z</time></trkpt><trkpt lat="43.4908527" lon="10.7098456"><ele>80.0</ele><time>2026-04-19T14:50:24.149Z</time></trkpt><trkpt lat="43.4910219" lon="10.7100056"><ele>80.0</ele><time>2026-04-19T14:50:25.142Z</time></trkpt><trkpt lat="43.4911798" lon="10.7101792"><ele>80.33333333333334</ele><time>2026-04-19T14:50:26.145Z</time></trkpt><trkpt lat="43.4913049" lon="10.7103693"><ele>80.66666666666667</ele><time>2026-04-19T14:50:27.139Z</time></trkpt><trkpt lat="43.4914072" lon="10.710593"><ele>81.0</ele><time>2026-04-19T14:50:28.148Z</time></trkpt><trkpt lat="43.49152" lon="10.7108281"><ele>81.0</ele><time>2026-04-19T14:50:29.149Z</time></trkpt><trkpt lat="43.4916444" lon="10.7110709"><ele>81.0</ele><time>2026-04-19T14:50:30.148Z</time></trkpt><trkpt lat="43.491763" lon="10.7113122"><ele>81.0</ele><time>2026-04-19T14:50:31.148Z</time></trkpt><trkpt lat="43.4918805" lon="10.7115476"><ele>81.33333333333333</ele><time>2026-04-19T14:50:32.159Z</time></trkpt><trkpt lat="43.4919796" lon="10.7117723"><ele>81.66666666666666</ele><time>2026-04-19T14:50:33.132Z</time></trkpt><trkpt lat="43.4920924" lon="10.7120065"><ele>82.0</ele><time>2026-04-19T14:50:34.139Z</time></trkpt><trkpt lat="43.4922114" lon="10.7122316"><ele>82.0</ele><time>2026-04-19T14:50:35.144Z</time></trkpt><trkpt lat="43.4923323" lon="10.712443"><ele>82.0</ele><time>2026-04-19T14:50:36.152Z</time></trkpt><trkpt lat="43.4924643" lon="10.712622"><ele>82.0</ele><time>2026-04-19T14:50:37.14Z</time></trkpt><trkpt lat="43.4926182" lon="10.712802"><ele>81.66666666666666</ele><time>2026-04-19T14:50:38.144Z</time></trkpt><trkpt lat="43.492789" lon="10.7129881"><ele>81.33333333333333</ele><time>2026-04-19T14:50:39.15Z</time></trkpt><trkpt lat="43.4929524" lon="10.7131579"><ele>81.0</ele><time>2026-04-19T14:50:40.141Z</time></trkpt><trkpt lat="43.4931158" lon="10.7133258"><ele>81.0</ele><time>2026-04-19T14:50:41.14Z</time></trkpt><trkpt lat="43.4932803" lon="10.7134929"><ele>81.0</ele><time>2026-04-19T14:50:42.156Z</time></trkpt><trkpt lat="43.4934449" lon="10.7136561"><ele>81.0</ele><time>2026-04-19T14:50:43.15Z</time></trkpt><trkpt lat="43.4936124" lon="10.7138165"><ele>79.33333333333333</ele><time>2026-04-19T14:50:44.134Z</time></trkpt><trkpt lat="43.4937778" lon="10.7139452"><ele>77.66666666666666</ele><time>2026-04-19T14:50:45.136Z</time></trkpt><trkpt lat="43.4939535" lon="10.7140357"><ele>76.0</ele><time>2026-04-19T14:50:46.159Z</time></trkpt><trkpt lat="43.4941578" lon="10.714117"><ele>76.0</ele><time>2026-04-19T14:50:47.129Z</time></trkpt><trkpt lat="43.4943693" lon="10.7141888"><ele>76.0</ele><time>2026-04-19T14:50:48.134Z</time></trkpt><trkpt lat="43.4945687" lon="10.7142512"><ele>76.0</ele><time>2026-04-19T14:50:49.137Z</time></trkpt><trkpt lat="43.4947857" lon="10.7143083"><ele>77.0</ele><time>2026-04-19T14:50:50.138Z</time></trkpt><trkpt lat="43.4949747" lon="10.7143663"><ele>78.0</ele><time>2026-04-19T14:50:51.137Z</time></trkpt><trkpt lat="43.4951633" lon="10.7144258"><ele>79.0</ele><time>2026-04-19T14:50:52.149Z</time></trkpt><trkpt lat="43.4953511" lon="10.7144866"><ele>77.33333333333333</ele><time>2026-04-19T14:50:53.135Z</time></trkpt><trkpt lat="43.4955371" lon="10.7145589"><ele>75.66666666666667</ele><time>2026-04-19T14:50:54.135Z</time></trkpt><trkpt lat="43.4957035" lon="10.7146586"><ele>74.0</ele><time>2026-04-19T14:50:55.146Z</time></trkpt><trkpt lat="43.4958768" lon="10.7147861"><ele>74.0</ele><time>2026-04-19T14:50:56.141Z</time></trkpt><trkpt lat="43.4960428" lon="10.7149248"><ele>74.0</ele><time>2026-04-19T14:50:57.172Z</time></trkpt><trkpt lat="43.4962143" lon="10.7150666"><ele>74.0</ele><time>2026-04-19T14:50:58.134Z</time></trkpt><trkpt lat="43.4963945" lon="10.7152175"><ele>75.0</ele><time>2026-04-19T14:50:59.143Z</time></trkpt><trkpt lat="43.4965763" lon="10.7153748"><ele>76.0</ele><time>2026-04-19T14:51:00.159Z</time></trkpt><trkpt lat="43.4967464" lon="10.715522"><ele>77.0</ele><time>2026-04-19T14:51:01.139Z</time></trkpt><trkpt lat="43.4969257" lon="10.7156791"><ele>76.0</ele><time>2026-04-19T14:51:02.166Z</time></trkpt><trkpt lat="43.4970972" lon="10.7158266"><ele>75.0</ele><time>2026-04-19T14:51:03.147Z</time></trkpt><trkpt lat="43.4972752" lon="10.7159739"><ele>74.0</ele><time>2026-04-19T14:51:04.141Z</time></trkpt><trkpt lat="43.4974488" lon="10.7161208"><ele>74.0</ele><time>2026-04-19T14:51:05.158Z</time></trkpt><trkpt lat="43.4976192" lon="10.716285"><ele>74.0</ele><time>2026-04-19T14:51:06.141Z</time></trkpt><trkpt lat="43.4977718" lon="10.7164631"><ele>74.0</ele><time>2026-04-19T14:51:07.158Z</time></trkpt><trkpt lat="43.4979253" lon="10.7166501"><ele>73.66666666666667</ele><time>2026-04-19T14:51:08.152Z</time></trkpt><trkpt lat="43.4980755" lon="10.7168428"><ele>73.33333333333333</ele><time>2026-04-19T14:51:09.139Z</time></trkpt><trkpt lat="43.4982265" lon="10.7170337"><ele>73.0</ele><time>2026-04-19T14:51:10.16Z</time></trkpt><trkpt lat="43.4983644" lon="10.71722"><ele>73.0</ele><time>2026-04-19T14:51:11.14Z</time></trkpt><trkpt lat="43.4984898" lon="10.7174295"><ele>73.0</ele><time>2026-04-19T14:51:12.155Z</time></trkpt><trkpt lat="43.4985882" lon="10.717655"><ele>73.0</ele><time>2026-04-19T14:51:13.137Z</time></trkpt><trkpt lat="43.4986622" lon="10.7178915"><ele>72.0</ele><time>2026-04-19T14:51:14.132Z</time></trkpt><trkpt lat="43.4987215" lon="10.7181436"><ele>71.0</ele><time>2026-04-19T14:51:15.167Z</time></trkpt><trkpt lat="43.4987699" lon="10.7184065"><ele>70.0</ele><time>2026-04-19T14:51:16.142Z</time></trkpt><trkpt lat="43.4988017" lon="10.7186855"><ele>69.0</ele><time>2026-04-19T14:51:17.17Z</time></trkpt><trkpt lat="43.4988198" lon="10.7189398"><ele>68.0</ele><time>2026-04-19T14:51:18.142Z</time></trkpt><trkpt lat="43.4988516" lon="10.719233"><ele>67.0</ele><time>2026-04-19T14:51:19.172Z</time></trkpt><trkpt lat="43.4988729" lon="10.7194678"><ele>67.0</ele><time>2026-04-19T14:51:20.132Z</time></trkpt><trkpt lat="43.4988895" lon="10.7196865"><ele>67.0</ele><time>2026-04-19T14:51:21.151Z</time></trkpt><trkpt lat="43.4989023" lon="10.7198885"><ele>67.0</ele><time>2026-04-19T14:51:22.137Z</time></trkpt><trkpt lat="43.498917" lon="10.7200742"><ele>67.0</ele><time>2026-04-19T14:51:23.17Z</time></trkpt><trkpt lat="43.4989342" lon="10.7202434"><ele>66.8</ele><time>2026-04-19T14:51:24.145Z</time></trkpt><trkpt lat="43.4989501" lon="10.7204027"><ele>66.6</ele><time>2026-04-19T14:51:25.14Z</time></trkpt><trkpt lat="43.4989632" lon="10.720546"><ele>66.39999999999999</ele><time>2026-04-19T14:51:26.142Z</time></trkpt><trkpt lat="43.4989803" lon="10.7206894"><ele>66.2</ele><time>2026-04-19T14:51:27.152Z</time></trkpt><trkpt lat="43.499002" lon="10.7208095"><ele>66.0</ele><time>2026-04-19T14:51:28.139Z</time></trkpt><trkpt lat="43.4990203" lon="10.7209625"><ele>66.66666666666667</ele><time>2026-04-19T14:51:29.14Z</time></trkpt><trkpt lat="43.4990223" lon="10.7210787"><ele>67.33333333333333</ele><time>2026-04-19T14:51:30.15Z</time></trkpt><trkpt lat="43.4990087" lon="10.7211968"><ele>68.0</ele><time>2026-04-19T14:51:31.137Z</time></trkpt><trkpt lat="43.4990004" lon="10.7213174"><ele>68.66666666666666</ele><time>2026-04-19T14:51:32.134Z</time></trkpt><trkpt lat="43.4990263" lon="10.7214185"><ele>69.33333333333333</ele><time>2026-04-19T14:51:34.144Z</time></trkpt><trkpt lat="43.4990815" lon="10.7214711"><ele>70.0</ele><time>2026-04-19T14:51:36.139Z</time></trkpt><trkpt lat="43.499311" lon="10.7214228"><ele>70.0</ele><time>2026-04-19T14:51:39.145Z</time></trkpt><trkpt lat="43.4994542" lon="10.721399"><ele>70.0</ele><time>2026-04-19T14:51:40.187Z</time></trkpt><trkpt lat="43.4996269" lon="10.7213631"><ele>70.0</ele><time>2026-04-19T14:51:41.142Z</time></trkpt><trkpt lat="43.4997846" lon="10.7213346"><ele>69.5</ele><time>2026-04-19T14:51:42.141Z</time></trkpt><trkpt lat="43.4998978" lon="10.721313"><ele>69.0</ele><time>2026-04-19T14:51:43.156Z</time></trkpt><trkpt lat="43.5000147" lon="10.7212936"><ele>68.5</ele><time>2026-04-19T14:51:44.158Z</time></trkpt><trkpt lat="43.5001411" lon="10.721264"><ele>68.0</ele><time>2026-04-19T14:51:45.134Z</time></trkpt><trkpt lat="43.5002724" lon="10.7212208"><ele>68.0</ele><time>2026-04-19T14:51:46.151Z</time></trkpt><trkpt lat="43.500411" lon="10.7211753"><ele>68.0</ele><time>2026-04-19T14:51:47.141Z</time></trkpt><trkpt lat="43.5005385" lon="10.7211303"><ele>68.0</ele><time>2026-04-19T14:51:48.131Z</time></trkpt><trkpt lat="43.5006598" lon="10.7210863"><ele>68.0</ele><time>2026-04-19T14:51:49.139Z</time></trkpt><trkpt lat="43.5007795" lon="10.7210457"><ele>67.25</ele><time>2026-04-19T14:51:50.159Z</time></trkpt><trkpt lat="43.5008878" lon="10.7210073"><ele>66.5</ele><time>2026-04-19T14:51:51.139Z</time></trkpt><trkpt lat="43.5010072" lon="10.7209619"><ele>65.75</ele><time>2026-04-19T14:51:52.135Z</time></trkpt><trkpt lat="43.5011318" lon="10.7209134"><ele>65.0</ele><time>2026-04-19T14:51:53.145Z</time></trkpt><trkpt lat="43.5012624" lon="10.7208643"><ele>65.0</ele><time>2026-04-19T14:51:54.145Z</time></trkpt><trkpt lat="43.5013977" lon="10.7208152"><ele>65.0</ele><time>2026-04-19T14:51:55.155Z</time></trkpt><trkpt lat="43.501538" lon="10.7207666"><ele>65.0</ele><time>2026-04-19T14:51:56.137Z</time></trkpt><trkpt lat="43.5016785" lon="10.720716"><ele>65.0</ele><time>2026-04-19T14:51:57.142Z</time></trkpt><trkpt lat="43.5018279" lon="10.7206617"><ele>65.0</ele><time>2026-04-19T14:51:58.166Z</time></trkpt><trkpt lat="43.5019832" lon="10.7206048"><ele>65.0</ele><time>2026-04-19T14:51:59.141Z</time></trkpt><trkpt lat="43.5021484" lon="10.7205428"><ele>65.0</ele><time>2026-04-19T14:52:00.131Z</time></trkpt><trkpt lat="43.502322" lon="10.7204765"><ele>65.0</ele><time>2026-04-19T14:52:01.174Z</time></trkpt><trkpt lat="43.5024879" lon="10.7204155"><ele>65.0</ele><time>2026-04-19T14:52:02.129Z</time></trkpt><trkpt lat="43.5026592" lon="10.7203549"><ele>65.0</ele><time>2026-04-19T14:52:03.143Z</time></trkpt><trkpt lat="43.502831" lon="10.7202925"><ele>64.33333333333334</ele><time>2026-04-19T14:52:04.149Z</time></trkpt><trkpt lat="43.5030071" lon="10.7202273"><ele>63.66666666666667</ele><time>2026-04-19T14:52:05.179Z</time></trkpt><trkpt lat="43.5031745" lon="10.720166"><ele>63.0</ele><time>2026-04-19T14:52:06.149Z</time></trkpt><trkpt lat="43.5033566" lon="10.7201016"><ele>63.0</ele><time>2026-04-19T14:52:07.147Z</time></trkpt><trkpt lat="43.5035433" lon="10.7200352"><ele>63.0</ele><time>2026-04-19T14:52:08.153Z</time></trkpt><trkpt lat="43.5037364" lon="10.7199591"><ele>63.0</ele><time>2026-04-19T14:52:09.169Z</time></trkpt><trkpt lat="43.5039281" lon="10.7198801"><ele>63.0</ele><time>2026-04-19T14:52:10.148Z</time></trkpt><trkpt lat="43.5041306" lon="10.7198035"><ele>63.0</ele><time>2026-04-19T14:52:11.166Z</time></trkpt><trkpt lat="43.5043315" lon="10.7197384"><ele>63.0</ele><time>2026-04-19T14:52:12.137Z</time></trkpt><trkpt lat="43.5045396" lon="10.7196787"><ele>63.33333333333333</ele><time>2026-04-19T14:52:13.14Z</time></trkpt><trkpt lat="43.5047472" lon="10.7196155"><ele>63.666666666666664</ele><time>2026-04-19T14:52:14.139Z</time></trkpt><trkpt lat="43.5049565" lon="10.7195452"><ele>64.0</ele><time>2026-04-19T14:52:15.14Z</time></trkpt><trkpt lat="43.5051677" lon="10.7194717"><ele>64.0</ele><time>2026-04-19T14:52:16.149Z</time></trkpt><trkpt lat="43.5053777" lon="10.7193962"><ele>64.0</ele><time>2026-04-19T14:52:17.15Z</time></trkpt><trkpt lat="43.5055869" lon="10.7193226"><ele>64.0</ele><time>2026-04-19T14:52:18.142Z</time></trkpt><trkpt lat="43.5057987" lon="10.7192461"><ele>64.0</ele><time>2026-04-19T14:52:19.155Z</time></trkpt><trkpt lat="43.5060108" lon="10.7191671"><ele>64.0</ele><time>2026-04-19T14:52:20.138Z</time></trkpt><trkpt lat="43.5062225" lon="10.7190882"><ele>64.0</ele><time>2026-04-19T14:52:21.141Z</time></trkpt><trkpt lat="43.5064373" lon="10.7190088"><ele>63.0</ele><time>2026-04-19T14:52:22.151Z</time></trkpt><trkpt lat="43.5066485" lon="10.7189319"><ele>62.0</ele><time>2026-04-19T14:52:23.151Z</time></trkpt><trkpt lat="43.5068685" lon="10.7188523"><ele>61.0</ele><time>2026-04-19T14:52:24.167Z</time></trkpt><trkpt lat="43.5070809" lon="10.7187747"><ele>61.0</ele><time>2026-04-19T14:52:25.167Z</time></trkpt><trkpt lat="43.5072899" lon="10.7186978"><ele>61.0</ele><time>2026-04-19T14:52:26.151Z</time></trkpt><trkpt lat="43.5075064" lon="10.7186193"><ele>61.0</ele><time>2026-04-19T14:52:27.172Z</time></trkpt><trkpt lat="43.507713" lon="10.7185442"><ele>61.666666666666664</ele><time>2026-04-19T14:52:28.144Z</time></trkpt><trkpt lat="43.507922" lon="10.7184671"><ele>62.33333333333333</ele><time>2026-04-19T14:52:29.142Z</time></trkpt><trkpt lat="43.5081305" lon="10.7183917"><ele>63.0</ele><time>2026-04-19T14:52:30.142Z</time></trkpt><trkpt lat="43.5083395" lon="10.7183145"><ele>63.0</ele><time>2026-04-19T14:52:31.153Z</time></trkpt><trkpt lat="43.5085499" lon="10.7182394"><ele>63.0</ele><time>2026-04-19T14:52:32.136Z</time></trkpt><trkpt lat="43.508759" lon="10.718167"><ele>63.0</ele><time>2026-04-19T14:52:33.145Z</time></trkpt><trkpt lat="43.5089679" lon="10.7180961"><ele>63.0</ele><time>2026-04-19T14:52:34.136Z</time></trkpt><trkpt lat="43.509176" lon="10.7180226"><ele>63.0</ele><time>2026-04-19T14:52:35.144Z</time></trkpt><trkpt lat="43.5093867" lon="10.7179476"><ele>63.0</ele><time>2026-04-19T14:52:36.145Z</time></trkpt><trkpt lat="43.509596" lon="10.717871"><ele>63.33333333333333</ele><time>2026-04-19T14:52:37.141Z</time></trkpt><trkpt lat="43.5098056" lon="10.7177941"><ele>63.666666666666664</ele><time>2026-04-19T14:52:38.158Z</time></trkpt><trkpt lat="43.5100106" lon="10.7177347"><ele>64.0</ele><time>2026-04-19T14:52:39.138Z</time></trkpt><trkpt lat="43.5102241" lon="10.7176935"><ele>65.0</ele><time>2026-04-19T14:52:40.154Z</time></trkpt><trkpt lat="43.5104329" lon="10.7176687"><ele>66.0</ele><time>2026-04-19T14:52:41.14Z</time></trkpt><trkpt lat="43.5106487" lon="10.717647"><ele>67.0</ele><time>2026-04-19T14:52:42.143Z</time></trkpt><trkpt lat="43.5108682" lon="10.7176314"><ele>67.0</ele><time>2026-04-19T14:52:43.142Z</time></trkpt><trkpt lat="43.5110957" lon="10.7176212"><ele>67.0</ele><time>2026-04-19T14:52:44.145Z</time></trkpt><trkpt lat="43.5113194" lon="10.7176113"><ele>66.0</ele><time>2026-04-19T14:52:45.145Z</time></trkpt><trkpt lat="43.5115421" lon="10.7176007"><ele>65.0</ele><time>2026-04-19T14:52:46.142Z</time></trkpt><trkpt lat="43.511762" lon="10.7175847"><ele>64.0</ele><time>2026-04-19T14:52:47.142Z</time></trkpt><trkpt lat="43.5119776" lon="10.7175545"><ele>63.0</ele><time>2026-04-19T14:52:48.135Z</time></trkpt><trkpt lat="43.512195" lon="10.7175077"><ele>62.0</ele><time>2026-04-19T14:52:49.153Z</time></trkpt><trkpt lat="43.5124108" lon="10.7174511"><ele>61.0</ele><time>2026-04-19T14:52:50.146Z</time></trkpt><trkpt lat="43.5126297" lon="10.7173797"><ele>61.0</ele><time>2026-04-19T14:52:51.135Z</time></trkpt><trkpt lat="43.5128478" lon="10.7172951"><ele>61.0</ele><time>2026-04-19T14:52:52.156Z</time></trkpt><trkpt lat="43.513065" lon="10.717205"><ele>60.5</ele><time>2026-04-19T14:52:53.146Z</time></trkpt><trkpt lat="43.5132859" lon="10.7171136"><ele>60.0</ele><time>2026-04-19T14:52:54.163Z</time></trkpt><trkpt lat="43.5135025" lon="10.717027"><ele>60.0</ele><time>2026-04-19T14:52:55.135Z</time></trkpt><trkpt lat="43.513718" lon="10.7169377"><ele>60.0</ele><time>2026-04-19T14:52:56.14Z</time></trkpt><trkpt lat="43.5139331" lon="10.7168454"><ele>60.33333333333333</ele><time>2026-04-19T14:52:57.159Z</time></trkpt><trkpt lat="43.5141477" lon="10.7167544"><ele>60.666666666666664</ele><time>2026-04-19T14:52:58.133Z</time></trkpt><trkpt lat="43.514361" lon="10.7166642"><ele>61.0</ele><time>2026-04-19T14:52:59.16Z</time></trkpt><trkpt lat="43.5145705" lon="10.7165703"><ele>60.33333333333333</ele><time>2026-04-19T14:53:00.13Z</time></trkpt><trkpt lat="43.5147803" lon="10.7164686"><ele>59.66666666666667</ele><time>2026-04-19T14:53:01.152Z</time></trkpt><trkpt lat="43.5149902" lon="10.7163546"><ele>59.0</ele><time>2026-04-19T14:53:02.174Z</time></trkpt><trkpt lat="43.5151894" lon="10.7162323"><ele>59.0</ele><time>2026-04-19T14:53:03.166Z</time></trkpt><trkpt lat="43.5153861" lon="10.7160981"><ele>59.0</ele><time>2026-04-19T14:53:04.133Z</time></trkpt><trkpt lat="43.5155802" lon="10.715952"><ele>59.0</ele><time>2026-04-19T14:53:05.134Z</time></trkpt><trkpt lat="43.5157734" lon="10.7157971"><ele>59.0</ele><time>2026-04-19T14:53:06.152Z</time></trkpt><trkpt lat="43.5159602" lon="10.7156325"><ele>59.0</ele><time>2026-04-19T14:53:07.136Z</time></trkpt><trkpt lat="43.5161438" lon="10.715453"><ele>59.0</ele><time>2026-04-19T14:53:08.152Z</time></trkpt><trkpt lat="43.516323" lon="10.7152636"><ele>59.333333333333336</ele><time>2026-04-19T14:53:09.146Z</time></trkpt><trkpt lat="43.5164932" lon="10.7150668"><ele>59.66666666666667</ele><time>2026-04-19T14:53:10.136Z</time></trkpt><trkpt lat="43.5166587" lon="10.7148584"><ele>60.0</ele><time>2026-04-19T14:53:11.141Z</time></trkpt><trkpt lat="43.5168178" lon="10.7146503"><ele>60.0</ele><time>2026-04-19T14:53:12.145Z</time></trkpt><trkpt lat="43.5169719" lon="10.714433"><ele>60.0</ele><time>2026-04-19T14:53:13.141Z</time></trkpt><trkpt lat="43.5171192" lon="10.7142005"><ele>60.0</ele><time>2026-04-19T14:53:14.146Z</time></trkpt><trkpt lat="43.5172579" lon="10.7139619"><ele>59.0</ele><time>2026-04-19T14:53:15.14Z</time></trkpt><trkpt lat="43.5173899" lon="10.7137174"><ele>58.0</ele><time>2026-04-19T14:53:16.15Z</time></trkpt><trkpt lat="43.5175131" lon="10.7134754"><ele>57.0</ele><time>2026-04-19T14:53:17.147Z</time></trkpt><trkpt lat="43.5176241" lon="10.7132344"><ele>57.0</ele><time>2026-04-19T14:53:18.144Z</time></trkpt><trkpt lat="43.5177402" lon="10.7129859"><ele>57.0</ele><time>2026-04-19T14:53:19.155Z</time></trkpt><trkpt lat="43.5178643" lon="10.7127356"><ele>57.0</ele><time>2026-04-19T14:53:20.168Z</time></trkpt><trkpt lat="43.5179876" lon="10.7124985"><ele>57.0</ele><time>2026-04-19T14:53:21.141Z</time></trkpt><trkpt lat="43.5181118" lon="10.7122555"><ele>57.0</ele><time>2026-04-19T14:53:22.139Z</time></trkpt><trkpt lat="43.5182334" lon="10.7120082"><ele>57.0</ele><time>2026-04-19T14:53:23.143Z</time></trkpt><trkpt lat="43.5183539" lon="10.7117629"><ele>57.0</ele><time>2026-04-19T14:53:24.132Z</time></trkpt><trkpt lat="43.5184768" lon="10.7115193"><ele>57.0</ele><time>2026-04-19T14:53:25.143Z</time></trkpt><trkpt lat="43.5186013" lon="10.7112763"><ele>57.0</ele><time>2026-04-19T14:53:26.151Z</time></trkpt><trkpt lat="43.5187245" lon="10.7110377"><ele>56.33333333333333</ele><time>2026-04-19T14:53:27.144Z</time></trkpt><trkpt lat="43.5188482" lon="10.7107997"><ele>55.666666666666664</ele><time>2026-04-19T14:53:28.142Z</time></trkpt><trkpt lat="43.5189717" lon="10.7105619"><ele>55.0</ele><time>2026-04-19T14:53:29.17Z</time></trkpt><trkpt lat="43.5190897" lon="10.7103292"><ele>55.33333333333333</ele><time>2026-04-19T14:53:30.17Z</time></trkpt><trkpt lat="43.5192078" lon="10.7101023"><ele>55.66666666666667</ele><time>2026-04-19T14:53:31.145Z</time></trkpt><trkpt lat="43.5193332" lon="10.7098654"><ele>56.0</ele><time>2026-04-19T14:53:32.144Z</time></trkpt><trkpt lat="43.5194555" lon="10.7096352"><ele>56.66666666666667</ele><time>2026-04-19T14:53:33.136Z</time></trkpt><trkpt lat="43.5195768" lon="10.7094027"><ele>57.33333333333333</ele><time>2026-04-19T14:53:34.141Z</time></trkpt><trkpt lat="43.5196971" lon="10.7091704"><ele>58.0</ele><time>2026-04-19T14:53:35.17Z</time></trkpt><trkpt lat="43.519816" lon="10.7089462"><ele>58.0</ele><time>2026-04-19T14:53:36.147Z</time></trkpt><trkpt lat="43.5199384" lon="10.7087186"><ele>58.0</ele><time>2026-04-19T14:53:37.145Z</time></trkpt><trkpt lat="43.5200627" lon="10.7084928"><ele>58.0</ele><time>2026-04-19T14:53:38.158Z</time></trkpt><trkpt lat="43.5201912" lon="10.7082801"><ele>57.666666666666664</ele><time>2026-04-19T14:53:39.147Z</time></trkpt><trkpt lat="43.5203281" lon="10.7080652"><ele>57.33333333333333</ele><time>2026-04-19T14:53:40.154Z</time></trkpt><trkpt lat="43.5204755" lon="10.707862"><ele>57.0</ele><time>2026-04-19T14:53:41.164Z</time></trkpt><trkpt lat="43.5206237" lon="10.7076861"><ele>56.66666666666667</ele><time>2026-04-19T14:53:42.135Z</time></trkpt><trkpt lat="43.520782" lon="10.7075063"><ele>56.333333333333336</ele><time>2026-04-19T14:53:43.14Z</time></trkpt><trkpt lat="43.5209362" lon="10.7073301"><ele>56.0</ele><time>2026-04-19T14:53:44.152Z</time></trkpt><trkpt lat="43.5210859" lon="10.7071561"><ele>56.0</ele><time>2026-04-19T14:53:45.15Z</time></trkpt><trkpt lat="43.5212315" lon="10.7069845"><ele>56.0</ele><time>2026-04-19T14:53:46.143Z</time></trkpt><trkpt lat="43.5213773" lon="10.7068199"><ele>56.0</ele><time>2026-04-19T14:53:47.158Z</time></trkpt><trkpt lat="43.5215256" lon="10.7066682"><ele>56.333333333333336</ele><time>2026-04-19T14:53:48.158Z</time></trkpt><trkpt lat="43.5216743" lon="10.7065265"><ele>56.66666666666667</ele><time>2026-04-19T14:53:49.137Z</time></trkpt><trkpt lat="43.521827" lon="10.7063848"><ele>57.0</ele><time>2026-04-19T14:53:50.136Z</time></trkpt><trkpt lat="43.5219827" lon="10.7062449"><ele>57.0</ele><time>2026-04-19T14:53:51.142Z</time></trkpt><trkpt lat="43.522143" lon="10.7061029"><ele>57.0</ele><time>2026-04-19T14:53:52.139Z</time></trkpt><trkpt lat="43.5223052" lon="10.705962"><ele>57.0</ele><time>2026-04-19T14:53:53.133Z</time></trkpt><trkpt lat="43.5224682" lon="10.7058213"><ele>57.0</ele><time>2026-04-19T14:53:54.146Z</time></trkpt><trkpt lat="43.5226324" lon="10.705678"><ele>57.0</ele><time>2026-04-19T14:53:55.141Z</time></trkpt><trkpt lat="43.5227981" lon="10.705537"><ele>57.0</ele><time>2026-04-19T14:53:56.137Z</time></trkpt><trkpt lat="43.5229645" lon="10.7053931"><ele>56.66666666666667</ele><time>2026-04-19T14:53:57.139Z</time></trkpt><trkpt lat="43.5231272" lon="10.7052481"><ele>56.333333333333336</ele><time>2026-04-19T14:53:58.152Z</time></trkpt><trkpt lat="43.5232886" lon="10.7051039"><ele>56.0</ele><time>2026-04-19T14:53:59.136Z</time></trkpt><trkpt lat="43.5234519" lon="10.7049572"><ele>56.0</ele><time>2026-04-19T14:54:00.135Z</time></trkpt><trkpt lat="43.5236135" lon="10.7048098"><ele>56.0</ele><time>2026-04-19T14:54:01.147Z</time></trkpt><trkpt lat="43.523775" lon="10.7046636"><ele>56.0</ele><time>2026-04-19T14:54:02.136Z</time></trkpt><trkpt lat="43.5239341" lon="10.7045207"><ele>55.66666666666667</ele><time>2026-04-19T14:54:03.147Z</time></trkpt><trkpt lat="43.5240817" lon="10.7043866"><ele>55.33333333333333</ele><time>2026-04-19T14:54:04.137Z</time></trkpt><trkpt lat="43.5242219" lon="10.7042622"><ele>55.0</ele><time>2026-04-19T14:54:05.132Z</time></trkpt><trkpt lat="43.5243626" lon="10.7041402"><ele>55.0</ele><time>2026-04-19T14:54:06.156Z</time></trkpt><trkpt lat="43.5245025" lon="10.7040167"><ele>55.0</ele><time>2026-04-19T14:54:07.133Z</time></trkpt><trkpt lat="43.5246448" lon="10.7038926"><ele>55.0</ele><time>2026-04-19T14:54:08.133Z</time></trkpt><trkpt lat="43.5247866" lon="10.703774"><ele>54.33333333333333</ele><time>2026-04-19T14:54:09.156Z</time></trkpt><trkpt lat="43.5249244" lon="10.7036573"><ele>53.66666666666667</ele><time>2026-04-19T14:54:10.144Z</time></trkpt><trkpt lat="43.5250608" lon="10.7035408"><ele>53.0</ele><time>2026-04-19T14:54:11.144Z</time></trkpt><trkpt lat="43.5251928" lon="10.7034261"><ele>53.0</ele><time>2026-04-19T14:54:12.143Z</time></trkpt><trkpt lat="43.5253249" lon="10.7033114"><ele>53.0</ele><time>2026-04-19T14:54:13.195Z</time></trkpt><trkpt lat="43.5254444" lon="10.7032071"><ele>53.0</ele><time>2026-04-19T14:54:14.138Z</time></trkpt><trkpt lat="43.5255618" lon="10.7031032"><ele>53.0</ele><time>2026-04-19T14:54:15.137Z</time></trkpt><trkpt lat="43.5256716" lon="10.7030079"><ele>53.5</ele><time>2026-04-19T14:54:16.134Z</time></trkpt><trkpt lat="43.525773" lon="10.7029194"><ele>54.0</ele><time>2026-04-19T14:54:17.138Z</time></trkpt><trkpt lat="43.525867" lon="10.7028351"><ele>54.5</ele><time>2026-04-19T14:54:18.148Z</time></trkpt><trkpt lat="43.5259656" lon="10.7027463"><ele>55.0</ele><time>2026-04-19T14:54:19.141Z</time></trkpt><trkpt lat="43.5260735" lon="10.7026509"><ele>55.25</ele><time>2026-04-19T14:54:20.149Z</time></trkpt><trkpt lat="43.526191" lon="10.7025499"><ele>55.5</ele><time>2026-04-19T14:54:21.143Z</time></trkpt><trkpt lat="43.5263192" lon="10.7024432"><ele>55.75</ele><time>2026-04-19T14:54:22.144Z</time></trkpt><trkpt lat="43.5264634" lon="10.7023532"><ele>56.0</ele><time>2026-04-19T14:54:23.146Z</time></trkpt><trkpt lat="43.5266181" lon="10.7022908"><ele>56.0</ele><time>2026-04-19T14:54:24.152Z</time></trkpt><trkpt lat="43.526781" lon="10.7022547"><ele>56.0</ele><time>2026-04-19T14:54:25.155Z</time></trkpt><trkpt lat="43.5269565" lon="10.7022352"><ele>56.0</ele><time>2026-04-19T14:54:26.13Z</time></trkpt><trkpt lat="43.5271514" lon="10.7022208"><ele>56.0</ele><time>2026-04-19T14:54:27.129Z</time></trkpt><trkpt lat="43.5273476" lon="10.7022133"><ele>56.0</ele><time>2026-04-19T14:54:28.133Z</time></trkpt><trkpt lat="43.5275458" lon="10.7022092"><ele>56.0</ele><time>2026-04-19T14:54:29.132Z</time></trkpt><trkpt lat="43.5277396" lon="10.702206"><ele>56.66666666666667</ele><time>2026-04-19T14:54:30.143Z</time></trkpt><trkpt lat="43.5279352" lon="10.7022007"><ele>57.33333333333333</ele><time>2026-04-19T14:54:31.138Z</time></trkpt><trkpt lat="43.5281321" lon="10.7021974"><ele>58.0</ele><time>2026-04-19T14:54:32.139Z</time></trkpt><trkpt lat="43.5283233" lon="10.7021977"><ele>58.0</ele><time>2026-04-19T14:54:33.153Z</time></trkpt><trkpt lat="43.528518" lon="10.7021965"><ele>58.0</ele><time>2026-04-19T14:54:34.153Z</time></trkpt><trkpt lat="43.528708" lon="10.7021941"><ele>58.0</ele><time>2026-04-19T14:54:35.136Z</time></trkpt><trkpt lat="43.5289037" lon="10.7021899"><ele>57.0</ele><time>2026-04-19T14:54:36.134Z</time></trkpt><trkpt lat="43.5290987" lon="10.7021808"><ele>56.0</ele><time>2026-04-19T14:54:37.136Z</time></trkpt><trkpt lat="43.5292972" lon="10.7021644"><ele>55.0</ele><time>2026-04-19T14:54:38.142Z</time></trkpt><trkpt lat="43.5294976" lon="10.7021427"><ele>54.666666666666664</ele><time>2026-04-19T14:54:39.169Z</time></trkpt><trkpt lat="43.5296946" lon="10.702122"><ele>54.33333333333333</ele><time>2026-04-19T14:54:40.141Z</time></trkpt><trkpt lat="43.5298977" lon="10.7020992"><ele>54.0</ele><time>2026-04-19T14:54:41.144Z</time></trkpt><trkpt lat="43.5301009" lon="10.7020741"><ele>54.0</ele><time>2026-04-19T14:54:42.138Z</time></trkpt><trkpt lat="43.5303028" lon="10.7020485"><ele>54.0</ele><time>2026-04-19T14:54:43.149Z</time></trkpt><trkpt lat="43.5305044" lon="10.7020239"><ele>54.0</ele><time>2026-04-19T14:54:44.144Z</time></trkpt><trkpt lat="43.5307088" lon="10.7019959"><ele>54.33333333333333</ele><time>2026-04-19T14:54:45.137Z</time></trkpt><trkpt lat="43.5309106" lon="10.7019637"><ele>54.666666666666664</ele><time>2026-04-19T14:54:46.14Z</time></trkpt><trkpt lat="43.5311138" lon="10.7019303"><ele>55.0</ele><time>2026-04-19T14:54:47.14Z</time></trkpt><trkpt lat="43.5313184" lon="10.7018957"><ele>55.0</ele><time>2026-04-19T14:54:48.153Z</time></trkpt><trkpt lat="43.5315177" lon="10.7018607"><ele>55.0</ele><time>2026-04-19T14:54:49.148Z</time></trkpt><trkpt lat="43.5317152" lon="10.7018222"><ele>55.0</ele><time>2026-04-19T14:54:50.132Z</time></trkpt><trkpt lat="43.5319147" lon="10.701781"><ele>55.0</ele><time>2026-04-19T14:54:51.141Z</time></trkpt><trkpt lat="43.5321133" lon="10.701741"><ele>55.0</ele><time>2026-04-19T14:54:52.135Z</time></trkpt><trkpt lat="43.5323169" lon="10.7017031"><ele>55.0</ele><time>2026-04-19T14:54:53.138Z</time></trkpt><trkpt lat="43.532518" lon="10.7016662"><ele>55.0</ele><time>2026-04-19T14:54:54.159Z</time></trkpt><trkpt lat="43.5327163" lon="10.7016269"><ele>55.0</ele><time>2026-04-19T14:54:55.139Z</time></trkpt><trkpt lat="43.5329066" lon="10.7015853"><ele>55.0</ele><time>2026-04-19T14:54:56.135Z</time></trkpt><trkpt lat="43.5330924" lon="10.7015431"><ele>55.33333333333333</ele><time>2026-04-19T14:54:57.148Z</time></trkpt><trkpt lat="43.5332714" lon="10.701504"><ele>55.66666666666667</ele><time>2026-04-19T14:54:58.141Z</time></trkpt><trkpt lat="43.5334482" lon="10.7014673"><ele>56.0</ele><time>2026-04-19T14:54:59.137Z</time></trkpt><trkpt lat="43.5336271" lon="10.7014285"><ele>56.66666666666667</ele><time>2026-04-19T14:55:00.135Z</time></trkpt><trkpt lat="43.5338061" lon="10.7013856"><ele>57.33333333333333</ele><time>2026-04-19T14:55:01.163Z</time></trkpt><trkpt lat="43.5339796" lon="10.7013469"><ele>58.0</ele><time>2026-04-19T14:55:02.154Z</time></trkpt><trkpt lat="43.534147" lon="10.7013105"><ele>58.0</ele><time>2026-04-19T14:55:03.142Z</time></trkpt><trkpt lat="43.5343086" lon="10.7012771"><ele>58.0</ele><time>2026-04-19T14:55:04.135Z</time></trkpt><trkpt lat="43.5344673" lon="10.7012437"><ele>58.0</ele><time>2026-04-19T14:55:05.145Z</time></trkpt><trkpt lat="43.5346236" lon="10.7012073"><ele>57.75</ele><time>2026-04-19T14:55:06.136Z</time></trkpt><trkpt lat="43.5347776" lon="10.7011703"><ele>57.5</ele><time>2026-04-19T14:55:07.169Z</time></trkpt><trkpt lat="43.5349169" lon="10.7011385"><ele>57.25</ele><time>2026-04-19T14:55:08.146Z</time></trkpt><trkpt lat="43.5350521" lon="10.7011073"><ele>57.0</ele><time>2026-04-19T14:55:09.134Z</time></trkpt><trkpt lat="43.5351777" lon="10.7010788"><ele>57.0</ele><time>2026-04-19T14:55:10.136Z</time></trkpt><trkpt lat="43.535299" lon="10.7010517"><ele>57.0</ele><time>2026-04-19T14:55:11.168Z</time></trkpt><trkpt lat="43.5354194" lon="10.701026"><ele>57.0</ele><time>2026-04-19T14:55:12.132Z</time></trkpt><trkpt lat="43.5355461" lon="10.7009994"><ele>57.0</ele><time>2026-04-19T14:55:13.141Z</time></trkpt><trkpt lat="43.5356752" lon="10.7009731"><ele>57.0</ele><time>2026-04-19T14:55:14.145Z</time></trkpt><trkpt lat="43.535809" lon="10.7009462"><ele>57.0</ele><time>2026-04-19T14:55:15.144Z</time></trkpt><trkpt lat="43.5359503" lon="10.7009184"><ele>57.0</ele><time>2026-04-19T14:55:16.142Z</time></trkpt><trkpt lat="43.5360982" lon="10.7008907"><ele>57.0</ele><time>2026-04-19T14:55:17.15Z</time></trkpt><trkpt lat="43.5362408" lon="10.7008636"><ele>56.5</ele><time>2026-04-19T14:55:18.136Z</time></trkpt><trkpt lat="43.5363836" lon="10.7008349"><ele>56.0</ele><time>2026-04-19T14:55:19.138Z</time></trkpt><trkpt lat="43.53652" lon="10.7008084"><ele>55.5</ele><time>2026-04-19T14:55:20.137Z</time></trkpt><trkpt lat="43.5366545" lon="10.7007833"><ele>55.0</ele><time>2026-04-19T14:55:21.136Z</time></trkpt><trkpt lat="43.5367879" lon="10.7007578"><ele>55.0</ele><time>2026-04-19T14:55:22.139Z</time></trkpt><trkpt lat="43.5369202" lon="10.7007312"><ele>55.0</ele><time>2026-04-19T14:55:23.142Z</time></trkpt><trkpt lat="43.5370543" lon="10.700706"><ele>55.0</ele><time>2026-04-19T14:55:24.144Z</time></trkpt><trkpt lat="43.5371871" lon="10.7006829"><ele>55.0</ele><time>2026-04-19T14:55:25.138Z</time></trkpt><trkpt lat="43.5373218" lon="10.7006586"><ele>55.5</ele><time>2026-04-19T14:55:26.154Z</time></trkpt><trkpt lat="43.5374559" lon="10.700634"><ele>56.0</ele><time>2026-04-19T14:55:27.148Z</time></trkpt><trkpt lat="43.5375907" lon="10.7006099"><ele>56.5</ele><time>2026-04-19T14:55:28.143Z</time></trkpt><trkpt lat="43.5377318" lon="10.7005877"><ele>57.0</ele><time>2026-04-19T14:55:29.178Z</time></trkpt><trkpt lat="43.5378712" lon="10.7005669"><ele>57.0</ele><time>2026-04-19T14:55:30.14Z</time></trkpt><trkpt lat="43.5380138" lon="10.7005441"><ele>57.0</ele><time>2026-04-19T14:55:31.138Z</time></trkpt><trkpt lat="43.5381605" lon="10.7005231"><ele>57.0</ele><time>2026-04-19T14:55:32.157Z</time></trkpt><trkpt lat="43.5383116" lon="10.7005051"><ele>57.0</ele><time>2026-04-19T14:55:33.166Z</time></trkpt><trkpt lat="43.5384622" lon="10.7004849"><ele>57.0</ele><time>2026-04-19T14:55:34.14Z</time></trkpt><trkpt lat="43.5386192" lon="10.7004615"><ele>57.0</ele><time>2026-04-19T14:55:35.132Z</time></trkpt><trkpt lat="43.5387801" lon="10.7004408"><ele>57.0</ele><time>2026-04-19T14:55:36.142Z</time></trkpt><trkpt lat="43.5389377" lon="10.7004229"><ele>56.75</ele><time>2026-04-19T14:55:37.14Z</time></trkpt><trkpt lat="43.5390904" lon="10.700403"><ele>56.5</ele><time>2026-04-19T14:55:38.142Z</time></trkpt><trkpt lat="43.5392384" lon="10.7003849"><ele>56.25</ele><time>2026-04-19T14:55:39.179Z</time></trkpt><trkpt lat="43.5393817" lon="10.7003671"><ele>56.0</ele><time>2026-04-19T14:55:40.168Z</time></trkpt><trkpt lat="43.5395284" lon="10.7003491"><ele>56.25</ele><time>2026-04-19T14:55:41.183Z</time></trkpt><trkpt lat="43.5396728" lon="10.70033"><ele>56.5</ele><time>2026-04-19T14:55:42.137Z</time></trkpt><trkpt lat="43.5398203" lon="10.7003102"><ele>56.75</ele><time>2026-04-19T14:55:43.144Z</time></trkpt><trkpt lat="43.5399649" lon="10.7002928"><ele>57.0</ele><time>2026-04-19T14:55:44.143Z</time></trkpt><trkpt lat="43.5401087" lon="10.7002753"><ele>57.0</ele><time>2026-04-19T14:55:45.142Z</time></trkpt><trkpt lat="43.5402458" lon="10.7002581"><ele>57.0</ele><time>2026-04-19T14:55:46.143Z</time></trkpt><trkpt lat="43.5403749" lon="10.7002415"><ele>57.0</ele><time>2026-04-19T14:55:47.159Z</time></trkpt><trkpt lat="43.5405" lon="10.7002251"><ele>57.0</ele><time>2026-04-19T14:55:48.136Z</time></trkpt><trkpt lat="43.5406228" lon="10.7002106"><ele>57.25</ele><time>2026-04-19T14:55:49.143Z</time></trkpt><trkpt lat="43.5407435" lon="10.700197"><ele>57.5</ele><time>2026-04-19T14:55:50.139Z</time></trkpt><trkpt lat="43.5408565" lon="10.7001837"><ele>57.75</ele><time>2026-04-19T14:55:51.141Z</time></trkpt><trkpt lat="43.5409666" lon="10.7001673"><ele>58.0</ele><time>2026-04-19T14:55:52.144Z</time></trkpt><trkpt lat="43.5410734" lon="10.7001496"><ele>57.99999999999999</ele><time>2026-04-19T14:55:53.171Z</time></trkpt><trkpt lat="43.5411705" lon="10.7001342"><ele>58.0</ele><time>2026-04-19T14:55:54.142Z</time></trkpt><trkpt lat="43.541266" lon="10.7001182"><ele>58.0</ele><time>2026-04-19T14:55:55.173Z</time></trkpt><trkpt lat="43.5413544" lon="10.700105"><ele>58.0</ele><time>2026-04-19T14:55:56.133Z</time></trkpt><trkpt lat="43.5414377" lon="10.7000988"><ele>57.99999999999999</ele><time>2026-04-19T14:55:57.148Z</time></trkpt><trkpt lat="43.5415128" lon="10.7001069"><ele>58.0</ele><time>2026-04-19T14:55:58.134Z</time></trkpt><trkpt lat="43.5415822" lon="10.700131"><ele>57.599999999999994</ele><time>2026-04-19T14:55:59.187Z</time></trkpt><trkpt lat="43.5416805" lon="10.7002258"><ele>57.199999999999996</ele><time>2026-04-19T14:56:01.175Z</time></trkpt><trkpt lat="43.5417311" lon="10.7003926"><ele>56.8</ele><time>2026-04-19T14:56:03.168Z</time></trkpt><trkpt lat="43.5417441" lon="10.7005048"><ele>56.4</ele><time>2026-04-19T14:56:04.133Z</time></trkpt><trkpt lat="43.5417638" lon="10.7006426"><ele>56.0</ele><time>2026-04-19T14:56:05.142Z</time></trkpt><trkpt lat="43.5418004" lon="10.7008122"><ele>56.0</ele><time>2026-04-19T14:56:06.165Z</time></trkpt><trkpt lat="43.5418296" lon="10.7009856"><ele>56.0</ele><time>2026-04-19T14:56:07.148Z</time></trkpt><trkpt lat="43.5418567" lon="10.7011627"><ele>56.0</ele><time>2026-04-19T14:56:08.132Z</time></trkpt><trkpt lat="43.5418905" lon="10.7013466"><ele>56.0</ele><time>2026-04-19T14:56:09.136Z</time></trkpt><trkpt lat="43.5419235" lon="10.7015223"><ele>55.5</ele><time>2026-04-19T14:56:10.178Z</time></trkpt><trkpt lat="43.5419518" lon="10.7016898"><ele>55.0</ele><time>2026-04-19T14:56:11.128Z</time></trkpt><trkpt lat="43.5419783" lon="10.7018606"><ele>54.5</ele><time>2026-04-19T14:56:12.148Z</time></trkpt><trkpt lat="43.5420051" lon="10.702031"><ele>54.0</ele><time>2026-04-19T14:56:13.139Z</time></trkpt><trkpt lat="43.5420335" lon="10.7022033"><ele>54.0</ele><time>2026-04-19T14:56:14.193Z</time></trkpt><trkpt lat="43.5420601" lon="10.7023651"><ele>54.0</ele><time>2026-04-19T14:56:15.142Z</time></trkpt><trkpt lat="43.5420839" lon="10.702537"><ele>54.0</ele><time>2026-04-19T14:56:16.168Z</time></trkpt><trkpt lat="43.5421064" lon="10.7027006"><ele>54.0</ele><time>2026-04-19T14:56:17.134Z</time></trkpt><trkpt lat="43.5421312" lon="10.7028697"><ele>53.25</ele><time>2026-04-19T14:56:18.145Z</time></trkpt><trkpt lat="43.5421526" lon="10.7030367"><ele>52.5</ele><time>2026-04-19T14:56:19.141Z</time></trkpt><trkpt lat="43.5421713" lon="10.7032045"><ele>51.75</ele><time>2026-04-19T14:56:20.14Z</time></trkpt><trkpt lat="43.5421913" lon="10.7033706"><ele>51.0</ele><time>2026-04-19T14:56:21.15Z</time></trkpt><trkpt lat="43.5422114" lon="10.703532"><ele>51.0</ele><time>2026-04-19T14:56:22.15Z</time></trkpt><trkpt lat="43.5422317" lon="10.7036924"><ele>51.0</ele><time>2026-04-19T14:56:23.142Z</time></trkpt><trkpt lat="43.5422496" lon="10.7038492"><ele>51.0</ele><time>2026-04-19T14:56:24.144Z</time></trkpt><trkpt lat="43.5422665" lon="10.7040047"><ele>51.0</ele><time>2026-04-19T14:56:25.14Z</time></trkpt><trkpt lat="43.5422862" lon="10.7041625"><ele>51.0</ele><time>2026-04-19T14:56:26.143Z</time></trkpt><trkpt lat="43.5423047" lon="10.7043249"><ele>51.0</ele><time>2026-04-19T14:56:27.139Z</time></trkpt><trkpt lat="43.542326" lon="10.7044892"><ele>51.0</ele><time>2026-04-19T14:56:28.134Z</time></trkpt><trkpt lat="43.5423491" lon="10.7046604"><ele>51.0</ele><time>2026-04-19T14:56:29.135Z</time></trkpt><trkpt lat="43.5423687" lon="10.7048435"><ele>50.75</ele><time>2026-04-19T14:56:30.178Z</time></trkpt><trkpt lat="43.5423884" lon="10.7050172"><ele>50.5</ele><time>2026-04-19T14:56:31.14Z</time></trkpt><trkpt lat="43.5424104" lon="10.7051929"><ele>50.25</ele><time>2026-04-19T14:56:32.142Z</time></trkpt><trkpt lat="43.5424348" lon="10.7053659"><ele>50.0</ele><time>2026-04-19T14:56:33.16Z</time></trkpt><trkpt lat="43.5424568" lon="10.7055351"><ele>50.0</ele><time>2026-04-19T14:56:34.138Z</time></trkpt><trkpt lat="43.5424733" lon="10.7056983"><ele>50.0</ele><time>2026-04-19T14:56:35.134Z</time></trkpt><trkpt lat="43.5424924" lon="10.7058596"><ele>50.0</ele><time>2026-04-19T14:56:36.179Z</time></trkpt><trkpt lat="43.5425154" lon="10.7060111"><ele>50.0</ele><time>2026-04-19T14:56:37.147Z</time></trkpt><trkpt lat="43.5425371" lon="10.706172"><ele>50.25</ele><time>2026-04-19T14:56:38.171Z</time></trkpt><trkpt lat="43.5425581" lon="10.7063318"><ele>50.5</ele><time>2026-04-19T14:56:39.136Z</time></trkpt><trkpt lat="43.5425809" lon="10.7064986"><ele>50.75</ele><time>2026-04-19T14:56:40.179Z</time></trkpt><trkpt lat="43.5426067" lon="10.7066646"><ele>51.0</ele><time>2026-04-19T14:56:41.143Z</time></trkpt><trkpt lat="43.5426357" lon="10.7068412"><ele>50.5</ele><time>2026-04-19T14:56:42.169Z</time></trkpt><trkpt lat="43.54266" lon="10.707015"><ele>50.0</ele><time>2026-04-19T14:56:43.145Z</time></trkpt><trkpt lat="43.5426819" lon="10.7071934"><ele>49.5</ele><time>2026-04-19T14:56:44.137Z</time></trkpt><trkpt lat="43.5427073" lon="10.7073757"><ele>49.0</ele><time>2026-04-19T14:56:45.148Z</time></trkpt><trkpt lat="43.5427346" lon="10.7075656"><ele>48.75</ele><time>2026-04-19T14:56:46.169Z</time></trkpt><trkpt lat="43.5427623" lon="10.7077526"><ele>48.5</ele><time>2026-04-19T14:56:47.138Z</time></trkpt><trkpt lat="43.5427871" lon="10.7079425"><ele>48.25</ele><time>2026-04-19T14:56:48.142Z</time></trkpt><trkpt lat="43.5428112" lon="10.7081309"><ele>48.0</ele><time>2026-04-19T14:56:49.147Z</time></trkpt><trkpt lat="43.5428385" lon="10.7083142"><ele>48.0</ele><time>2026-04-19T14:56:50.183Z</time></trkpt><trkpt lat="43.5428654" lon="10.7084929"><ele>48.0</ele><time>2026-04-19T14:56:51.129Z</time></trkpt><trkpt lat="43.5428919" lon="10.7086807"><ele>48.0</ele><time>2026-04-19T14:56:52.157Z</time></trkpt><trkpt lat="43.5429169" lon="10.7088659"><ele>48.0</ele><time>2026-04-19T14:56:53.135Z</time></trkpt><trkpt lat="43.5429422" lon="10.7090544"><ele>48.0</ele><time>2026-04-19T14:56:54.133Z</time></trkpt><trkpt lat="43.5429658" lon="10.7092435"><ele>48.0</ele><time>2026-04-19T14:56:55.132Z</time></trkpt><trkpt lat="43.5429904" lon="10.7094384"><ele>48.0</ele><time>2026-04-19T14:56:56.167Z</time></trkpt><trkpt lat="43.5430168" lon="10.7096298"><ele>48.0</ele><time>2026-04-19T14:56:57.171Z</time></trkpt><trkpt lat="43.5430426" lon="10.7098207"><ele>48.0</ele><time>2026-04-19T14:56:58.134Z</time></trkpt><trkpt lat="43.5430629" lon="10.7100146"><ele>48.0</ele><time>2026-04-19T14:56:59.165Z</time></trkpt><trkpt lat="43.5430812" lon="10.7102011"><ele>48.0</ele><time>2026-04-19T14:57:00.133Z</time></trkpt><trkpt lat="43.5431052" lon="10.7103891"><ele>48.0</ele><time>2026-04-19T14:57:01.148Z</time></trkpt><trkpt lat="43.543131" lon="10.7105814"><ele>47.25</ele><time>2026-04-19T14:57:02.136Z</time></trkpt><trkpt lat="43.5431559" lon="10.7107744"><ele>46.5</ele><time>2026-04-19T14:57:03.136Z</time></trkpt><trkpt lat="43.5431815" lon="10.7109638"><ele>45.75</ele><time>2026-04-19T14:57:04.145Z</time></trkpt><trkpt lat="43.5432101" lon="10.7111543"><ele>45.0</ele><time>2026-04-19T14:57:05.148Z</time></trkpt><trkpt lat="43.5432413" lon="10.7113486"><ele>44.5</ele><time>2026-04-19T14:57:06.137Z</time></trkpt><trkpt lat="43.543271" lon="10.7115476"><ele>44.0</ele><time>2026-04-19T14:57:07.137Z</time></trkpt><trkpt lat="43.5433024" lon="10.7117468"><ele>43.5</ele><time>2026-04-19T14:57:08.14Z</time></trkpt><trkpt lat="43.5433347" lon="10.7119427"><ele>43.0</ele><time>2026-04-19T14:57:09.154Z</time></trkpt><trkpt lat="43.5433628" lon="10.7121241"><ele>43.0</ele><time>2026-04-19T14:57:10.14Z</time></trkpt><trkpt lat="43.5433902" lon="10.7123008"><ele>43.0</ele><time>2026-04-19T14:57:11.136Z</time></trkpt><trkpt lat="43.5434237" lon="10.7124819"><ele>43.0</ele><time>2026-04-19T14:57:12.143Z</time></trkpt><trkpt lat="43.5434508" lon="10.7126602"><ele>43.0</ele><time>2026-04-19T14:57:13.177Z</time></trkpt><trkpt lat="43.5434795" lon="10.7128353"><ele>42.75</ele><time>2026-04-19T14:57:14.162Z</time></trkpt><trkpt lat="43.5435105" lon="10.7130075"><ele>42.5</ele><time>2026-04-19T14:57:15.155Z</time></trkpt><trkpt lat="43.5435382" lon="10.7131893"><ele>42.25</ele><time>2026-04-19T14:57:16.146Z</time></trkpt><trkpt lat="43.5435674" lon="10.7133692"><ele>42.0</ele><time>2026-04-19T14:57:17.139Z</time></trkpt><trkpt lat="43.5435969" lon="10.7135526"><ele>41.75</ele><time>2026-04-19T14:57:18.132Z</time></trkpt><trkpt lat="43.5436239" lon="10.713729"><ele>41.5</ele><time>2026-04-19T14:57:19.147Z</time></trkpt><trkpt lat="43.5436517" lon="10.7138936"><ele>41.25</ele><time>2026-04-19T14:57:20.137Z</time></trkpt><trkpt lat="43.5436814" lon="10.7140573"><ele>41.0</ele><time>2026-04-19T14:57:21.172Z</time></trkpt><trkpt lat="43.5436977" lon="10.7142132"><ele>41.0</ele><time>2026-04-19T14:57:22.15Z</time></trkpt><trkpt lat="43.5437096" lon="10.7143609"><ele>41.0</ele><time>2026-04-19T14:57:23.132Z</time></trkpt><trkpt lat="43.5437255" lon="10.7144979"><ele>41.0</ele><time>2026-04-19T14:57:24.151Z</time></trkpt><trkpt lat="43.5437516" lon="10.7146084"><ele>41.0</ele><time>2026-04-19T14:57:25.17Z</time></trkpt><trkpt lat="43.5437924" lon="10.7147039"><ele>41.0</ele><time>2026-04-19T14:57:26.177Z</time></trkpt><trkpt lat="43.5438407" lon="10.7147838"><ele>41.0</ele><time>2026-04-19T14:57:27.157Z</time></trkpt><trkpt lat="43.5440549" lon="10.714825"><ele>45.33333333333333</ele><time>2026-04-19T14:57:30.143Z</time></trkpt><trkpt lat="43.5442084" lon="10.7148478"><ele>49.666666666666664</ele><time>2026-04-19T14:57:31.142Z</time></trkpt><trkpt lat="43.5443792" lon="10.7148718"><ele>54.0</ele><time>2026-04-19T14:57:32.136Z</time></trkpt><trkpt lat="43.544545" lon="10.7148763"><ele>55.0</ele><time>2026-04-19T14:57:33.142Z</time></trkpt><trkpt lat="43.5447102" lon="10.7148726"><ele>56.0</ele><time>2026-04-19T14:57:34.143Z</time></trkpt><trkpt lat="43.5448687" lon="10.7148812"><ele>57.0</ele><time>2026-04-19T14:57:35.146Z</time></trkpt><trkpt lat="43.5450208" lon="10.7148889"><ele>57.0</ele><time>2026-04-19T14:57:36.142Z</time></trkpt><trkpt lat="43.5451694" lon="10.7148753"><ele>57.0</ele><time>2026-04-19T14:57:37.187Z</time></trkpt><trkpt lat="43.5453061" lon="10.7148699"><ele>57.0</ele><time>2026-04-19T14:57:38.134Z</time></trkpt><trkpt lat="43.5454408" lon="10.7148702"><ele>57.0</ele><time>2026-04-19T14:57:39.13Z</time></trkpt><trkpt lat="43.545575" lon="10.7148725"><ele>57.0</ele><time>2026-04-19T14:57:40.142Z</time></trkpt><trkpt lat="43.5456967" lon="10.7148944"><ele>57.0</ele><time>2026-04-19T14:57:41.148Z</time></trkpt><trkpt lat="43.5456283" lon="10.7149124"><ele>57.0</ele><time>2026-04-19T14:57:42.147Z</time></trkpt><trkpt lat="43.5455588" lon="10.7149084"><ele>57.0</ele><time>2026-04-19T14:57:43.147Z</time></trkpt><trkpt lat="43.5458479" lon="10.7152713"><ele>60.0</ele><time>2026-04-19T14:57:46.154Z</time></trkpt><trkpt lat="43.5457721" lon="10.7153399"><ele>63.0</ele><time>2026-04-19T14:57:47.136Z</time></trkpt><trkpt lat="43.5456719" lon="10.7153951"><ele>66.0</ele><time>2026-04-19T14:57:48.136Z</time></trkpt><trkpt lat="43.5455601" lon="10.7154534"><ele>69.0</ele><time>2026-04-19T14:57:49.13Z</time></trkpt><trkpt lat="43.5454382" lon="10.7155227"><ele>68.25</ele><time>2026-04-19T14:57:50.131Z</time></trkpt><trkpt lat="43.5453038" lon="10.7155928"><ele>67.5</ele><time>2026-04-19T14:57:51.132Z</time></trkpt><trkpt lat="43.5451612" lon="10.7156611"><ele>66.75</ele><time>2026-04-19T14:57:52.137Z</time></trkpt><trkpt lat="43.5450313" lon="10.715725"><ele>66.0</ele><time>2026-04-19T14:57:53.166Z</time></trkpt><trkpt lat="43.5449232" lon="10.7157896"><ele>66.0</ele><time>2026-04-19T14:57:54.132Z</time></trkpt><trkpt lat="43.5448346" lon="10.7158578"><ele>66.0</ele><time>2026-04-19T14:57:55.134Z</time></trkpt><trkpt lat="43.5447763" lon="10.7159505"><ele>66.0</ele><time>2026-04-19T14:57:56.158Z</time></trkpt><trkpt lat="43.5447527" lon="10.7160679"><ele>66.0</ele><time>2026-04-19T14:57:57.133Z</time></trkpt><trkpt lat="43.5447665" lon="10.7161751"><ele>66.0</ele><time>2026-04-19T14:57:58.136Z</time></trkpt><trkpt lat="43.5448255" lon="10.7162478"><ele>66.0</ele><time>2026-04-19T14:57:59.13Z</time></trkpt><trkpt lat="43.5449218" lon="10.7162832"><ele>69.75</ele><time>2026-04-19T14:58:00.129Z</time></trkpt><trkpt lat="43.5450363" lon="10.7162963"><ele>73.5</ele><time>2026-04-19T14:58:01.131Z</time></trkpt><trkpt lat="43.5451514" lon="10.7163124"><ele>77.25</ele><time>2026-04-19T14:58:02.131Z</time></trkpt><trkpt lat="43.545279" lon="10.716331"><ele>81.0</ele><time>2026-04-19T14:58:03.137Z</time></trkpt><trkpt lat="43.545414" lon="10.7163533"><ele>81.5</ele><time>2026-04-19T14:58:04.131Z</time></trkpt><trkpt lat="43.5455437" lon="10.7163717"><ele>82.0</ele><time>2026-04-19T14:58:05.13Z</time></trkpt><trkpt lat="43.5456641" lon="10.7163913"><ele>82.5</ele><time>2026-04-19T14:58:06.131Z</time></trkpt><trkpt lat="43.545769" lon="10.7164261"><ele>83.0</ele><time>2026-04-19T14:58:07.129Z</time></trkpt><trkpt lat="43.5458461" lon="10.7164918"><ele>83.0</ele><time>2026-04-19T14:58:08.126Z</time></trkpt><trkpt lat="43.5458917" lon="10.7165837"><ele>83.0</ele><time>2026-04-19T14:58:09.137Z</time></trkpt><trkpt lat="43.5459069" lon="10.7166834"><ele>83.0</ele><time>2026-04-19T14:58:10.161Z</time></trkpt><trkpt lat="43.5458846" lon="10.716768"><ele>83.0</ele><time>2026-04-19T14:58:11.131Z</time></trkpt><trkpt lat="43.5458196" lon="10.7168283"><ele>83.0</ele><time>2026-04-19T14:58:12.128Z</time></trkpt><trkpt lat="43.5457252" lon="10.716858"><ele>83.0</ele><time>2026-04-19T14:58:13.158Z</time></trkpt><trkpt lat="43.545618" lon="10.7168814"><ele>85.0</ele><time>2026-04-19T14:58:14.13Z</time></trkpt><trkpt lat="43.5454974" lon="10.7169081"><ele>87.0</ele><time>2026-04-19T14:58:15.133Z</time></trkpt><trkpt lat="43.5453717" lon="10.7169388"><ele>89.0</ele><time>2026-04-19T14:58:16.127Z</time></trkpt><trkpt lat="43.5452423" lon="10.716972"><ele>91.0</ele><time>2026-04-19T14:58:17.133Z</time></trkpt><trkpt lat="43.5451081" lon="10.7170139"><ele>91.5</ele><time>2026-04-19T14:58:18.133Z</time></trkpt><trkpt lat="43.5449741" lon="10.7170521"><ele>92.0</ele><time>2026-04-19T14:58:19.131Z</time></trkpt><trkpt lat="43.5448418" lon="10.7170804"><ele>92.5</ele><time>2026-04-19T14:58:20.131Z</time></trkpt><trkpt lat="43.5447194" lon="10.7171075"><ele>93.0</ele><time>2026-04-19T14:58:21.145Z</time></trkpt><trkpt lat="43.5446056" lon="10.7171313"><ele>93.0</ele><time>2026-04-19T14:58:22.129Z</time></trkpt><trkpt lat="43.5445152" lon="10.7171611"><ele>93.0</ele><time>2026-04-19T14:58:23.164Z</time></trkpt><trkpt lat="43.5444568" lon="10.7172276"><ele>93.0</ele><time>2026-04-19T14:58:24.132Z</time></trkpt><trkpt lat="43.5444303" lon="10.7173243"><ele>93.0</ele><time>2026-04-19T14:58:25.163Z</time></trkpt><trkpt lat="43.5444477" lon="10.71742"><ele>93.0</ele><time>2026-04-19T14:58:26.135Z</time></trkpt><trkpt lat="43.5445104" lon="10.7174928"><ele>93.0</ele><time>2026-04-19T14:58:27.134Z</time></trkpt><trkpt lat="43.5446086" lon="10.7175293"><ele>93.0</ele><time>2026-04-19T14:58:28.134Z</time></trkpt><trkpt lat="43.5447155" lon="10.7175442"><ele>93.0</ele><time>2026-04-19T14:58:29.132Z</time></trkpt><trkpt lat="43.5448357" lon="10.7175618"><ele>93.0</ele><time>2026-04-19T14:58:30.133Z</time></trkpt><trkpt lat="43.5449677" lon="10.7175816"><ele>93.0</ele><time>2026-04-19T14:58:31.131Z</time></trkpt><trkpt lat="43.5451084" lon="10.7175992"><ele>93.0</ele><time>2026-04-19T14:58:32.13Z</time></trkpt><trkpt lat="43.5452436" lon="10.7176139"><ele>93.0</ele><time>2026-04-19T14:58:33.131Z</time></trkpt><trkpt lat="43.5453739" lon="10.7176199"><ele>93.0</ele><time>2026-04-19T14:58:34.128Z</time></trkpt><trkpt lat="43.545506" lon="10.7176313"><ele>93.0</ele><time>2026-04-19T14:58:35.129Z</time></trkpt><trkpt lat="43.5456355" lon="10.7176498"><ele>92.5</ele><time>2026-04-19T14:58:36.138Z</time></trkpt><trkpt lat="43.5457619" lon="10.7176746"><ele>92.0</ele><time>2026-04-19T14:58:37.127Z</time></trkpt><trkpt lat="43.5458797" lon="10.717689"><ele>91.5</ele><time>2026-04-19T14:58:38.159Z</time></trkpt><trkpt lat="43.5459903" lon="10.7177041"><ele>91.0</ele><time>2026-04-19T14:58:39.16Z</time></trkpt><trkpt lat="43.5460908" lon="10.7177456"><ele>93.0</ele><time>2026-04-19T14:58:40.133Z</time></trkpt><trkpt lat="43.5461754" lon="10.717809"><ele>95.0</ele><time>2026-04-19T14:58:41.129Z</time></trkpt><trkpt lat="43.5462448" lon="10.7179057"><ele>97.0</ele><time>2026-04-19T14:58:42.138Z</time></trkpt><trkpt lat="43.5462983" lon="10.7180328"><ele>99.0</ele><time>2026-04-19T14:58:43.129Z</time></trkpt><trkpt lat="43.5463396" lon="10.7181714"><ele>101.0</ele><time>2026-04-19T14:58:44.13Z</time></trkpt><trkpt lat="43.5463742" lon="10.7183183"><ele>101.19999999999999</ele><time>2026-04-19T14:58:45.129Z</time></trkpt><trkpt lat="43.5464091" lon="10.7184669"><ele>101.39999999999999</ele><time>2026-04-19T14:58:46.127Z</time></trkpt><trkpt lat="43.5464425" lon="10.7186113"><ele>101.6</ele><time>2026-04-19T14:58:47.13Z</time></trkpt><trkpt lat="43.5464722" lon="10.7187487"><ele>101.8</ele><time>2026-04-19T14:58:48.163Z</time></trkpt><trkpt lat="43.5465022" lon="10.7188654"><ele>102.0</ele><time>2026-04-19T14:58:49.166Z</time></trkpt><trkpt lat="43.5465278" lon="10.7189673"><ele>103.6</ele><time>2026-04-19T14:58:50.129Z</time></trkpt><trkpt lat="43.5465601" lon="10.7191081"><ele>105.19999999999999</ele><time>2026-04-19T14:58:52.161Z</time></trkpt><trkpt lat="43.5465559" lon="10.7192103"><ele>106.8</ele><time>2026-04-19T14:59:10.142Z</time></trkpt><trkpt lat="43.5464674" lon="10.7192911"><ele>108.4</ele><time>2026-04-19T14:59:12.146Z</time></trkpt><trkpt lat="43.546387" lon="10.7193389"><ele>110.0</ele><time>2026-04-19T14:59:13.149Z</time></trkpt><trkpt lat="43.5462918" lon="10.7193815"><ele>112.25</ele><time>2026-04-19T14:59:14.132Z</time></trkpt><trkpt lat="43.5461872" lon="10.719425"><ele>114.5</ele><time>2026-04-19T14:59:15.14Z</time></trkpt><trkpt lat="43.5460688" lon="10.7194736"><ele>116.75</ele><time>2026-04-19T14:59:16.134Z</time></trkpt><trkpt lat="43.5459421" lon="10.719531"><ele>119.0</ele><time>2026-04-19T14:59:17.134Z</time></trkpt><trkpt lat="43.5458082" lon="10.7195942"><ele>119.0</ele><time>2026-04-19T14:59:18.139Z</time></trkpt><trkpt lat="43.5456692" lon="10.7196509"><ele>119.0</ele><time>2026-04-19T14:59:19.14Z</time></trkpt><trkpt lat="43.5455376" lon="10.7197075"><ele>119.0</ele><time>2026-04-19T14:59:20.14Z</time></trkpt><trkpt lat="43.5454098" lon="10.7197799"><ele>119.0</ele><time>2026-04-19T14:59:21.13Z</time></trkpt><trkpt lat="43.5452973" lon="10.7198782"><ele>119.4</ele><time>2026-04-19T14:59:22.158Z</time></trkpt><trkpt lat="43.5452028" lon="10.7200002"><ele>119.80000000000001</ele><time>2026-04-19T14:59:23.126Z</time></trkpt><trkpt lat="43.5451265" lon="10.7201286"><ele>120.19999999999999</ele><time>2026-04-19T14:59:24.18Z</time></trkpt><trkpt lat="43.545067" lon="10.7202411"><ele>120.6</ele><time>2026-04-19T14:59:25.158Z</time></trkpt><trkpt lat="43.5450185" lon="10.720339"><ele>121.0</ele><time>2026-04-19T14:59:26.135Z</time></trkpt><trkpt lat="43.5449824" lon="10.720417"><ele>121.00000000000001</ele><time>2026-04-19T14:59:27.139Z</time></trkpt><trkpt lat="43.5449322" lon="10.7205112"><ele>121.0</ele><time>2026-04-19T14:59:29.162Z</time></trkpt><trkpt lat="43.544924" lon="10.7206004"><ele>121.0</ele><time>2026-04-19T14:59:31.132Z</time></trkpt><trkpt lat="43.5449977" lon="10.7206711"><ele>121.0</ele><time>2026-04-19T14:59:33.134Z</time></trkpt><trkpt lat="43.5450698" lon="10.7206889"><ele>121.00000000000001</ele><time>2026-04-19T14:59:34.129Z</time></trkpt><trkpt lat="43.5451637" lon="10.7207131"><ele>121.0</ele><time>2026-04-19T14:59:35.131Z</time></trkpt><trkpt lat="43.5452645" lon="10.7207444"><ele>121.00000000000001</ele><time>2026-04-19T14:59:36.131Z</time></trkpt><trkpt lat="43.5453598" lon="10.7207729"><ele>121.0</ele><time>2026-04-19T14:59:37.133Z</time></trkpt><trkpt lat="43.545449" lon="10.7208004"><ele>121.0</ele><time>2026-04-19T14:59:38.132Z</time></trkpt><trkpt lat="43.5455222" lon="10.7208349"><ele>121.0</ele><time>2026-04-19T14:59:39.13Z</time></trkpt><trkpt lat="43.5455885" lon="10.7208772"><ele>121.00000000000001</ele><time>2026-04-19T14:59:40.138Z</time></trkpt><trkpt lat="43.5456491" lon="10.7209283"><ele>121.0</ele><time>2026-04-19T14:59:41.133Z</time></trkpt><trkpt lat="43.5457075" lon="10.7209782"><ele>120.33333333333334</ele><time>2026-04-19T14:59:42.142Z</time></trkpt><trkpt lat="43.5457613" lon="10.7210713"><ele>119.66666666666667</ele><time>2026-04-19T14:59:44.131Z</time></trkpt><trkpt lat="43.5457795" lon="10.7211652"><ele>119.0</ele><time>2026-04-19T14:59:46.135Z</time></trkpt><trkpt lat="43.5457132" lon="10.7212105"><ele>118.33333333333334</ele><time>2026-04-19T14:59:48.13Z</time></trkpt><trkpt lat="43.5456377" lon="10.7212379"><ele>117.66666666666667</ele><time>2026-04-19T14:59:49.17Z</time></trkpt><trkpt lat="43.5455342" lon="10.7212801"><ele>117.0</ele><time>2026-04-19T14:59:50.132Z</time></trkpt><trkpt lat="43.5454199" lon="10.721336"><ele>117.75</ele><time>2026-04-19T14:59:51.131Z</time></trkpt><trkpt lat="43.5453059" lon="10.7213971"><ele>118.5</ele><time>2026-04-19T14:59:52.136Z</time></trkpt><trkpt lat="43.5451942" lon="10.7214606"><ele>119.25</ele><time>2026-04-19T14:59:53.127Z</time></trkpt><trkpt lat="43.5450828" lon="10.7215073"><ele>120.0</ele><time>2026-04-19T14:59:54.126Z</time></trkpt><trkpt lat="43.5449729" lon="10.7215424"><ele>120.0</ele><time>2026-04-19T14:59:55.13Z</time></trkpt><trkpt lat="43.5448602" lon="10.721583"><ele>120.0</ele><time>2026-04-19T14:59:56.129Z</time></trkpt><trkpt lat="43.5447567" lon="10.7216349"><ele>120.0</ele><time>2026-04-19T14:59:57.129Z</time></trkpt><trkpt lat="43.5446679" lon="10.7217072"><ele>120.0</ele><time>2026-04-19T14:59:58.164Z</time></trkpt><trkpt lat="43.5445984" lon="10.7217942"><ele>120.0</ele><time>2026-04-19T14:59:59.132Z</time></trkpt><trkpt lat="43.5445396" lon="10.7218761"><ele>120.33333333333333</ele><time>2026-04-19T15:00:00.15Z</time></trkpt><trkpt lat="43.5444899" lon="10.7219618"><ele>120.66666666666666</ele><time>2026-04-19T15:00:01.125Z</time></trkpt><trkpt lat="43.5444441" lon="10.7220562"><ele>121.0</ele><time>2026-04-19T15:00:02.134Z</time></trkpt><trkpt lat="43.544391" lon="10.7221577"><ele>121.33333333333333</ele><time>2026-04-19T15:00:03.131Z</time></trkpt><trkpt lat="43.5443296" lon="10.7222485"><ele>121.66666666666666</ele><time>2026-04-19T15:00:04.126Z</time></trkpt><trkpt lat="43.5442691" lon="10.7223421"><ele>122.0</ele><time>2026-04-19T15:00:05.13Z</time></trkpt><trkpt lat="43.5442258" lon="10.7224548"><ele>121.99999999999999</ele><time>2026-04-19T15:00:06.163Z</time></trkpt><trkpt lat="43.5441944" lon="10.7225656"><ele>122.0</ele><time>2026-04-19T15:00:07.133Z</time></trkpt><trkpt lat="43.5441682" lon="10.7226599"><ele>122.0</ele><time>2026-04-19T15:00:08.129Z</time></trkpt><trkpt lat="43.5441396" lon="10.7227645"><ele>122.0</ele><time>2026-04-19T15:00:10.132Z</time></trkpt><trkpt lat="43.5441429" lon="10.7228666"><ele>121.99999999999999</ele><time>2026-04-19T15:00:13.164Z</time></trkpt><trkpt lat="43.5441891" lon="10.7229467"><ele>122.0</ele><time>2026-04-19T15:00:16.131Z</time></trkpt><trkpt lat="43.544245" lon="10.7230108"><ele>117.0</ele><time>2026-04-19T15:00:21.161Z</time></trkpt><trkpt lat="43.5442031" lon="10.7229251"><ele>117.0</ele><time>2026-04-19T15:00:56.13Z</time></trkpt><trkpt lat="43.5441518" lon="10.722874"><ele>117.0</ele><time>2026-04-19T15:00:59.131Z</time></trkpt><trkpt lat="43.5441147" lon="10.7227651"><ele>117.0</ele><time>2026-04-19T15:01:36.164Z</time></trkpt><trkpt lat="43.5441244" lon="10.7228629"><ele>117.0</ele><time>2026-04-19T15:01:40.161Z</time></trkpt><trkpt lat="43.544182" lon="10.7229322"><ele>117.0</ele><time>2026-04-19T15:01:42.131Z</time></trkpt><trkpt lat="43.5442326" lon="10.7229854"><ele>117.0</ele><time>2026-04-19T15:01:44.131Z</time></trkpt></trkseg></trk></gpx>